<?xml version="1.0" encoding="UTF-8" standalone="no" ?>
<gpx xmlns="http://www.topografix.com/GPX/1/1" xmlns:xsi="http://www.w3.org/2001/XMLSchema-instance" xsi:schemaLocation="http://www.topografix.com/GPX/1/1 http://www.topografix.com/GPX/1/1/gpx.xsd" version="1.1" creator="VisuGPX - https://www.visugpx.com">
  <metadata>
    <name>2020-09-27 Les étangs de Fontargente</name>
    <desc><![CDATA[Il a plu en plaine tout Samedi, et en altitude, ça a donné de la neige. C'est vraiment tôt! On n'est même pas en Octobre! et de la neige, pas qu'un peu il en est tombé. Au moins 40cm. Nous n'avons pas pu accéder au parking avec le fourgon, ce qui explique les 2 km de plus: La route était gelée et nous n'avons pas passé la côte. Nous nous sommes garés en bord de route.Nous avons rallié le parking à pieds et montés aux étangs en suivant une trace fraîche de quelques minutes. Beau temps pour la montée, mais en haut, du vent, froid et puissant. Il soulevait des nuages de neige. Là dessus, le lac un peu noir fait un effet terrible sur les photos, surmonté de nuages lenticulaires qui indique les courants tourbillonants.
Galère sur la descente où nous n'avions plus de trace et où le chemin avait disparu sous la neige. Au secours le GPS, et nous avons mis beaucoup de temps, dans le vent et les trous (on a failli péter un plomb à la 250e fois qu'on s'est enfoncé dans une congères jusqu'à l'aine). On a quand même été contents du résultats, et maintenant j'ai des courbatures et un beau coup de soleil sur la figure.]]></desc>
  </metadata>
  <trk>
    <name><![CDATA[2020-09-27 16:54:19]]></name>
    <trkseg>
      <trkpt lat="42.66539" lon="1.70816">
        <ele>1566.12</ele>
        <time>2020-09-27T07:24:52Z</time>
      </trkpt>
      <trkpt lat="42.6654" lon="1.70815">
        <ele>1566.61</ele>
        <time>2020-09-27T07:24:58Z</time>
      </trkpt>
      <trkpt lat="42.66535" lon="1.70825">
        <ele>1567.57</ele>
        <time>2020-09-27T07:25:08Z</time>
      </trkpt>
      <trkpt lat="42.66518" lon="1.7081">
        <ele>1568.53</ele>
        <time>2020-09-27T07:25:23Z</time>
      </trkpt>
      <trkpt lat="42.66468" lon="1.70798">
        <ele>1568.53</ele>
        <time>2020-09-27T07:25:29Z</time>
      </trkpt>
      <trkpt lat="42.6646" lon="1.70798">
        <ele>1572.37</ele>
        <time>2020-09-27T07:25:34Z</time>
      </trkpt>
      <trkpt lat="42.66453" lon="1.708">
        <ele>1575.74</ele>
        <time>2020-09-27T07:25:39Z</time>
      </trkpt>
      <trkpt lat="42.66446" lon="1.70803">
        <ele>1579.58</ele>
        <time>2020-09-27T07:25:44Z</time>
      </trkpt>
      <trkpt lat="42.66445" lon="1.70804">
        <ele>1579.58</ele>
        <time>2020-09-27T07:25:45Z</time>
      </trkpt>
      <trkpt lat="42.66438" lon="1.70808">
        <ele>1582.95</ele>
        <time>2020-09-27T07:25:51Z</time>
      </trkpt>
      <trkpt lat="42.6643" lon="1.70813">
        <ele>1586.31</ele>
        <time>2020-09-27T07:25:58Z</time>
      </trkpt>
      <trkpt lat="42.66418" lon="1.70816">
        <ele>1589.2</ele>
        <time>2020-09-27T07:26:09Z</time>
      </trkpt>
      <trkpt lat="42.66393" lon="1.70817">
        <ele>1592.56</ele>
        <time>2020-09-27T07:26:28Z</time>
      </trkpt>
      <trkpt lat="42.66368" lon="1.7081">
        <ele>1594.48</ele>
        <time>2020-09-27T07:26:47Z</time>
      </trkpt>
      <trkpt lat="42.66349" lon="1.70797">
        <ele>1596.89</ele>
        <time>2020-09-27T07:27:05Z</time>
      </trkpt>
      <trkpt lat="42.66326" lon="1.70787">
        <ele>1596.41</ele>
        <time>2020-09-27T07:27:23Z</time>
      </trkpt>
      <trkpt lat="42.66306" lon="1.70782">
        <ele>1596.89</ele>
        <time>2020-09-27T07:27:39Z</time>
      </trkpt>
      <trkpt lat="42.66289" lon="1.70783">
        <ele>1596.41</ele>
        <time>2020-09-27T07:27:54Z</time>
      </trkpt>
      <trkpt lat="42.66265" lon="1.70782">
        <ele>1596.89</ele>
        <time>2020-09-27T07:28:13Z</time>
      </trkpt>
      <trkpt lat="42.66247" lon="1.70775">
        <ele>1595.93</ele>
        <time>2020-09-27T07:28:28Z</time>
      </trkpt>
      <trkpt lat="42.66226" lon="1.70761">
        <ele>1594</ele>
        <time>2020-09-27T07:28:47Z</time>
      </trkpt>
      <trkpt lat="42.66205" lon="1.70745">
        <ele>1593.04</ele>
        <time>2020-09-27T07:29:06Z</time>
      </trkpt>
      <trkpt lat="42.66188" lon="1.70734">
        <ele>1591.12</ele>
        <time>2020-09-27T07:29:23Z</time>
      </trkpt>
      <trkpt lat="42.66171" lon="1.70726">
        <ele>1591.12</ele>
        <time>2020-09-27T07:29:39Z</time>
      </trkpt>
      <trkpt lat="42.66156" lon="1.70718">
        <ele>1591.12</ele>
        <time>2020-09-27T07:29:53Z</time>
      </trkpt>
      <trkpt lat="42.66141" lon="1.70713">
        <ele>1591.12</ele>
        <time>2020-09-27T07:30:04Z</time>
      </trkpt>
      <trkpt lat="42.66128" lon="1.70709">
        <ele>1592.08</ele>
        <time>2020-09-27T07:30:15Z</time>
      </trkpt>
      <trkpt lat="42.66109" lon="1.70699">
        <ele>1594.48</ele>
        <time>2020-09-27T07:30:32Z</time>
      </trkpt>
      <trkpt lat="42.66091" lon="1.70696">
        <ele>1595.45</ele>
        <time>2020-09-27T07:30:47Z</time>
      </trkpt>
      <trkpt lat="42.66073" lon="1.70692">
        <ele>1597.85</ele>
        <time>2020-09-27T07:31:01Z</time>
      </trkpt>
      <trkpt lat="42.66057" lon="1.70689">
        <ele>1599.77</ele>
        <time>2020-09-27T07:31:16Z</time>
      </trkpt>
      <trkpt lat="42.66033" lon="1.70685">
        <ele>1600.73</ele>
        <time>2020-09-27T07:31:35Z</time>
      </trkpt>
      <trkpt lat="42.66011" lon="1.70686">
        <ele>1600.73</ele>
        <time>2020-09-27T07:31:52Z</time>
      </trkpt>
      <trkpt lat="42.65992" lon="1.70692">
        <ele>1603.14</ele>
        <time>2020-09-27T07:32:09Z</time>
      </trkpt>
      <trkpt lat="42.65974" lon="1.7069">
        <ele>1605.06</ele>
        <time>2020-09-27T07:32:25Z</time>
      </trkpt>
      <trkpt lat="42.65954" lon="1.70689">
        <ele>1606.02</ele>
        <time>2020-09-27T07:32:41Z</time>
      </trkpt>
      <trkpt lat="42.65933" lon="1.7069">
        <ele>1608.9</ele>
        <time>2020-09-27T07:33:00Z</time>
      </trkpt>
      <trkpt lat="42.65914" lon="1.7069">
        <ele>1611.79</ele>
        <time>2020-09-27T07:33:18Z</time>
      </trkpt>
      <trkpt lat="42.6589" lon="1.70686">
        <ele>1613.23</ele>
        <time>2020-09-27T07:33:38Z</time>
      </trkpt>
      <trkpt lat="42.6587" lon="1.70686">
        <ele>1615.15</ele>
        <time>2020-09-27T07:33:55Z</time>
      </trkpt>
      <trkpt lat="42.65854" lon="1.70685">
        <ele>1617.07</ele>
        <time>2020-09-27T07:34:09Z</time>
      </trkpt>
      <trkpt lat="42.65834" lon="1.7068">
        <ele>1618.52</ele>
        <time>2020-09-27T07:34:27Z</time>
      </trkpt>
      <trkpt lat="42.65815" lon="1.70678">
        <ele>1620.92</ele>
        <time>2020-09-27T07:34:44Z</time>
      </trkpt>
      <trkpt lat="42.65796" lon="1.70678">
        <ele>1621.4</ele>
        <time>2020-09-27T07:34:59Z</time>
      </trkpt>
      <trkpt lat="42.65774" lon="1.70679">
        <ele>1622.84</ele>
        <time>2020-09-27T07:35:17Z</time>
      </trkpt>
      <trkpt lat="42.65752" lon="1.70679">
        <ele>1624.77</ele>
        <time>2020-09-27T07:35:35Z</time>
      </trkpt>
      <trkpt lat="42.65736" lon="1.70682">
        <ele>1626.69</ele>
        <time>2020-09-27T07:35:51Z</time>
      </trkpt>
      <trkpt lat="42.65732" lon="1.70682">
        <ele>1627.65</ele>
        <time>2020-09-27T07:35:55Z</time>
      </trkpt>
      <trkpt lat="42.65726" lon="1.70682">
        <ele>1628.13</ele>
        <time>2020-09-27T07:36:01Z</time>
      </trkpt>
      <trkpt lat="42.65711" lon="1.70675">
        <ele>1630.05</ele>
        <time>2020-09-27T07:36:15Z</time>
      </trkpt>
      <trkpt lat="42.65707" lon="1.70673">
        <ele>1630.53</ele>
        <time>2020-09-27T07:36:20Z</time>
      </trkpt>
      <trkpt lat="42.65703" lon="1.70672">
        <ele>1631.01</ele>
        <time>2020-09-27T07:36:24Z</time>
      </trkpt>
      <trkpt lat="42.65684" lon="1.70669">
        <ele>1632.46</ele>
        <time>2020-09-27T07:36:40Z</time>
      </trkpt>
      <trkpt lat="42.65667" lon="1.70663">
        <ele>1634.86</ele>
        <time>2020-09-27T07:36:55Z</time>
      </trkpt>
      <trkpt lat="42.65648" lon="1.70669">
        <ele>1636.3</ele>
        <time>2020-09-27T07:37:10Z</time>
      </trkpt>
      <trkpt lat="42.65631" lon="1.70673">
        <ele>1637.74</ele>
        <time>2020-09-27T07:37:25Z</time>
      </trkpt>
      <trkpt lat="42.65617" lon="1.70666">
        <ele>1639.19</ele>
        <time>2020-09-27T07:37:39Z</time>
      </trkpt>
      <trkpt lat="42.65601" lon="1.70654">
        <ele>1641.11</ele>
        <time>2020-09-27T07:37:54Z</time>
      </trkpt>
      <trkpt lat="42.65588" lon="1.70649">
        <ele>1642.55</ele>
        <time>2020-09-27T07:38:07Z</time>
      </trkpt>
      <trkpt lat="42.65577" lon="1.70648">
        <ele>1643.99</ele>
        <time>2020-09-27T07:38:17Z</time>
      </trkpt>
      <trkpt lat="42.65563" lon="1.70644">
        <ele>1645.91</ele>
        <time>2020-09-27T07:38:31Z</time>
      </trkpt>
      <trkpt lat="42.6556" lon="1.70644">
        <ele>1646.4</ele>
        <time>2020-09-27T07:38:34Z</time>
      </trkpt>
      <trkpt lat="42.6555" lon="1.70639">
        <ele>1648.32</ele>
        <time>2020-09-27T07:38:46Z</time>
      </trkpt>
      <trkpt lat="42.65538" lon="1.70636">
        <ele>1650.24</ele>
        <time>2020-09-27T07:38:58Z</time>
      </trkpt>
      <trkpt lat="42.65523" lon="1.70635">
        <ele>1651.68</ele>
        <time>2020-09-27T07:39:12Z</time>
      </trkpt>
      <trkpt lat="42.65507" lon="1.70636">
        <ele>1652.64</ele>
        <time>2020-09-27T07:39:25Z</time>
      </trkpt>
      <trkpt lat="42.6549" lon="1.7064">
        <ele>1654.09</ele>
        <time>2020-09-27T07:39:40Z</time>
      </trkpt>
      <trkpt lat="42.65471" lon="1.70639">
        <ele>1653.6</ele>
        <time>2020-09-27T07:39:56Z</time>
      </trkpt>
      <trkpt lat="42.65455" lon="1.70628">
        <ele>1653.6</ele>
        <time>2020-09-27T07:40:12Z</time>
      </trkpt>
      <trkpt lat="42.65442" lon="1.70613">
        <ele>1654.57</ele>
        <time>2020-09-27T07:40:27Z</time>
      </trkpt>
      <trkpt lat="42.65427" lon="1.70597">
        <ele>1656.49</ele>
        <time>2020-09-27T07:40:43Z</time>
      </trkpt>
      <trkpt lat="42.65426" lon="1.70596">
        <ele>1656.49</ele>
        <time>2020-09-27T07:40:44Z</time>
      </trkpt>
      <trkpt lat="42.65423" lon="1.70592">
        <ele>1656.97</ele>
        <time>2020-09-27T07:40:48Z</time>
      </trkpt>
      <trkpt lat="42.65417" lon="1.70585">
        <ele>1657.93</ele>
        <time>2020-09-27T07:40:56Z</time>
      </trkpt>
      <trkpt lat="42.65412" lon="1.7058">
        <ele>1658.41</ele>
        <time>2020-09-27T07:41:01Z</time>
      </trkpt>
      <trkpt lat="42.65403" lon="1.70568">
        <ele>1659.85</ele>
        <time>2020-09-27T07:41:13Z</time>
      </trkpt>
      <trkpt lat="42.65391" lon="1.70554">
        <ele>1661.78</ele>
        <time>2020-09-27T07:41:27Z</time>
      </trkpt>
      <trkpt lat="42.6539" lon="1.70554">
        <ele>1661.78</ele>
        <time>2020-09-27T07:41:28Z</time>
      </trkpt>
      <trkpt lat="42.65388" lon="1.70552">
        <ele>1662.26</ele>
        <time>2020-09-27T07:41:30Z</time>
      </trkpt>
      <trkpt lat="42.65384" lon="1.70549">
        <ele>1662.74</ele>
        <time>2020-09-27T07:41:35Z</time>
      </trkpt>
      <trkpt lat="42.65379" lon="1.70543">
        <ele>1663.7</ele>
        <time>2020-09-27T07:41:45Z</time>
      </trkpt>
      <trkpt lat="42.65371" lon="1.70539">
        <ele>1664.66</ele>
        <time>2020-09-27T07:41:56Z</time>
      </trkpt>
      <trkpt lat="42.65363" lon="1.70536">
        <ele>1666.1</ele>
        <time>2020-09-27T07:42:06Z</time>
      </trkpt>
      <trkpt lat="42.65356" lon="1.70533">
        <ele>1667.54</ele>
        <time>2020-09-27T07:42:16Z</time>
      </trkpt>
      <trkpt lat="42.65349" lon="1.7053">
        <ele>1668.99</ele>
        <time>2020-09-27T07:42:26Z</time>
      </trkpt>
      <trkpt lat="42.6534" lon="1.70527">
        <ele>1669.95</ele>
        <time>2020-09-27T07:42:37Z</time>
      </trkpt>
      <trkpt lat="42.65331" lon="1.70522">
        <ele>1671.39</ele>
        <time>2020-09-27T07:42:48Z</time>
      </trkpt>
      <trkpt lat="42.65329" lon="1.70521">
        <ele>1671.87</ele>
        <time>2020-09-27T07:42:50Z</time>
      </trkpt>
      <trkpt lat="42.65327" lon="1.70518">
        <ele>1671.87</ele>
        <time>2020-09-27T07:42:53Z</time>
      </trkpt>
      <trkpt lat="42.65321" lon="1.70513">
        <ele>1672.83</ele>
        <time>2020-09-27T07:43:01Z</time>
      </trkpt>
      <trkpt lat="42.65319" lon="1.7051">
        <ele>1673.31</ele>
        <time>2020-09-27T07:43:04Z</time>
      </trkpt>
      <trkpt lat="42.65317" lon="1.70507">
        <ele>1673.79</ele>
        <time>2020-09-27T07:43:07Z</time>
      </trkpt>
      <trkpt lat="42.65314" lon="1.70504">
        <ele>1674.27</ele>
        <time>2020-09-27T07:43:11Z</time>
      </trkpt>
      <trkpt lat="42.65308" lon="1.70496">
        <ele>1675.23</ele>
        <time>2020-09-27T07:43:20Z</time>
      </trkpt>
      <trkpt lat="42.653" lon="1.70489">
        <ele>1676.2</ele>
        <time>2020-09-27T07:43:29Z</time>
      </trkpt>
      <trkpt lat="42.65288" lon="1.70479">
        <ele>1677.64</ele>
        <time>2020-09-27T07:43:42Z</time>
      </trkpt>
      <trkpt lat="42.6528" lon="1.7047">
        <ele>1679.08</ele>
        <time>2020-09-27T07:43:53Z</time>
      </trkpt>
      <trkpt lat="42.65278" lon="1.70468">
        <ele>1679.56</ele>
        <time>2020-09-27T07:43:56Z</time>
      </trkpt>
      <trkpt lat="42.6527" lon="1.70456">
        <ele>1681</ele>
        <time>2020-09-27T07:44:09Z</time>
      </trkpt>
      <trkpt lat="42.6526" lon="1.70444">
        <ele>1683.41</ele>
        <time>2020-09-27T07:44:23Z</time>
      </trkpt>
      <trkpt lat="42.65254" lon="1.70435">
        <ele>1684.37</ele>
        <time>2020-09-27T07:44:33Z</time>
      </trkpt>
      <trkpt lat="42.65249" lon="1.70428">
        <ele>1685.33</ele>
        <time>2020-09-27T07:44:40Z</time>
      </trkpt>
      <trkpt lat="42.65247" lon="1.70424">
        <ele>1685.81</ele>
        <time>2020-09-27T07:44:44Z</time>
      </trkpt>
      <trkpt lat="42.65244" lon="1.70421">
        <ele>1686.29</ele>
        <time>2020-09-27T07:44:47Z</time>
      </trkpt>
      <trkpt lat="42.65241" lon="1.70417">
        <ele>1686.77</ele>
        <time>2020-09-27T07:44:51Z</time>
      </trkpt>
      <trkpt lat="42.65229" lon="1.70406">
        <ele>1688.69</ele>
        <time>2020-09-27T07:45:06Z</time>
      </trkpt>
      <trkpt lat="42.65217" lon="1.70397">
        <ele>1690.14</ele>
        <time>2020-09-27T07:45:20Z</time>
      </trkpt>
      <trkpt lat="42.65204" lon="1.70391">
        <ele>1691.1</ele>
        <time>2020-09-27T07:45:33Z</time>
      </trkpt>
      <trkpt lat="42.652" lon="1.70389">
        <ele>1691.58</ele>
        <time>2020-09-27T07:45:37Z</time>
      </trkpt>
      <trkpt lat="42.65185" lon="1.7038">
        <ele>1692.54</ele>
        <time>2020-09-27T07:45:52Z</time>
      </trkpt>
      <trkpt lat="42.6517" lon="1.70371">
        <ele>1693.02</ele>
        <time>2020-09-27T07:46:05Z</time>
      </trkpt>
      <trkpt lat="42.65154" lon="1.7036">
        <ele>1693.98</ele>
        <time>2020-09-27T07:46:21Z</time>
      </trkpt>
      <trkpt lat="42.65136" lon="1.70351">
        <ele>1694.94</ele>
        <time>2020-09-27T07:46:37Z</time>
      </trkpt>
      <trkpt lat="42.65116" lon="1.70351">
        <ele>1695.42</ele>
        <time>2020-09-27T07:46:53Z</time>
      </trkpt>
      <trkpt lat="42.65101" lon="1.70352">
        <ele>1695.9</ele>
        <time>2020-09-27T07:47:07Z</time>
      </trkpt>
      <trkpt lat="42.65084" lon="1.70354">
        <ele>1696.38</ele>
        <time>2020-09-27T07:47:21Z</time>
      </trkpt>
      <trkpt lat="42.65067" lon="1.7035">
        <ele>1696.86</ele>
        <time>2020-09-27T07:47:35Z</time>
      </trkpt>
      <trkpt lat="42.65047" lon="1.70355">
        <ele>1696.86</ele>
        <time>2020-09-27T07:47:52Z</time>
      </trkpt>
      <trkpt lat="42.65024" lon="1.70354">
        <ele>1697.34</ele>
        <time>2020-09-27T07:48:11Z</time>
      </trkpt>
      <trkpt lat="42.65008" lon="1.70357">
        <ele>1697.34</ele>
        <time>2020-09-27T07:48:27Z</time>
      </trkpt>
      <trkpt lat="42.64996" lon="1.70357">
        <ele>1697.34</ele>
        <time>2020-09-27T07:48:41Z</time>
      </trkpt>
      <trkpt lat="42.64977" lon="1.70353">
        <ele>1698.31</ele>
        <time>2020-09-27T07:48:58Z</time>
      </trkpt>
      <trkpt lat="42.64961" lon="1.70352">
        <ele>1698.79</ele>
        <time>2020-09-27T07:49:13Z</time>
      </trkpt>
      <trkpt lat="42.64953" lon="1.70352">
        <ele>1699.27</ele>
        <time>2020-09-27T07:49:24Z</time>
      </trkpt>
      <trkpt lat="42.64946" lon="1.70351">
        <ele>1699.27</ele>
        <time>2020-09-27T07:49:36Z</time>
      </trkpt>
      <trkpt lat="42.64937" lon="1.70348">
        <ele>1699.75</ele>
        <time>2020-09-27T07:49:48Z</time>
      </trkpt>
      <trkpt lat="42.64937" lon="1.70348">
        <ele>1699.75</ele>
        <time>2020-09-27T07:50:01Z</time>
      </trkpt>
      <trkpt lat="42.64941" lon="1.70348">
        <ele>1699.75</ele>
        <time>2020-09-27T07:50:27Z</time>
      </trkpt>
      <trkpt lat="42.6494" lon="1.70348">
        <ele>1699.75</ele>
        <time>2020-09-27T07:50:47Z</time>
      </trkpt>
      <trkpt lat="42.64941" lon="1.70347">
        <ele>1699.75</ele>
        <time>2020-09-27T07:50:55Z</time>
      </trkpt>
      <trkpt lat="42.64942" lon="1.70348">
        <ele>1699.27</ele>
        <time>2020-09-27T07:51:03Z</time>
      </trkpt>
      <trkpt lat="42.64938" lon="1.70348">
        <ele>1699.27</ele>
        <time>2020-09-27T07:51:17Z</time>
      </trkpt>
      <trkpt lat="42.64938" lon="1.7035">
        <ele>1699.27</ele>
        <time>2020-09-27T07:51:36Z</time>
      </trkpt>
      <trkpt lat="42.6494" lon="1.70348">
        <ele>1699.27</ele>
        <time>2020-09-27T07:52:01Z</time>
      </trkpt>
      <trkpt lat="42.64941" lon="1.70347">
        <ele>1699.27</ele>
        <time>2020-09-27T07:52:13Z</time>
      </trkpt>
      <trkpt lat="42.64939" lon="1.70342">
        <ele>1699.27</ele>
        <time>2020-09-27T07:52:24Z</time>
      </trkpt>
      <trkpt lat="42.64938" lon="1.70342">
        <ele>1699.27</ele>
        <time>2020-09-27T07:52:36Z</time>
      </trkpt>
      <trkpt lat="42.64937" lon="1.70343">
        <ele>1699.27</ele>
        <time>2020-09-27T07:53:02Z</time>
      </trkpt>
      <trkpt lat="42.64936" lon="1.70344">
        <ele>1699.27</ele>
        <time>2020-09-27T07:53:16Z</time>
      </trkpt>
      <trkpt lat="42.64936" lon="1.70346">
        <ele>1699.27</ele>
        <time>2020-09-27T07:53:36Z</time>
      </trkpt>
      <trkpt lat="42.64934" lon="1.70349">
        <ele>1699.27</ele>
        <time>2020-09-27T07:53:46Z</time>
      </trkpt>
      <trkpt lat="42.64934" lon="1.70347">
        <ele>1699.27</ele>
        <time>2020-09-27T07:54:15Z</time>
      </trkpt>
      <trkpt lat="42.64935" lon="1.70348">
        <ele>1698.79</ele>
        <time>2020-09-27T07:54:41Z</time>
      </trkpt>
      <trkpt lat="42.64932" lon="1.70345">
        <ele>1698.79</ele>
        <time>2020-09-27T07:55:11Z</time>
      </trkpt>
      <trkpt lat="42.64932" lon="1.70347">
        <ele>1698.79</ele>
        <time>2020-09-27T07:55:33Z</time>
      </trkpt>
      <trkpt lat="42.64931" lon="1.70348">
        <ele>1697.83</ele>
        <time>2020-09-27T07:56:03Z</time>
      </trkpt>
      <trkpt lat="42.64929" lon="1.70345">
        <ele>1697.34</ele>
        <time>2020-09-27T07:56:23Z</time>
      </trkpt>
      <trkpt lat="42.64921" lon="1.70337">
        <ele>1696.38</ele>
        <time>2020-09-27T07:56:36Z</time>
      </trkpt>
      <trkpt lat="42.64913" lon="1.70329">
        <ele>1695.42</ele>
        <time>2020-09-27T07:56:51Z</time>
      </trkpt>
      <trkpt lat="42.64906" lon="1.70312">
        <ele>1694.94</ele>
        <time>2020-09-27T07:57:04Z</time>
      </trkpt>
      <trkpt lat="42.649" lon="1.70302">
        <ele>1694.94</ele>
        <time>2020-09-27T07:57:13Z</time>
      </trkpt>
      <trkpt lat="42.64887" lon="1.70298">
        <ele>1694.94</ele>
        <time>2020-09-27T07:57:26Z</time>
      </trkpt>
      <trkpt lat="42.64883" lon="1.703">
        <ele>1694.94</ele>
        <time>2020-09-27T07:57:39Z</time>
      </trkpt>
      <trkpt lat="42.64882" lon="1.70306">
        <ele>1694.94</ele>
        <time>2020-09-27T07:57:49Z</time>
      </trkpt>
      <trkpt lat="42.64883" lon="1.70311">
        <ele>1694.94</ele>
        <time>2020-09-27T07:58:00Z</time>
      </trkpt>
      <trkpt lat="42.64886" lon="1.70307">
        <ele>1694.94</ele>
        <time>2020-09-27T07:58:13Z</time>
      </trkpt>
      <trkpt lat="42.64893" lon="1.70302">
        <ele>1694.94</ele>
        <time>2020-09-27T07:58:22Z</time>
      </trkpt>
      <trkpt lat="42.64897" lon="1.70302">
        <ele>1694.94</ele>
        <time>2020-09-27T07:58:25Z</time>
      </trkpt>
      <trkpt lat="42.64903" lon="1.70306">
        <ele>1694.94</ele>
        <time>2020-09-27T07:58:32Z</time>
      </trkpt>
      <trkpt lat="42.64909" lon="1.7032">
        <ele>1694.94</ele>
        <time>2020-09-27T07:58:44Z</time>
      </trkpt>
      <trkpt lat="42.64918" lon="1.70333">
        <ele>1694.46</ele>
        <time>2020-09-27T07:58:58Z</time>
      </trkpt>
      <trkpt lat="42.64926" lon="1.70344">
        <ele>1694.46</ele>
        <time>2020-09-27T07:59:12Z</time>
      </trkpt>
      <trkpt lat="42.64929" lon="1.70347">
        <ele>1695.9</ele>
        <time>2020-09-27T07:59:16Z</time>
      </trkpt>
      <trkpt lat="42.64933" lon="1.70349">
        <ele>1696.38</ele>
        <time>2020-09-27T07:59:20Z</time>
      </trkpt>
      <trkpt lat="42.64932" lon="1.70353">
        <ele>1696.86</ele>
        <time>2020-09-27T07:59:27Z</time>
      </trkpt>
      <trkpt lat="42.64914" lon="1.70356">
        <ele>1698.31</ele>
        <time>2020-09-27T07:59:42Z</time>
      </trkpt>
      <trkpt lat="42.64902" lon="1.70363">
        <ele>1699.27</ele>
        <time>2020-09-27T07:59:55Z</time>
      </trkpt>
      <trkpt lat="42.64898" lon="1.70361">
        <ele>1699.27</ele>
        <time>2020-09-27T08:00:04Z</time>
      </trkpt>
      <trkpt lat="42.6489" lon="1.7036">
        <ele>1699.27</ele>
        <time>2020-09-27T08:00:16Z</time>
      </trkpt>
      <trkpt lat="42.64886" lon="1.70361">
        <ele>1699.27</ele>
        <time>2020-09-27T08:00:25Z</time>
      </trkpt>
      <trkpt lat="42.6488" lon="1.70358">
        <ele>1697.83</ele>
        <time>2020-09-27T08:00:35Z</time>
      </trkpt>
      <trkpt lat="42.64877" lon="1.70358">
        <ele>1698.31</ele>
        <time>2020-09-27T08:00:44Z</time>
      </trkpt>
      <trkpt lat="42.6487" lon="1.70355">
        <ele>1698.31</ele>
        <time>2020-09-27T08:00:54Z</time>
      </trkpt>
      <trkpt lat="42.64861" lon="1.70358">
        <ele>1698.31</ele>
        <time>2020-09-27T08:01:06Z</time>
      </trkpt>
      <trkpt lat="42.64853" lon="1.70358">
        <ele>1697.83</ele>
        <time>2020-09-27T08:01:17Z</time>
      </trkpt>
      <trkpt lat="42.64848" lon="1.70362">
        <ele>1697.83</ele>
        <time>2020-09-27T08:01:25Z</time>
      </trkpt>
      <trkpt lat="42.64844" lon="1.70363">
        <ele>1697.83</ele>
        <time>2020-09-27T08:01:35Z</time>
      </trkpt>
      <trkpt lat="42.64838" lon="1.70365">
        <ele>1697.83</ele>
        <time>2020-09-27T08:01:45Z</time>
      </trkpt>
      <trkpt lat="42.64834" lon="1.70366">
        <ele>1697.83</ele>
        <time>2020-09-27T08:01:52Z</time>
      </trkpt>
      <trkpt lat="42.64826" lon="1.70363">
        <ele>1697.83</ele>
        <time>2020-09-27T08:02:03Z</time>
      </trkpt>
      <trkpt lat="42.64821" lon="1.70362">
        <ele>1697.83</ele>
        <time>2020-09-27T08:02:13Z</time>
      </trkpt>
      <trkpt lat="42.64812" lon="1.70364">
        <ele>1697.83</ele>
        <time>2020-09-27T08:02:25Z</time>
      </trkpt>
      <trkpt lat="42.6481" lon="1.70365">
        <ele>1697.83</ele>
        <time>2020-09-27T08:02:33Z</time>
      </trkpt>
      <trkpt lat="42.64806" lon="1.70363">
        <ele>1697.83</ele>
        <time>2020-09-27T08:02:44Z</time>
      </trkpt>
      <trkpt lat="42.64799" lon="1.70359">
        <ele>1697.83</ele>
        <time>2020-09-27T08:02:57Z</time>
      </trkpt>
      <trkpt lat="42.64799" lon="1.70359">
        <ele>1699.27</ele>
        <time>2020-09-27T08:03:00Z</time>
      </trkpt>
      <trkpt lat="42.64796" lon="1.70356">
        <ele>1699.27</ele>
        <time>2020-09-27T08:03:06Z</time>
      </trkpt>
      <trkpt lat="42.64789" lon="1.70344">
        <ele>1699.27</ele>
        <time>2020-09-27T08:03:19Z</time>
      </trkpt>
      <trkpt lat="42.64781" lon="1.70343">
        <ele>1699.75</ele>
        <time>2020-09-27T08:03:31Z</time>
      </trkpt>
      <trkpt lat="42.64774" lon="1.7034">
        <ele>1699.75</ele>
        <time>2020-09-27T08:03:42Z</time>
      </trkpt>
      <trkpt lat="42.64767" lon="1.70341">
        <ele>1699.75</ele>
        <time>2020-09-27T08:03:52Z</time>
      </trkpt>
      <trkpt lat="42.64764" lon="1.70338">
        <ele>1699.75</ele>
        <time>2020-09-27T08:04:02Z</time>
      </trkpt>
      <trkpt lat="42.64759" lon="1.70333">
        <ele>1700.23</ele>
        <time>2020-09-27T08:04:13Z</time>
      </trkpt>
      <trkpt lat="42.64752" lon="1.70333">
        <ele>1701.19</ele>
        <time>2020-09-27T08:04:22Z</time>
      </trkpt>
      <trkpt lat="42.64744" lon="1.70331">
        <ele>1702.15</ele>
        <time>2020-09-27T08:04:32Z</time>
      </trkpt>
      <trkpt lat="42.6474" lon="1.70334">
        <ele>1703.11</ele>
        <time>2020-09-27T08:04:42Z</time>
      </trkpt>
      <trkpt lat="42.64737" lon="1.70334">
        <ele>1703.11</ele>
        <time>2020-09-27T08:04:52Z</time>
      </trkpt>
      <trkpt lat="42.64733" lon="1.70335">
        <ele>1703.11</ele>
        <time>2020-09-27T08:05:02Z</time>
      </trkpt>
      <trkpt lat="42.64726" lon="1.70333">
        <ele>1703.11</ele>
        <time>2020-09-27T08:05:13Z</time>
      </trkpt>
      <trkpt lat="42.6472" lon="1.70332">
        <ele>1703.11</ele>
        <time>2020-09-27T08:05:23Z</time>
      </trkpt>
      <trkpt lat="42.64715" lon="1.70328">
        <ele>1703.11</ele>
        <time>2020-09-27T08:05:30Z</time>
      </trkpt>
      <trkpt lat="42.64709" lon="1.70323">
        <ele>1703.11</ele>
        <time>2020-09-27T08:05:40Z</time>
      </trkpt>
      <trkpt lat="42.64705" lon="1.7032">
        <ele>1704.55</ele>
        <time>2020-09-27T08:05:50Z</time>
      </trkpt>
      <trkpt lat="42.64703" lon="1.70317">
        <ele>1706.48</ele>
        <time>2020-09-27T08:06:00Z</time>
      </trkpt>
      <trkpt lat="42.64699" lon="1.70316">
        <ele>1707.44</ele>
        <time>2020-09-27T08:06:10Z</time>
      </trkpt>
      <trkpt lat="42.64692" lon="1.70315">
        <ele>1707.44</ele>
        <time>2020-09-27T08:06:21Z</time>
      </trkpt>
      <trkpt lat="42.64686" lon="1.70311">
        <ele>1707.44</ele>
        <time>2020-09-27T08:06:31Z</time>
      </trkpt>
      <trkpt lat="42.64684" lon="1.70306">
        <ele>1707.92</ele>
        <time>2020-09-27T08:06:38Z</time>
      </trkpt>
      <trkpt lat="42.6468" lon="1.703">
        <ele>1708.4</ele>
        <time>2020-09-27T08:06:49Z</time>
      </trkpt>
      <trkpt lat="42.64675" lon="1.703">
        <ele>1709.84</ele>
        <time>2020-09-27T08:06:58Z</time>
      </trkpt>
      <trkpt lat="42.64671" lon="1.70304">
        <ele>1711.28</ele>
        <time>2020-09-27T08:07:06Z</time>
      </trkpt>
      <trkpt lat="42.64669" lon="1.70302">
        <ele>1712.73</ele>
        <time>2020-09-27T08:07:16Z</time>
      </trkpt>
      <trkpt lat="42.64665" lon="1.70294">
        <ele>1713.69</ele>
        <time>2020-09-27T08:07:26Z</time>
      </trkpt>
      <trkpt lat="42.64661" lon="1.7029">
        <ele>1715.61</ele>
        <time>2020-09-27T08:07:36Z</time>
      </trkpt>
      <trkpt lat="42.64657" lon="1.70287">
        <ele>1715.61</ele>
        <time>2020-09-27T08:07:41Z</time>
      </trkpt>
      <trkpt lat="42.64645" lon="1.70279">
        <ele>1715.61</ele>
        <time>2020-09-27T08:07:54Z</time>
      </trkpt>
      <trkpt lat="42.64628" lon="1.70271">
        <ele>1715.61</ele>
        <time>2020-09-27T08:08:09Z</time>
      </trkpt>
      <trkpt lat="42.64613" lon="1.70269">
        <ele>1715.61</ele>
        <time>2020-09-27T08:08:24Z</time>
      </trkpt>
      <trkpt lat="42.64607" lon="1.70267">
        <ele>1715.61</ele>
        <time>2020-09-27T08:08:30Z</time>
      </trkpt>
      <trkpt lat="42.64589" lon="1.70268">
        <ele>1715.61</ele>
        <time>2020-09-27T08:08:46Z</time>
      </trkpt>
      <trkpt lat="42.64582" lon="1.70267">
        <ele>1716.09</ele>
        <time>2020-09-27T08:08:53Z</time>
      </trkpt>
      <trkpt lat="42.64571" lon="1.70264">
        <ele>1715.13</ele>
        <time>2020-09-27T08:09:07Z</time>
      </trkpt>
      <trkpt lat="42.64564" lon="1.70262">
        <ele>1713.69</ele>
        <time>2020-09-27T08:09:18Z</time>
      </trkpt>
      <trkpt lat="42.64556" lon="1.7026">
        <ele>1711.76</ele>
        <time>2020-09-27T08:09:29Z</time>
      </trkpt>
      <trkpt lat="42.64546" lon="1.70265">
        <ele>1711.76</ele>
        <time>2020-09-27T08:09:42Z</time>
      </trkpt>
      <trkpt lat="42.64543" lon="1.70265">
        <ele>1711.28</ele>
        <time>2020-09-27T08:09:52Z</time>
      </trkpt>
      <trkpt lat="42.6454" lon="1.70263">
        <ele>1711.28</ele>
        <time>2020-09-27T08:10:05Z</time>
      </trkpt>
      <trkpt lat="42.64538" lon="1.70263">
        <ele>1711.28</ele>
        <time>2020-09-27T08:10:16Z</time>
      </trkpt>
      <trkpt lat="42.64537" lon="1.70262">
        <ele>1711.28</ele>
        <time>2020-09-27T08:10:18Z</time>
      </trkpt>
      <trkpt lat="42.64531" lon="1.70259">
        <ele>1711.28</ele>
        <time>2020-09-27T08:10:25Z</time>
      </trkpt>
      <trkpt lat="42.64527" lon="1.70255">
        <ele>1711.28</ele>
        <time>2020-09-27T08:10:34Z</time>
      </trkpt>
      <trkpt lat="42.64526" lon="1.70254">
        <ele>1711.28</ele>
        <time>2020-09-27T08:10:35Z</time>
      </trkpt>
      <trkpt lat="42.64522" lon="1.70255">
        <ele>1711.28</ele>
        <time>2020-09-27T08:10:40Z</time>
      </trkpt>
      <trkpt lat="42.6451" lon="1.70255">
        <ele>1711.28</ele>
        <time>2020-09-27T08:10:51Z</time>
      </trkpt>
      <trkpt lat="42.64503" lon="1.70261">
        <ele>1712.25</ele>
        <time>2020-09-27T08:11:03Z</time>
      </trkpt>
      <trkpt lat="42.64498" lon="1.70261">
        <ele>1712.73</ele>
        <time>2020-09-27T08:11:12Z</time>
      </trkpt>
      <trkpt lat="42.64495" lon="1.7026">
        <ele>1712.73</ele>
        <time>2020-09-27T08:11:17Z</time>
      </trkpt>
      <trkpt lat="42.64484" lon="1.70261">
        <ele>1713.21</ele>
        <time>2020-09-27T08:11:29Z</time>
      </trkpt>
      <trkpt lat="42.64477" lon="1.70261">
        <ele>1713.21</ele>
        <time>2020-09-27T08:11:41Z</time>
      </trkpt>
      <trkpt lat="42.64475" lon="1.7026">
        <ele>1713.69</ele>
        <time>2020-09-27T08:11:43Z</time>
      </trkpt>
      <trkpt lat="42.64463" lon="1.70259">
        <ele>1714.17</ele>
        <time>2020-09-27T08:11:56Z</time>
      </trkpt>
      <trkpt lat="42.6446" lon="1.70259">
        <ele>1714.65</ele>
        <time>2020-09-27T08:12:00Z</time>
      </trkpt>
      <trkpt lat="42.6445" lon="1.70262">
        <ele>1714.65</ele>
        <time>2020-09-27T08:12:12Z</time>
      </trkpt>
      <trkpt lat="42.64445" lon="1.70267">
        <ele>1715.13</ele>
        <time>2020-09-27T08:12:20Z</time>
      </trkpt>
      <trkpt lat="42.64437" lon="1.70271">
        <ele>1716.09</ele>
        <time>2020-09-27T08:12:31Z</time>
      </trkpt>
      <trkpt lat="42.64428" lon="1.70273">
        <ele>1716.09</ele>
        <time>2020-09-27T08:12:43Z</time>
      </trkpt>
      <trkpt lat="42.64425" lon="1.70274">
        <ele>1716.09</ele>
        <time>2020-09-27T08:12:47Z</time>
      </trkpt>
      <trkpt lat="42.64417" lon="1.70274">
        <ele>1716.09</ele>
        <time>2020-09-27T08:12:58Z</time>
      </trkpt>
      <trkpt lat="42.64408" lon="1.70272">
        <ele>1716.57</ele>
        <time>2020-09-27T08:13:10Z</time>
      </trkpt>
      <trkpt lat="42.64404" lon="1.70269">
        <ele>1716.57</ele>
        <time>2020-09-27T08:13:22Z</time>
      </trkpt>
      <trkpt lat="42.64398" lon="1.70271">
        <ele>1717.05</ele>
        <time>2020-09-27T08:13:31Z</time>
      </trkpt>
      <trkpt lat="42.6439" lon="1.70273">
        <ele>1718.01</ele>
        <time>2020-09-27T08:13:41Z</time>
      </trkpt>
      <trkpt lat="42.64383" lon="1.70278">
        <ele>1718.97</ele>
        <time>2020-09-27T08:13:52Z</time>
      </trkpt>
      <trkpt lat="42.64376" lon="1.70279">
        <ele>1719.94</ele>
        <time>2020-09-27T08:14:03Z</time>
      </trkpt>
      <trkpt lat="42.64368" lon="1.70279">
        <ele>1721.38</ele>
        <time>2020-09-27T08:14:13Z</time>
      </trkpt>
      <trkpt lat="42.64361" lon="1.70282">
        <ele>1722.34</ele>
        <time>2020-09-27T08:14:24Z</time>
      </trkpt>
      <trkpt lat="42.64356" lon="1.70287">
        <ele>1723.3</ele>
        <time>2020-09-27T08:14:34Z</time>
      </trkpt>
      <trkpt lat="42.64354" lon="1.70286">
        <ele>1724.74</ele>
        <time>2020-09-27T08:14:44Z</time>
      </trkpt>
      <trkpt lat="42.64352" lon="1.70285">
        <ele>1725.22</ele>
        <time>2020-09-27T08:15:01Z</time>
      </trkpt>
      <trkpt lat="42.64352" lon="1.70287">
        <ele>1725.22</ele>
        <time>2020-09-27T08:15:15Z</time>
      </trkpt>
      <trkpt lat="42.64353" lon="1.70285">
        <ele>1725.22</ele>
        <time>2020-09-27T08:15:35Z</time>
      </trkpt>
      <trkpt lat="42.64354" lon="1.70286">
        <ele>1725.22</ele>
        <time>2020-09-27T08:15:51Z</time>
      </trkpt>
      <trkpt lat="42.64353" lon="1.70286">
        <ele>1725.22</ele>
        <time>2020-09-27T08:16:18Z</time>
      </trkpt>
      <trkpt lat="42.64355" lon="1.70286">
        <ele>1723.78</ele>
        <time>2020-09-27T08:16:38Z</time>
      </trkpt>
      <trkpt lat="42.64354" lon="1.70284">
        <ele>1723.78</ele>
        <time>2020-09-27T08:17:00Z</time>
      </trkpt>
      <trkpt lat="42.64354" lon="1.70285">
        <ele>1723.3</ele>
        <time>2020-09-27T08:17:16Z</time>
      </trkpt>
      <trkpt lat="42.64353" lon="1.70285">
        <ele>1724.26</ele>
        <time>2020-09-27T08:17:27Z</time>
      </trkpt>
      <trkpt lat="42.64346" lon="1.70288">
        <ele>1725.22</ele>
        <time>2020-09-27T08:17:37Z</time>
      </trkpt>
      <trkpt lat="42.64338" lon="1.70291">
        <ele>1726.67</ele>
        <time>2020-09-27T08:17:49Z</time>
      </trkpt>
      <trkpt lat="42.64341" lon="1.7029">
        <ele>1726.67</ele>
        <time>2020-09-27T08:17:59Z</time>
      </trkpt>
      <trkpt lat="42.64352" lon="1.70287">
        <ele>1725.22</ele>
        <time>2020-09-27T08:18:11Z</time>
      </trkpt>
      <trkpt lat="42.64357" lon="1.70285">
        <ele>1722.34</ele>
        <time>2020-09-27T08:18:20Z</time>
      </trkpt>
      <trkpt lat="42.64356" lon="1.70285">
        <ele>1722.34</ele>
        <time>2020-09-27T08:18:21Z</time>
      </trkpt>
      <trkpt lat="42.64354" lon="1.70288">
        <ele>1723.78</ele>
        <time>2020-09-27T08:18:33Z</time>
      </trkpt>
      <trkpt lat="42.64354" lon="1.70288">
        <ele>1724.26</ele>
        <time>2020-09-27T08:18:49Z</time>
      </trkpt>
      <trkpt lat="42.64354" lon="1.70287">
        <ele>1723.3</ele>
        <time>2020-09-27T08:19:10Z</time>
      </trkpt>
      <trkpt lat="42.64356" lon="1.7029">
        <ele>1723.3</ele>
        <time>2020-09-27T08:19:23Z</time>
      </trkpt>
      <trkpt lat="42.64354" lon="1.70288">
        <ele>1723.3</ele>
        <time>2020-09-27T08:19:40Z</time>
      </trkpt>
      <trkpt lat="42.64351" lon="1.70289">
        <ele>1723.3</ele>
        <time>2020-09-27T08:19:59Z</time>
      </trkpt>
      <trkpt lat="42.64344" lon="1.7029">
        <ele>1723.3</ele>
        <time>2020-09-27T08:20:09Z</time>
      </trkpt>
      <trkpt lat="42.64343" lon="1.7029">
        <ele>1724.74</ele>
        <time>2020-09-27T08:20:11Z</time>
      </trkpt>
      <trkpt lat="42.64335" lon="1.70295">
        <ele>1725.7</ele>
        <time>2020-09-27T08:20:22Z</time>
      </trkpt>
      <trkpt lat="42.64328" lon="1.70301">
        <ele>1727.15</ele>
        <time>2020-09-27T08:20:33Z</time>
      </trkpt>
      <trkpt lat="42.64322" lon="1.70305">
        <ele>1728.59</ele>
        <time>2020-09-27T08:20:43Z</time>
      </trkpt>
      <trkpt lat="42.64316" lon="1.70311">
        <ele>1729.07</ele>
        <time>2020-09-27T08:20:54Z</time>
      </trkpt>
      <trkpt lat="42.64312" lon="1.70319">
        <ele>1730.51</ele>
        <time>2020-09-27T08:21:05Z</time>
      </trkpt>
      <trkpt lat="42.64307" lon="1.7032">
        <ele>1731.95</ele>
        <time>2020-09-27T08:21:14Z</time>
      </trkpt>
      <trkpt lat="42.64301" lon="1.70316">
        <ele>1732.43</ele>
        <time>2020-09-27T08:21:24Z</time>
      </trkpt>
      <trkpt lat="42.64294" lon="1.70315">
        <ele>1732.43</ele>
        <time>2020-09-27T08:21:33Z</time>
      </trkpt>
      <trkpt lat="42.64288" lon="1.70317">
        <ele>1733.88</ele>
        <time>2020-09-27T08:21:45Z</time>
      </trkpt>
      <trkpt lat="42.64281" lon="1.70318">
        <ele>1734.84</ele>
        <time>2020-09-27T08:21:57Z</time>
      </trkpt>
      <trkpt lat="42.64276" lon="1.70323">
        <ele>1735.8</ele>
        <time>2020-09-27T08:22:07Z</time>
      </trkpt>
      <trkpt lat="42.64273" lon="1.70321">
        <ele>1736.76</ele>
        <time>2020-09-27T08:22:18Z</time>
      </trkpt>
      <trkpt lat="42.6427" lon="1.7032">
        <ele>1736.76</ele>
        <time>2020-09-27T08:22:24Z</time>
      </trkpt>
      <trkpt lat="42.64259" lon="1.70321">
        <ele>1737.72</ele>
        <time>2020-09-27T08:22:38Z</time>
      </trkpt>
      <trkpt lat="42.64251" lon="1.70322">
        <ele>1738.68</ele>
        <time>2020-09-27T08:22:48Z</time>
      </trkpt>
      <trkpt lat="42.64246" lon="1.70328">
        <ele>1740.6</ele>
        <time>2020-09-27T08:23:00Z</time>
      </trkpt>
      <trkpt lat="42.64242" lon="1.70334">
        <ele>1742.05</ele>
        <time>2020-09-27T08:23:10Z</time>
      </trkpt>
      <trkpt lat="42.64237" lon="1.70335">
        <ele>1742.53</ele>
        <time>2020-09-27T08:23:20Z</time>
      </trkpt>
      <trkpt lat="42.6424" lon="1.70334">
        <ele>1742.53</ele>
        <time>2020-09-27T08:23:44Z</time>
      </trkpt>
      <trkpt lat="42.64236" lon="1.70336">
        <ele>1743.01</ele>
        <time>2020-09-27T08:23:58Z</time>
      </trkpt>
      <trkpt lat="42.64228" lon="1.70342">
        <ele>1744.45</ele>
        <time>2020-09-27T08:24:09Z</time>
      </trkpt>
      <trkpt lat="42.64222" lon="1.70348">
        <ele>1745.89</ele>
        <time>2020-09-27T08:24:19Z</time>
      </trkpt>
      <trkpt lat="42.64218" lon="1.70355">
        <ele>1746.85</ele>
        <time>2020-09-27T08:24:30Z</time>
      </trkpt>
      <trkpt lat="42.64213" lon="1.70362">
        <ele>1747.81</ele>
        <time>2020-09-27T08:24:41Z</time>
      </trkpt>
      <trkpt lat="42.64211" lon="1.70365">
        <ele>1749.26</ele>
        <time>2020-09-27T08:24:52Z</time>
      </trkpt>
      <trkpt lat="42.64206" lon="1.70371">
        <ele>1750.22</ele>
        <time>2020-09-27T08:25:02Z</time>
      </trkpt>
      <trkpt lat="42.64204" lon="1.70377">
        <ele>1752.14</ele>
        <time>2020-09-27T08:25:11Z</time>
      </trkpt>
      <trkpt lat="42.64202" lon="1.70385">
        <ele>1753.1</ele>
        <time>2020-09-27T08:25:22Z</time>
      </trkpt>
      <trkpt lat="42.64197" lon="1.70388">
        <ele>1754.54</ele>
        <time>2020-09-27T08:25:31Z</time>
      </trkpt>
      <trkpt lat="42.64193" lon="1.70392">
        <ele>1755.5</ele>
        <time>2020-09-27T08:25:40Z</time>
      </trkpt>
      <trkpt lat="42.64187" lon="1.70394">
        <ele>1756.47</ele>
        <time>2020-09-27T08:25:50Z</time>
      </trkpt>
      <trkpt lat="42.64181" lon="1.70398">
        <ele>1757.91</ele>
        <time>2020-09-27T08:26:02Z</time>
      </trkpt>
      <trkpt lat="42.64177" lon="1.70403">
        <ele>1758.87</ele>
        <time>2020-09-27T08:26:12Z</time>
      </trkpt>
      <trkpt lat="42.64174" lon="1.70409">
        <ele>1759.83</ele>
        <time>2020-09-27T08:26:21Z</time>
      </trkpt>
      <trkpt lat="42.64171" lon="1.70414">
        <ele>1761.27</ele>
        <time>2020-09-27T08:26:31Z</time>
      </trkpt>
      <trkpt lat="42.64176" lon="1.70418">
        <ele>1762.71</ele>
        <time>2020-09-27T08:26:39Z</time>
      </trkpt>
      <trkpt lat="42.64176" lon="1.70422">
        <ele>1763.2</ele>
        <time>2020-09-27T08:26:47Z</time>
      </trkpt>
      <trkpt lat="42.64178" lon="1.70426">
        <ele>1764.16</ele>
        <time>2020-09-27T08:26:56Z</time>
      </trkpt>
      <trkpt lat="42.64174" lon="1.70429">
        <ele>1766.08</ele>
        <time>2020-09-27T08:27:07Z</time>
      </trkpt>
      <trkpt lat="42.64171" lon="1.70436">
        <ele>1768</ele>
        <time>2020-09-27T08:27:22Z</time>
      </trkpt>
      <trkpt lat="42.64173" lon="1.70438">
        <ele>1768.48</ele>
        <time>2020-09-27T08:27:31Z</time>
      </trkpt>
      <trkpt lat="42.6417" lon="1.70441">
        <ele>1770.41</ele>
        <time>2020-09-27T08:27:42Z</time>
      </trkpt>
      <trkpt lat="42.64171" lon="1.70444">
        <ele>1771.37</ele>
        <time>2020-09-27T08:27:53Z</time>
      </trkpt>
      <trkpt lat="42.64174" lon="1.70446">
        <ele>1773.29</ele>
        <time>2020-09-27T08:28:05Z</time>
      </trkpt>
      <trkpt lat="42.64173" lon="1.70447">
        <ele>1774.25</ele>
        <time>2020-09-27T08:28:15Z</time>
      </trkpt>
      <trkpt lat="42.64172" lon="1.70451">
        <ele>1775.69</ele>
        <time>2020-09-27T08:28:24Z</time>
      </trkpt>
      <trkpt lat="42.64171" lon="1.70454">
        <ele>1776.65</ele>
        <time>2020-09-27T08:28:33Z</time>
      </trkpt>
      <trkpt lat="42.64171" lon="1.70459">
        <ele>1777.61</ele>
        <time>2020-09-27T08:28:43Z</time>
      </trkpt>
      <trkpt lat="42.6417" lon="1.70462">
        <ele>1778.58</ele>
        <time>2020-09-27T08:28:53Z</time>
      </trkpt>
      <trkpt lat="42.64176" lon="1.70463">
        <ele>1780.02</ele>
        <time>2020-09-27T08:29:06Z</time>
      </trkpt>
      <trkpt lat="42.64179" lon="1.70465">
        <ele>1781.46</ele>
        <time>2020-09-27T08:29:15Z</time>
      </trkpt>
      <trkpt lat="42.64179" lon="1.70468">
        <ele>1782.9</ele>
        <time>2020-09-27T08:29:26Z</time>
      </trkpt>
      <trkpt lat="42.64176" lon="1.7047">
        <ele>1784.34</ele>
        <time>2020-09-27T08:29:35Z</time>
      </trkpt>
      <trkpt lat="42.64173" lon="1.70473">
        <ele>1785.31</ele>
        <time>2020-09-27T08:29:45Z</time>
      </trkpt>
      <trkpt lat="42.64171" lon="1.70478">
        <ele>1785.79</ele>
        <time>2020-09-27T08:29:54Z</time>
      </trkpt>
      <trkpt lat="42.64167" lon="1.70485">
        <ele>1785.79</ele>
        <time>2020-09-27T08:30:04Z</time>
      </trkpt>
      <trkpt lat="42.64166" lon="1.70488">
        <ele>1786.75</ele>
        <time>2020-09-27T08:30:16Z</time>
      </trkpt>
      <trkpt lat="42.64167" lon="1.70488">
        <ele>1786.75</ele>
        <time>2020-09-27T08:30:35Z</time>
      </trkpt>
      <trkpt lat="42.64162" lon="1.70496">
        <ele>1787.23</ele>
        <time>2020-09-27T08:30:47Z</time>
      </trkpt>
      <trkpt lat="42.64159" lon="1.70502">
        <ele>1789.15</ele>
        <time>2020-09-27T08:30:58Z</time>
      </trkpt>
      <trkpt lat="42.64155" lon="1.70506">
        <ele>1790.11</ele>
        <time>2020-09-27T08:31:07Z</time>
      </trkpt>
      <trkpt lat="42.64151" lon="1.70507">
        <ele>1791.55</ele>
        <time>2020-09-27T08:31:17Z</time>
      </trkpt>
      <trkpt lat="42.64146" lon="1.70507">
        <ele>1793</ele>
        <time>2020-09-27T08:31:27Z</time>
      </trkpt>
      <trkpt lat="42.64141" lon="1.70513">
        <ele>1794.92</ele>
        <time>2020-09-27T08:31:38Z</time>
      </trkpt>
      <trkpt lat="42.64138" lon="1.70517">
        <ele>1795.88</ele>
        <time>2020-09-27T08:31:48Z</time>
      </trkpt>
      <trkpt lat="42.64137" lon="1.70521">
        <ele>1796.36</ele>
        <time>2020-09-27T08:31:58Z</time>
      </trkpt>
      <trkpt lat="42.64134" lon="1.70526">
        <ele>1797.32</ele>
        <time>2020-09-27T08:32:06Z</time>
      </trkpt>
      <trkpt lat="42.64132" lon="1.70529">
        <ele>1798.76</ele>
        <time>2020-09-27T08:32:15Z</time>
      </trkpt>
      <trkpt lat="42.64132" lon="1.70533">
        <ele>1799.73</ele>
        <time>2020-09-27T08:32:24Z</time>
      </trkpt>
      <trkpt lat="42.64131" lon="1.70537">
        <ele>1801.17</ele>
        <time>2020-09-27T08:32:34Z</time>
      </trkpt>
      <trkpt lat="42.64131" lon="1.70538">
        <ele>1802.13</ele>
        <time>2020-09-27T08:32:44Z</time>
      </trkpt>
      <trkpt lat="42.64128" lon="1.70539">
        <ele>1802.61</ele>
        <time>2020-09-27T08:32:54Z</time>
      </trkpt>
      <trkpt lat="42.64129" lon="1.7054">
        <ele>1802.61</ele>
        <time>2020-09-27T08:33:11Z</time>
      </trkpt>
      <trkpt lat="42.64129" lon="1.70541">
        <ele>1804.05</ele>
        <time>2020-09-27T08:33:24Z</time>
      </trkpt>
      <trkpt lat="42.64131" lon="1.70539">
        <ele>1804.05</ele>
        <time>2020-09-27T08:33:39Z</time>
      </trkpt>
      <trkpt lat="42.6413" lon="1.70539">
        <ele>1804.05</ele>
        <time>2020-09-27T08:34:00Z</time>
      </trkpt>
      <trkpt lat="42.6413" lon="1.70539">
        <ele>1804.05</ele>
        <time>2020-09-27T08:34:23Z</time>
      </trkpt>
      <trkpt lat="42.64129" lon="1.7054">
        <ele>1802.61</ele>
        <time>2020-09-27T08:34:33Z</time>
      </trkpt>
      <trkpt lat="42.64126" lon="1.70546">
        <ele>1802.61</ele>
        <time>2020-09-27T08:34:44Z</time>
      </trkpt>
      <trkpt lat="42.64126" lon="1.70547">
        <ele>1804.05</ele>
        <time>2020-09-27T08:34:48Z</time>
      </trkpt>
      <trkpt lat="42.64127" lon="1.70546">
        <ele>1804.05</ele>
        <time>2020-09-27T08:35:06Z</time>
      </trkpt>
      <trkpt lat="42.64124" lon="1.70551">
        <ele>1805.01</ele>
        <time>2020-09-27T08:35:17Z</time>
      </trkpt>
      <trkpt lat="42.64121" lon="1.70557">
        <ele>1806.45</ele>
        <time>2020-09-27T08:35:27Z</time>
      </trkpt>
      <trkpt lat="42.6412" lon="1.70562">
        <ele>1806.94</ele>
        <time>2020-09-27T08:35:37Z</time>
      </trkpt>
      <trkpt lat="42.64118" lon="1.7057">
        <ele>1808.38</ele>
        <time>2020-09-27T08:35:48Z</time>
      </trkpt>
      <trkpt lat="42.64118" lon="1.70578">
        <ele>1809.82</ele>
        <time>2020-09-27T08:35:59Z</time>
      </trkpt>
      <trkpt lat="42.64117" lon="1.70584">
        <ele>1811.26</ele>
        <time>2020-09-27T08:36:10Z</time>
      </trkpt>
      <trkpt lat="42.64118" lon="1.70588">
        <ele>1812.22</ele>
        <time>2020-09-27T08:36:20Z</time>
      </trkpt>
      <trkpt lat="42.64117" lon="1.70593">
        <ele>1813.66</ele>
        <time>2020-09-27T08:36:29Z</time>
      </trkpt>
      <trkpt lat="42.64114" lon="1.70598">
        <ele>1814.63</ele>
        <time>2020-09-27T08:36:40Z</time>
      </trkpt>
      <trkpt lat="42.64114" lon="1.70601">
        <ele>1815.59</ele>
        <time>2020-09-27T08:36:54Z</time>
      </trkpt>
      <trkpt lat="42.64114" lon="1.70607">
        <ele>1817.51</ele>
        <time>2020-09-27T08:37:04Z</time>
      </trkpt>
      <trkpt lat="42.64113" lon="1.70611">
        <ele>1818.95</ele>
        <time>2020-09-27T08:37:13Z</time>
      </trkpt>
      <trkpt lat="42.64113" lon="1.70613">
        <ele>1819.91</ele>
        <time>2020-09-27T08:37:22Z</time>
      </trkpt>
      <trkpt lat="42.64112" lon="1.70616">
        <ele>1821.35</ele>
        <time>2020-09-27T08:37:33Z</time>
      </trkpt>
      <trkpt lat="42.64112" lon="1.70619">
        <ele>1822.32</ele>
        <time>2020-09-27T08:37:43Z</time>
      </trkpt>
      <trkpt lat="42.64117" lon="1.70622">
        <ele>1822.8</ele>
        <time>2020-09-27T08:37:54Z</time>
      </trkpt>
      <trkpt lat="42.64119" lon="1.70624">
        <ele>1823.28</ele>
        <time>2020-09-27T08:38:03Z</time>
      </trkpt>
      <trkpt lat="42.6412" lon="1.70628">
        <ele>1824.72</ele>
        <time>2020-09-27T08:38:14Z</time>
      </trkpt>
      <trkpt lat="42.64116" lon="1.70632">
        <ele>1825.68</ele>
        <time>2020-09-27T08:38:23Z</time>
      </trkpt>
      <trkpt lat="42.64114" lon="1.70633">
        <ele>1825.68</ele>
        <time>2020-09-27T08:38:34Z</time>
      </trkpt>
      <trkpt lat="42.64111" lon="1.70637">
        <ele>1825.68</ele>
        <time>2020-09-27T08:38:43Z</time>
      </trkpt>
      <trkpt lat="42.64103" lon="1.70637">
        <ele>1824.24</ele>
        <time>2020-09-27T08:38:53Z</time>
      </trkpt>
      <trkpt lat="42.64097" lon="1.7064">
        <ele>1823.28</ele>
        <time>2020-09-27T08:39:04Z</time>
      </trkpt>
      <trkpt lat="42.64092" lon="1.70645">
        <ele>1822.8</ele>
        <time>2020-09-27T08:39:14Z</time>
      </trkpt>
      <trkpt lat="42.64088" lon="1.70651">
        <ele>1822.8</ele>
        <time>2020-09-27T08:39:25Z</time>
      </trkpt>
      <trkpt lat="42.64083" lon="1.70655">
        <ele>1824.24</ele>
        <time>2020-09-27T08:39:36Z</time>
      </trkpt>
      <trkpt lat="42.6408" lon="1.70663">
        <ele>1824.72</ele>
        <time>2020-09-27T08:39:47Z</time>
      </trkpt>
      <trkpt lat="42.64077" lon="1.70667">
        <ele>1824.72</ele>
        <time>2020-09-27T08:39:57Z</time>
      </trkpt>
      <trkpt lat="42.64077" lon="1.70671">
        <ele>1826.16</ele>
        <time>2020-09-27T08:40:05Z</time>
      </trkpt>
      <trkpt lat="42.64076" lon="1.70673">
        <ele>1827.12</ele>
        <time>2020-09-27T08:40:15Z</time>
      </trkpt>
      <trkpt lat="42.64076" lon="1.70678">
        <ele>1827.6</ele>
        <time>2020-09-27T08:40:24Z</time>
      </trkpt>
      <trkpt lat="42.64075" lon="1.70682">
        <ele>1828.56</ele>
        <time>2020-09-27T08:40:34Z</time>
      </trkpt>
      <trkpt lat="42.64074" lon="1.70687">
        <ele>1830.49</ele>
        <time>2020-09-27T08:40:45Z</time>
      </trkpt>
      <trkpt lat="42.64073" lon="1.70691">
        <ele>1831.45</ele>
        <time>2020-09-27T08:40:52Z</time>
      </trkpt>
      <trkpt lat="42.64075" lon="1.70695">
        <ele>1832.41</ele>
        <time>2020-09-27T08:41:05Z</time>
      </trkpt>
      <trkpt lat="42.64076" lon="1.707">
        <ele>1833.85</ele>
        <time>2020-09-27T08:41:16Z</time>
      </trkpt>
      <trkpt lat="42.64076" lon="1.70704">
        <ele>1834.81</ele>
        <time>2020-09-27T08:41:25Z</time>
      </trkpt>
      <trkpt lat="42.64075" lon="1.70708">
        <ele>1835.77</ele>
        <time>2020-09-27T08:41:36Z</time>
      </trkpt>
      <trkpt lat="42.64073" lon="1.70711">
        <ele>1836.26</ele>
        <time>2020-09-27T08:41:46Z</time>
      </trkpt>
      <trkpt lat="42.6407" lon="1.70712">
        <ele>1836.74</ele>
        <time>2020-09-27T08:41:56Z</time>
      </trkpt>
      <trkpt lat="42.64069" lon="1.70715">
        <ele>1838.18</ele>
        <time>2020-09-27T08:42:06Z</time>
      </trkpt>
      <trkpt lat="42.64069" lon="1.70722">
        <ele>1839.14</ele>
        <time>2020-09-27T08:42:16Z</time>
      </trkpt>
      <trkpt lat="42.64069" lon="1.70724">
        <ele>1839.62</ele>
        <time>2020-09-27T08:42:26Z</time>
      </trkpt>
      <trkpt lat="42.64068" lon="1.70731">
        <ele>1840.58</ele>
        <time>2020-09-27T08:42:36Z</time>
      </trkpt>
      <trkpt lat="42.64068" lon="1.70737">
        <ele>1841.06</ele>
        <time>2020-09-27T08:42:46Z</time>
      </trkpt>
      <trkpt lat="42.64067" lon="1.70738">
        <ele>1841.54</ele>
        <time>2020-09-27T08:43:00Z</time>
      </trkpt>
      <trkpt lat="42.64066" lon="1.7074">
        <ele>1841.54</ele>
        <time>2020-09-27T08:43:14Z</time>
      </trkpt>
      <trkpt lat="42.64064" lon="1.70743">
        <ele>1842.02</ele>
        <time>2020-09-27T08:43:25Z</time>
      </trkpt>
      <trkpt lat="42.6406" lon="1.70752">
        <ele>1842.5</ele>
        <time>2020-09-27T08:43:37Z</time>
      </trkpt>
      <trkpt lat="42.64058" lon="1.70756">
        <ele>1842.5</ele>
        <time>2020-09-27T08:43:40Z</time>
      </trkpt>
      <trkpt lat="42.64053" lon="1.70764">
        <ele>1842.98</ele>
        <time>2020-09-27T08:43:51Z</time>
      </trkpt>
      <trkpt lat="42.64052" lon="1.70765">
        <ele>1842.98</ele>
        <time>2020-09-27T08:43:53Z</time>
      </trkpt>
      <trkpt lat="42.64047" lon="1.70771">
        <ele>1843.47</ele>
        <time>2020-09-27T08:44:02Z</time>
      </trkpt>
      <trkpt lat="42.64041" lon="1.70775">
        <ele>1843.47</ele>
        <time>2020-09-27T08:44:12Z</time>
      </trkpt>
      <trkpt lat="42.64034" lon="1.70781">
        <ele>1843.47</ele>
        <time>2020-09-27T08:44:24Z</time>
      </trkpt>
      <trkpt lat="42.64033" lon="1.70788">
        <ele>1843.47</ele>
        <time>2020-09-27T08:44:33Z</time>
      </trkpt>
      <trkpt lat="42.64028" lon="1.70794">
        <ele>1843.47</ele>
        <time>2020-09-27T08:44:45Z</time>
      </trkpt>
      <trkpt lat="42.64027" lon="1.70802">
        <ele>1844.43</ele>
        <time>2020-09-27T08:44:56Z</time>
      </trkpt>
      <trkpt lat="42.64024" lon="1.70809">
        <ele>1845.39</ele>
        <time>2020-09-27T08:45:06Z</time>
      </trkpt>
      <trkpt lat="42.64021" lon="1.70815">
        <ele>1846.35</ele>
        <time>2020-09-27T08:45:16Z</time>
      </trkpt>
      <trkpt lat="42.64015" lon="1.70819">
        <ele>1846.83</ele>
        <time>2020-09-27T08:45:26Z</time>
      </trkpt>
      <trkpt lat="42.64012" lon="1.70824">
        <ele>1848.27</ele>
        <time>2020-09-27T08:45:36Z</time>
      </trkpt>
      <trkpt lat="42.64009" lon="1.70829">
        <ele>1850.19</ele>
        <time>2020-09-27T08:45:47Z</time>
      </trkpt>
      <trkpt lat="42.64004" lon="1.70833">
        <ele>1850.68</ele>
        <time>2020-09-27T08:45:59Z</time>
      </trkpt>
      <trkpt lat="42.64003" lon="1.70842">
        <ele>1851.16</ele>
        <time>2020-09-27T08:46:10Z</time>
      </trkpt>
      <trkpt lat="42.64001" lon="1.70846">
        <ele>1852.12</ele>
        <time>2020-09-27T08:46:20Z</time>
      </trkpt>
      <trkpt lat="42.64001" lon="1.70851">
        <ele>1853.08</ele>
        <time>2020-09-27T08:46:30Z</time>
      </trkpt>
      <trkpt lat="42.63999" lon="1.70859">
        <ele>1854.04</ele>
        <time>2020-09-27T08:46:43Z</time>
      </trkpt>
      <trkpt lat="42.64" lon="1.70865">
        <ele>1855</ele>
        <time>2020-09-27T08:46:52Z</time>
      </trkpt>
      <trkpt lat="42.63998" lon="1.70868">
        <ele>1855.48</ele>
        <time>2020-09-27T08:47:02Z</time>
      </trkpt>
      <trkpt lat="42.63997" lon="1.70873">
        <ele>1855.96</ele>
        <time>2020-09-27T08:47:11Z</time>
      </trkpt>
      <trkpt lat="42.63991" lon="1.70879">
        <ele>1855.96</ele>
        <time>2020-09-27T08:47:22Z</time>
      </trkpt>
      <trkpt lat="42.63987" lon="1.70887">
        <ele>1855.96</ele>
        <time>2020-09-27T08:47:33Z</time>
      </trkpt>
      <trkpt lat="42.63986" lon="1.70892">
        <ele>1856.92</ele>
        <time>2020-09-27T08:47:43Z</time>
      </trkpt>
      <trkpt lat="42.63985" lon="1.70894">
        <ele>1857.89</ele>
        <time>2020-09-27T08:47:52Z</time>
      </trkpt>
      <trkpt lat="42.63987" lon="1.70899">
        <ele>1858.37</ele>
        <time>2020-09-27T08:48:04Z</time>
      </trkpt>
      <trkpt lat="42.63986" lon="1.70905">
        <ele>1859.33</ele>
        <time>2020-09-27T08:48:13Z</time>
      </trkpt>
      <trkpt lat="42.63985" lon="1.70911">
        <ele>1859.81</ele>
        <time>2020-09-27T08:48:23Z</time>
      </trkpt>
      <trkpt lat="42.63984" lon="1.70914">
        <ele>1861.73</ele>
        <time>2020-09-27T08:48:33Z</time>
      </trkpt>
      <trkpt lat="42.63982" lon="1.7092">
        <ele>1862.69</ele>
        <time>2020-09-27T08:48:43Z</time>
      </trkpt>
      <trkpt lat="42.63981" lon="1.70921">
        <ele>1863.17</ele>
        <time>2020-09-27T08:48:54Z</time>
      </trkpt>
      <trkpt lat="42.63984" lon="1.70932">
        <ele>1864.13</ele>
        <time>2020-09-27T08:49:04Z</time>
      </trkpt>
      <trkpt lat="42.6398" lon="1.70938">
        <ele>1865.58</ele>
        <time>2020-09-27T08:49:15Z</time>
      </trkpt>
      <trkpt lat="42.63985" lon="1.70942">
        <ele>1866.06</ele>
        <time>2020-09-27T08:49:26Z</time>
      </trkpt>
      <trkpt lat="42.63986" lon="1.70943">
        <ele>1867.5</ele>
        <time>2020-09-27T08:49:29Z</time>
      </trkpt>
      <trkpt lat="42.63987" lon="1.7095">
        <ele>1868.46</ele>
        <time>2020-09-27T08:49:39Z</time>
      </trkpt>
      <trkpt lat="42.63988" lon="1.70958">
        <ele>1868.46</ele>
        <time>2020-09-27T08:49:50Z</time>
      </trkpt>
      <trkpt lat="42.63988" lon="1.70964">
        <ele>1868.94</ele>
        <time>2020-09-27T08:50:03Z</time>
      </trkpt>
      <trkpt lat="42.63988" lon="1.70973">
        <ele>1869.9</ele>
        <time>2020-09-27T08:50:15Z</time>
      </trkpt>
      <trkpt lat="42.63985" lon="1.70979">
        <ele>1870.38</ele>
        <time>2020-09-27T08:50:26Z</time>
      </trkpt>
      <trkpt lat="42.63986" lon="1.70991">
        <ele>1871.34</ele>
        <time>2020-09-27T08:50:37Z</time>
      </trkpt>
      <trkpt lat="42.63982" lon="1.70996">
        <ele>1871.34</ele>
        <time>2020-09-27T08:50:47Z</time>
      </trkpt>
      <trkpt lat="42.63981" lon="1.71001">
        <ele>1871.34</ele>
        <time>2020-09-27T08:50:59Z</time>
      </trkpt>
      <trkpt lat="42.63978" lon="1.71003">
        <ele>1871.34</ele>
        <time>2020-09-27T08:51:06Z</time>
      </trkpt>
      <trkpt lat="42.63978" lon="1.71011">
        <ele>1871.82</ele>
        <time>2020-09-27T08:51:17Z</time>
      </trkpt>
      <trkpt lat="42.63975" lon="1.71018">
        <ele>1872.79</ele>
        <time>2020-09-27T08:51:29Z</time>
      </trkpt>
      <trkpt lat="42.63973" lon="1.71024">
        <ele>1872.79</ele>
        <time>2020-09-27T08:51:38Z</time>
      </trkpt>
      <trkpt lat="42.63967" lon="1.71027">
        <ele>1873.75</ele>
        <time>2020-09-27T08:51:49Z</time>
      </trkpt>
      <trkpt lat="42.63963" lon="1.71028">
        <ele>1873.75</ele>
        <time>2020-09-27T08:52:00Z</time>
      </trkpt>
      <trkpt lat="42.63962" lon="1.71034">
        <ele>1874.71</ele>
        <time>2020-09-27T08:52:12Z</time>
      </trkpt>
      <trkpt lat="42.63964" lon="1.71039">
        <ele>1875.19</ele>
        <time>2020-09-27T08:52:22Z</time>
      </trkpt>
      <trkpt lat="42.63967" lon="1.71045">
        <ele>1875.19</ele>
        <time>2020-09-27T08:52:32Z</time>
      </trkpt>
      <trkpt lat="42.63972" lon="1.71045">
        <ele>1876.15</ele>
        <time>2020-09-27T08:52:42Z</time>
      </trkpt>
      <trkpt lat="42.63977" lon="1.71047">
        <ele>1877.11</ele>
        <time>2020-09-27T08:52:53Z</time>
      </trkpt>
      <trkpt lat="42.63977" lon="1.71055">
        <ele>1878.07</ele>
        <time>2020-09-27T08:53:04Z</time>
      </trkpt>
      <trkpt lat="42.63977" lon="1.71058">
        <ele>1878.55</ele>
        <time>2020-09-27T08:53:14Z</time>
      </trkpt>
      <trkpt lat="42.63981" lon="1.7106">
        <ele>1879.03</ele>
        <time>2020-09-27T08:53:27Z</time>
      </trkpt>
      <trkpt lat="42.63982" lon="1.71068">
        <ele>1879.51</ele>
        <time>2020-09-27T08:53:38Z</time>
      </trkpt>
      <trkpt lat="42.63981" lon="1.71077">
        <ele>1880</ele>
        <time>2020-09-27T08:53:50Z</time>
      </trkpt>
      <trkpt lat="42.63983" lon="1.71079">
        <ele>1880.48</ele>
        <time>2020-09-27T08:54:00Z</time>
      </trkpt>
      <trkpt lat="42.6398" lon="1.71083">
        <ele>1881.44</ele>
        <time>2020-09-27T08:54:09Z</time>
      </trkpt>
      <trkpt lat="42.6398" lon="1.71093">
        <ele>1881.44</ele>
        <time>2020-09-27T08:54:20Z</time>
      </trkpt>
      <trkpt lat="42.6398" lon="1.71101">
        <ele>1882.4</ele>
        <time>2020-09-27T08:54:30Z</time>
      </trkpt>
      <trkpt lat="42.63982" lon="1.7111">
        <ele>1882.4</ele>
        <time>2020-09-27T08:54:40Z</time>
      </trkpt>
      <trkpt lat="42.63982" lon="1.71117">
        <ele>1883.84</ele>
        <time>2020-09-27T08:54:51Z</time>
      </trkpt>
      <trkpt lat="42.63984" lon="1.71123">
        <ele>1883.84</ele>
        <time>2020-09-27T08:55:02Z</time>
      </trkpt>
      <trkpt lat="42.63985" lon="1.7113">
        <ele>1885.28</ele>
        <time>2020-09-27T08:55:12Z</time>
      </trkpt>
      <trkpt lat="42.63987" lon="1.71134">
        <ele>1886.24</ele>
        <time>2020-09-27T08:55:23Z</time>
      </trkpt>
      <trkpt lat="42.63989" lon="1.71141">
        <ele>1887.21</ele>
        <time>2020-09-27T08:55:33Z</time>
      </trkpt>
      <trkpt lat="42.6399" lon="1.71147">
        <ele>1885.76</ele>
        <time>2020-09-27T08:55:41Z</time>
      </trkpt>
      <trkpt lat="42.6399" lon="1.71156">
        <ele>1887.69</ele>
        <time>2020-09-27T08:55:51Z</time>
      </trkpt>
      <trkpt lat="42.6399" lon="1.71158">
        <ele>1886.24</ele>
        <time>2020-09-27T08:55:53Z</time>
      </trkpt>
      <trkpt lat="42.63989" lon="1.71165">
        <ele>1887.69</ele>
        <time>2020-09-27T08:55:59Z</time>
      </trkpt>
      <trkpt lat="42.63989" lon="1.71169">
        <ele>1886.24</ele>
        <time>2020-09-27T08:56:03Z</time>
      </trkpt>
      <trkpt lat="42.63989" lon="1.71176">
        <ele>1886.24</ele>
        <time>2020-09-27T08:56:12Z</time>
      </trkpt>
      <trkpt lat="42.63989" lon="1.71174">
        <ele>1886.24</ele>
        <time>2020-09-27T08:56:27Z</time>
      </trkpt>
      <trkpt lat="42.63989" lon="1.71172">
        <ele>1887.69</ele>
        <time>2020-09-27T08:56:44Z</time>
      </trkpt>
      <trkpt lat="42.63991" lon="1.71174">
        <ele>1887.69</ele>
        <time>2020-09-27T08:56:55Z</time>
      </trkpt>
      <trkpt lat="42.63989" lon="1.71171">
        <ele>1887.69</ele>
        <time>2020-09-27T08:57:12Z</time>
      </trkpt>
      <trkpt lat="42.6399" lon="1.71173">
        <ele>1888.17</ele>
        <time>2020-09-27T08:57:28Z</time>
      </trkpt>
      <trkpt lat="42.63991" lon="1.71173">
        <ele>1888.65</ele>
        <time>2020-09-27T08:57:54Z</time>
      </trkpt>
      <trkpt lat="42.63991" lon="1.71174">
        <ele>1888.65</ele>
        <time>2020-09-27T08:58:16Z</time>
      </trkpt>
      <trkpt lat="42.63992" lon="1.71176">
        <ele>1888.65</ele>
        <time>2020-09-27T08:58:25Z</time>
      </trkpt>
      <trkpt lat="42.63991" lon="1.71174">
        <ele>1889.13</ele>
        <time>2020-09-27T08:58:43Z</time>
      </trkpt>
      <trkpt lat="42.63991" lon="1.71176">
        <ele>1887.69</ele>
        <time>2020-09-27T08:58:59Z</time>
      </trkpt>
      <trkpt lat="42.63991" lon="1.71175">
        <ele>1887.69</ele>
        <time>2020-09-27T08:59:00Z</time>
      </trkpt>
      <trkpt lat="42.63992" lon="1.71173">
        <ele>1887.21</ele>
        <time>2020-09-27T08:59:21Z</time>
      </trkpt>
      <trkpt lat="42.63991" lon="1.71174">
        <ele>1886.72</ele>
        <time>2020-09-27T08:59:46Z</time>
      </trkpt>
      <trkpt lat="42.63991" lon="1.71173">
        <ele>1886.72</ele>
        <time>2020-09-27T09:00:14Z</time>
      </trkpt>
      <trkpt lat="42.63991" lon="1.71173">
        <ele>1887.69</ele>
        <time>2020-09-27T09:00:19Z</time>
      </trkpt>
      <trkpt lat="42.63991" lon="1.71174">
        <ele>1887.69</ele>
        <time>2020-09-27T09:00:55Z</time>
      </trkpt>
      <trkpt lat="42.63991" lon="1.71175">
        <ele>1889.61</ele>
        <time>2020-09-27T09:01:16Z</time>
      </trkpt>
      <trkpt lat="42.6399" lon="1.71176">
        <ele>1889.61</ele>
        <time>2020-09-27T09:01:29Z</time>
      </trkpt>
      <trkpt lat="42.6399" lon="1.71173">
        <ele>1889.61</ele>
        <time>2020-09-27T09:01:43Z</time>
      </trkpt>
      <trkpt lat="42.6399" lon="1.71173">
        <ele>1888.17</ele>
        <time>2020-09-27T09:02:02Z</time>
      </trkpt>
      <trkpt lat="42.63988" lon="1.71176">
        <ele>1888.17</ele>
        <time>2020-09-27T09:02:15Z</time>
      </trkpt>
      <trkpt lat="42.63988" lon="1.71178">
        <ele>1888.17</ele>
        <time>2020-09-27T09:02:28Z</time>
      </trkpt>
      <trkpt lat="42.63989" lon="1.71177">
        <ele>1887.69</ele>
        <time>2020-09-27T09:02:51Z</time>
      </trkpt>
      <trkpt lat="42.63988" lon="1.71174">
        <ele>1887.69</ele>
        <time>2020-09-27T09:03:03Z</time>
      </trkpt>
      <trkpt lat="42.63989" lon="1.71171">
        <ele>1887.69</ele>
        <time>2020-09-27T09:03:23Z</time>
      </trkpt>
      <trkpt lat="42.6399" lon="1.71178">
        <ele>1887.69</ele>
        <time>2020-09-27T09:03:35Z</time>
      </trkpt>
      <trkpt lat="42.6399" lon="1.71178">
        <ele>1887.69</ele>
        <time>2020-09-27T09:03:53Z</time>
      </trkpt>
      <trkpt lat="42.63988" lon="1.71174">
        <ele>1887.21</ele>
        <time>2020-09-27T09:04:19Z</time>
      </trkpt>
      <trkpt lat="42.63988" lon="1.71174">
        <ele>1887.21</ele>
        <time>2020-09-27T09:04:38Z</time>
      </trkpt>
      <trkpt lat="42.63987" lon="1.7118">
        <ele>1887.21</ele>
        <time>2020-09-27T09:05:06Z</time>
      </trkpt>
      <trkpt lat="42.63988" lon="1.71177">
        <ele>1887.21</ele>
        <time>2020-09-27T09:05:26Z</time>
      </trkpt>
      <trkpt lat="42.63989" lon="1.71175">
        <ele>1887.21</ele>
        <time>2020-09-27T09:05:50Z</time>
      </trkpt>
      <trkpt lat="42.6399" lon="1.71175">
        <ele>1887.21</ele>
        <time>2020-09-27T09:06:07Z</time>
      </trkpt>
      <trkpt lat="42.63991" lon="1.71176">
        <ele>1887.21</ele>
        <time>2020-09-27T09:06:31Z</time>
      </trkpt>
      <trkpt lat="42.63984" lon="1.7118">
        <ele>1886.72</ele>
        <time>2020-09-27T09:06:44Z</time>
      </trkpt>
      <trkpt lat="42.63977" lon="1.7118">
        <ele>1886.24</ele>
        <time>2020-09-27T09:06:56Z</time>
      </trkpt>
      <trkpt lat="42.63973" lon="1.71175">
        <ele>1886.24</ele>
        <time>2020-09-27T09:07:06Z</time>
      </trkpt>
      <trkpt lat="42.63966" lon="1.71174">
        <ele>1886.24</ele>
        <time>2020-09-27T09:07:17Z</time>
      </trkpt>
      <trkpt lat="42.63965" lon="1.71174">
        <ele>1887.69</ele>
        <time>2020-09-27T09:07:19Z</time>
      </trkpt>
      <trkpt lat="42.63958" lon="1.71172">
        <ele>1887.69</ele>
        <time>2020-09-27T09:07:30Z</time>
      </trkpt>
      <trkpt lat="42.63952" lon="1.71168">
        <ele>1888.17</ele>
        <time>2020-09-27T09:07:41Z</time>
      </trkpt>
      <trkpt lat="42.63949" lon="1.71161">
        <ele>1888.17</ele>
        <time>2020-09-27T09:07:52Z</time>
      </trkpt>
      <trkpt lat="42.63948" lon="1.71162">
        <ele>1888.65</ele>
        <time>2020-09-27T09:08:10Z</time>
      </trkpt>
      <trkpt lat="42.63947" lon="1.71162">
        <ele>1888.17</ele>
        <time>2020-09-27T09:08:25Z</time>
      </trkpt>
      <trkpt lat="42.63945" lon="1.71159">
        <ele>1888.17</ele>
        <time>2020-09-27T09:08:43Z</time>
      </trkpt>
      <trkpt lat="42.63942" lon="1.71152">
        <ele>1888.17</ele>
        <time>2020-09-27T09:08:53Z</time>
      </trkpt>
      <trkpt lat="42.63937" lon="1.71145">
        <ele>1888.17</ele>
        <time>2020-09-27T09:09:04Z</time>
      </trkpt>
      <trkpt lat="42.63937" lon="1.71143">
        <ele>1887.21</ele>
        <time>2020-09-27T09:09:10Z</time>
      </trkpt>
      <trkpt lat="42.63934" lon="1.71136">
        <ele>1885.28</ele>
        <time>2020-09-27T09:09:22Z</time>
      </trkpt>
      <trkpt lat="42.63929" lon="1.71131">
        <ele>1884.32</ele>
        <time>2020-09-27T09:09:32Z</time>
      </trkpt>
      <trkpt lat="42.63924" lon="1.71128">
        <ele>1885.76</ele>
        <time>2020-09-27T09:09:44Z</time>
      </trkpt>
      <trkpt lat="42.63924" lon="1.71128">
        <ele>1885.76</ele>
        <time>2020-09-27T09:09:45Z</time>
      </trkpt>
      <trkpt lat="42.6392" lon="1.71121">
        <ele>1885.76</ele>
        <time>2020-09-27T09:09:55Z</time>
      </trkpt>
      <trkpt lat="42.63917" lon="1.71116">
        <ele>1885.76</ele>
        <time>2020-09-27T09:10:04Z</time>
      </trkpt>
      <trkpt lat="42.63916" lon="1.71109">
        <ele>1885.76</ele>
        <time>2020-09-27T09:10:14Z</time>
      </trkpt>
      <trkpt lat="42.63912" lon="1.71103">
        <ele>1884.8</ele>
        <time>2020-09-27T09:10:25Z</time>
      </trkpt>
      <trkpt lat="42.63906" lon="1.71098">
        <ele>1885.76</ele>
        <time>2020-09-27T09:10:37Z</time>
      </trkpt>
      <trkpt lat="42.639" lon="1.71097">
        <ele>1885.76</ele>
        <time>2020-09-27T09:10:47Z</time>
      </trkpt>
      <trkpt lat="42.63897" lon="1.71099">
        <ele>1886.72</ele>
        <time>2020-09-27T09:10:56Z</time>
      </trkpt>
      <trkpt lat="42.63896" lon="1.71098">
        <ele>1887.69</ele>
        <time>2020-09-27T09:11:00Z</time>
      </trkpt>
      <trkpt lat="42.63892" lon="1.71094">
        <ele>1888.65</ele>
        <time>2020-09-27T09:11:09Z</time>
      </trkpt>
      <trkpt lat="42.63891" lon="1.71092">
        <ele>1888.65</ele>
        <time>2020-09-27T09:11:20Z</time>
      </trkpt>
      <trkpt lat="42.63889" lon="1.71087">
        <ele>1889.61</ele>
        <time>2020-09-27T09:11:31Z</time>
      </trkpt>
      <trkpt lat="42.63887" lon="1.71089">
        <ele>1889.61</ele>
        <time>2020-09-27T09:11:39Z</time>
      </trkpt>
      <trkpt lat="42.63885" lon="1.71088">
        <ele>1890.09</ele>
        <time>2020-09-27T09:11:47Z</time>
      </trkpt>
      <trkpt lat="42.6388" lon="1.71086">
        <ele>1890.57</ele>
        <time>2020-09-27T09:11:58Z</time>
      </trkpt>
      <trkpt lat="42.63877" lon="1.71085">
        <ele>1892.01</ele>
        <time>2020-09-27T09:12:07Z</time>
      </trkpt>
      <trkpt lat="42.63874" lon="1.71081">
        <ele>1892.01</ele>
        <time>2020-09-27T09:12:18Z</time>
      </trkpt>
      <trkpt lat="42.63873" lon="1.71081">
        <ele>1892.01</ele>
        <time>2020-09-27T09:12:28Z</time>
      </trkpt>
      <trkpt lat="42.63871" lon="1.71076">
        <ele>1892.49</ele>
        <time>2020-09-27T09:12:38Z</time>
      </trkpt>
      <trkpt lat="42.63868" lon="1.71075">
        <ele>1893.45</ele>
        <time>2020-09-27T09:12:50Z</time>
      </trkpt>
      <trkpt lat="42.63866" lon="1.71074">
        <ele>1894.42</ele>
        <time>2020-09-27T09:13:03Z</time>
      </trkpt>
      <trkpt lat="42.63861" lon="1.71073">
        <ele>1896.34</ele>
        <time>2020-09-27T09:13:13Z</time>
      </trkpt>
      <trkpt lat="42.63858" lon="1.71075">
        <ele>1896.34</ele>
        <time>2020-09-27T09:13:22Z</time>
      </trkpt>
      <trkpt lat="42.63852" lon="1.71081">
        <ele>1894.9</ele>
        <time>2020-09-27T09:13:33Z</time>
      </trkpt>
      <trkpt lat="42.63849" lon="1.71081">
        <ele>1894.9</ele>
        <time>2020-09-27T09:13:43Z</time>
      </trkpt>
      <trkpt lat="42.63849" lon="1.71082">
        <ele>1894.42</ele>
        <time>2020-09-27T09:13:51Z</time>
      </trkpt>
      <trkpt lat="42.63844" lon="1.71078">
        <ele>1894.42</ele>
        <time>2020-09-27T09:14:01Z</time>
      </trkpt>
      <trkpt lat="42.63844" lon="1.71077">
        <ele>1895.86</ele>
        <time>2020-09-27T09:14:05Z</time>
      </trkpt>
      <trkpt lat="42.63842" lon="1.71073">
        <ele>1896.34</ele>
        <time>2020-09-27T09:14:14Z</time>
      </trkpt>
      <trkpt lat="42.63841" lon="1.71074">
        <ele>1897.3</ele>
        <time>2020-09-27T09:14:42Z</time>
      </trkpt>
      <trkpt lat="42.6384" lon="1.71075">
        <ele>1895.86</ele>
        <time>2020-09-27T09:15:06Z</time>
      </trkpt>
      <trkpt lat="42.6384" lon="1.71074">
        <ele>1895.86</ele>
        <time>2020-09-27T09:15:07Z</time>
      </trkpt>
      <trkpt lat="42.6384" lon="1.7107">
        <ele>1895.86</ele>
        <time>2020-09-27T09:15:22Z</time>
      </trkpt>
      <trkpt lat="42.63838" lon="1.71069">
        <ele>1897.3</ele>
        <time>2020-09-27T09:15:30Z</time>
      </trkpt>
      <trkpt lat="42.63837" lon="1.71069">
        <ele>1897.3</ele>
        <time>2020-09-27T09:15:31Z</time>
      </trkpt>
      <trkpt lat="42.63835" lon="1.71064">
        <ele>1898.74</ele>
        <time>2020-09-27T09:15:44Z</time>
      </trkpt>
      <trkpt lat="42.63832" lon="1.71058">
        <ele>1899.7</ele>
        <time>2020-09-27T09:15:56Z</time>
      </trkpt>
      <trkpt lat="42.63829" lon="1.71055">
        <ele>1901.63</ele>
        <time>2020-09-27T09:16:05Z</time>
      </trkpt>
      <trkpt lat="42.63827" lon="1.7105">
        <ele>1902.11</ele>
        <time>2020-09-27T09:16:15Z</time>
      </trkpt>
      <trkpt lat="42.63825" lon="1.71047">
        <ele>1903.55</ele>
        <time>2020-09-27T09:16:25Z</time>
      </trkpt>
      <trkpt lat="42.63823" lon="1.71041">
        <ele>1904.99</ele>
        <time>2020-09-27T09:16:35Z</time>
      </trkpt>
      <trkpt lat="42.63821" lon="1.71036">
        <ele>1906.91</ele>
        <time>2020-09-27T09:16:48Z</time>
      </trkpt>
      <trkpt lat="42.63819" lon="1.71032">
        <ele>1909.32</ele>
        <time>2020-09-27T09:17:00Z</time>
      </trkpt>
      <trkpt lat="42.63818" lon="1.71031">
        <ele>1911.24</ele>
        <time>2020-09-27T09:17:08Z</time>
      </trkpt>
      <trkpt lat="42.63814" lon="1.71033">
        <ele>1913.64</ele>
        <time>2020-09-27T09:17:18Z</time>
      </trkpt>
      <trkpt lat="42.63809" lon="1.71037">
        <ele>1914.12</ele>
        <time>2020-09-27T09:17:29Z</time>
      </trkpt>
      <trkpt lat="42.63806" lon="1.71039">
        <ele>1916.53</ele>
        <time>2020-09-27T09:17:37Z</time>
      </trkpt>
      <trkpt lat="42.63804" lon="1.71041">
        <ele>1917.01</ele>
        <time>2020-09-27T09:17:41Z</time>
      </trkpt>
      <trkpt lat="42.638" lon="1.71046">
        <ele>1915.08</ele>
        <time>2020-09-27T09:17:51Z</time>
      </trkpt>
      <trkpt lat="42.63801" lon="1.71051">
        <ele>1916.04</ele>
        <time>2020-09-27T09:18:03Z</time>
      </trkpt>
      <trkpt lat="42.63804" lon="1.71055">
        <ele>1917.49</ele>
        <time>2020-09-27T09:18:14Z</time>
      </trkpt>
      <trkpt lat="42.63802" lon="1.7106">
        <ele>1917.97</ele>
        <time>2020-09-27T09:18:24Z</time>
      </trkpt>
      <trkpt lat="42.63798" lon="1.71064">
        <ele>1920.37</ele>
        <time>2020-09-27T09:18:35Z</time>
      </trkpt>
      <trkpt lat="42.63798" lon="1.71072">
        <ele>1920.37</ele>
        <time>2020-09-27T09:18:47Z</time>
      </trkpt>
      <trkpt lat="42.63797" lon="1.71076">
        <ele>1921.81</ele>
        <time>2020-09-27T09:18:56Z</time>
      </trkpt>
      <trkpt lat="42.63795" lon="1.71081">
        <ele>1922.77</ele>
        <time>2020-09-27T09:19:07Z</time>
      </trkpt>
      <trkpt lat="42.63792" lon="1.71083">
        <ele>1923.74</ele>
        <time>2020-09-27T09:19:16Z</time>
      </trkpt>
      <trkpt lat="42.6379" lon="1.71085">
        <ele>1924.7</ele>
        <time>2020-09-27T09:19:25Z</time>
      </trkpt>
      <trkpt lat="42.63789" lon="1.71088">
        <ele>1926.62</ele>
        <time>2020-09-27T09:19:33Z</time>
      </trkpt>
      <trkpt lat="42.63783" lon="1.71092">
        <ele>1928.54</ele>
        <time>2020-09-27T09:19:44Z</time>
      </trkpt>
      <trkpt lat="42.6378" lon="1.71095">
        <ele>1929.5</ele>
        <time>2020-09-27T09:19:54Z</time>
      </trkpt>
      <trkpt lat="42.63779" lon="1.71101">
        <ele>1930.46</ele>
        <time>2020-09-27T09:20:07Z</time>
      </trkpt>
      <trkpt lat="42.6378" lon="1.71106">
        <ele>1931.91</ele>
        <time>2020-09-27T09:20:17Z</time>
      </trkpt>
      <trkpt lat="42.63779" lon="1.71112">
        <ele>1933.35</ele>
        <time>2020-09-27T09:20:27Z</time>
      </trkpt>
      <trkpt lat="42.63777" lon="1.71113">
        <ele>1934.79</ele>
        <time>2020-09-27T09:20:37Z</time>
      </trkpt>
      <trkpt lat="42.63776" lon="1.71117">
        <ele>1936.71</ele>
        <time>2020-09-27T09:20:42Z</time>
      </trkpt>
      <trkpt lat="42.63775" lon="1.71119">
        <ele>1934.79</ele>
        <time>2020-09-27T09:20:46Z</time>
      </trkpt>
      <trkpt lat="42.63772" lon="1.71121">
        <ele>1934.79</ele>
        <time>2020-09-27T09:20:55Z</time>
      </trkpt>
      <trkpt lat="42.63771" lon="1.71125">
        <ele>1936.23</ele>
        <time>2020-09-27T09:20:59Z</time>
      </trkpt>
      <trkpt lat="42.63768" lon="1.71123">
        <ele>1934.79</ele>
        <time>2020-09-27T09:21:11Z</time>
      </trkpt>
      <trkpt lat="42.63766" lon="1.71128">
        <ele>1936.71</ele>
        <time>2020-09-27T09:21:21Z</time>
      </trkpt>
      <trkpt lat="42.63763" lon="1.71133">
        <ele>1937.67</ele>
        <time>2020-09-27T09:21:31Z</time>
      </trkpt>
      <trkpt lat="42.63761" lon="1.71136">
        <ele>1938.16</ele>
        <time>2020-09-27T09:21:41Z</time>
      </trkpt>
      <trkpt lat="42.63758" lon="1.71138">
        <ele>1939.12</ele>
        <time>2020-09-27T09:21:49Z</time>
      </trkpt>
      <trkpt lat="42.63757" lon="1.71139">
        <ele>1940.08</ele>
        <time>2020-09-27T09:21:58Z</time>
      </trkpt>
      <trkpt lat="42.63752" lon="1.71138">
        <ele>1940.08</ele>
        <time>2020-09-27T09:22:06Z</time>
      </trkpt>
      <trkpt lat="42.63749" lon="1.71139">
        <ele>1941.52</ele>
        <time>2020-09-27T09:22:17Z</time>
      </trkpt>
      <trkpt lat="42.63746" lon="1.7114">
        <ele>1942</ele>
        <time>2020-09-27T09:22:27Z</time>
      </trkpt>
      <trkpt lat="42.63745" lon="1.71144">
        <ele>1943.44</ele>
        <time>2020-09-27T09:22:36Z</time>
      </trkpt>
      <trkpt lat="42.63745" lon="1.71152">
        <ele>1944.88</ele>
        <time>2020-09-27T09:22:50Z</time>
      </trkpt>
      <trkpt lat="42.63744" lon="1.71153">
        <ele>1945.36</ele>
        <time>2020-09-27T09:23:01Z</time>
      </trkpt>
      <trkpt lat="42.63742" lon="1.71158">
        <ele>1946.81</ele>
        <time>2020-09-27T09:23:13Z</time>
      </trkpt>
      <trkpt lat="42.6374" lon="1.71162">
        <ele>1948.25</ele>
        <time>2020-09-27T09:23:23Z</time>
      </trkpt>
      <trkpt lat="42.63738" lon="1.71163">
        <ele>1949.21</ele>
        <time>2020-09-27T09:23:33Z</time>
      </trkpt>
      <trkpt lat="42.63739" lon="1.7117">
        <ele>1951.13</ele>
        <time>2020-09-27T09:23:45Z</time>
      </trkpt>
      <trkpt lat="42.63739" lon="1.71175">
        <ele>1953.06</ele>
        <time>2020-09-27T09:23:56Z</time>
      </trkpt>
      <trkpt lat="42.63737" lon="1.71176">
        <ele>1954.98</ele>
        <time>2020-09-27T09:24:04Z</time>
      </trkpt>
      <trkpt lat="42.63735" lon="1.71178">
        <ele>1955.46</ele>
        <time>2020-09-27T09:24:12Z</time>
      </trkpt>
      <trkpt lat="42.63734" lon="1.71181">
        <ele>1956.42</ele>
        <time>2020-09-27T09:24:22Z</time>
      </trkpt>
      <trkpt lat="42.63734" lon="1.71183">
        <ele>1959.78</ele>
        <time>2020-09-27T09:24:28Z</time>
      </trkpt>
      <trkpt lat="42.63734" lon="1.71183">
        <ele>1959.78</ele>
        <time>2020-09-27T09:24:29Z</time>
      </trkpt>
      <trkpt lat="42.63734" lon="1.71181">
        <ele>1958.34</ele>
        <time>2020-09-27T09:24:46Z</time>
      </trkpt>
      <trkpt lat="42.63731" lon="1.71182">
        <ele>1958.34</ele>
        <time>2020-09-27T09:24:56Z</time>
      </trkpt>
      <trkpt lat="42.63725" lon="1.71184">
        <ele>1959.78</ele>
        <time>2020-09-27T09:25:06Z</time>
      </trkpt>
      <trkpt lat="42.63723" lon="1.71189">
        <ele>1960.75</ele>
        <time>2020-09-27T09:25:17Z</time>
      </trkpt>
      <trkpt lat="42.63718" lon="1.71192">
        <ele>1962.19</ele>
        <time>2020-09-27T09:25:29Z</time>
      </trkpt>
      <trkpt lat="42.63714" lon="1.71196">
        <ele>1962.67</ele>
        <time>2020-09-27T09:25:40Z</time>
      </trkpt>
      <trkpt lat="42.63709" lon="1.71198">
        <ele>1964.11</ele>
        <time>2020-09-27T09:25:51Z</time>
      </trkpt>
      <trkpt lat="42.63707" lon="1.71202">
        <ele>1964.59</ele>
        <time>2020-09-27T09:26:02Z</time>
      </trkpt>
      <trkpt lat="42.63705" lon="1.71203">
        <ele>1964.59</ele>
        <time>2020-09-27T09:26:09Z</time>
      </trkpt>
      <trkpt lat="42.63701" lon="1.71204">
        <ele>1965.07</ele>
        <time>2020-09-27T09:26:17Z</time>
      </trkpt>
      <trkpt lat="42.63696" lon="1.71203">
        <ele>1967.96</ele>
        <time>2020-09-27T09:26:32Z</time>
      </trkpt>
      <trkpt lat="42.63693" lon="1.71204">
        <ele>1967.96</ele>
        <time>2020-09-27T09:26:42Z</time>
      </trkpt>
      <trkpt lat="42.63691" lon="1.71207">
        <ele>1968.44</ele>
        <time>2020-09-27T09:26:51Z</time>
      </trkpt>
      <trkpt lat="42.63692" lon="1.71213">
        <ele>1968.92</ele>
        <time>2020-09-27T09:26:59Z</time>
      </trkpt>
      <trkpt lat="42.63688" lon="1.71215">
        <ele>1969.88</ele>
        <time>2020-09-27T09:27:12Z</time>
      </trkpt>
      <trkpt lat="42.63685" lon="1.71217">
        <ele>1971.32</ele>
        <time>2020-09-27T09:27:20Z</time>
      </trkpt>
      <trkpt lat="42.63681" lon="1.71218">
        <ele>1972.28</ele>
        <time>2020-09-27T09:27:30Z</time>
      </trkpt>
      <trkpt lat="42.63679" lon="1.71218">
        <ele>1973.72</ele>
        <time>2020-09-27T09:27:38Z</time>
      </trkpt>
      <trkpt lat="42.63675" lon="1.7122">
        <ele>1974.2</ele>
        <time>2020-09-27T09:27:49Z</time>
      </trkpt>
      <trkpt lat="42.63674" lon="1.71223">
        <ele>1974.69</ele>
        <time>2020-09-27T09:28:00Z</time>
      </trkpt>
      <trkpt lat="42.63669" lon="1.71222">
        <ele>1976.13</ele>
        <time>2020-09-27T09:28:12Z</time>
      </trkpt>
      <trkpt lat="42.63666" lon="1.71222">
        <ele>1976.13</ele>
        <time>2020-09-27T09:28:23Z</time>
      </trkpt>
      <trkpt lat="42.63663" lon="1.71223">
        <ele>1977.09</ele>
        <time>2020-09-27T09:28:33Z</time>
      </trkpt>
      <trkpt lat="42.63661" lon="1.71224">
        <ele>1978.53</ele>
        <time>2020-09-27T09:28:39Z</time>
      </trkpt>
      <trkpt lat="42.63658" lon="1.71226">
        <ele>1979.97</ele>
        <time>2020-09-27T09:28:48Z</time>
      </trkpt>
      <trkpt lat="42.63657" lon="1.7123">
        <ele>1982.38</ele>
        <time>2020-09-27T09:28:57Z</time>
      </trkpt>
      <trkpt lat="42.63657" lon="1.71235">
        <ele>1982.38</ele>
        <time>2020-09-27T09:29:08Z</time>
      </trkpt>
      <trkpt lat="42.63657" lon="1.71236">
        <ele>1980.93</ele>
        <time>2020-09-27T09:29:19Z</time>
      </trkpt>
      <trkpt lat="42.63656" lon="1.71235">
        <ele>1982.38</ele>
        <time>2020-09-27T09:29:43Z</time>
      </trkpt>
      <trkpt lat="42.63655" lon="1.71237">
        <ele>1982.38</ele>
        <time>2020-09-27T09:29:54Z</time>
      </trkpt>
      <trkpt lat="42.63652" lon="1.71237">
        <ele>1984.3</ele>
        <time>2020-09-27T09:30:04Z</time>
      </trkpt>
      <trkpt lat="42.63648" lon="1.71237">
        <ele>1984.3</ele>
        <time>2020-09-27T09:30:15Z</time>
      </trkpt>
      <trkpt lat="42.63646" lon="1.71239">
        <ele>1984.78</ele>
        <time>2020-09-27T09:30:24Z</time>
      </trkpt>
      <trkpt lat="42.63643" lon="1.7124">
        <ele>1985.74</ele>
        <time>2020-09-27T09:30:33Z</time>
      </trkpt>
      <trkpt lat="42.6364" lon="1.71242">
        <ele>1986.7</ele>
        <time>2020-09-27T09:30:46Z</time>
      </trkpt>
      <trkpt lat="42.63638" lon="1.71245">
        <ele>1987.66</ele>
        <time>2020-09-27T09:30:56Z</time>
      </trkpt>
      <trkpt lat="42.63638" lon="1.71248">
        <ele>1989.1</ele>
        <time>2020-09-27T09:31:05Z</time>
      </trkpt>
      <trkpt lat="42.63637" lon="1.71251">
        <ele>1990.07</ele>
        <time>2020-09-27T09:31:13Z</time>
      </trkpt>
      <trkpt lat="42.63636" lon="1.71254">
        <ele>1990.55</ele>
        <time>2020-09-27T09:31:23Z</time>
      </trkpt>
      <trkpt lat="42.63637" lon="1.71258">
        <ele>1991.03</ele>
        <time>2020-09-27T09:31:33Z</time>
      </trkpt>
      <trkpt lat="42.63635" lon="1.7126">
        <ele>1992.47</ele>
        <time>2020-09-27T09:31:45Z</time>
      </trkpt>
      <trkpt lat="42.63634" lon="1.7126">
        <ele>1993.43</ele>
        <time>2020-09-27T09:31:56Z</time>
      </trkpt>
      <trkpt lat="42.63633" lon="1.71263">
        <ele>1994.39</ele>
        <time>2020-09-27T09:32:06Z</time>
      </trkpt>
      <trkpt lat="42.63631" lon="1.71265">
        <ele>1994.39</ele>
        <time>2020-09-27T09:32:15Z</time>
      </trkpt>
      <trkpt lat="42.63626" lon="1.71265">
        <ele>1995.83</ele>
        <time>2020-09-27T09:32:26Z</time>
      </trkpt>
      <trkpt lat="42.63624" lon="1.71267">
        <ele>1996.8</ele>
        <time>2020-09-27T09:32:35Z</time>
      </trkpt>
      <trkpt lat="42.63625" lon="1.71272">
        <ele>1997.76</ele>
        <time>2020-09-27T09:32:44Z</time>
      </trkpt>
      <trkpt lat="42.63624" lon="1.71277">
        <ele>1997.76</ele>
        <time>2020-09-27T09:32:56Z</time>
      </trkpt>
      <trkpt lat="42.63622" lon="1.71278">
        <ele>1999.2</ele>
        <time>2020-09-27T09:33:06Z</time>
      </trkpt>
      <trkpt lat="42.63619" lon="1.7128">
        <ele>2000.16</ele>
        <time>2020-09-27T09:33:17Z</time>
      </trkpt>
      <trkpt lat="42.63617" lon="1.71281">
        <ele>2001.12</ele>
        <time>2020-09-27T09:33:30Z</time>
      </trkpt>
      <trkpt lat="42.63617" lon="1.71285">
        <ele>2002.08</ele>
        <time>2020-09-27T09:33:39Z</time>
      </trkpt>
      <trkpt lat="42.63615" lon="1.71289">
        <ele>2003.04</ele>
        <time>2020-09-27T09:33:51Z</time>
      </trkpt>
      <trkpt lat="42.63612" lon="1.7129">
        <ele>2004.49</ele>
        <time>2020-09-27T09:34:03Z</time>
      </trkpt>
      <trkpt lat="42.63608" lon="1.71292">
        <ele>2005.45</ele>
        <time>2020-09-27T09:34:11Z</time>
      </trkpt>
      <trkpt lat="42.63608" lon="1.71297">
        <ele>2006.89</ele>
        <time>2020-09-27T09:34:23Z</time>
      </trkpt>
      <trkpt lat="42.63608" lon="1.71302">
        <ele>2008.33</ele>
        <time>2020-09-27T09:34:34Z</time>
      </trkpt>
      <trkpt lat="42.63608" lon="1.71307">
        <ele>2009.29</ele>
        <time>2020-09-27T09:34:45Z</time>
      </trkpt>
      <trkpt lat="42.63607" lon="1.7131">
        <ele>2009.77</ele>
        <time>2020-09-27T09:34:53Z</time>
      </trkpt>
      <trkpt lat="42.63604" lon="1.71313">
        <ele>2011.7</ele>
        <time>2020-09-27T09:35:03Z</time>
      </trkpt>
      <trkpt lat="42.63603" lon="1.71317">
        <ele>2012.66</ele>
        <time>2020-09-27T09:35:15Z</time>
      </trkpt>
      <trkpt lat="42.63601" lon="1.71322">
        <ele>2012.18</ele>
        <time>2020-09-27T09:35:25Z</time>
      </trkpt>
      <trkpt lat="42.63601" lon="1.71323">
        <ele>2015.06</ele>
        <time>2020-09-27T09:35:28Z</time>
      </trkpt>
      <trkpt lat="42.63602" lon="1.71328">
        <ele>2016.02</ele>
        <time>2020-09-27T09:35:39Z</time>
      </trkpt>
      <trkpt lat="42.63602" lon="1.71333">
        <ele>2017.46</ele>
        <time>2020-09-27T09:35:49Z</time>
      </trkpt>
      <trkpt lat="42.63603" lon="1.71337">
        <ele>2017.46</ele>
        <time>2020-09-27T09:36:01Z</time>
      </trkpt>
      <trkpt lat="42.63603" lon="1.71341">
        <ele>2017.94</ele>
        <time>2020-09-27T09:36:11Z</time>
      </trkpt>
      <trkpt lat="42.63602" lon="1.71342">
        <ele>2019.39</ele>
        <time>2020-09-27T09:36:20Z</time>
      </trkpt>
      <trkpt lat="42.63599" lon="1.71343">
        <ele>2019.87</ele>
        <time>2020-09-27T09:36:33Z</time>
      </trkpt>
      <trkpt lat="42.63596" lon="1.71342">
        <ele>2020.35</ele>
        <time>2020-09-27T09:36:44Z</time>
      </trkpt>
      <trkpt lat="42.63592" lon="1.71342">
        <ele>2019.87</ele>
        <time>2020-09-27T09:36:55Z</time>
      </trkpt>
      <trkpt lat="42.63591" lon="1.71344">
        <ele>2020.83</ele>
        <time>2020-09-27T09:37:04Z</time>
      </trkpt>
      <trkpt lat="42.63589" lon="1.71345">
        <ele>2021.31</ele>
        <time>2020-09-27T09:37:14Z</time>
      </trkpt>
      <trkpt lat="42.63589" lon="1.71347">
        <ele>2022.27</ele>
        <time>2020-09-27T09:37:24Z</time>
      </trkpt>
      <trkpt lat="42.63588" lon="1.7135">
        <ele>2022.27</ele>
        <time>2020-09-27T09:37:36Z</time>
      </trkpt>
      <trkpt lat="42.63587" lon="1.71349">
        <ele>2022.75</ele>
        <time>2020-09-27T09:37:48Z</time>
      </trkpt>
      <trkpt lat="42.63586" lon="1.71351">
        <ele>2024.19</ele>
        <time>2020-09-27T09:37:58Z</time>
      </trkpt>
      <trkpt lat="42.63583" lon="1.71354">
        <ele>2024.67</ele>
        <time>2020-09-27T09:38:09Z</time>
      </trkpt>
      <trkpt lat="42.63582" lon="1.71357">
        <ele>2026.12</ele>
        <time>2020-09-27T09:38:20Z</time>
      </trkpt>
      <trkpt lat="42.6358" lon="1.71358">
        <ele>2026.6</ele>
        <time>2020-09-27T09:38:30Z</time>
      </trkpt>
      <trkpt lat="42.63577" lon="1.71359">
        <ele>2028.52</ele>
        <time>2020-09-27T09:38:40Z</time>
      </trkpt>
      <trkpt lat="42.63576" lon="1.71361">
        <ele>2029</ele>
        <time>2020-09-27T09:38:49Z</time>
      </trkpt>
      <trkpt lat="42.63573" lon="1.71364">
        <ele>2029.96</ele>
        <time>2020-09-27T09:39:00Z</time>
      </trkpt>
      <trkpt lat="42.63569" lon="1.71364">
        <ele>2030.92</ele>
        <time>2020-09-27T09:39:10Z</time>
      </trkpt>
      <trkpt lat="42.63566" lon="1.71365">
        <ele>2031.4</ele>
        <time>2020-09-27T09:39:18Z</time>
      </trkpt>
      <trkpt lat="42.63565" lon="1.71369">
        <ele>2032.36</ele>
        <time>2020-09-27T09:39:31Z</time>
      </trkpt>
      <trkpt lat="42.63565" lon="1.71369">
        <ele>2033.33</ele>
        <time>2020-09-27T09:39:48Z</time>
      </trkpt>
      <trkpt lat="42.63565" lon="1.7137">
        <ele>2036.69</ele>
        <time>2020-09-27T09:39:59Z</time>
      </trkpt>
      <trkpt lat="42.63564" lon="1.71371">
        <ele>2034.77</ele>
        <time>2020-09-27T09:40:02Z</time>
      </trkpt>
      <trkpt lat="42.63563" lon="1.71374">
        <ele>2033.81</ele>
        <time>2020-09-27T09:40:08Z</time>
      </trkpt>
      <trkpt lat="42.63561" lon="1.71379">
        <ele>2035.25</ele>
        <time>2020-09-27T09:40:16Z</time>
      </trkpt>
      <trkpt lat="42.6356" lon="1.71383">
        <ele>2035.73</ele>
        <time>2020-09-27T09:40:28Z</time>
      </trkpt>
      <trkpt lat="42.63557" lon="1.71387">
        <ele>2036.69</ele>
        <time>2020-09-27T09:40:42Z</time>
      </trkpt>
      <trkpt lat="42.63555" lon="1.71393">
        <ele>2037.17</ele>
        <time>2020-09-27T09:40:55Z</time>
      </trkpt>
      <trkpt lat="42.63554" lon="1.71399">
        <ele>2037.65</ele>
        <time>2020-09-27T09:41:04Z</time>
      </trkpt>
      <trkpt lat="42.63553" lon="1.71405">
        <ele>2039.57</ele>
        <time>2020-09-27T09:41:17Z</time>
      </trkpt>
      <trkpt lat="42.63551" lon="1.71409">
        <ele>2040.05</ele>
        <time>2020-09-27T09:41:30Z</time>
      </trkpt>
      <trkpt lat="42.6355" lon="1.71412">
        <ele>2041.02</ele>
        <time>2020-09-27T09:41:40Z</time>
      </trkpt>
      <trkpt lat="42.63548" lon="1.71417">
        <ele>2041.5</ele>
        <time>2020-09-27T09:41:51Z</time>
      </trkpt>
      <trkpt lat="42.63547" lon="1.7142">
        <ele>2041.98</ele>
        <time>2020-09-27T09:42:01Z</time>
      </trkpt>
      <trkpt lat="42.63545" lon="1.71422">
        <ele>2042.46</ele>
        <time>2020-09-27T09:42:10Z</time>
      </trkpt>
      <trkpt lat="42.63543" lon="1.71425">
        <ele>2043.42</ele>
        <time>2020-09-27T09:42:18Z</time>
      </trkpt>
      <trkpt lat="42.63541" lon="1.71427">
        <ele>2042.94</ele>
        <time>2020-09-27T09:42:29Z</time>
      </trkpt>
      <trkpt lat="42.63541" lon="1.71429">
        <ele>2044.38</ele>
        <time>2020-09-27T09:42:32Z</time>
      </trkpt>
      <trkpt lat="42.6354" lon="1.71432">
        <ele>2044.38</ele>
        <time>2020-09-27T09:42:43Z</time>
      </trkpt>
      <trkpt lat="42.63537" lon="1.71434">
        <ele>2046.78</ele>
        <time>2020-09-27T09:42:55Z</time>
      </trkpt>
      <trkpt lat="42.63533" lon="1.71436">
        <ele>2047.75</ele>
        <time>2020-09-27T09:43:06Z</time>
      </trkpt>
      <trkpt lat="42.63531" lon="1.71439">
        <ele>2048.71</ele>
        <time>2020-09-27T09:43:16Z</time>
      </trkpt>
      <trkpt lat="42.63529" lon="1.71441">
        <ele>2050.15</ele>
        <time>2020-09-27T09:43:29Z</time>
      </trkpt>
      <trkpt lat="42.63528" lon="1.71444">
        <ele>2050.15</ele>
        <time>2020-09-27T09:43:38Z</time>
      </trkpt>
      <trkpt lat="42.63527" lon="1.71445">
        <ele>2050.15</ele>
        <time>2020-09-27T09:43:48Z</time>
      </trkpt>
      <trkpt lat="42.63525" lon="1.71443">
        <ele>2048.71</ele>
        <time>2020-09-27T09:43:59Z</time>
      </trkpt>
      <trkpt lat="42.63525" lon="1.71444">
        <ele>2048.71</ele>
        <time>2020-09-27T09:44:00Z</time>
      </trkpt>
      <trkpt lat="42.63525" lon="1.71443">
        <ele>2050.15</ele>
        <time>2020-09-27T09:44:04Z</time>
      </trkpt>
      <trkpt lat="42.63524" lon="1.71443">
        <ele>2047.75</ele>
        <time>2020-09-27T09:44:12Z</time>
      </trkpt>
      <trkpt lat="42.63523" lon="1.71441">
        <ele>2049.67</ele>
        <time>2020-09-27T09:44:21Z</time>
      </trkpt>
      <trkpt lat="42.63521" lon="1.7144">
        <ele>2051.11</ele>
        <time>2020-09-27T09:44:33Z</time>
      </trkpt>
      <trkpt lat="42.6352" lon="1.71442">
        <ele>2052.07</ele>
        <time>2020-09-27T09:44:45Z</time>
      </trkpt>
      <trkpt lat="42.6352" lon="1.71442">
        <ele>2053.51</ele>
        <time>2020-09-27T09:44:50Z</time>
      </trkpt>
      <trkpt lat="42.63518" lon="1.71442">
        <ele>2052.07</ele>
        <time>2020-09-27T09:45:01Z</time>
      </trkpt>
      <trkpt lat="42.63517" lon="1.71441">
        <ele>2053.51</ele>
        <time>2020-09-27T09:45:08Z</time>
      </trkpt>
      <trkpt lat="42.63515" lon="1.71441">
        <ele>2054.47</ele>
        <time>2020-09-27T09:45:18Z</time>
      </trkpt>
      <trkpt lat="42.63513" lon="1.7144">
        <ele>2054.96</ele>
        <time>2020-09-27T09:45:27Z</time>
      </trkpt>
      <trkpt lat="42.63513" lon="1.7144">
        <ele>2054.96</ele>
        <time>2020-09-27T09:45:28Z</time>
      </trkpt>
      <trkpt lat="42.63511" lon="1.71441">
        <ele>2056.88</ele>
        <time>2020-09-27T09:45:38Z</time>
      </trkpt>
      <trkpt lat="42.63509" lon="1.71442">
        <ele>2057.84</ele>
        <time>2020-09-27T09:45:48Z</time>
      </trkpt>
      <trkpt lat="42.63508" lon="1.71443">
        <ele>2059.76</ele>
        <time>2020-09-27T09:45:59Z</time>
      </trkpt>
      <trkpt lat="42.63506" lon="1.71444">
        <ele>2060.72</ele>
        <time>2020-09-27T09:46:10Z</time>
      </trkpt>
      <trkpt lat="42.63503" lon="1.71444">
        <ele>2061.2</ele>
        <time>2020-09-27T09:46:18Z</time>
      </trkpt>
      <trkpt lat="42.63503" lon="1.71446">
        <ele>2061.68</ele>
        <time>2020-09-27T09:46:30Z</time>
      </trkpt>
      <trkpt lat="42.63502" lon="1.71447">
        <ele>2063.13</ele>
        <time>2020-09-27T09:46:43Z</time>
      </trkpt>
      <trkpt lat="42.63499" lon="1.71449">
        <ele>2064.57</ele>
        <time>2020-09-27T09:46:52Z</time>
      </trkpt>
      <trkpt lat="42.63498" lon="1.71449">
        <ele>2065.05</ele>
        <time>2020-09-27T09:47:00Z</time>
      </trkpt>
      <trkpt lat="42.63496" lon="1.71451">
        <ele>2066.01</ele>
        <time>2020-09-27T09:47:09Z</time>
      </trkpt>
      <trkpt lat="42.63493" lon="1.71453">
        <ele>2067.45</ele>
        <time>2020-09-27T09:47:20Z</time>
      </trkpt>
      <trkpt lat="42.63493" lon="1.71454">
        <ele>2068.41</ele>
        <time>2020-09-27T09:47:22Z</time>
      </trkpt>
      <trkpt lat="42.63492" lon="1.71456">
        <ele>2068.41</ele>
        <time>2020-09-27T09:47:33Z</time>
      </trkpt>
      <trkpt lat="42.63489" lon="1.71458">
        <ele>2069.38</ele>
        <time>2020-09-27T09:47:45Z</time>
      </trkpt>
      <trkpt lat="42.63488" lon="1.71461">
        <ele>2069.38</ele>
        <time>2020-09-27T09:47:57Z</time>
      </trkpt>
      <trkpt lat="42.63485" lon="1.71462">
        <ele>2070.34</ele>
        <time>2020-09-27T09:48:08Z</time>
      </trkpt>
      <trkpt lat="42.63479" lon="1.7146">
        <ele>2070.34</ele>
        <time>2020-09-27T09:48:19Z</time>
      </trkpt>
      <trkpt lat="42.63471" lon="1.7146">
        <ele>2071.78</ele>
        <time>2020-09-27T09:48:30Z</time>
      </trkpt>
      <trkpt lat="42.6347" lon="1.7146">
        <ele>2070.82</ele>
        <time>2020-09-27T09:48:32Z</time>
      </trkpt>
      <trkpt lat="42.63468" lon="1.7146">
        <ele>2071.78</ele>
        <time>2020-09-27T09:48:35Z</time>
      </trkpt>
      <trkpt lat="42.63464" lon="1.71462">
        <ele>2070.82</ele>
        <time>2020-09-27T09:48:47Z</time>
      </trkpt>
      <trkpt lat="42.63462" lon="1.71462">
        <ele>2072.26</ele>
        <time>2020-09-27T09:48:50Z</time>
      </trkpt>
      <trkpt lat="42.63456" lon="1.71464">
        <ele>2073.7</ele>
        <time>2020-09-27T09:49:00Z</time>
      </trkpt>
      <trkpt lat="42.63449" lon="1.71466">
        <ele>2075.14</ele>
        <time>2020-09-27T09:49:11Z</time>
      </trkpt>
      <trkpt lat="42.63443" lon="1.71468">
        <ele>2076.1</ele>
        <time>2020-09-27T09:49:21Z</time>
      </trkpt>
      <trkpt lat="42.63436" lon="1.71474">
        <ele>2076.1</ele>
        <time>2020-09-27T09:49:34Z</time>
      </trkpt>
      <trkpt lat="42.63429" lon="1.7148">
        <ele>2077.07</ele>
        <time>2020-09-27T09:49:45Z</time>
      </trkpt>
      <trkpt lat="42.63426" lon="1.71482">
        <ele>2077.07</ele>
        <time>2020-09-27T09:49:56Z</time>
      </trkpt>
      <trkpt lat="42.63422" lon="1.71483">
        <ele>2078.99</ele>
        <time>2020-09-27T09:50:04Z</time>
      </trkpt>
      <trkpt lat="42.63418" lon="1.71485">
        <ele>2080.43</ele>
        <time>2020-09-27T09:50:15Z</time>
      </trkpt>
      <trkpt lat="42.63417" lon="1.71486">
        <ele>2082.83</ele>
        <time>2020-09-27T09:50:18Z</time>
      </trkpt>
      <trkpt lat="42.63414" lon="1.71488">
        <ele>2085.72</ele>
        <time>2020-09-27T09:50:29Z</time>
      </trkpt>
      <trkpt lat="42.63413" lon="1.71489">
        <ele>2085.72</ele>
        <time>2020-09-27T09:50:30Z</time>
      </trkpt>
      <trkpt lat="42.63413" lon="1.71489">
        <ele>2083.79</ele>
        <time>2020-09-27T09:50:32Z</time>
      </trkpt>
      <trkpt lat="42.63412" lon="1.7149">
        <ele>2085.24</ele>
        <time>2020-09-27T09:50:36Z</time>
      </trkpt>
      <trkpt lat="42.63409" lon="1.71491">
        <ele>2084.28</ele>
        <time>2020-09-27T09:50:44Z</time>
      </trkpt>
      <trkpt lat="42.63404" lon="1.71491">
        <ele>2082.83</ele>
        <time>2020-09-27T09:50:56Z</time>
      </trkpt>
      <trkpt lat="42.63404" lon="1.71491">
        <ele>2082.83</ele>
        <time>2020-09-27T09:50:57Z</time>
      </trkpt>
      <trkpt lat="42.63403" lon="1.71494">
        <ele>2083.31</ele>
        <time>2020-09-27T09:51:11Z</time>
      </trkpt>
      <trkpt lat="42.63404" lon="1.71496">
        <ele>2081.87</ele>
        <time>2020-09-27T09:51:31Z</time>
      </trkpt>
      <trkpt lat="42.63403" lon="1.71496">
        <ele>2083.31</ele>
        <time>2020-09-27T09:51:41Z</time>
      </trkpt>
      <trkpt lat="42.63402" lon="1.71495">
        <ele>2084.76</ele>
        <time>2020-09-27T09:51:58Z</time>
      </trkpt>
      <trkpt lat="42.63402" lon="1.71494">
        <ele>2085.72</ele>
        <time>2020-09-27T09:52:15Z</time>
      </trkpt>
      <trkpt lat="42.63403" lon="1.71495">
        <ele>2084.28</ele>
        <time>2020-09-27T09:52:26Z</time>
      </trkpt>
      <trkpt lat="42.63404" lon="1.71495">
        <ele>2083.31</ele>
        <time>2020-09-27T09:52:54Z</time>
      </trkpt>
      <trkpt lat="42.63404" lon="1.71494">
        <ele>2078.51</ele>
        <time>2020-09-27T09:53:02Z</time>
      </trkpt>
      <trkpt lat="42.63404" lon="1.71494">
        <ele>2078.51</ele>
        <time>2020-09-27T09:53:03Z</time>
      </trkpt>
      <trkpt lat="42.63404" lon="1.71494">
        <ele>2080.43</ele>
        <time>2020-09-27T09:53:10Z</time>
      </trkpt>
      <trkpt lat="42.63404" lon="1.71494">
        <ele>2080.91</ele>
        <time>2020-09-27T09:53:29Z</time>
      </trkpt>
      <trkpt lat="42.63403" lon="1.71493">
        <ele>2083.31</ele>
        <time>2020-09-27T09:53:44Z</time>
      </trkpt>
      <trkpt lat="42.63403" lon="1.71493">
        <ele>2083.31</ele>
        <time>2020-09-27T09:53:45Z</time>
      </trkpt>
      <trkpt lat="42.63403" lon="1.71493">
        <ele>2081.87</ele>
        <time>2020-09-27T09:54:13Z</time>
      </trkpt>
      <trkpt lat="42.63403" lon="1.71493">
        <ele>2082.35</ele>
        <time>2020-09-27T09:54:33Z</time>
      </trkpt>
      <trkpt lat="42.63404" lon="1.71493">
        <ele>2079.95</ele>
        <time>2020-09-27T09:54:37Z</time>
      </trkpt>
      <trkpt lat="42.63404" lon="1.71493">
        <ele>2081.39</ele>
        <time>2020-09-27T09:54:39Z</time>
      </trkpt>
      <trkpt lat="42.63404" lon="1.71493">
        <ele>2084.76</ele>
        <time>2020-09-27T09:54:44Z</time>
      </trkpt>
      <trkpt lat="42.63405" lon="1.71492">
        <ele>2082.83</ele>
        <time>2020-09-27T09:54:47Z</time>
      </trkpt>
      <trkpt lat="42.63404" lon="1.71492">
        <ele>2084.28</ele>
        <time>2020-09-27T09:54:50Z</time>
      </trkpt>
      <trkpt lat="42.63405" lon="1.71492">
        <ele>2084.28</ele>
        <time>2020-09-27T09:55:08Z</time>
      </trkpt>
      <trkpt lat="42.63405" lon="1.71493">
        <ele>2082.83</ele>
        <time>2020-09-27T09:55:29Z</time>
      </trkpt>
      <trkpt lat="42.63404" lon="1.71491">
        <ele>2082.35</ele>
        <time>2020-09-27T09:55:48Z</time>
      </trkpt>
      <trkpt lat="42.63404" lon="1.71493">
        <ele>2082.35</ele>
        <time>2020-09-27T09:56:03Z</time>
      </trkpt>
      <trkpt lat="42.63404" lon="1.71493">
        <ele>2083.31</ele>
        <time>2020-09-27T09:56:26Z</time>
      </trkpt>
      <trkpt lat="42.63404" lon="1.71493">
        <ele>2083.31</ele>
        <time>2020-09-27T09:56:27Z</time>
      </trkpt>
      <trkpt lat="42.63405" lon="1.71494">
        <ele>2083.79</ele>
        <time>2020-09-27T09:56:48Z</time>
      </trkpt>
      <trkpt lat="42.63405" lon="1.71492">
        <ele>2083.79</ele>
        <time>2020-09-27T09:57:07Z</time>
      </trkpt>
      <trkpt lat="42.63403" lon="1.71491">
        <ele>2081.87</ele>
        <time>2020-09-27T09:57:18Z</time>
      </trkpt>
      <trkpt lat="42.63398" lon="1.71491">
        <ele>2082.83</ele>
        <time>2020-09-27T09:57:28Z</time>
      </trkpt>
      <trkpt lat="42.63397" lon="1.7149">
        <ele>2083.31</ele>
        <time>2020-09-27T09:57:37Z</time>
      </trkpt>
      <trkpt lat="42.63395" lon="1.71487">
        <ele>2083.79</ele>
        <time>2020-09-27T09:57:48Z</time>
      </trkpt>
      <trkpt lat="42.63393" lon="1.71481">
        <ele>2085.24</ele>
        <time>2020-09-27T09:58:01Z</time>
      </trkpt>
      <trkpt lat="42.6339" lon="1.7148">
        <ele>2084.28</ele>
        <time>2020-09-27T09:58:08Z</time>
      </trkpt>
      <trkpt lat="42.63386" lon="1.71478">
        <ele>2084.28</ele>
        <time>2020-09-27T09:58:19Z</time>
      </trkpt>
      <trkpt lat="42.6338" lon="1.71476">
        <ele>2084.28</ele>
        <time>2020-09-27T09:58:30Z</time>
      </trkpt>
      <trkpt lat="42.63371" lon="1.71475">
        <ele>2085.24</ele>
        <time>2020-09-27T09:58:44Z</time>
      </trkpt>
      <trkpt lat="42.63366" lon="1.71476">
        <ele>2086.2</ele>
        <time>2020-09-27T09:58:56Z</time>
      </trkpt>
      <trkpt lat="42.63363" lon="1.71477">
        <ele>2087.16</ele>
        <time>2020-09-27T09:59:07Z</time>
      </trkpt>
      <trkpt lat="42.63358" lon="1.71478">
        <ele>2088.12</ele>
        <time>2020-09-27T09:59:17Z</time>
      </trkpt>
      <trkpt lat="42.63355" lon="1.71479">
        <ele>2090.04</ele>
        <time>2020-09-27T09:59:27Z</time>
      </trkpt>
      <trkpt lat="42.6335" lon="1.71482">
        <ele>2090.52</ele>
        <time>2020-09-27T09:59:37Z</time>
      </trkpt>
      <trkpt lat="42.63346" lon="1.71486">
        <ele>2090.52</ele>
        <time>2020-09-27T09:59:47Z</time>
      </trkpt>
      <trkpt lat="42.63343" lon="1.71487">
        <ele>2091</ele>
        <time>2020-09-27T10:00:00Z</time>
      </trkpt>
      <trkpt lat="42.63341" lon="1.71487">
        <ele>2092.45</ele>
        <time>2020-09-27T10:00:12Z</time>
      </trkpt>
      <trkpt lat="42.63338" lon="1.7149">
        <ele>2093.89</ele>
        <time>2020-09-27T10:00:21Z</time>
      </trkpt>
      <trkpt lat="42.63335" lon="1.71493">
        <ele>2094.85</ele>
        <time>2020-09-27T10:00:33Z</time>
      </trkpt>
      <trkpt lat="42.63333" lon="1.71497">
        <ele>2096.29</ele>
        <time>2020-09-27T10:00:43Z</time>
      </trkpt>
      <trkpt lat="42.6333" lon="1.71497">
        <ele>2097.25</ele>
        <time>2020-09-27T10:00:56Z</time>
      </trkpt>
      <trkpt lat="42.63328" lon="1.71496">
        <ele>2097.73</ele>
        <time>2020-09-27T10:01:07Z</time>
      </trkpt>
      <trkpt lat="42.63327" lon="1.71498">
        <ele>2097.73</ele>
        <time>2020-09-27T10:01:19Z</time>
      </trkpt>
      <trkpt lat="42.63324" lon="1.71499">
        <ele>2098.7</ele>
        <time>2020-09-27T10:01:31Z</time>
      </trkpt>
      <trkpt lat="42.63324" lon="1.71497">
        <ele>2099.18</ele>
        <time>2020-09-27T10:01:40Z</time>
      </trkpt>
      <trkpt lat="42.63322" lon="1.71496">
        <ele>2099.66</ele>
        <time>2020-09-27T10:01:50Z</time>
      </trkpt>
      <trkpt lat="42.63319" lon="1.71499">
        <ele>2101.58</ele>
        <time>2020-09-27T10:02:03Z</time>
      </trkpt>
      <trkpt lat="42.63317" lon="1.715">
        <ele>2102.06</ele>
        <time>2020-09-27T10:02:15Z</time>
      </trkpt>
      <trkpt lat="42.63314" lon="1.71501">
        <ele>2103.02</ele>
        <time>2020-09-27T10:02:26Z</time>
      </trkpt>
      <trkpt lat="42.63312" lon="1.71503">
        <ele>2104.94</ele>
        <time>2020-09-27T10:02:38Z</time>
      </trkpt>
      <trkpt lat="42.63308" lon="1.71503">
        <ele>2105.91</ele>
        <time>2020-09-27T10:02:49Z</time>
      </trkpt>
      <trkpt lat="42.63305" lon="1.71503">
        <ele>2106.39</ele>
        <time>2020-09-27T10:03:00Z</time>
      </trkpt>
      <trkpt lat="42.63302" lon="1.71502">
        <ele>2108.31</ele>
        <time>2020-09-27T10:03:12Z</time>
      </trkpt>
      <trkpt lat="42.63302" lon="1.71502">
        <ele>2106.87</ele>
        <time>2020-09-27T10:03:17Z</time>
      </trkpt>
      <trkpt lat="42.63301" lon="1.71503">
        <ele>2108.79</ele>
        <time>2020-09-27T10:03:27Z</time>
      </trkpt>
      <trkpt lat="42.633" lon="1.71503">
        <ele>2111.67</ele>
        <time>2020-09-27T10:03:35Z</time>
      </trkpt>
      <trkpt lat="42.633" lon="1.71503">
        <ele>2111.67</ele>
        <time>2020-09-27T10:03:36Z</time>
      </trkpt>
      <trkpt lat="42.633" lon="1.71503">
        <ele>2115.04</ele>
        <time>2020-09-27T10:03:38Z</time>
      </trkpt>
      <trkpt lat="42.63299" lon="1.71503">
        <ele>2115.04</ele>
        <time>2020-09-27T10:03:39Z</time>
      </trkpt>
      <trkpt lat="42.63298" lon="1.71502">
        <ele>2111.67</ele>
        <time>2020-09-27T10:03:46Z</time>
      </trkpt>
      <trkpt lat="42.63296" lon="1.71501">
        <ele>2112.63</ele>
        <time>2020-09-27T10:03:54Z</time>
      </trkpt>
      <trkpt lat="42.63294" lon="1.715">
        <ele>2111.19</ele>
        <time>2020-09-27T10:04:04Z</time>
      </trkpt>
      <trkpt lat="42.63294" lon="1.715">
        <ele>2115.04</ele>
        <time>2020-09-27T10:04:06Z</time>
      </trkpt>
      <trkpt lat="42.63293" lon="1.71499">
        <ele>2115.04</ele>
        <time>2020-09-27T10:04:11Z</time>
      </trkpt>
      <trkpt lat="42.63293" lon="1.71499">
        <ele>2113.12</ele>
        <time>2020-09-27T10:04:15Z</time>
      </trkpt>
      <trkpt lat="42.6329" lon="1.71499">
        <ele>2112.63</ele>
        <time>2020-09-27T10:04:26Z</time>
      </trkpt>
      <trkpt lat="42.63289" lon="1.71499">
        <ele>2114.08</ele>
        <time>2020-09-27T10:04:28Z</time>
      </trkpt>
      <trkpt lat="42.63286" lon="1.71499">
        <ele>2114.56</ele>
        <time>2020-09-27T10:04:37Z</time>
      </trkpt>
      <trkpt lat="42.63283" lon="1.715">
        <ele>2115.04</ele>
        <time>2020-09-27T10:04:49Z</time>
      </trkpt>
      <trkpt lat="42.6328" lon="1.71499">
        <ele>2116</ele>
        <time>2020-09-27T10:04:58Z</time>
      </trkpt>
      <trkpt lat="42.63279" lon="1.71496">
        <ele>2116.96</ele>
        <time>2020-09-27T10:05:08Z</time>
      </trkpt>
      <trkpt lat="42.63276" lon="1.71495">
        <ele>2118.88</ele>
        <time>2020-09-27T10:05:17Z</time>
      </trkpt>
      <trkpt lat="42.63276" lon="1.71496">
        <ele>2118.88</ele>
        <time>2020-09-27T10:05:18Z</time>
      </trkpt>
      <trkpt lat="42.63272" lon="1.71498">
        <ele>2119.36</ele>
        <time>2020-09-27T10:05:30Z</time>
      </trkpt>
      <trkpt lat="42.63269" lon="1.71497">
        <ele>2121.77</ele>
        <time>2020-09-27T10:05:40Z</time>
      </trkpt>
      <trkpt lat="42.63267" lon="1.71498">
        <ele>2120.81</ele>
        <time>2020-09-27T10:05:46Z</time>
      </trkpt>
      <trkpt lat="42.63263" lon="1.71497">
        <ele>2120.81</ele>
        <time>2020-09-27T10:05:56Z</time>
      </trkpt>
      <trkpt lat="42.63261" lon="1.71498">
        <ele>2122.25</ele>
        <time>2020-09-27T10:06:02Z</time>
      </trkpt>
      <trkpt lat="42.63256" lon="1.71497">
        <ele>2120.32</ele>
        <time>2020-09-27T10:06:11Z</time>
      </trkpt>
      <trkpt lat="42.63253" lon="1.71494">
        <ele>2122.25</ele>
        <time>2020-09-27T10:06:22Z</time>
      </trkpt>
      <trkpt lat="42.63249" lon="1.71494">
        <ele>2123.21</ele>
        <time>2020-09-27T10:06:33Z</time>
      </trkpt>
      <trkpt lat="42.63242" lon="1.71492">
        <ele>2123.21</ele>
        <time>2020-09-27T10:06:44Z</time>
      </trkpt>
      <trkpt lat="42.6324" lon="1.71491">
        <ele>2124.17</ele>
        <time>2020-09-27T10:06:50Z</time>
      </trkpt>
      <trkpt lat="42.63237" lon="1.71487">
        <ele>2126.09</ele>
        <time>2020-09-27T10:07:01Z</time>
      </trkpt>
      <trkpt lat="42.63234" lon="1.71486">
        <ele>2125.61</ele>
        <time>2020-09-27T10:07:09Z</time>
      </trkpt>
      <trkpt lat="42.63231" lon="1.71485">
        <ele>2126.57</ele>
        <time>2020-09-27T10:07:15Z</time>
      </trkpt>
      <trkpt lat="42.63225" lon="1.71483">
        <ele>2126.09</ele>
        <time>2020-09-27T10:07:26Z</time>
      </trkpt>
      <trkpt lat="42.6322" lon="1.71482">
        <ele>2124.17</ele>
        <time>2020-09-27T10:07:38Z</time>
      </trkpt>
      <trkpt lat="42.63219" lon="1.7148">
        <ele>2126.57</ele>
        <time>2020-09-27T10:07:41Z</time>
      </trkpt>
      <trkpt lat="42.63216" lon="1.71478">
        <ele>2126.09</ele>
        <time>2020-09-27T10:07:53Z</time>
      </trkpt>
      <trkpt lat="42.63211" lon="1.71474">
        <ele>2127.53</ele>
        <time>2020-09-27T10:08:05Z</time>
      </trkpt>
      <trkpt lat="42.63211" lon="1.71474">
        <ele>2127.53</ele>
        <time>2020-09-27T10:08:06Z</time>
      </trkpt>
      <trkpt lat="42.63205" lon="1.71469">
        <ele>2128.5</ele>
        <time>2020-09-27T10:08:17Z</time>
      </trkpt>
      <trkpt lat="42.63205" lon="1.71469">
        <ele>2127.53</ele>
        <time>2020-09-27T10:08:19Z</time>
      </trkpt>
      <trkpt lat="42.632" lon="1.71465">
        <ele>2128.02</ele>
        <time>2020-09-27T10:08:29Z</time>
      </trkpt>
      <trkpt lat="42.63197" lon="1.71462">
        <ele>2128.02</ele>
        <time>2020-09-27T10:08:40Z</time>
      </trkpt>
      <trkpt lat="42.63193" lon="1.7146">
        <ele>2128.98</ele>
        <time>2020-09-27T10:08:47Z</time>
      </trkpt>
      <trkpt lat="42.63188" lon="1.71457">
        <ele>2130.42</ele>
        <time>2020-09-27T10:08:57Z</time>
      </trkpt>
      <trkpt lat="42.63185" lon="1.71452">
        <ele>2130.9</ele>
        <time>2020-09-27T10:09:06Z</time>
      </trkpt>
      <trkpt lat="42.63184" lon="1.71447">
        <ele>2131.38</ele>
        <time>2020-09-27T10:09:16Z</time>
      </trkpt>
      <trkpt lat="42.63181" lon="1.71443">
        <ele>2131.86</ele>
        <time>2020-09-27T10:09:28Z</time>
      </trkpt>
      <trkpt lat="42.63178" lon="1.71443">
        <ele>2134.74</ele>
        <time>2020-09-27T10:09:40Z</time>
      </trkpt>
      <trkpt lat="42.63173" lon="1.71439">
        <ele>2136.19</ele>
        <time>2020-09-27T10:09:51Z</time>
      </trkpt>
      <trkpt lat="42.63169" lon="1.71433">
        <ele>2136.19</ele>
        <time>2020-09-27T10:10:02Z</time>
      </trkpt>
      <trkpt lat="42.63164" lon="1.71427">
        <ele>2136.67</ele>
        <time>2020-09-27T10:10:13Z</time>
      </trkpt>
      <trkpt lat="42.63161" lon="1.71424">
        <ele>2137.15</ele>
        <time>2020-09-27T10:10:17Z</time>
      </trkpt>
      <trkpt lat="42.63159" lon="1.71422">
        <ele>2135.71</ele>
        <time>2020-09-27T10:10:20Z</time>
      </trkpt>
      <trkpt lat="42.63157" lon="1.71421">
        <ele>2139.07</ele>
        <time>2020-09-27T10:10:22Z</time>
      </trkpt>
      <trkpt lat="42.63156" lon="1.71419">
        <ele>2137.15</ele>
        <time>2020-09-27T10:10:24Z</time>
      </trkpt>
      <trkpt lat="42.63154" lon="1.71412">
        <ele>2135.71</ele>
        <time>2020-09-27T10:10:34Z</time>
      </trkpt>
      <trkpt lat="42.63152" lon="1.71408">
        <ele>2136.67</ele>
        <time>2020-09-27T10:10:39Z</time>
      </trkpt>
      <trkpt lat="42.63151" lon="1.71406">
        <ele>2140.51</ele>
        <time>2020-09-27T10:10:41Z</time>
      </trkpt>
      <trkpt lat="42.6315" lon="1.71405">
        <ele>2140.51</ele>
        <time>2020-09-27T10:10:42Z</time>
      </trkpt>
      <trkpt lat="42.6315" lon="1.71404">
        <ele>2137.15</ele>
        <time>2020-09-27T10:10:43Z</time>
      </trkpt>
      <trkpt lat="42.63149" lon="1.71403">
        <ele>2137.15</ele>
        <time>2020-09-27T10:10:44Z</time>
      </trkpt>
      <trkpt lat="42.63147" lon="1.714">
        <ele>2140.03</ele>
        <time>2020-09-27T10:10:48Z</time>
      </trkpt>
      <trkpt lat="42.63143" lon="1.71397">
        <ele>2137.15</ele>
        <time>2020-09-27T10:10:54Z</time>
      </trkpt>
      <trkpt lat="42.63142" lon="1.71396">
        <ele>2137.15</ele>
        <time>2020-09-27T10:10:55Z</time>
      </trkpt>
      <trkpt lat="42.63142" lon="1.71396">
        <ele>2137.15</ele>
        <time>2020-09-27T10:10:56Z</time>
      </trkpt>
      <trkpt lat="42.63135" lon="1.71393">
        <ele>2138.59</ele>
        <time>2020-09-27T10:11:05Z</time>
      </trkpt>
      <trkpt lat="42.63128" lon="1.71387">
        <ele>2137.15</ele>
        <time>2020-09-27T10:11:16Z</time>
      </trkpt>
      <trkpt lat="42.63127" lon="1.71386">
        <ele>2137.15</ele>
        <time>2020-09-27T10:11:17Z</time>
      </trkpt>
      <trkpt lat="42.63123" lon="1.71383">
        <ele>2139.07</ele>
        <time>2020-09-27T10:11:23Z</time>
      </trkpt>
      <trkpt lat="42.63116" lon="1.71376">
        <ele>2140.03</ele>
        <time>2020-09-27T10:11:35Z</time>
      </trkpt>
      <trkpt lat="42.6311" lon="1.7137">
        <ele>2140.03</ele>
        <time>2020-09-27T10:11:46Z</time>
      </trkpt>
      <trkpt lat="42.63101" lon="1.71363">
        <ele>2141.95</ele>
        <time>2020-09-27T10:11:57Z</time>
      </trkpt>
      <trkpt lat="42.63095" lon="1.71356">
        <ele>2142.44</ele>
        <time>2020-09-27T10:12:08Z</time>
      </trkpt>
      <trkpt lat="42.63087" lon="1.7135">
        <ele>2143.88</ele>
        <time>2020-09-27T10:12:20Z</time>
      </trkpt>
      <trkpt lat="42.63086" lon="1.7135">
        <ele>2143.88</ele>
        <time>2020-09-27T10:12:21Z</time>
      </trkpt>
      <trkpt lat="42.63073" lon="1.7134">
        <ele>2144.84</ele>
        <time>2020-09-27T10:12:36Z</time>
      </trkpt>
      <trkpt lat="42.63071" lon="1.71339">
        <ele>2144.36</ele>
        <time>2020-09-27T10:12:47Z</time>
      </trkpt>
      <trkpt lat="42.63072" lon="1.71338">
        <ele>2142.44</ele>
        <time>2020-09-27T10:13:11Z</time>
      </trkpt>
      <trkpt lat="42.63072" lon="1.71338">
        <ele>2143.4</ele>
        <time>2020-09-27T10:13:37Z</time>
      </trkpt>
      <trkpt lat="42.63072" lon="1.71338">
        <ele>2145.8</ele>
        <time>2020-09-27T10:13:43Z</time>
      </trkpt>
      <trkpt lat="42.63072" lon="1.71338">
        <ele>2141.95</ele>
        <time>2020-09-27T10:13:48Z</time>
      </trkpt>
      <trkpt lat="42.63071" lon="1.71338">
        <ele>2141.95</ele>
        <time>2020-09-27T10:13:49Z</time>
      </trkpt>
      <trkpt lat="42.6307" lon="1.71332">
        <ele>2143.88</ele>
        <time>2020-09-27T10:13:57Z</time>
      </trkpt>
      <trkpt lat="42.63068" lon="1.71324">
        <ele>2143.88</ele>
        <time>2020-09-27T10:14:09Z</time>
      </trkpt>
      <trkpt lat="42.63063" lon="1.71313">
        <ele>2144.36</ele>
        <time>2020-09-27T10:14:21Z</time>
      </trkpt>
      <trkpt lat="42.63062" lon="1.71314">
        <ele>2144.84</ele>
        <time>2020-09-27T10:14:32Z</time>
      </trkpt>
      <trkpt lat="42.63064" lon="1.71314">
        <ele>2143.4</ele>
        <time>2020-09-27T10:14:42Z</time>
      </trkpt>
      <trkpt lat="42.63064" lon="1.71312">
        <ele>2143.4</ele>
        <time>2020-09-27T10:14:49Z</time>
      </trkpt>
      <trkpt lat="42.63063" lon="1.71303">
        <ele>2146.28</ele>
        <time>2020-09-27T10:15:00Z</time>
      </trkpt>
      <trkpt lat="42.63062" lon="1.713">
        <ele>2147.72</ele>
        <time>2020-09-27T10:15:04Z</time>
      </trkpt>
      <trkpt lat="42.63062" lon="1.71298">
        <ele>2149.65</ele>
        <time>2020-09-27T10:15:16Z</time>
      </trkpt>
      <trkpt lat="42.6306" lon="1.71292">
        <ele>2147.72</ele>
        <time>2020-09-27T10:15:24Z</time>
      </trkpt>
      <trkpt lat="42.63056" lon="1.71276">
        <ele>2146.28</ele>
        <time>2020-09-27T10:15:38Z</time>
      </trkpt>
      <trkpt lat="42.63055" lon="1.71272">
        <ele>2147.72</ele>
        <time>2020-09-27T10:15:43Z</time>
      </trkpt>
      <trkpt lat="42.63054" lon="1.71271">
        <ele>2149.16</ele>
        <time>2020-09-27T10:15:49Z</time>
      </trkpt>
      <trkpt lat="42.63055" lon="1.71269">
        <ele>2146.76</ele>
        <time>2020-09-27T10:15:56Z</time>
      </trkpt>
      <trkpt lat="42.63055" lon="1.71269">
        <ele>2148.68</ele>
        <time>2020-09-27T10:15:58Z</time>
      </trkpt>
      <trkpt lat="42.63056" lon="1.71268">
        <ele>2146.76</ele>
        <time>2020-09-27T10:16:02Z</time>
      </trkpt>
      <trkpt lat="42.63048" lon="1.71261">
        <ele>2145.32</ele>
        <time>2020-09-27T10:16:13Z</time>
      </trkpt>
      <trkpt lat="42.63047" lon="1.71248">
        <ele>2145.32</ele>
        <time>2020-09-27T10:16:24Z</time>
      </trkpt>
      <trkpt lat="42.63042" lon="1.71233">
        <ele>2147.24</ele>
        <time>2020-09-27T10:16:36Z</time>
      </trkpt>
      <trkpt lat="42.63042" lon="1.71232">
        <ele>2147.24</ele>
        <time>2020-09-27T10:16:37Z</time>
      </trkpt>
      <trkpt lat="42.63041" lon="1.71231">
        <ele>2147.24</ele>
        <time>2020-09-27T10:16:38Z</time>
      </trkpt>
      <trkpt lat="42.63039" lon="1.71229">
        <ele>2147.24</ele>
        <time>2020-09-27T10:16:40Z</time>
      </trkpt>
      <trkpt lat="42.63035" lon="1.71217">
        <ele>2147.24</ele>
        <time>2020-09-27T10:16:51Z</time>
      </trkpt>
      <trkpt lat="42.63034" lon="1.71214">
        <ele>2148.2</ele>
        <time>2020-09-27T10:16:54Z</time>
      </trkpt>
      <trkpt lat="42.63031" lon="1.71209">
        <ele>2146.76</ele>
        <time>2020-09-27T10:17:01Z</time>
      </trkpt>
      <trkpt lat="42.6303" lon="1.712">
        <ele>2148.68</ele>
        <time>2020-09-27T10:17:12Z</time>
      </trkpt>
      <trkpt lat="42.63029" lon="1.71188">
        <ele>2149.16</ele>
        <time>2020-09-27T10:17:25Z</time>
      </trkpt>
      <trkpt lat="42.63026" lon="1.71181">
        <ele>2150.61</ele>
        <time>2020-09-27T10:17:38Z</time>
      </trkpt>
      <trkpt lat="42.63024" lon="1.71174">
        <ele>2152.53</ele>
        <time>2020-09-27T10:17:49Z</time>
      </trkpt>
      <trkpt lat="42.63023" lon="1.71167">
        <ele>2151.09</ele>
        <time>2020-09-27T10:17:59Z</time>
      </trkpt>
      <trkpt lat="42.63022" lon="1.71164">
        <ele>2147.72</ele>
        <time>2020-09-27T10:18:11Z</time>
      </trkpt>
      <trkpt lat="42.63018" lon="1.71161">
        <ele>2151.09</ele>
        <time>2020-09-27T10:18:20Z</time>
      </trkpt>
      <trkpt lat="42.63018" lon="1.71161">
        <ele>2151.09</ele>
        <time>2020-09-27T10:18:21Z</time>
      </trkpt>
      <trkpt lat="42.63012" lon="1.71157">
        <ele>2149.65</ele>
        <time>2020-09-27T10:18:28Z</time>
      </trkpt>
      <trkpt lat="42.63011" lon="1.71157">
        <ele>2149.65</ele>
        <time>2020-09-27T10:18:37Z</time>
      </trkpt>
      <trkpt lat="42.6301" lon="1.71156">
        <ele>2151.09</ele>
        <time>2020-09-27T10:18:52Z</time>
      </trkpt>
      <trkpt lat="42.63011" lon="1.71156">
        <ele>2149.65</ele>
        <time>2020-09-27T10:18:58Z</time>
      </trkpt>
      <trkpt lat="42.63011" lon="1.71156">
        <ele>2151.09</ele>
        <time>2020-09-27T10:19:00Z</time>
      </trkpt>
      <trkpt lat="42.63011" lon="1.71156">
        <ele>2153.49</ele>
        <time>2020-09-27T10:19:07Z</time>
      </trkpt>
      <trkpt lat="42.63012" lon="1.71157">
        <ele>2152.05</ele>
        <time>2020-09-27T10:19:11Z</time>
      </trkpt>
      <trkpt lat="42.63012" lon="1.71157">
        <ele>2150.13</ele>
        <time>2020-09-27T10:19:14Z</time>
      </trkpt>
      <trkpt lat="42.63012" lon="1.71157">
        <ele>2148.2</ele>
        <time>2020-09-27T10:19:17Z</time>
      </trkpt>
      <trkpt lat="42.63013" lon="1.71158">
        <ele>2150.61</ele>
        <time>2020-09-27T10:19:22Z</time>
      </trkpt>
      <trkpt lat="42.63012" lon="1.71159">
        <ele>2150.61</ele>
        <time>2020-09-27T10:19:40Z</time>
      </trkpt>
      <trkpt lat="42.63012" lon="1.71158">
        <ele>2150.61</ele>
        <time>2020-09-27T10:19:48Z</time>
      </trkpt>
      <trkpt lat="42.63013" lon="1.71159">
        <ele>2154.45</ele>
        <time>2020-09-27T10:20:05Z</time>
      </trkpt>
      <trkpt lat="42.63012" lon="1.71159">
        <ele>2151.57</ele>
        <time>2020-09-27T10:20:09Z</time>
      </trkpt>
      <trkpt lat="42.63012" lon="1.71157">
        <ele>2154.45</ele>
        <time>2020-09-27T10:20:28Z</time>
      </trkpt>
      <trkpt lat="42.63012" lon="1.71157">
        <ele>2154.45</ele>
        <time>2020-09-27T10:20:29Z</time>
      </trkpt>
      <trkpt lat="42.63013" lon="1.71157">
        <ele>2151.09</ele>
        <time>2020-09-27T10:20:43Z</time>
      </trkpt>
      <trkpt lat="42.63013" lon="1.71157">
        <ele>2151.09</ele>
        <time>2020-09-27T10:20:44Z</time>
      </trkpt>
      <trkpt lat="42.63012" lon="1.71157">
        <ele>2151.09</ele>
        <time>2020-09-27T10:20:58Z</time>
      </trkpt>
      <trkpt lat="42.63013" lon="1.71156">
        <ele>2149.16</ele>
        <time>2020-09-27T10:21:06Z</time>
      </trkpt>
      <trkpt lat="42.63016" lon="1.71154">
        <ele>2150.61</ele>
        <time>2020-09-27T10:21:10Z</time>
      </trkpt>
      <trkpt lat="42.6302" lon="1.71148">
        <ele>2151.57</ele>
        <time>2020-09-27T10:21:17Z</time>
      </trkpt>
      <trkpt lat="42.63024" lon="1.71144">
        <ele>2151.09</ele>
        <time>2020-09-27T10:21:23Z</time>
      </trkpt>
      <trkpt lat="42.63026" lon="1.71142">
        <ele>2149.16</ele>
        <time>2020-09-27T10:21:26Z</time>
      </trkpt>
      <trkpt lat="42.63028" lon="1.7114">
        <ele>2147.24</ele>
        <time>2020-09-27T10:21:29Z</time>
      </trkpt>
      <trkpt lat="42.63029" lon="1.71138">
        <ele>2148.68</ele>
        <time>2020-09-27T10:21:31Z</time>
      </trkpt>
      <trkpt lat="42.63032" lon="1.71136">
        <ele>2149.65</ele>
        <time>2020-09-27T10:21:35Z</time>
      </trkpt>
      <trkpt lat="42.63033" lon="1.71135">
        <ele>2148.2</ele>
        <time>2020-09-27T10:21:37Z</time>
      </trkpt>
      <trkpt lat="42.63033" lon="1.71134">
        <ele>2149.65</ele>
        <time>2020-09-27T10:21:39Z</time>
      </trkpt>
      <trkpt lat="42.63033" lon="1.71132">
        <ele>2153.49</ele>
        <time>2020-09-27T10:21:43Z</time>
      </trkpt>
      <trkpt lat="42.63034" lon="1.71128">
        <ele>2153.49</ele>
        <time>2020-09-27T10:21:47Z</time>
      </trkpt>
      <trkpt lat="42.63035" lon="1.71121">
        <ele>2151.57</ele>
        <time>2020-09-27T10:21:54Z</time>
      </trkpt>
      <trkpt lat="42.63037" lon="1.71109">
        <ele>2149.65</ele>
        <time>2020-09-27T10:22:07Z</time>
      </trkpt>
      <trkpt lat="42.63039" lon="1.71102">
        <ele>2153.01</ele>
        <time>2020-09-27T10:22:17Z</time>
      </trkpt>
      <trkpt lat="42.63038" lon="1.71101">
        <ele>2153.01</ele>
        <time>2020-09-27T10:22:18Z</time>
      </trkpt>
      <trkpt lat="42.63038" lon="1.71095">
        <ele>2150.13</ele>
        <time>2020-09-27T10:22:26Z</time>
      </trkpt>
      <trkpt lat="42.63039" lon="1.71086">
        <ele>2149.65</ele>
        <time>2020-09-27T10:22:37Z</time>
      </trkpt>
      <trkpt lat="42.63039" lon="1.71082">
        <ele>2151.57</ele>
        <time>2020-09-27T10:22:43Z</time>
      </trkpt>
      <trkpt lat="42.63043" lon="1.71074">
        <ele>2151.09</ele>
        <time>2020-09-27T10:22:53Z</time>
      </trkpt>
      <trkpt lat="42.63044" lon="1.71072">
        <ele>2152.05</ele>
        <time>2020-09-27T10:22:55Z</time>
      </trkpt>
      <trkpt lat="42.63043" lon="1.71069">
        <ele>2150.13</ele>
        <time>2020-09-27T10:22:58Z</time>
      </trkpt>
      <trkpt lat="42.63044" lon="1.71068">
        <ele>2148.2</ele>
        <time>2020-09-27T10:23:09Z</time>
      </trkpt>
      <trkpt lat="42.63043" lon="1.71057">
        <ele>2147.72</ele>
        <time>2020-09-27T10:23:19Z</time>
      </trkpt>
      <trkpt lat="42.63042" lon="1.71049">
        <ele>2147.72</ele>
        <time>2020-09-27T10:23:29Z</time>
      </trkpt>
      <trkpt lat="42.63041" lon="1.71042">
        <ele>2149.16</ele>
        <time>2020-09-27T10:23:40Z</time>
      </trkpt>
      <trkpt lat="42.63042" lon="1.71043">
        <ele>2146.28</ele>
        <time>2020-09-27T10:23:51Z</time>
      </trkpt>
      <trkpt lat="42.63042" lon="1.71043">
        <ele>2147.72</ele>
        <time>2020-09-27T10:23:53Z</time>
      </trkpt>
      <trkpt lat="42.63041" lon="1.71042">
        <ele>2146.28</ele>
        <time>2020-09-27T10:24:00Z</time>
      </trkpt>
      <trkpt lat="42.63041" lon="1.71043">
        <ele>2147.24</ele>
        <time>2020-09-27T10:24:11Z</time>
      </trkpt>
      <trkpt lat="42.6304" lon="1.71043">
        <ele>2147.72</ele>
        <time>2020-09-27T10:24:27Z</time>
      </trkpt>
      <trkpt lat="42.6304" lon="1.71044">
        <ele>2148.68</ele>
        <time>2020-09-27T10:24:40Z</time>
      </trkpt>
      <trkpt lat="42.6304" lon="1.71044">
        <ele>2148.2</ele>
        <time>2020-09-27T10:24:52Z</time>
      </trkpt>
      <trkpt lat="42.63042" lon="1.71041">
        <ele>2145.8</ele>
        <time>2020-09-27T10:25:08Z</time>
      </trkpt>
      <trkpt lat="42.63044" lon="1.71038">
        <ele>2147.72</ele>
        <time>2020-09-27T10:25:11Z</time>
      </trkpt>
      <trkpt lat="42.63052" lon="1.71029">
        <ele>2147.72</ele>
        <time>2020-09-27T10:25:23Z</time>
      </trkpt>
      <trkpt lat="42.63055" lon="1.71025">
        <ele>2146.28</ele>
        <time>2020-09-27T10:25:28Z</time>
      </trkpt>
      <trkpt lat="42.63053" lon="1.71014">
        <ele>2145.8</ele>
        <time>2020-09-27T10:25:39Z</time>
      </trkpt>
      <trkpt lat="42.63049" lon="1.71006">
        <ele>2144.36</ele>
        <time>2020-09-27T10:25:49Z</time>
      </trkpt>
      <trkpt lat="42.63045" lon="1.70997">
        <ele>2144.84</ele>
        <time>2020-09-27T10:25:59Z</time>
      </trkpt>
      <trkpt lat="42.63042" lon="1.70993">
        <ele>2146.28</ele>
        <time>2020-09-27T10:26:04Z</time>
      </trkpt>
      <trkpt lat="42.63041" lon="1.70992">
        <ele>2147.72</ele>
        <time>2020-09-27T10:26:06Z</time>
      </trkpt>
      <trkpt lat="42.63037" lon="1.70982">
        <ele>2148.2</ele>
        <time>2020-09-27T10:26:20Z</time>
      </trkpt>
      <trkpt lat="42.63034" lon="1.70978">
        <ele>2147.72</ele>
        <time>2020-09-27T10:26:31Z</time>
      </trkpt>
      <trkpt lat="42.63034" lon="1.70977">
        <ele>2147.72</ele>
        <time>2020-09-27T10:26:32Z</time>
      </trkpt>
      <trkpt lat="42.63032" lon="1.70974">
        <ele>2146.28</ele>
        <time>2020-09-27T10:26:37Z</time>
      </trkpt>
      <trkpt lat="42.63028" lon="1.70963">
        <ele>2145.8</ele>
        <time>2020-09-27T10:26:49Z</time>
      </trkpt>
      <trkpt lat="42.63027" lon="1.7096">
        <ele>2147.24</ele>
        <time>2020-09-27T10:26:53Z</time>
      </trkpt>
      <trkpt lat="42.63023" lon="1.70955">
        <ele>2144.84</ele>
        <time>2020-09-27T10:27:01Z</time>
      </trkpt>
      <trkpt lat="42.63021" lon="1.70952">
        <ele>2147.24</ele>
        <time>2020-09-27T10:27:07Z</time>
      </trkpt>
      <trkpt lat="42.63015" lon="1.70946">
        <ele>2144.84</ele>
        <time>2020-09-27T10:27:21Z</time>
      </trkpt>
      <trkpt lat="42.63012" lon="1.70944">
        <ele>2146.76</ele>
        <time>2020-09-27T10:27:31Z</time>
      </trkpt>
      <trkpt lat="42.6301" lon="1.70943">
        <ele>2145.32</ele>
        <time>2020-09-27T10:27:41Z</time>
      </trkpt>
      <trkpt lat="42.6301" lon="1.70943">
        <ele>2145.8</ele>
        <time>2020-09-27T10:27:57Z</time>
      </trkpt>
      <trkpt lat="42.63008" lon="1.70944">
        <ele>2148.68</ele>
        <time>2020-09-27T10:28:16Z</time>
      </trkpt>
      <trkpt lat="42.6301" lon="1.70945">
        <ele>2149.16</ele>
        <time>2020-09-27T10:28:32Z</time>
      </trkpt>
      <trkpt lat="42.6301" lon="1.70945">
        <ele>2149.16</ele>
        <time>2020-09-27T10:28:33Z</time>
      </trkpt>
      <trkpt lat="42.6301" lon="1.70945">
        <ele>2147.72</ele>
        <time>2020-09-27T10:28:38Z</time>
      </trkpt>
      <trkpt lat="42.6301" lon="1.70944">
        <ele>2146.76</ele>
        <time>2020-09-27T10:28:55Z</time>
      </trkpt>
      <trkpt lat="42.6301" lon="1.70943">
        <ele>2148.2</ele>
        <time>2020-09-27T10:29:00Z</time>
      </trkpt>
      <trkpt lat="42.63009" lon="1.70943">
        <ele>2146.28</ele>
        <time>2020-09-27T10:29:07Z</time>
      </trkpt>
      <trkpt lat="42.63009" lon="1.70944">
        <ele>2146.76</ele>
        <time>2020-09-27T10:29:19Z</time>
      </trkpt>
      <trkpt lat="42.63007" lon="1.70942">
        <ele>2145.32</ele>
        <time>2020-09-27T10:29:30Z</time>
      </trkpt>
      <trkpt lat="42.63001" lon="1.70939">
        <ele>2145.32</ele>
        <time>2020-09-27T10:29:42Z</time>
      </trkpt>
      <trkpt lat="42.62996" lon="1.70938">
        <ele>2144.84</ele>
        <time>2020-09-27T10:29:54Z</time>
      </trkpt>
      <trkpt lat="42.62993" lon="1.70937">
        <ele>2146.28</ele>
        <time>2020-09-27T10:30:01Z</time>
      </trkpt>
      <trkpt lat="42.62988" lon="1.70937">
        <ele>2146.76</ele>
        <time>2020-09-27T10:30:11Z</time>
      </trkpt>
      <trkpt lat="42.62982" lon="1.70935">
        <ele>2147.72</ele>
        <time>2020-09-27T10:30:23Z</time>
      </trkpt>
      <trkpt lat="42.62975" lon="1.70933">
        <ele>2147.24</ele>
        <time>2020-09-27T10:30:35Z</time>
      </trkpt>
      <trkpt lat="42.62971" lon="1.70932">
        <ele>2146.28</ele>
        <time>2020-09-27T10:30:41Z</time>
      </trkpt>
      <trkpt lat="42.62967" lon="1.70931">
        <ele>2146.28</ele>
        <time>2020-09-27T10:30:52Z</time>
      </trkpt>
      <trkpt lat="42.62963" lon="1.70929">
        <ele>2146.28</ele>
        <time>2020-09-27T10:31:02Z</time>
      </trkpt>
      <trkpt lat="42.62961" lon="1.70929">
        <ele>2146.28</ele>
        <time>2020-09-27T10:31:09Z</time>
      </trkpt>
      <trkpt lat="42.62958" lon="1.70927">
        <ele>2146.28</ele>
        <time>2020-09-27T10:31:20Z</time>
      </trkpt>
      <trkpt lat="42.62957" lon="1.70926">
        <ele>2147.72</ele>
        <time>2020-09-27T10:31:23Z</time>
      </trkpt>
      <trkpt lat="42.62952" lon="1.70924">
        <ele>2147.72</ele>
        <time>2020-09-27T10:31:34Z</time>
      </trkpt>
      <trkpt lat="42.62952" lon="1.70923">
        <ele>2145.8</ele>
        <time>2020-09-27T10:31:37Z</time>
      </trkpt>
      <trkpt lat="42.62948" lon="1.70921">
        <ele>2145.8</ele>
        <time>2020-09-27T10:31:49Z</time>
      </trkpt>
      <trkpt lat="42.62946" lon="1.7092">
        <ele>2147.24</ele>
        <time>2020-09-27T10:31:52Z</time>
      </trkpt>
      <trkpt lat="42.6294" lon="1.70917">
        <ele>2146.76</ele>
        <time>2020-09-27T10:32:03Z</time>
      </trkpt>
      <trkpt lat="42.62936" lon="1.70912">
        <ele>2147.72</ele>
        <time>2020-09-27T10:32:14Z</time>
      </trkpt>
      <trkpt lat="42.62934" lon="1.70907">
        <ele>2147.72</ele>
        <time>2020-09-27T10:32:24Z</time>
      </trkpt>
      <trkpt lat="42.6293" lon="1.70899">
        <ele>2148.68</ele>
        <time>2020-09-27T10:32:35Z</time>
      </trkpt>
      <trkpt lat="42.62928" lon="1.70889">
        <ele>2146.28</ele>
        <time>2020-09-27T10:32:48Z</time>
      </trkpt>
      <trkpt lat="42.62928" lon="1.70886">
        <ele>2147.24</ele>
        <time>2020-09-27T10:32:57Z</time>
      </trkpt>
      <trkpt lat="42.62923" lon="1.70885">
        <ele>2146.76</ele>
        <time>2020-09-27T10:33:14Z</time>
      </trkpt>
      <trkpt lat="42.62921" lon="1.70884">
        <ele>2149.65</ele>
        <time>2020-09-27T10:33:17Z</time>
      </trkpt>
      <trkpt lat="42.6292" lon="1.70884">
        <ele>2146.28</ele>
        <time>2020-09-27T10:33:21Z</time>
      </trkpt>
      <trkpt lat="42.62919" lon="1.70884">
        <ele>2144.84</ele>
        <time>2020-09-27T10:33:23Z</time>
      </trkpt>
      <trkpt lat="42.62916" lon="1.70884">
        <ele>2146.28</ele>
        <time>2020-09-27T10:33:28Z</time>
      </trkpt>
      <trkpt lat="42.62913" lon="1.70883">
        <ele>2144.36</ele>
        <time>2020-09-27T10:33:34Z</time>
      </trkpt>
      <trkpt lat="42.62911" lon="1.70881">
        <ele>2148.2</ele>
        <time>2020-09-27T10:33:39Z</time>
      </trkpt>
      <trkpt lat="42.62911" lon="1.70881">
        <ele>2148.2</ele>
        <time>2020-09-27T10:33:40Z</time>
      </trkpt>
      <trkpt lat="42.6291" lon="1.70879">
        <ele>2155.41</ele>
        <time>2020-09-27T10:33:42Z</time>
      </trkpt>
      <trkpt lat="42.6291" lon="1.70879">
        <ele>2155.41</ele>
        <time>2020-09-27T10:33:43Z</time>
      </trkpt>
      <trkpt lat="42.6291" lon="1.70879">
        <ele>2158.78</ele>
        <time>2020-09-27T10:33:45Z</time>
      </trkpt>
      <trkpt lat="42.6291" lon="1.70878">
        <ele>2155.41</ele>
        <time>2020-09-27T10:33:46Z</time>
      </trkpt>
      <trkpt lat="42.62909" lon="1.70878">
        <ele>2151.57</ele>
        <time>2020-09-27T10:33:47Z</time>
      </trkpt>
      <trkpt lat="42.62909" lon="1.70878">
        <ele>2147.24</ele>
        <time>2020-09-27T10:33:48Z</time>
      </trkpt>
      <trkpt lat="42.62909" lon="1.70877">
        <ele>2143.4</ele>
        <time>2020-09-27T10:33:50Z</time>
      </trkpt>
      <trkpt lat="42.62909" lon="1.70877">
        <ele>2143.4</ele>
        <time>2020-09-27T10:33:51Z</time>
      </trkpt>
      <trkpt lat="42.62907" lon="1.70875">
        <ele>2141.95</ele>
        <time>2020-09-27T10:33:54Z</time>
      </trkpt>
      <trkpt lat="42.62901" lon="1.70869">
        <ele>2141.47</ele>
        <time>2020-09-27T10:34:06Z</time>
      </trkpt>
      <trkpt lat="42.629" lon="1.70868">
        <ele>2141.47</ele>
        <time>2020-09-27T10:34:08Z</time>
      </trkpt>
      <trkpt lat="42.62891" lon="1.70865">
        <ele>2140.51</ele>
        <time>2020-09-27T10:34:19Z</time>
      </trkpt>
      <trkpt lat="42.62885" lon="1.70862">
        <ele>2139.07</ele>
        <time>2020-09-27T10:34:31Z</time>
      </trkpt>
      <trkpt lat="42.62881" lon="1.70862">
        <ele>2139.07</ele>
        <time>2020-09-27T10:34:42Z</time>
      </trkpt>
      <trkpt lat="42.62877" lon="1.70861">
        <ele>2140.51</ele>
        <time>2020-09-27T10:34:53Z</time>
      </trkpt>
      <trkpt lat="42.62875" lon="1.70859">
        <ele>2140.99</ele>
        <time>2020-09-27T10:35:02Z</time>
      </trkpt>
      <trkpt lat="42.62872" lon="1.70859">
        <ele>2142.44</ele>
        <time>2020-09-27T10:35:13Z</time>
      </trkpt>
      <trkpt lat="42.62868" lon="1.7086">
        <ele>2142.92</ele>
        <time>2020-09-27T10:35:24Z</time>
      </trkpt>
      <trkpt lat="42.62867" lon="1.70862">
        <ele>2142.92</ele>
        <time>2020-09-27T10:35:33Z</time>
      </trkpt>
      <trkpt lat="42.62867" lon="1.70862">
        <ele>2141.95</ele>
        <time>2020-09-27T10:35:42Z</time>
      </trkpt>
      <trkpt lat="42.62861" lon="1.70864">
        <ele>2142.92</ele>
        <time>2020-09-27T10:35:56Z</time>
      </trkpt>
      <trkpt lat="42.62857" lon="1.70864">
        <ele>2142.92</ele>
        <time>2020-09-27T10:36:08Z</time>
      </trkpt>
      <trkpt lat="42.62858" lon="1.70864">
        <ele>2144.84</ele>
        <time>2020-09-27T10:36:18Z</time>
      </trkpt>
      <trkpt lat="42.62858" lon="1.70864">
        <ele>2141.95</ele>
        <time>2020-09-27T10:36:25Z</time>
      </trkpt>
      <trkpt lat="42.62858" lon="1.70864">
        <ele>2141.47</ele>
        <time>2020-09-27T10:36:26Z</time>
      </trkpt>
      <trkpt lat="42.62859" lon="1.70864">
        <ele>2140.99</ele>
        <time>2020-09-27T10:36:47Z</time>
      </trkpt>
      <trkpt lat="42.62859" lon="1.70864">
        <ele>2142.44</ele>
        <time>2020-09-27T10:36:53Z</time>
      </trkpt>
      <trkpt lat="42.62858" lon="1.70865">
        <ele>2141.95</ele>
        <time>2020-09-27T10:37:04Z</time>
      </trkpt>
      <trkpt lat="42.62858" lon="1.70865">
        <ele>2142.92</ele>
        <time>2020-09-27T10:37:13Z</time>
      </trkpt>
      <trkpt lat="42.62858" lon="1.70865">
        <ele>2142.92</ele>
        <time>2020-09-27T10:37:23Z</time>
      </trkpt>
      <trkpt lat="42.62856" lon="1.70862">
        <ele>2143.4</ele>
        <time>2020-09-27T10:37:41Z</time>
      </trkpt>
      <trkpt lat="42.62856" lon="1.70863">
        <ele>2142.44</ele>
        <time>2020-09-27T10:37:52Z</time>
      </trkpt>
      <trkpt lat="42.62857" lon="1.70863">
        <ele>2140.99</ele>
        <time>2020-09-27T10:38:04Z</time>
      </trkpt>
      <trkpt lat="42.62858" lon="1.70864">
        <ele>2142.44</ele>
        <time>2020-09-27T10:38:10Z</time>
      </trkpt>
      <trkpt lat="42.62857" lon="1.70864">
        <ele>2140.99</ele>
        <time>2020-09-27T10:38:27Z</time>
      </trkpt>
      <trkpt lat="42.62857" lon="1.70864">
        <ele>2142.92</ele>
        <time>2020-09-27T10:38:30Z</time>
      </trkpt>
      <trkpt lat="42.62859" lon="1.70866">
        <ele>2143.4</ele>
        <time>2020-09-27T10:38:55Z</time>
      </trkpt>
      <trkpt lat="42.62858" lon="1.70865">
        <ele>2143.88</ele>
        <time>2020-09-27T10:39:12Z</time>
      </trkpt>
      <trkpt lat="42.62858" lon="1.70865">
        <ele>2141.47</ele>
        <time>2020-09-27T10:39:30Z</time>
      </trkpt>
      <trkpt lat="42.62863" lon="1.70865">
        <ele>2140.03</ele>
        <time>2020-09-27T10:39:40Z</time>
      </trkpt>
      <trkpt lat="42.62868" lon="1.70864">
        <ele>2139.55</ele>
        <time>2020-09-27T10:39:51Z</time>
      </trkpt>
      <trkpt lat="42.62871" lon="1.70863">
        <ele>2139.55</ele>
        <time>2020-09-27T10:40:09Z</time>
      </trkpt>
      <trkpt lat="42.62877" lon="1.7086">
        <ele>2138.59</ele>
        <time>2020-09-27T10:40:19Z</time>
      </trkpt>
      <trkpt lat="42.62876" lon="1.70861">
        <ele>2137.15</ele>
        <time>2020-09-27T10:40:39Z</time>
      </trkpt>
      <trkpt lat="42.62876" lon="1.70862">
        <ele>2139.55</ele>
        <time>2020-09-27T10:41:05Z</time>
      </trkpt>
      <trkpt lat="42.62878" lon="1.70863">
        <ele>2137.15</ele>
        <time>2020-09-27T10:41:25Z</time>
      </trkpt>
      <trkpt lat="42.62882" lon="1.70865">
        <ele>2137.15</ele>
        <time>2020-09-27T10:41:36Z</time>
      </trkpt>
      <trkpt lat="42.62882" lon="1.70862">
        <ele>2138.11</ele>
        <time>2020-09-27T10:41:47Z</time>
      </trkpt>
      <trkpt lat="42.62882" lon="1.70859">
        <ele>2141.95</ele>
        <time>2020-09-27T10:41:53Z</time>
      </trkpt>
      <trkpt lat="42.62881" lon="1.70857">
        <ele>2140.03</ele>
        <time>2020-09-27T10:41:59Z</time>
      </trkpt>
      <trkpt lat="42.62881" lon="1.70856">
        <ele>2142.92</ele>
        <time>2020-09-27T10:42:00Z</time>
      </trkpt>
      <trkpt lat="42.62882" lon="1.70855">
        <ele>2142.92</ele>
        <time>2020-09-27T10:42:01Z</time>
      </trkpt>
      <trkpt lat="42.62882" lon="1.70855">
        <ele>2145.32</ele>
        <time>2020-09-27T10:42:03Z</time>
      </trkpt>
      <trkpt lat="42.62882" lon="1.70853">
        <ele>2142.92</ele>
        <time>2020-09-27T10:42:05Z</time>
      </trkpt>
      <trkpt lat="42.62879" lon="1.70847">
        <ele>2140.99</ele>
        <time>2020-09-27T10:42:16Z</time>
      </trkpt>
      <trkpt lat="42.62879" lon="1.70841">
        <ele>2140.99</ele>
        <time>2020-09-27T10:42:25Z</time>
      </trkpt>
      <trkpt lat="42.62881" lon="1.70836">
        <ele>2141.95</ele>
        <time>2020-09-27T10:42:35Z</time>
      </trkpt>
      <trkpt lat="42.62881" lon="1.70834">
        <ele>2142.44</ele>
        <time>2020-09-27T10:42:46Z</time>
      </trkpt>
      <trkpt lat="42.6288" lon="1.7083">
        <ele>2143.88</ele>
        <time>2020-09-27T10:42:56Z</time>
      </trkpt>
      <trkpt lat="42.62882" lon="1.70825">
        <ele>2145.8</ele>
        <time>2020-09-27T10:43:06Z</time>
      </trkpt>
      <trkpt lat="42.6288" lon="1.70819">
        <ele>2148.2</ele>
        <time>2020-09-27T10:43:17Z</time>
      </trkpt>
      <trkpt lat="42.62877" lon="1.70815">
        <ele>2148.2</ele>
        <time>2020-09-27T10:43:25Z</time>
      </trkpt>
      <trkpt lat="42.62877" lon="1.70811">
        <ele>2149.16</ele>
        <time>2020-09-27T10:43:34Z</time>
      </trkpt>
      <trkpt lat="42.62878" lon="1.7081">
        <ele>2149.65</ele>
        <time>2020-09-27T10:43:45Z</time>
      </trkpt>
      <trkpt lat="42.62881" lon="1.70805">
        <ele>2148.2</ele>
        <time>2020-09-27T10:43:55Z</time>
      </trkpt>
      <trkpt lat="42.62882" lon="1.70805">
        <ele>2148.68</ele>
        <time>2020-09-27T10:44:04Z</time>
      </trkpt>
      <trkpt lat="42.62883" lon="1.70804">
        <ele>2150.13</ele>
        <time>2020-09-27T10:44:13Z</time>
      </trkpt>
      <trkpt lat="42.62884" lon="1.70804">
        <ele>2148.2</ele>
        <time>2020-09-27T10:44:20Z</time>
      </trkpt>
      <trkpt lat="42.62886" lon="1.70807">
        <ele>2147.72</ele>
        <time>2020-09-27T10:44:30Z</time>
      </trkpt>
      <trkpt lat="42.62886" lon="1.70804">
        <ele>2147.72</ele>
        <time>2020-09-27T10:44:40Z</time>
      </trkpt>
      <trkpt lat="42.6289" lon="1.70802">
        <ele>2147.72</ele>
        <time>2020-09-27T10:44:50Z</time>
      </trkpt>
      <trkpt lat="42.62894" lon="1.70803">
        <ele>2149.16</ele>
        <time>2020-09-27T10:45:00Z</time>
      </trkpt>
      <trkpt lat="42.62896" lon="1.70802">
        <ele>2149.65</ele>
        <time>2020-09-27T10:45:09Z</time>
      </trkpt>
      <trkpt lat="42.62901" lon="1.70802">
        <ele>2150.61</ele>
        <time>2020-09-27T10:45:21Z</time>
      </trkpt>
      <trkpt lat="42.62902" lon="1.70803">
        <ele>2151.09</ele>
        <time>2020-09-27T10:45:32Z</time>
      </trkpt>
      <trkpt lat="42.62902" lon="1.70803">
        <ele>2150.61</ele>
        <time>2020-09-27T10:45:42Z</time>
      </trkpt>
      <trkpt lat="42.62901" lon="1.70803">
        <ele>2150.61</ele>
        <time>2020-09-27T10:45:56Z</time>
      </trkpt>
      <trkpt lat="42.62901" lon="1.70802">
        <ele>2150.13</ele>
        <time>2020-09-27T10:46:17Z</time>
      </trkpt>
      <trkpt lat="42.629" lon="1.70801">
        <ele>2149.65</ele>
        <time>2020-09-27T10:46:43Z</time>
      </trkpt>
      <trkpt lat="42.62901" lon="1.70802">
        <ele>2148.68</ele>
        <time>2020-09-27T10:47:01Z</time>
      </trkpt>
      <trkpt lat="42.62902" lon="1.70798">
        <ele>2147.72</ele>
        <time>2020-09-27T10:47:14Z</time>
      </trkpt>
      <trkpt lat="42.62902" lon="1.70794">
        <ele>2149.16</ele>
        <time>2020-09-27T10:47:20Z</time>
      </trkpt>
      <trkpt lat="42.62903" lon="1.70791">
        <ele>2148.2</ele>
        <time>2020-09-27T10:47:25Z</time>
      </trkpt>
      <trkpt lat="42.62903" lon="1.70788">
        <ele>2149.65</ele>
        <time>2020-09-27T10:47:35Z</time>
      </trkpt>
      <trkpt lat="42.62904" lon="1.70779">
        <ele>2149.16</ele>
        <time>2020-09-27T10:47:46Z</time>
      </trkpt>
      <trkpt lat="42.62904" lon="1.70769">
        <ele>2151.57</ele>
        <time>2020-09-27T10:47:57Z</time>
      </trkpt>
      <trkpt lat="42.62904" lon="1.70761">
        <ele>2153.01</ele>
        <time>2020-09-27T10:48:08Z</time>
      </trkpt>
      <trkpt lat="42.62905" lon="1.7076">
        <ele>2151.57</ele>
        <time>2020-09-27T10:48:11Z</time>
      </trkpt>
      <trkpt lat="42.62905" lon="1.70758">
        <ele>2153.01</ele>
        <time>2020-09-27T10:48:13Z</time>
      </trkpt>
      <trkpt lat="42.62905" lon="1.70756">
        <ele>2151.57</ele>
        <time>2020-09-27T10:48:15Z</time>
      </trkpt>
      <trkpt lat="42.62905" lon="1.70756">
        <ele>2151.57</ele>
        <time>2020-09-27T10:48:28Z</time>
      </trkpt>
      <trkpt lat="42.62905" lon="1.70758">
        <ele>2150.61</ele>
        <time>2020-09-27T10:48:53Z</time>
      </trkpt>
      <trkpt lat="42.62906" lon="1.70756">
        <ele>2152.05</ele>
        <time>2020-09-27T10:49:12Z</time>
      </trkpt>
      <trkpt lat="42.62906" lon="1.70756">
        <ele>2153.49</ele>
        <time>2020-09-27T10:49:38Z</time>
      </trkpt>
      <trkpt lat="42.62905" lon="1.70754">
        <ele>2156.37</ele>
        <time>2020-09-27T10:49:58Z</time>
      </trkpt>
      <trkpt lat="42.62906" lon="1.70749">
        <ele>2153.01</ele>
        <time>2020-09-27T10:50:12Z</time>
      </trkpt>
      <trkpt lat="42.62905" lon="1.70746">
        <ele>2153.01</ele>
        <time>2020-09-27T10:50:24Z</time>
      </trkpt>
      <trkpt lat="42.62905" lon="1.70743">
        <ele>2152.53</ele>
        <time>2020-09-27T10:50:35Z</time>
      </trkpt>
      <trkpt lat="42.62907" lon="1.70739">
        <ele>2152.05</ele>
        <time>2020-09-27T10:50:46Z</time>
      </trkpt>
      <trkpt lat="42.62908" lon="1.70738">
        <ele>2152.05</ele>
        <time>2020-09-27T10:50:50Z</time>
      </trkpt>
      <trkpt lat="42.6291" lon="1.70733">
        <ele>2153.49</ele>
        <time>2020-09-27T10:50:54Z</time>
      </trkpt>
      <trkpt lat="42.62915" lon="1.70728">
        <ele>2153.49</ele>
        <time>2020-09-27T10:51:05Z</time>
      </trkpt>
      <trkpt lat="42.62917" lon="1.70725">
        <ele>2153.97</ele>
        <time>2020-09-27T10:51:14Z</time>
      </trkpt>
      <trkpt lat="42.62919" lon="1.70723">
        <ele>2156.37</ele>
        <time>2020-09-27T10:51:23Z</time>
      </trkpt>
      <trkpt lat="42.62921" lon="1.70722">
        <ele>2157.82</ele>
        <time>2020-09-27T10:51:28Z</time>
      </trkpt>
      <trkpt lat="42.62922" lon="1.70721">
        <ele>2156.37</ele>
        <time>2020-09-27T10:51:32Z</time>
      </trkpt>
      <trkpt lat="42.62927" lon="1.70716">
        <ele>2156.37</ele>
        <time>2020-09-27T10:51:45Z</time>
      </trkpt>
      <trkpt lat="42.62928" lon="1.70715">
        <ele>2157.34</ele>
        <time>2020-09-27T10:51:48Z</time>
      </trkpt>
      <trkpt lat="42.62929" lon="1.70714">
        <ele>2159.26</ele>
        <time>2020-09-27T10:51:53Z</time>
      </trkpt>
      <trkpt lat="42.62931" lon="1.70711">
        <ele>2160.22</ele>
        <time>2020-09-27T10:52:03Z</time>
      </trkpt>
      <trkpt lat="42.62932" lon="1.7071">
        <ele>2158.78</ele>
        <time>2020-09-27T10:52:06Z</time>
      </trkpt>
      <trkpt lat="42.62934" lon="1.70709">
        <ele>2159.26</ele>
        <time>2020-09-27T10:52:15Z</time>
      </trkpt>
      <trkpt lat="42.62936" lon="1.70708">
        <ele>2160.7</ele>
        <time>2020-09-27T10:52:20Z</time>
      </trkpt>
      <trkpt lat="42.62938" lon="1.70708">
        <ele>2162.14</ele>
        <time>2020-09-27T10:52:27Z</time>
      </trkpt>
      <trkpt lat="42.62938" lon="1.70706">
        <ele>2157.34</ele>
        <time>2020-09-27T10:52:29Z</time>
      </trkpt>
      <trkpt lat="42.62939" lon="1.70704">
        <ele>2158.3</ele>
        <time>2020-09-27T10:52:39Z</time>
      </trkpt>
      <trkpt lat="42.6294" lon="1.70704">
        <ele>2160.7</ele>
        <time>2020-09-27T10:52:42Z</time>
      </trkpt>
      <trkpt lat="42.62941" lon="1.70703">
        <ele>2162.14</ele>
        <time>2020-09-27T10:52:44Z</time>
      </trkpt>
      <trkpt lat="42.62941" lon="1.70703">
        <ele>2160.7</ele>
        <time>2020-09-27T10:52:46Z</time>
      </trkpt>
      <trkpt lat="42.62944" lon="1.70702">
        <ele>2161.18</ele>
        <time>2020-09-27T10:52:56Z</time>
      </trkpt>
      <trkpt lat="42.62944" lon="1.70702">
        <ele>2159.74</ele>
        <time>2020-09-27T10:52:59Z</time>
      </trkpt>
      <trkpt lat="42.62948" lon="1.70698">
        <ele>2157.82</ele>
        <time>2020-09-27T10:53:10Z</time>
      </trkpt>
      <trkpt lat="42.6295" lon="1.70699">
        <ele>2157.82</ele>
        <time>2020-09-27T10:53:20Z</time>
      </trkpt>
      <trkpt lat="42.62954" lon="1.70694">
        <ele>2157.34</ele>
        <time>2020-09-27T10:53:31Z</time>
      </trkpt>
      <trkpt lat="42.62955" lon="1.70694">
        <ele>2158.78</ele>
        <time>2020-09-27T10:53:33Z</time>
      </trkpt>
      <trkpt lat="42.62958" lon="1.70691">
        <ele>2155.89</ele>
        <time>2020-09-27T10:53:41Z</time>
      </trkpt>
      <trkpt lat="42.62961" lon="1.70687">
        <ele>2155.41</ele>
        <time>2020-09-27T10:53:50Z</time>
      </trkpt>
      <trkpt lat="42.62963" lon="1.70686">
        <ele>2158.78</ele>
        <time>2020-09-27T10:53:54Z</time>
      </trkpt>
      <trkpt lat="42.62964" lon="1.70686">
        <ele>2158.78</ele>
        <time>2020-09-27T10:53:55Z</time>
      </trkpt>
      <trkpt lat="42.62964" lon="1.70686">
        <ele>2156.86</ele>
        <time>2020-09-27T10:54:06Z</time>
      </trkpt>
      <trkpt lat="42.62963" lon="1.70684">
        <ele>2156.86</ele>
        <time>2020-09-27T10:54:20Z</time>
      </trkpt>
      <trkpt lat="42.62964" lon="1.70685">
        <ele>2155.89</ele>
        <time>2020-09-27T10:54:30Z</time>
      </trkpt>
      <trkpt lat="42.62966" lon="1.70687">
        <ele>2155.89</ele>
        <time>2020-09-27T10:54:37Z</time>
      </trkpt>
      <trkpt lat="42.62969" lon="1.70689">
        <ele>2158.3</ele>
        <time>2020-09-27T10:54:45Z</time>
      </trkpt>
      <trkpt lat="42.6297" lon="1.7069">
        <ele>2157.34</ele>
        <time>2020-09-27T10:54:54Z</time>
      </trkpt>
      <trkpt lat="42.62972" lon="1.70692">
        <ele>2156.37</ele>
        <time>2020-09-27T10:55:03Z</time>
      </trkpt>
      <trkpt lat="42.62974" lon="1.70693">
        <ele>2156.37</ele>
        <time>2020-09-27T10:55:10Z</time>
      </trkpt>
      <trkpt lat="42.62978" lon="1.70695">
        <ele>2154.45</ele>
        <time>2020-09-27T10:55:20Z</time>
      </trkpt>
      <trkpt lat="42.62981" lon="1.70697">
        <ele>2156.86</ele>
        <time>2020-09-27T10:55:29Z</time>
      </trkpt>
      <trkpt lat="42.62984" lon="1.70699">
        <ele>2157.34</ele>
        <time>2020-09-27T10:55:36Z</time>
      </trkpt>
      <trkpt lat="42.62985" lon="1.707">
        <ele>2158.3</ele>
        <time>2020-09-27T10:55:43Z</time>
      </trkpt>
      <trkpt lat="42.62984" lon="1.707">
        <ele>2158.3</ele>
        <time>2020-09-27T10:55:54Z</time>
      </trkpt>
      <trkpt lat="42.62982" lon="1.70697">
        <ele>2159.74</ele>
        <time>2020-09-27T10:56:07Z</time>
      </trkpt>
      <trkpt lat="42.62982" lon="1.70696">
        <ele>2158.3</ele>
        <time>2020-09-27T10:56:09Z</time>
      </trkpt>
      <trkpt lat="42.62984" lon="1.70693">
        <ele>2156.86</ele>
        <time>2020-09-27T10:56:22Z</time>
      </trkpt>
      <trkpt lat="42.62988" lon="1.70689">
        <ele>2156.37</ele>
        <time>2020-09-27T10:56:30Z</time>
      </trkpt>
      <trkpt lat="42.62988" lon="1.70688">
        <ele>2156.37</ele>
        <time>2020-09-27T10:56:31Z</time>
      </trkpt>
      <trkpt lat="42.62991" lon="1.70687">
        <ele>2156.37</ele>
        <time>2020-09-27T10:56:39Z</time>
      </trkpt>
      <trkpt lat="42.62993" lon="1.70686">
        <ele>2156.37</ele>
        <time>2020-09-27T10:56:44Z</time>
      </trkpt>
      <trkpt lat="42.62995" lon="1.70685">
        <ele>2155.89</ele>
        <time>2020-09-27T10:56:52Z</time>
      </trkpt>
      <trkpt lat="42.62997" lon="1.70687">
        <ele>2155.41</ele>
        <time>2020-09-27T10:57:02Z</time>
      </trkpt>
      <trkpt lat="42.62998" lon="1.70687">
        <ele>2156.86</ele>
        <time>2020-09-27T10:57:05Z</time>
      </trkpt>
      <trkpt lat="42.63001" lon="1.70686">
        <ele>2157.34</ele>
        <time>2020-09-27T10:57:14Z</time>
      </trkpt>
      <trkpt lat="42.63003" lon="1.70686">
        <ele>2159.26</ele>
        <time>2020-09-27T10:57:21Z</time>
      </trkpt>
      <trkpt lat="42.63" lon="1.70684">
        <ele>2160.22</ele>
        <time>2020-09-27T10:57:35Z</time>
      </trkpt>
      <trkpt lat="42.63" lon="1.70683">
        <ele>2158.78</ele>
        <time>2020-09-27T10:57:37Z</time>
      </trkpt>
      <trkpt lat="42.63002" lon="1.70682">
        <ele>2158.3</ele>
        <time>2020-09-27T10:57:47Z</time>
      </trkpt>
      <trkpt lat="42.63003" lon="1.70681">
        <ele>2160.22</ele>
        <time>2020-09-27T10:57:52Z</time>
      </trkpt>
      <trkpt lat="42.63005" lon="1.70676">
        <ele>2161.66</ele>
        <time>2020-09-27T10:58:01Z</time>
      </trkpt>
      <trkpt lat="42.63007" lon="1.70675">
        <ele>2161.18</ele>
        <time>2020-09-27T10:58:09Z</time>
      </trkpt>
      <trkpt lat="42.63008" lon="1.70674">
        <ele>2163.1</ele>
        <time>2020-09-27T10:58:15Z</time>
      </trkpt>
      <trkpt lat="42.63008" lon="1.70675">
        <ele>2164.06</ele>
        <time>2020-09-27T10:58:27Z</time>
      </trkpt>
      <trkpt lat="42.63008" lon="1.70675">
        <ele>2162.62</ele>
        <time>2020-09-27T10:58:30Z</time>
      </trkpt>
      <trkpt lat="42.63009" lon="1.70675">
        <ele>2164.06</ele>
        <time>2020-09-27T10:58:33Z</time>
      </trkpt>
      <trkpt lat="42.63012" lon="1.70674">
        <ele>2164.06</ele>
        <time>2020-09-27T10:58:44Z</time>
      </trkpt>
      <trkpt lat="42.63014" lon="1.70674">
        <ele>2159.74</ele>
        <time>2020-09-27T10:58:48Z</time>
      </trkpt>
      <trkpt lat="42.63014" lon="1.70674">
        <ele>2159.74</ele>
        <time>2020-09-27T10:58:49Z</time>
      </trkpt>
      <trkpt lat="42.63015" lon="1.70674">
        <ele>2157.82</ele>
        <time>2020-09-27T10:58:55Z</time>
      </trkpt>
      <trkpt lat="42.63019" lon="1.70672">
        <ele>2159.26</ele>
        <time>2020-09-27T10:59:06Z</time>
      </trkpt>
      <trkpt lat="42.63021" lon="1.70672">
        <ele>2159.26</ele>
        <time>2020-09-27T10:59:12Z</time>
      </trkpt>
      <trkpt lat="42.63019" lon="1.70672">
        <ele>2159.26</ele>
        <time>2020-09-27T10:59:21Z</time>
      </trkpt>
      <trkpt lat="42.63019" lon="1.70672">
        <ele>2158.3</ele>
        <time>2020-09-27T10:59:23Z</time>
      </trkpt>
      <trkpt lat="42.63019" lon="1.70672">
        <ele>2159.74</ele>
        <time>2020-09-27T10:59:26Z</time>
      </trkpt>
      <trkpt lat="42.63021" lon="1.7067">
        <ele>2158.3</ele>
        <time>2020-09-27T10:59:32Z</time>
      </trkpt>
      <trkpt lat="42.63021" lon="1.70668">
        <ele>2158.78</ele>
        <time>2020-09-27T10:59:44Z</time>
      </trkpt>
      <trkpt lat="42.63021" lon="1.70669">
        <ele>2157.34</ele>
        <time>2020-09-27T10:59:47Z</time>
      </trkpt>
      <trkpt lat="42.63024" lon="1.70671">
        <ele>2159.26</ele>
        <time>2020-09-27T10:59:59Z</time>
      </trkpt>
      <trkpt lat="42.63027" lon="1.7067">
        <ele>2158.3</ele>
        <time>2020-09-27T11:00:03Z</time>
      </trkpt>
      <trkpt lat="42.63028" lon="1.7067">
        <ele>2157.82</ele>
        <time>2020-09-27T11:00:17Z</time>
      </trkpt>
      <trkpt lat="42.6303" lon="1.70666">
        <ele>2156.86</ele>
        <time>2020-09-27T11:00:27Z</time>
      </trkpt>
      <trkpt lat="42.63032" lon="1.70664">
        <ele>2155.89</ele>
        <time>2020-09-27T11:00:38Z</time>
      </trkpt>
      <trkpt lat="42.63032" lon="1.70662">
        <ele>2156.86</ele>
        <time>2020-09-27T11:00:44Z</time>
      </trkpt>
      <trkpt lat="42.63034" lon="1.7066">
        <ele>2157.34</ele>
        <time>2020-09-27T11:00:54Z</time>
      </trkpt>
      <trkpt lat="42.63035" lon="1.70659">
        <ele>2155.89</ele>
        <time>2020-09-27T11:00:56Z</time>
      </trkpt>
      <trkpt lat="42.63037" lon="1.70657">
        <ele>2156.86</ele>
        <time>2020-09-27T11:01:04Z</time>
      </trkpt>
      <trkpt lat="42.63037" lon="1.70656">
        <ele>2155.41</ele>
        <time>2020-09-27T11:01:05Z</time>
      </trkpt>
      <trkpt lat="42.63038" lon="1.70655">
        <ele>2154.45</ele>
        <time>2020-09-27T11:01:15Z</time>
      </trkpt>
      <trkpt lat="42.6304" lon="1.70653">
        <ele>2155.89</ele>
        <time>2020-09-27T11:01:23Z</time>
      </trkpt>
      <trkpt lat="42.6304" lon="1.70652">
        <ele>2154.45</ele>
        <time>2020-09-27T11:01:25Z</time>
      </trkpt>
      <trkpt lat="42.63041" lon="1.7065">
        <ele>2151.09</ele>
        <time>2020-09-27T11:01:28Z</time>
      </trkpt>
      <trkpt lat="42.63043" lon="1.70648">
        <ele>2152.53</ele>
        <time>2020-09-27T11:01:35Z</time>
      </trkpt>
      <trkpt lat="42.63045" lon="1.70643">
        <ele>2151.09</ele>
        <time>2020-09-27T11:01:40Z</time>
      </trkpt>
      <trkpt lat="42.63048" lon="1.70638">
        <ele>2150.61</ele>
        <time>2020-09-27T11:01:49Z</time>
      </trkpt>
      <trkpt lat="42.6305" lon="1.7063">
        <ele>2148.68</ele>
        <time>2020-09-27T11:02:00Z</time>
      </trkpt>
      <trkpt lat="42.63052" lon="1.70629">
        <ele>2150.13</ele>
        <time>2020-09-27T11:02:05Z</time>
      </trkpt>
      <trkpt lat="42.63053" lon="1.70629">
        <ele>2148.68</ele>
        <time>2020-09-27T11:02:08Z</time>
      </trkpt>
      <trkpt lat="42.63054" lon="1.70631">
        <ele>2148.68</ele>
        <time>2020-09-27T11:02:19Z</time>
      </trkpt>
      <trkpt lat="42.63056" lon="1.70626">
        <ele>2147.24</ele>
        <time>2020-09-27T11:02:29Z</time>
      </trkpt>
      <trkpt lat="42.63058" lon="1.70619">
        <ele>2145.32</ele>
        <time>2020-09-27T11:02:38Z</time>
      </trkpt>
      <trkpt lat="42.63058" lon="1.70615">
        <ele>2144.84</ele>
        <time>2020-09-27T11:02:51Z</time>
      </trkpt>
      <trkpt lat="42.63061" lon="1.70608">
        <ele>2144.36</ele>
        <time>2020-09-27T11:03:00Z</time>
      </trkpt>
      <trkpt lat="42.63063" lon="1.70605">
        <ele>2142.92</ele>
        <time>2020-09-27T11:03:03Z</time>
      </trkpt>
      <trkpt lat="42.63068" lon="1.70598">
        <ele>2144.84</ele>
        <time>2020-09-27T11:03:10Z</time>
      </trkpt>
      <trkpt lat="42.6307" lon="1.70597">
        <ele>2143.88</ele>
        <time>2020-09-27T11:03:15Z</time>
      </trkpt>
      <trkpt lat="42.63073" lon="1.70599">
        <ele>2142.92</ele>
        <time>2020-09-27T11:03:18Z</time>
      </trkpt>
      <trkpt lat="42.63077" lon="1.70602">
        <ele>2141.47</ele>
        <time>2020-09-27T11:03:23Z</time>
      </trkpt>
      <trkpt lat="42.6308" lon="1.70605">
        <ele>2142.44</ele>
        <time>2020-09-27T11:03:35Z</time>
      </trkpt>
      <trkpt lat="42.6308" lon="1.70606">
        <ele>2142.44</ele>
        <time>2020-09-27T11:03:46Z</time>
      </trkpt>
      <trkpt lat="42.6308" lon="1.70608">
        <ele>2143.88</ele>
        <time>2020-09-27T11:04:03Z</time>
      </trkpt>
      <trkpt lat="42.63083" lon="1.70606">
        <ele>2141.95</ele>
        <time>2020-09-27T11:04:11Z</time>
      </trkpt>
      <trkpt lat="42.63086" lon="1.70606">
        <ele>2139.07</ele>
        <time>2020-09-27T11:04:20Z</time>
      </trkpt>
      <trkpt lat="42.63087" lon="1.70611">
        <ele>2138.11</ele>
        <time>2020-09-27T11:04:31Z</time>
      </trkpt>
      <trkpt lat="42.63087" lon="1.70613">
        <ele>2137.63</ele>
        <time>2020-09-27T11:04:43Z</time>
      </trkpt>
      <trkpt lat="42.63088" lon="1.70619">
        <ele>2137.63</ele>
        <time>2020-09-27T11:04:52Z</time>
      </trkpt>
      <trkpt lat="42.63087" lon="1.70627">
        <ele>2136.67</ele>
        <time>2020-09-27T11:05:01Z</time>
      </trkpt>
      <trkpt lat="42.63087" lon="1.70629">
        <ele>2137.15</ele>
        <time>2020-09-27T11:05:06Z</time>
      </trkpt>
      <trkpt lat="42.63089" lon="1.70633">
        <ele>2136.67</ele>
        <time>2020-09-27T11:05:17Z</time>
      </trkpt>
      <trkpt lat="42.6309" lon="1.70634">
        <ele>2136.19</ele>
        <time>2020-09-27T11:05:28Z</time>
      </trkpt>
      <trkpt lat="42.63092" lon="1.70635">
        <ele>2137.63</ele>
        <time>2020-09-27T11:05:33Z</time>
      </trkpt>
      <trkpt lat="42.63091" lon="1.70635">
        <ele>2135.71</ele>
        <time>2020-09-27T11:05:36Z</time>
      </trkpt>
      <trkpt lat="42.63093" lon="1.70636">
        <ele>2137.15</ele>
        <time>2020-09-27T11:05:48Z</time>
      </trkpt>
      <trkpt lat="42.63093" lon="1.70637">
        <ele>2138.11</ele>
        <time>2020-09-27T11:05:57Z</time>
      </trkpt>
      <trkpt lat="42.63093" lon="1.70637">
        <ele>2138.59</ele>
        <time>2020-09-27T11:06:12Z</time>
      </trkpt>
      <trkpt lat="42.63095" lon="1.70639">
        <ele>2139.55</ele>
        <time>2020-09-27T11:06:23Z</time>
      </trkpt>
      <trkpt lat="42.63095" lon="1.70641">
        <ele>2140.03</ele>
        <time>2020-09-27T11:06:34Z</time>
      </trkpt>
      <trkpt lat="42.63095" lon="1.70643">
        <ele>2138.59</ele>
        <time>2020-09-27T11:06:49Z</time>
      </trkpt>
      <trkpt lat="42.63096" lon="1.70643">
        <ele>2138.59</ele>
        <time>2020-09-27T11:06:50Z</time>
      </trkpt>
      <trkpt lat="42.63098" lon="1.7064">
        <ele>2139.55</ele>
        <time>2020-09-27T11:06:59Z</time>
      </trkpt>
      <trkpt lat="42.63099" lon="1.70641">
        <ele>2138.11</ele>
        <time>2020-09-27T11:07:01Z</time>
      </trkpt>
      <trkpt lat="42.63099" lon="1.70642">
        <ele>2135.23</ele>
        <time>2020-09-27T11:07:07Z</time>
      </trkpt>
      <trkpt lat="42.63099" lon="1.70642">
        <ele>2138.59</ele>
        <time>2020-09-27T11:07:08Z</time>
      </trkpt>
      <trkpt lat="42.63097" lon="1.70639">
        <ele>2139.07</ele>
        <time>2020-09-27T11:07:24Z</time>
      </trkpt>
      <trkpt lat="42.63097" lon="1.70639">
        <ele>2137.15</ele>
        <time>2020-09-27T11:07:36Z</time>
      </trkpt>
      <trkpt lat="42.63096" lon="1.70638">
        <ele>2136.19</ele>
        <time>2020-09-27T11:07:45Z</time>
      </trkpt>
      <trkpt lat="42.63097" lon="1.70641">
        <ele>2137.15</ele>
        <time>2020-09-27T11:08:06Z</time>
      </trkpt>
      <trkpt lat="42.63097" lon="1.70637">
        <ele>2139.07</ele>
        <time>2020-09-27T11:08:32Z</time>
      </trkpt>
      <trkpt lat="42.63097" lon="1.70637">
        <ele>2139.55</ele>
        <time>2020-09-27T11:08:54Z</time>
      </trkpt>
      <trkpt lat="42.63098" lon="1.70641">
        <ele>2139.55</ele>
        <time>2020-09-27T11:09:14Z</time>
      </trkpt>
      <trkpt lat="42.63099" lon="1.70639">
        <ele>2137.63</ele>
        <time>2020-09-27T11:09:37Z</time>
      </trkpt>
      <trkpt lat="42.63099" lon="1.7064">
        <ele>2140.99</ele>
        <time>2020-09-27T11:09:53Z</time>
      </trkpt>
      <trkpt lat="42.63097" lon="1.70641">
        <ele>2139.55</ele>
        <time>2020-09-27T11:10:00Z</time>
      </trkpt>
      <trkpt lat="42.63096" lon="1.70637">
        <ele>2139.07</ele>
        <time>2020-09-27T11:10:16Z</time>
      </trkpt>
      <trkpt lat="42.63096" lon="1.70635">
        <ele>2138.59</ele>
        <time>2020-09-27T11:10:38Z</time>
      </trkpt>
      <trkpt lat="42.63097" lon="1.70638">
        <ele>2139.07</ele>
        <time>2020-09-27T11:10:55Z</time>
      </trkpt>
      <trkpt lat="42.63097" lon="1.70638">
        <ele>2137.63</ele>
        <time>2020-09-27T11:11:00Z</time>
      </trkpt>
      <trkpt lat="42.63098" lon="1.70637">
        <ele>2137.63</ele>
        <time>2020-09-27T11:11:33Z</time>
      </trkpt>
      <trkpt lat="42.63099" lon="1.70638">
        <ele>2138.59</ele>
        <time>2020-09-27T11:11:36Z</time>
      </trkpt>
      <trkpt lat="42.63094" lon="1.70638">
        <ele>2138.11</ele>
        <time>2020-09-27T11:12:04Z</time>
      </trkpt>
      <trkpt lat="42.63097" lon="1.70637">
        <ele>2140.03</ele>
        <time>2020-09-27T11:12:20Z</time>
      </trkpt>
      <trkpt lat="42.63096" lon="1.70635">
        <ele>2139.07</ele>
        <time>2020-09-27T11:12:46Z</time>
      </trkpt>
      <trkpt lat="42.63096" lon="1.70636">
        <ele>2140.99</ele>
        <time>2020-09-27T11:13:06Z</time>
      </trkpt>
      <trkpt lat="42.63096" lon="1.70637">
        <ele>2139.07</ele>
        <time>2020-09-27T11:13:33Z</time>
      </trkpt>
      <trkpt lat="42.63101" lon="1.70641">
        <ele>2139.55</ele>
        <time>2020-09-27T11:13:52Z</time>
      </trkpt>
      <trkpt lat="42.63102" lon="1.70644">
        <ele>2139.55</ele>
        <time>2020-09-27T11:14:21Z</time>
      </trkpt>
      <trkpt lat="42.63098" lon="1.70639">
        <ele>2138.11</ele>
        <time>2020-09-27T11:14:52Z</time>
      </trkpt>
      <trkpt lat="42.63097" lon="1.70641">
        <ele>2140.03</ele>
        <time>2020-09-27T11:15:23Z</time>
      </trkpt>
      <trkpt lat="42.63096" lon="1.70641">
        <ele>2138.59</ele>
        <time>2020-09-27T11:15:29Z</time>
      </trkpt>
      <trkpt lat="42.63095" lon="1.70638">
        <ele>2138.59</ele>
        <time>2020-09-27T11:15:43Z</time>
      </trkpt>
      <trkpt lat="42.63095" lon="1.70641">
        <ele>2138.59</ele>
        <time>2020-09-27T11:15:53Z</time>
      </trkpt>
      <trkpt lat="42.63098" lon="1.70639">
        <ele>2139.55</ele>
        <time>2020-09-27T11:16:25Z</time>
      </trkpt>
      <trkpt lat="42.63097" lon="1.7064">
        <ele>2139.55</ele>
        <time>2020-09-27T11:16:50Z</time>
      </trkpt>
      <trkpt lat="42.63096" lon="1.70639">
        <ele>2138.59</ele>
        <time>2020-09-27T11:17:03Z</time>
      </trkpt>
      <trkpt lat="42.63096" lon="1.70639">
        <ele>2137.15</ele>
        <time>2020-09-27T11:17:19Z</time>
      </trkpt>
      <trkpt lat="42.63097" lon="1.70639">
        <ele>2138.59</ele>
        <time>2020-09-27T11:17:35Z</time>
      </trkpt>
      <trkpt lat="42.63098" lon="1.7064">
        <ele>2138.59</ele>
        <time>2020-09-27T11:17:59Z</time>
      </trkpt>
      <trkpt lat="42.63101" lon="1.70643">
        <ele>2139.07</ele>
        <time>2020-09-27T11:18:17Z</time>
      </trkpt>
      <trkpt lat="42.631" lon="1.7064">
        <ele>2138.11</ele>
        <time>2020-09-27T11:18:40Z</time>
      </trkpt>
      <trkpt lat="42.63098" lon="1.7064">
        <ele>2138.11</ele>
        <time>2020-09-27T11:19:07Z</time>
      </trkpt>
      <trkpt lat="42.63099" lon="1.70642">
        <ele>2137.15</ele>
        <time>2020-09-27T11:19:26Z</time>
      </trkpt>
      <trkpt lat="42.63098" lon="1.70643">
        <ele>2137.63</ele>
        <time>2020-09-27T11:19:46Z</time>
      </trkpt>
      <trkpt lat="42.63098" lon="1.70644">
        <ele>2138.59</ele>
        <time>2020-09-27T11:20:08Z</time>
      </trkpt>
      <trkpt lat="42.63097" lon="1.70642">
        <ele>2137.15</ele>
        <time>2020-09-27T11:20:14Z</time>
      </trkpt>
      <trkpt lat="42.63096" lon="1.70641">
        <ele>2138.11</ele>
        <time>2020-09-27T11:20:23Z</time>
      </trkpt>
      <trkpt lat="42.63097" lon="1.70641">
        <ele>2138.11</ele>
        <time>2020-09-27T11:20:37Z</time>
      </trkpt>
      <trkpt lat="42.63096" lon="1.70641">
        <ele>2138.59</ele>
        <time>2020-09-27T11:20:51Z</time>
      </trkpt>
      <trkpt lat="42.63096" lon="1.70641">
        <ele>2137.15</ele>
        <time>2020-09-27T11:20:53Z</time>
      </trkpt>
      <trkpt lat="42.63096" lon="1.70644">
        <ele>2137.15</ele>
        <time>2020-09-27T11:21:10Z</time>
      </trkpt>
      <trkpt lat="42.63096" lon="1.70643">
        <ele>2138.59</ele>
        <time>2020-09-27T11:21:28Z</time>
      </trkpt>
      <trkpt lat="42.63094" lon="1.70642">
        <ele>2139.07</ele>
        <time>2020-09-27T11:21:47Z</time>
      </trkpt>
      <trkpt lat="42.63094" lon="1.70642">
        <ele>2137.15</ele>
        <time>2020-09-27T11:21:49Z</time>
      </trkpt>
      <trkpt lat="42.63095" lon="1.7064">
        <ele>2136.67</ele>
        <time>2020-09-27T11:22:12Z</time>
      </trkpt>
      <trkpt lat="42.63096" lon="1.70637">
        <ele>2137.15</ele>
        <time>2020-09-27T11:22:24Z</time>
      </trkpt>
      <trkpt lat="42.63098" lon="1.70637">
        <ele>2136.67</ele>
        <time>2020-09-27T11:22:49Z</time>
      </trkpt>
      <trkpt lat="42.63101" lon="1.70637">
        <ele>2136.67</ele>
        <time>2020-09-27T11:23:16Z</time>
      </trkpt>
      <trkpt lat="42.63101" lon="1.7064">
        <ele>2137.15</ele>
        <time>2020-09-27T11:23:42Z</time>
      </trkpt>
      <trkpt lat="42.631" lon="1.70638">
        <ele>2137.15</ele>
        <time>2020-09-27T11:23:57Z</time>
      </trkpt>
      <trkpt lat="42.63099" lon="1.70638">
        <ele>2137.15</ele>
        <time>2020-09-27T11:24:11Z</time>
      </trkpt>
      <trkpt lat="42.63097" lon="1.7064">
        <ele>2138.59</ele>
        <time>2020-09-27T11:24:30Z</time>
      </trkpt>
      <trkpt lat="42.63097" lon="1.7064">
        <ele>2136.67</ele>
        <time>2020-09-27T11:24:50Z</time>
      </trkpt>
      <trkpt lat="42.63096" lon="1.7064">
        <ele>2139.55</ele>
        <time>2020-09-27T11:24:53Z</time>
      </trkpt>
      <trkpt lat="42.63098" lon="1.70641">
        <ele>2139.07</ele>
        <time>2020-09-27T11:25:06Z</time>
      </trkpt>
      <trkpt lat="42.63099" lon="1.70642">
        <ele>2137.63</ele>
        <time>2020-09-27T11:25:34Z</time>
      </trkpt>
      <trkpt lat="42.63099" lon="1.70639">
        <ele>2135.71</ele>
        <time>2020-09-27T11:26:02Z</time>
      </trkpt>
      <trkpt lat="42.63098" lon="1.7064">
        <ele>2137.15</ele>
        <time>2020-09-27T11:26:31Z</time>
      </trkpt>
      <trkpt lat="42.631" lon="1.70643">
        <ele>2136.19</ele>
        <time>2020-09-27T11:27:04Z</time>
      </trkpt>
      <trkpt lat="42.63098" lon="1.70644">
        <ele>2135.71</ele>
        <time>2020-09-27T11:27:32Z</time>
      </trkpt>
      <trkpt lat="42.63097" lon="1.70641">
        <ele>2136.19</ele>
        <time>2020-09-27T11:27:50Z</time>
      </trkpt>
      <trkpt lat="42.63099" lon="1.70645">
        <ele>2137.15</ele>
        <time>2020-09-27T11:28:28Z</time>
      </trkpt>
      <trkpt lat="42.63097" lon="1.70641">
        <ele>2138.11</ele>
        <time>2020-09-27T11:29:03Z</time>
      </trkpt>
      <trkpt lat="42.63097" lon="1.70639">
        <ele>2138.11</ele>
        <time>2020-09-27T11:29:24Z</time>
      </trkpt>
      <trkpt lat="42.63096" lon="1.70637">
        <ele>2136.67</ele>
        <time>2020-09-27T11:29:36Z</time>
      </trkpt>
      <trkpt lat="42.63097" lon="1.70639">
        <ele>2136.67</ele>
        <time>2020-09-27T11:30:13Z</time>
      </trkpt>
      <trkpt lat="42.63098" lon="1.70639">
        <ele>2138.59</ele>
        <time>2020-09-27T11:30:32Z</time>
      </trkpt>
      <trkpt lat="42.63098" lon="1.70639">
        <ele>2137.15</ele>
        <time>2020-09-27T11:30:37Z</time>
      </trkpt>
      <trkpt lat="42.63097" lon="1.70638">
        <ele>2138.59</ele>
        <time>2020-09-27T11:31:04Z</time>
      </trkpt>
      <trkpt lat="42.63098" lon="1.70639">
        <ele>2138.59</ele>
        <time>2020-09-27T11:31:31Z</time>
      </trkpt>
      <trkpt lat="42.63096" lon="1.7064">
        <ele>2139.07</ele>
        <time>2020-09-27T11:32:03Z</time>
      </trkpt>
      <trkpt lat="42.63096" lon="1.70641">
        <ele>2138.59</ele>
        <time>2020-09-27T11:32:15Z</time>
      </trkpt>
      <trkpt lat="42.63096" lon="1.70641">
        <ele>2137.15</ele>
        <time>2020-09-27T11:32:17Z</time>
      </trkpt>
      <trkpt lat="42.63096" lon="1.70642">
        <ele>2138.11</ele>
        <time>2020-09-27T11:32:21Z</time>
      </trkpt>
      <trkpt lat="42.63096" lon="1.70643">
        <ele>2137.15</ele>
        <time>2020-09-27T11:32:33Z</time>
      </trkpt>
      <trkpt lat="42.63098" lon="1.70639">
        <ele>2137.15</ele>
        <time>2020-09-27T11:32:53Z</time>
      </trkpt>
      <trkpt lat="42.63096" lon="1.7064">
        <ele>2136.67</ele>
        <time>2020-09-27T11:33:10Z</time>
      </trkpt>
      <trkpt lat="42.63095" lon="1.70639">
        <ele>2137.63</ele>
        <time>2020-09-27T11:33:23Z</time>
      </trkpt>
      <trkpt lat="42.63095" lon="1.7064">
        <ele>2137.63</ele>
        <time>2020-09-27T11:33:31Z</time>
      </trkpt>
      <trkpt lat="42.63096" lon="1.70638">
        <ele>2138.11</ele>
        <time>2020-09-27T11:33:45Z</time>
      </trkpt>
      <trkpt lat="42.63096" lon="1.70638">
        <ele>2138.11</ele>
        <time>2020-09-27T11:33:55Z</time>
      </trkpt>
      <trkpt lat="42.63096" lon="1.70636">
        <ele>2137.63</ele>
        <time>2020-09-27T11:34:07Z</time>
      </trkpt>
      <trkpt lat="42.63093" lon="1.70634">
        <ele>2136.67</ele>
        <time>2020-09-27T11:34:16Z</time>
      </trkpt>
      <trkpt lat="42.6309" lon="1.7063">
        <ele>2136.67</ele>
        <time>2020-09-27T11:34:26Z</time>
      </trkpt>
      <trkpt lat="42.6309" lon="1.70629">
        <ele>2137.63</ele>
        <time>2020-09-27T11:34:29Z</time>
      </trkpt>
      <trkpt lat="42.63088" lon="1.70623">
        <ele>2136.19</ele>
        <time>2020-09-27T11:34:37Z</time>
      </trkpt>
      <trkpt lat="42.63091" lon="1.70618">
        <ele>2135.71</ele>
        <time>2020-09-27T11:34:47Z</time>
      </trkpt>
      <trkpt lat="42.63091" lon="1.70618">
        <ele>2135.23</ele>
        <time>2020-09-27T11:34:53Z</time>
      </trkpt>
      <trkpt lat="42.63091" lon="1.70619">
        <ele>2135.23</ele>
        <time>2020-09-27T11:35:00Z</time>
      </trkpt>
      <trkpt lat="42.63093" lon="1.7062">
        <ele>2133.78</ele>
        <time>2020-09-27T11:35:10Z</time>
      </trkpt>
      <trkpt lat="42.63093" lon="1.7062">
        <ele>2133.78</ele>
        <time>2020-09-27T11:35:21Z</time>
      </trkpt>
      <trkpt lat="42.63094" lon="1.70616">
        <ele>2133.78</ele>
        <time>2020-09-27T11:35:29Z</time>
      </trkpt>
      <trkpt lat="42.63094" lon="1.70616">
        <ele>2135.23</ele>
        <time>2020-09-27T11:35:40Z</time>
      </trkpt>
      <trkpt lat="42.63094" lon="1.70616">
        <ele>2135.23</ele>
        <time>2020-09-27T11:35:41Z</time>
      </trkpt>
      <trkpt lat="42.63095" lon="1.70615">
        <ele>2135.23</ele>
        <time>2020-09-27T11:35:59Z</time>
      </trkpt>
      <trkpt lat="42.63094" lon="1.70617">
        <ele>2133.78</ele>
        <time>2020-09-27T11:36:18Z</time>
      </trkpt>
      <trkpt lat="42.63095" lon="1.70618">
        <ele>2133.78</ele>
        <time>2020-09-27T11:36:28Z</time>
      </trkpt>
      <trkpt lat="42.63096" lon="1.70619">
        <ele>2133.78</ele>
        <time>2020-09-27T11:36:41Z</time>
      </trkpt>
      <trkpt lat="42.63096" lon="1.70619">
        <ele>2133.78</ele>
        <time>2020-09-27T11:36:44Z</time>
      </trkpt>
      <trkpt lat="42.63098" lon="1.7062">
        <ele>2135.23</ele>
        <time>2020-09-27T11:36:49Z</time>
      </trkpt>
      <trkpt lat="42.63102" lon="1.7062">
        <ele>2133.78</ele>
        <time>2020-09-27T11:36:54Z</time>
      </trkpt>
      <trkpt lat="42.63103" lon="1.7062">
        <ele>2133.78</ele>
        <time>2020-09-27T11:36:55Z</time>
      </trkpt>
      <trkpt lat="42.63111" lon="1.7062">
        <ele>2132.82</ele>
        <time>2020-09-27T11:37:07Z</time>
      </trkpt>
      <trkpt lat="42.63119" lon="1.70625">
        <ele>2134.74</ele>
        <time>2020-09-27T11:37:17Z</time>
      </trkpt>
      <trkpt lat="42.6312" lon="1.70625">
        <ele>2133.3</ele>
        <time>2020-09-27T11:37:20Z</time>
      </trkpt>
      <trkpt lat="42.63123" lon="1.70626">
        <ele>2132.82</ele>
        <time>2020-09-27T11:37:28Z</time>
      </trkpt>
      <trkpt lat="42.63125" lon="1.70626">
        <ele>2134.26</ele>
        <time>2020-09-27T11:37:33Z</time>
      </trkpt>
      <trkpt lat="42.63132" lon="1.70625">
        <ele>2134.26</ele>
        <time>2020-09-27T11:37:45Z</time>
      </trkpt>
      <trkpt lat="42.63134" lon="1.70625">
        <ele>2135.23</ele>
        <time>2020-09-27T11:37:54Z</time>
      </trkpt>
      <trkpt lat="42.63136" lon="1.70627">
        <ele>2135.23</ele>
        <time>2020-09-27T11:38:04Z</time>
      </trkpt>
      <trkpt lat="42.63138" lon="1.70626">
        <ele>2135.23</ele>
        <time>2020-09-27T11:38:14Z</time>
      </trkpt>
      <trkpt lat="42.63141" lon="1.70623">
        <ele>2135.23</ele>
        <time>2020-09-27T11:38:23Z</time>
      </trkpt>
      <trkpt lat="42.63144" lon="1.70621">
        <ele>2135.23</ele>
        <time>2020-09-27T11:38:32Z</time>
      </trkpt>
      <trkpt lat="42.63144" lon="1.70619">
        <ele>2135.23</ele>
        <time>2020-09-27T11:38:40Z</time>
      </trkpt>
      <trkpt lat="42.63147" lon="1.70618">
        <ele>2134.26</ele>
        <time>2020-09-27T11:38:49Z</time>
      </trkpt>
      <trkpt lat="42.63149" lon="1.70614">
        <ele>2134.26</ele>
        <time>2020-09-27T11:38:59Z</time>
      </trkpt>
      <trkpt lat="42.63152" lon="1.70612">
        <ele>2133.3</ele>
        <time>2020-09-27T11:39:11Z</time>
      </trkpt>
      <trkpt lat="42.63153" lon="1.70611">
        <ele>2133.3</ele>
        <time>2020-09-27T11:39:18Z</time>
      </trkpt>
      <trkpt lat="42.63152" lon="1.70607">
        <ele>2134.26</ele>
        <time>2020-09-27T11:39:36Z</time>
      </trkpt>
      <trkpt lat="42.63152" lon="1.70605">
        <ele>2134.26</ele>
        <time>2020-09-27T11:39:44Z</time>
      </trkpt>
      <trkpt lat="42.63153" lon="1.70602">
        <ele>2135.23</ele>
        <time>2020-09-27T11:39:54Z</time>
      </trkpt>
      <trkpt lat="42.63153" lon="1.70602">
        <ele>2135.23</ele>
        <time>2020-09-27T11:40:05Z</time>
      </trkpt>
      <trkpt lat="42.63153" lon="1.70601">
        <ele>2135.23</ele>
        <time>2020-09-27T11:40:06Z</time>
      </trkpt>
      <trkpt lat="42.63153" lon="1.70601">
        <ele>2134.26</ele>
        <time>2020-09-27T11:40:22Z</time>
      </trkpt>
      <trkpt lat="42.63154" lon="1.70601">
        <ele>2133.78</ele>
        <time>2020-09-27T11:40:35Z</time>
      </trkpt>
      <trkpt lat="42.63156" lon="1.70604">
        <ele>2134.26</ele>
        <time>2020-09-27T11:40:47Z</time>
      </trkpt>
      <trkpt lat="42.63159" lon="1.70601">
        <ele>2133.3</ele>
        <time>2020-09-27T11:40:56Z</time>
      </trkpt>
      <trkpt lat="42.63159" lon="1.70602">
        <ele>2134.74</ele>
        <time>2020-09-27T11:41:05Z</time>
      </trkpt>
      <trkpt lat="42.63159" lon="1.70602">
        <ele>2134.74</ele>
        <time>2020-09-27T11:41:14Z</time>
      </trkpt>
      <trkpt lat="42.6316" lon="1.706">
        <ele>2135.71</ele>
        <time>2020-09-27T11:41:27Z</time>
      </trkpt>
      <trkpt lat="42.63159" lon="1.70602">
        <ele>2136.67</ele>
        <time>2020-09-27T11:41:39Z</time>
      </trkpt>
      <trkpt lat="42.63159" lon="1.70601">
        <ele>2135.23</ele>
        <time>2020-09-27T11:41:44Z</time>
      </trkpt>
      <trkpt lat="42.63159" lon="1.70602">
        <ele>2135.23</ele>
        <time>2020-09-27T11:42:00Z</time>
      </trkpt>
      <trkpt lat="42.6316" lon="1.70601">
        <ele>2136.67</ele>
        <time>2020-09-27T11:42:03Z</time>
      </trkpt>
      <trkpt lat="42.63166" lon="1.706">
        <ele>2135.23</ele>
        <time>2020-09-27T11:42:11Z</time>
      </trkpt>
      <trkpt lat="42.63166" lon="1.70601">
        <ele>2137.63</ele>
        <time>2020-09-27T11:42:13Z</time>
      </trkpt>
      <trkpt lat="42.63168" lon="1.70602">
        <ele>2136.67</ele>
        <time>2020-09-27T11:42:18Z</time>
      </trkpt>
      <trkpt lat="42.6317" lon="1.70599">
        <ele>2137.63</ele>
        <time>2020-09-27T11:42:22Z</time>
      </trkpt>
      <trkpt lat="42.63172" lon="1.70598">
        <ele>2134.74</ele>
        <time>2020-09-27T11:42:26Z</time>
      </trkpt>
      <trkpt lat="42.63173" lon="1.70597">
        <ele>2139.07</ele>
        <time>2020-09-27T11:42:27Z</time>
      </trkpt>
      <trkpt lat="42.63173" lon="1.70597">
        <ele>2137.63</ele>
        <time>2020-09-27T11:42:28Z</time>
      </trkpt>
      <trkpt lat="42.63173" lon="1.70597">
        <ele>2138.59</ele>
        <time>2020-09-27T11:42:34Z</time>
      </trkpt>
      <trkpt lat="42.63174" lon="1.70597">
        <ele>2135.71</ele>
        <time>2020-09-27T11:42:37Z</time>
      </trkpt>
      <trkpt lat="42.63174" lon="1.70597">
        <ele>2137.15</ele>
        <time>2020-09-27T11:42:38Z</time>
      </trkpt>
      <trkpt lat="42.63176" lon="1.70595">
        <ele>2133.78</ele>
        <time>2020-09-27T11:42:41Z</time>
      </trkpt>
      <trkpt lat="42.63176" lon="1.70595">
        <ele>2133.78</ele>
        <time>2020-09-27T11:42:42Z</time>
      </trkpt>
      <trkpt lat="42.63176" lon="1.70595">
        <ele>2138.11</ele>
        <time>2020-09-27T11:42:43Z</time>
      </trkpt>
      <trkpt lat="42.63177" lon="1.70595">
        <ele>2138.11</ele>
        <time>2020-09-27T11:42:44Z</time>
      </trkpt>
      <trkpt lat="42.63178" lon="1.70595">
        <ele>2140.51</ele>
        <time>2020-09-27T11:42:46Z</time>
      </trkpt>
      <trkpt lat="42.63182" lon="1.70593">
        <ele>2134.26</ele>
        <time>2020-09-27T11:42:50Z</time>
      </trkpt>
      <trkpt lat="42.63184" lon="1.70591">
        <ele>2133.3</ele>
        <time>2020-09-27T11:42:52Z</time>
      </trkpt>
      <trkpt lat="42.63184" lon="1.7059">
        <ele>2136.19</ele>
        <time>2020-09-27T11:42:54Z</time>
      </trkpt>
      <trkpt lat="42.63185" lon="1.70588">
        <ele>2136.19</ele>
        <time>2020-09-27T11:42:58Z</time>
      </trkpt>
      <trkpt lat="42.63187" lon="1.70584">
        <ele>2133.78</ele>
        <time>2020-09-27T11:43:03Z</time>
      </trkpt>
      <trkpt lat="42.63189" lon="1.70585">
        <ele>2130.42</ele>
        <time>2020-09-27T11:43:07Z</time>
      </trkpt>
      <trkpt lat="42.63189" lon="1.70584">
        <ele>2135.23</ele>
        <time>2020-09-27T11:43:08Z</time>
      </trkpt>
      <trkpt lat="42.6319" lon="1.70584">
        <ele>2135.23</ele>
        <time>2020-09-27T11:43:09Z</time>
      </trkpt>
      <trkpt lat="42.63191" lon="1.70583">
        <ele>2132.82</ele>
        <time>2020-09-27T11:43:12Z</time>
      </trkpt>
      <trkpt lat="42.63195" lon="1.70581">
        <ele>2133.78</ele>
        <time>2020-09-27T11:43:18Z</time>
      </trkpt>
      <trkpt lat="42.63198" lon="1.70579">
        <ele>2132.34</ele>
        <time>2020-09-27T11:43:23Z</time>
      </trkpt>
      <trkpt lat="42.63202" lon="1.7058">
        <ele>2132.34</ele>
        <time>2020-09-27T11:43:31Z</time>
      </trkpt>
      <trkpt lat="42.63206" lon="1.70578">
        <ele>2130.42</ele>
        <time>2020-09-27T11:43:40Z</time>
      </trkpt>
      <trkpt lat="42.63213" lon="1.70581">
        <ele>2129.46</ele>
        <time>2020-09-27T11:43:51Z</time>
      </trkpt>
      <trkpt lat="42.6322" lon="1.70582">
        <ele>2128.5</ele>
        <time>2020-09-27T11:44:02Z</time>
      </trkpt>
      <trkpt lat="42.63224" lon="1.70584">
        <ele>2128.5</ele>
        <time>2020-09-27T11:44:11Z</time>
      </trkpt>
      <trkpt lat="42.63226" lon="1.70586">
        <ele>2128.5</ele>
        <time>2020-09-27T11:44:14Z</time>
      </trkpt>
      <trkpt lat="42.63231" lon="1.70588">
        <ele>2128.02</ele>
        <time>2020-09-27T11:44:22Z</time>
      </trkpt>
      <trkpt lat="42.63237" lon="1.70587">
        <ele>2127.05</ele>
        <time>2020-09-27T11:44:35Z</time>
      </trkpt>
      <trkpt lat="42.63236" lon="1.70585">
        <ele>2126.57</ele>
        <time>2020-09-27T11:44:45Z</time>
      </trkpt>
      <trkpt lat="42.63234" lon="1.70582">
        <ele>2126.57</ele>
        <time>2020-09-27T11:44:56Z</time>
      </trkpt>
      <trkpt lat="42.63237" lon="1.70579">
        <ele>2126.09</ele>
        <time>2020-09-27T11:45:07Z</time>
      </trkpt>
      <trkpt lat="42.63238" lon="1.70579">
        <ele>2124.65</ele>
        <time>2020-09-27T11:45:19Z</time>
      </trkpt>
      <trkpt lat="42.63238" lon="1.70578">
        <ele>2126.09</ele>
        <time>2020-09-27T11:45:31Z</time>
      </trkpt>
      <trkpt lat="42.63242" lon="1.70579">
        <ele>2124.65</ele>
        <time>2020-09-27T11:45:40Z</time>
      </trkpt>
      <trkpt lat="42.63241" lon="1.70577">
        <ele>2124.65</ele>
        <time>2020-09-27T11:45:46Z</time>
      </trkpt>
      <trkpt lat="42.6324" lon="1.70576">
        <ele>2124.17</ele>
        <time>2020-09-27T11:45:55Z</time>
      </trkpt>
      <trkpt lat="42.6324" lon="1.70573">
        <ele>2123.21</ele>
        <time>2020-09-27T11:46:04Z</time>
      </trkpt>
      <trkpt lat="42.6324" lon="1.70573">
        <ele>2123.21</ele>
        <time>2020-09-27T11:46:16Z</time>
      </trkpt>
      <trkpt lat="42.63241" lon="1.7057">
        <ele>2122.25</ele>
        <time>2020-09-27T11:46:23Z</time>
      </trkpt>
      <trkpt lat="42.63241" lon="1.70569">
        <ele>2122.25</ele>
        <time>2020-09-27T11:46:24Z</time>
      </trkpt>
      <trkpt lat="42.63243" lon="1.70568">
        <ele>2121.77</ele>
        <time>2020-09-27T11:46:32Z</time>
      </trkpt>
      <trkpt lat="42.63247" lon="1.70565">
        <ele>2122.73</ele>
        <time>2020-09-27T11:46:41Z</time>
      </trkpt>
      <trkpt lat="42.63247" lon="1.70565">
        <ele>2118.88</ele>
        <time>2020-09-27T11:46:42Z</time>
      </trkpt>
      <trkpt lat="42.63247" lon="1.70565">
        <ele>2118.88</ele>
        <time>2020-09-27T11:46:43Z</time>
      </trkpt>
      <trkpt lat="42.63248" lon="1.70565">
        <ele>2120.81</ele>
        <time>2020-09-27T11:46:45Z</time>
      </trkpt>
      <trkpt lat="42.63248" lon="1.70565">
        <ele>2119.36</ele>
        <time>2020-09-27T11:46:47Z</time>
      </trkpt>
      <trkpt lat="42.63249" lon="1.70566">
        <ele>2120.81</ele>
        <time>2020-09-27T11:46:49Z</time>
      </trkpt>
      <trkpt lat="42.63252" lon="1.70566">
        <ele>2116.48</ele>
        <time>2020-09-27T11:46:56Z</time>
      </trkpt>
      <trkpt lat="42.63252" lon="1.70565">
        <ele>2117.92</ele>
        <time>2020-09-27T11:46:59Z</time>
      </trkpt>
      <trkpt lat="42.63252" lon="1.70564">
        <ele>2116</ele>
        <time>2020-09-27T11:47:02Z</time>
      </trkpt>
      <trkpt lat="42.63253" lon="1.70562">
        <ele>2115.04</ele>
        <time>2020-09-27T11:47:08Z</time>
      </trkpt>
      <trkpt lat="42.63255" lon="1.70562">
        <ele>2113.6</ele>
        <time>2020-09-27T11:47:10Z</time>
      </trkpt>
      <trkpt lat="42.63256" lon="1.70559">
        <ele>2113.6</ele>
        <time>2020-09-27T11:47:19Z</time>
      </trkpt>
      <trkpt lat="42.63257" lon="1.70555">
        <ele>2110.71</ele>
        <time>2020-09-27T11:47:30Z</time>
      </trkpt>
      <trkpt lat="42.63258" lon="1.70555">
        <ele>2113.12</ele>
        <time>2020-09-27T11:47:33Z</time>
      </trkpt>
      <trkpt lat="42.63259" lon="1.70556">
        <ele>2111.67</ele>
        <time>2020-09-27T11:47:37Z</time>
      </trkpt>
      <trkpt lat="42.63261" lon="1.70555">
        <ele>2110.71</ele>
        <time>2020-09-27T11:47:47Z</time>
      </trkpt>
      <trkpt lat="42.6326" lon="1.70555">
        <ele>2110.23</ele>
        <time>2020-09-27T11:47:57Z</time>
      </trkpt>
      <trkpt lat="42.6326" lon="1.70554">
        <ele>2111.67</ele>
        <time>2020-09-27T11:47:59Z</time>
      </trkpt>
      <trkpt lat="42.6326" lon="1.70553">
        <ele>2110.71</ele>
        <time>2020-09-27T11:48:12Z</time>
      </trkpt>
      <trkpt lat="42.63259" lon="1.70552">
        <ele>2109.75</ele>
        <time>2020-09-27T11:48:21Z</time>
      </trkpt>
      <trkpt lat="42.63259" lon="1.70553">
        <ele>2109.75</ele>
        <time>2020-09-27T11:48:30Z</time>
      </trkpt>
      <trkpt lat="42.63261" lon="1.70552">
        <ele>2108.31</ele>
        <time>2020-09-27T11:48:39Z</time>
      </trkpt>
      <trkpt lat="42.63265" lon="1.70551">
        <ele>2106.87</ele>
        <time>2020-09-27T11:48:50Z</time>
      </trkpt>
      <trkpt lat="42.63265" lon="1.7055">
        <ele>2108.31</ele>
        <time>2020-09-27T11:48:53Z</time>
      </trkpt>
      <trkpt lat="42.63264" lon="1.70546">
        <ele>2108.31</ele>
        <time>2020-09-27T11:49:03Z</time>
      </trkpt>
      <trkpt lat="42.63265" lon="1.70544">
        <ele>2107.35</ele>
        <time>2020-09-27T11:49:13Z</time>
      </trkpt>
      <trkpt lat="42.63268" lon="1.70543">
        <ele>2107.35</ele>
        <time>2020-09-27T11:49:21Z</time>
      </trkpt>
      <trkpt lat="42.63268" lon="1.70544">
        <ele>2105.42</ele>
        <time>2020-09-27T11:49:31Z</time>
      </trkpt>
      <trkpt lat="42.63268" lon="1.70543">
        <ele>2105.42</ele>
        <time>2020-09-27T11:49:32Z</time>
      </trkpt>
      <trkpt lat="42.63268" lon="1.70545">
        <ele>2104.94</ele>
        <time>2020-09-27T11:49:46Z</time>
      </trkpt>
      <trkpt lat="42.63268" lon="1.70544">
        <ele>2106.39</ele>
        <time>2020-09-27T11:49:51Z</time>
      </trkpt>
      <trkpt lat="42.63269" lon="1.70542">
        <ele>2106.87</ele>
        <time>2020-09-27T11:50:02Z</time>
      </trkpt>
      <trkpt lat="42.63269" lon="1.7054">
        <ele>2106.87</ele>
        <time>2020-09-27T11:50:12Z</time>
      </trkpt>
      <trkpt lat="42.63271" lon="1.70538">
        <ele>2106.87</ele>
        <time>2020-09-27T11:50:19Z</time>
      </trkpt>
      <trkpt lat="42.63272" lon="1.70536">
        <ele>2105.91</ele>
        <time>2020-09-27T11:50:27Z</time>
      </trkpt>
      <trkpt lat="42.63275" lon="1.70535">
        <ele>2105.91</ele>
        <time>2020-09-27T11:50:39Z</time>
      </trkpt>
      <trkpt lat="42.63276" lon="1.70533">
        <ele>2104.94</ele>
        <time>2020-09-27T11:50:49Z</time>
      </trkpt>
      <trkpt lat="42.63276" lon="1.70532">
        <ele>2104.46</ele>
        <time>2020-09-27T11:50:58Z</time>
      </trkpt>
      <trkpt lat="42.63278" lon="1.70529">
        <ele>2103.98</ele>
        <time>2020-09-27T11:51:07Z</time>
      </trkpt>
      <trkpt lat="42.63282" lon="1.70526">
        <ele>2103.5</ele>
        <time>2020-09-27T11:51:17Z</time>
      </trkpt>
      <trkpt lat="42.63284" lon="1.70524">
        <ele>2103.98</ele>
        <time>2020-09-27T11:51:22Z</time>
      </trkpt>
      <trkpt lat="42.63286" lon="1.70523">
        <ele>2102.54</ele>
        <time>2020-09-27T11:51:28Z</time>
      </trkpt>
      <trkpt lat="42.63288" lon="1.70523">
        <ele>2102.06</ele>
        <time>2020-09-27T11:51:38Z</time>
      </trkpt>
      <trkpt lat="42.63288" lon="1.70523">
        <ele>2103.98</ele>
        <time>2020-09-27T11:51:40Z</time>
      </trkpt>
      <trkpt lat="42.63289" lon="1.70522">
        <ele>2102.06</ele>
        <time>2020-09-27T11:51:43Z</time>
      </trkpt>
      <trkpt lat="42.63292" lon="1.70517">
        <ele>2102.06</ele>
        <time>2020-09-27T11:51:53Z</time>
      </trkpt>
      <trkpt lat="42.63294" lon="1.70516">
        <ele>2101.1</ele>
        <time>2020-09-27T11:52:00Z</time>
      </trkpt>
      <trkpt lat="42.63297" lon="1.70515">
        <ele>2101.1</ele>
        <time>2020-09-27T11:52:08Z</time>
      </trkpt>
      <trkpt lat="42.63298" lon="1.70515">
        <ele>2100.14</ele>
        <time>2020-09-27T11:52:12Z</time>
      </trkpt>
      <trkpt lat="42.63301" lon="1.70517">
        <ele>2099.18</ele>
        <time>2020-09-27T11:52:20Z</time>
      </trkpt>
      <trkpt lat="42.63304" lon="1.70514">
        <ele>2097.73</ele>
        <time>2020-09-27T11:52:29Z</time>
      </trkpt>
      <trkpt lat="42.63309" lon="1.70515">
        <ele>2096.77</ele>
        <time>2020-09-27T11:52:39Z</time>
      </trkpt>
      <trkpt lat="42.63311" lon="1.70517">
        <ele>2095.33</ele>
        <time>2020-09-27T11:52:47Z</time>
      </trkpt>
      <trkpt lat="42.63312" lon="1.70519">
        <ele>2094.85</ele>
        <time>2020-09-27T11:52:57Z</time>
      </trkpt>
      <trkpt lat="42.63312" lon="1.70519">
        <ele>2094.85</ele>
        <time>2020-09-27T11:53:08Z</time>
      </trkpt>
      <trkpt lat="42.63313" lon="1.70521">
        <ele>2094.37</ele>
        <time>2020-09-27T11:53:18Z</time>
      </trkpt>
      <trkpt lat="42.63311" lon="1.70524">
        <ele>2092.45</ele>
        <time>2020-09-27T11:53:28Z</time>
      </trkpt>
      <trkpt lat="42.6331" lon="1.70525">
        <ele>2092.45</ele>
        <time>2020-09-27T11:53:36Z</time>
      </trkpt>
      <trkpt lat="42.6331" lon="1.70527">
        <ele>2092.45</ele>
        <time>2020-09-27T11:53:38Z</time>
      </trkpt>
      <trkpt lat="42.63306" lon="1.7053">
        <ele>2091.97</ele>
        <time>2020-09-27T11:53:48Z</time>
      </trkpt>
      <trkpt lat="42.63302" lon="1.7053">
        <ele>2091.49</ele>
        <time>2020-09-27T11:53:57Z</time>
      </trkpt>
      <trkpt lat="42.63299" lon="1.70532">
        <ele>2091.49</ele>
        <time>2020-09-27T11:54:07Z</time>
      </trkpt>
      <trkpt lat="42.63296" lon="1.70534">
        <ele>2091.49</ele>
        <time>2020-09-27T11:54:18Z</time>
      </trkpt>
      <trkpt lat="42.63296" lon="1.70536">
        <ele>2090.04</ele>
        <time>2020-09-27T11:54:26Z</time>
      </trkpt>
      <trkpt lat="42.63295" lon="1.70539">
        <ele>2090.04</ele>
        <time>2020-09-27T11:54:33Z</time>
      </trkpt>
      <trkpt lat="42.63293" lon="1.70541">
        <ele>2090.04</ele>
        <time>2020-09-27T11:54:41Z</time>
      </trkpt>
      <trkpt lat="42.63293" lon="1.70545">
        <ele>2089.08</ele>
        <time>2020-09-27T11:54:50Z</time>
      </trkpt>
      <trkpt lat="42.63292" lon="1.70547">
        <ele>2088.6</ele>
        <time>2020-09-27T11:55:00Z</time>
      </trkpt>
      <trkpt lat="42.63291" lon="1.70549">
        <ele>2088.6</ele>
        <time>2020-09-27T11:55:08Z</time>
      </trkpt>
      <trkpt lat="42.6329" lon="1.70551">
        <ele>2088.12</ele>
        <time>2020-09-27T11:55:17Z</time>
      </trkpt>
      <trkpt lat="42.63289" lon="1.70553">
        <ele>2088.12</ele>
        <time>2020-09-27T11:55:27Z</time>
      </trkpt>
      <trkpt lat="42.6329" lon="1.70557">
        <ele>2088.12</ele>
        <time>2020-09-27T11:55:36Z</time>
      </trkpt>
      <trkpt lat="42.6329" lon="1.70558">
        <ele>2088.12</ele>
        <time>2020-09-27T11:55:44Z</time>
      </trkpt>
      <trkpt lat="42.63289" lon="1.70561">
        <ele>2087.64</ele>
        <time>2020-09-27T11:55:53Z</time>
      </trkpt>
      <trkpt lat="42.63287" lon="1.70563">
        <ele>2087.16</ele>
        <time>2020-09-27T11:56:03Z</time>
      </trkpt>
      <trkpt lat="42.63285" lon="1.70569">
        <ele>2086.68</ele>
        <time>2020-09-27T11:56:12Z</time>
      </trkpt>
      <trkpt lat="42.63285" lon="1.7058">
        <ele>2085.24</ele>
        <time>2020-09-27T11:56:25Z</time>
      </trkpt>
      <trkpt lat="42.63286" lon="1.70581">
        <ele>2081.39</ele>
        <time>2020-09-27T11:56:30Z</time>
      </trkpt>
      <trkpt lat="42.63286" lon="1.70581">
        <ele>2081.39</ele>
        <time>2020-09-27T11:56:31Z</time>
      </trkpt>
      <trkpt lat="42.6329" lon="1.70581">
        <ele>2081.39</ele>
        <time>2020-09-27T11:56:41Z</time>
      </trkpt>
      <trkpt lat="42.63294" lon="1.70578">
        <ele>2079.95</ele>
        <time>2020-09-27T11:56:50Z</time>
      </trkpt>
      <trkpt lat="42.63297" lon="1.70576">
        <ele>2078.99</ele>
        <time>2020-09-27T11:56:58Z</time>
      </trkpt>
      <trkpt lat="42.63299" lon="1.70574">
        <ele>2079.47</ele>
        <time>2020-09-27T11:57:07Z</time>
      </trkpt>
      <trkpt lat="42.63299" lon="1.70574">
        <ele>2078.51</ele>
        <time>2020-09-27T11:57:16Z</time>
      </trkpt>
      <trkpt lat="42.63302" lon="1.70574">
        <ele>2077.07</ele>
        <time>2020-09-27T11:57:28Z</time>
      </trkpt>
      <trkpt lat="42.63302" lon="1.70574">
        <ele>2077.07</ele>
        <time>2020-09-27T11:57:29Z</time>
      </trkpt>
      <trkpt lat="42.63304" lon="1.70575">
        <ele>2076.59</ele>
        <time>2020-09-27T11:57:35Z</time>
      </trkpt>
      <trkpt lat="42.63308" lon="1.70572">
        <ele>2075.14</ele>
        <time>2020-09-27T11:57:45Z</time>
      </trkpt>
      <trkpt lat="42.63308" lon="1.70571">
        <ele>2076.59</ele>
        <time>2020-09-27T11:57:47Z</time>
      </trkpt>
      <trkpt lat="42.63308" lon="1.70567">
        <ele>2077.07</ele>
        <time>2020-09-27T11:57:56Z</time>
      </trkpt>
      <trkpt lat="42.6331" lon="1.70568">
        <ele>2077.07</ele>
        <time>2020-09-27T11:58:05Z</time>
      </trkpt>
      <trkpt lat="42.63312" lon="1.70568">
        <ele>2075.14</ele>
        <time>2020-09-27T11:58:15Z</time>
      </trkpt>
      <trkpt lat="42.63316" lon="1.70569">
        <ele>2074.66</ele>
        <time>2020-09-27T11:58:24Z</time>
      </trkpt>
      <trkpt lat="42.6332" lon="1.70568">
        <ele>2073.7</ele>
        <time>2020-09-27T11:58:33Z</time>
      </trkpt>
      <trkpt lat="42.63321" lon="1.70569">
        <ele>2072.74</ele>
        <time>2020-09-27T11:58:39Z</time>
      </trkpt>
      <trkpt lat="42.63325" lon="1.70571">
        <ele>2072.26</ele>
        <time>2020-09-27T11:58:48Z</time>
      </trkpt>
      <trkpt lat="42.63327" lon="1.70572">
        <ele>2071.78</ele>
        <time>2020-09-27T11:58:56Z</time>
      </trkpt>
      <trkpt lat="42.63324" lon="1.70573">
        <ele>2072.74</ele>
        <time>2020-09-27T11:59:05Z</time>
      </trkpt>
      <trkpt lat="42.63318" lon="1.70574">
        <ele>2072.74</ele>
        <time>2020-09-27T11:59:14Z</time>
      </trkpt>
      <trkpt lat="42.63316" lon="1.70577">
        <ele>2070.82</ele>
        <time>2020-09-27T11:59:18Z</time>
      </trkpt>
      <trkpt lat="42.63316" lon="1.70578">
        <ele>2070.82</ele>
        <time>2020-09-27T11:59:19Z</time>
      </trkpt>
      <trkpt lat="42.63314" lon="1.70581">
        <ele>2069.38</ele>
        <time>2020-09-27T11:59:27Z</time>
      </trkpt>
      <trkpt lat="42.63312" lon="1.70585">
        <ele>2068.41</ele>
        <time>2020-09-27T11:59:35Z</time>
      </trkpt>
      <trkpt lat="42.63312" lon="1.7059">
        <ele>2068.41</ele>
        <time>2020-09-27T11:59:46Z</time>
      </trkpt>
      <trkpt lat="42.63312" lon="1.70594">
        <ele>2070.82</ele>
        <time>2020-09-27T11:59:58Z</time>
      </trkpt>
      <trkpt lat="42.63312" lon="1.70595">
        <ele>2067.93</ele>
        <time>2020-09-27T12:00:13Z</time>
      </trkpt>
      <trkpt lat="42.63312" lon="1.70597">
        <ele>2067.93</ele>
        <time>2020-09-27T12:00:20Z</time>
      </trkpt>
      <trkpt lat="42.6331" lon="1.70602">
        <ele>2066.49</ele>
        <time>2020-09-27T12:00:29Z</time>
      </trkpt>
      <trkpt lat="42.63308" lon="1.70606">
        <ele>2065.05</ele>
        <time>2020-09-27T12:00:38Z</time>
      </trkpt>
      <trkpt lat="42.63308" lon="1.7061">
        <ele>2064.09</ele>
        <time>2020-09-27T12:00:47Z</time>
      </trkpt>
      <trkpt lat="42.63307" lon="1.70608">
        <ele>2064.09</ele>
        <time>2020-09-27T12:01:04Z</time>
      </trkpt>
      <trkpt lat="42.6331" lon="1.70612">
        <ele>2062.65</ele>
        <time>2020-09-27T12:01:24Z</time>
      </trkpt>
      <trkpt lat="42.63314" lon="1.70618">
        <ele>2060.72</ele>
        <time>2020-09-27T12:01:36Z</time>
      </trkpt>
      <trkpt lat="42.63316" lon="1.70624">
        <ele>2059.76</ele>
        <time>2020-09-27T12:01:47Z</time>
      </trkpt>
      <trkpt lat="42.63321" lon="1.70625">
        <ele>2058.8</ele>
        <time>2020-09-27T12:01:55Z</time>
      </trkpt>
      <trkpt lat="42.63322" lon="1.70624">
        <ele>2057.84</ele>
        <time>2020-09-27T12:02:05Z</time>
      </trkpt>
      <trkpt lat="42.63323" lon="1.7062">
        <ele>2057.84</ele>
        <time>2020-09-27T12:02:13Z</time>
      </trkpt>
      <trkpt lat="42.63324" lon="1.70619">
        <ele>2057.84</ele>
        <time>2020-09-27T12:02:19Z</time>
      </trkpt>
      <trkpt lat="42.63329" lon="1.70618">
        <ele>2057.84</ele>
        <time>2020-09-27T12:02:28Z</time>
      </trkpt>
      <trkpt lat="42.63332" lon="1.70624">
        <ele>2057.36</ele>
        <time>2020-09-27T12:02:38Z</time>
      </trkpt>
      <trkpt lat="42.63337" lon="1.70627">
        <ele>2055.92</ele>
        <time>2020-09-27T12:02:50Z</time>
      </trkpt>
      <trkpt lat="42.63339" lon="1.70628">
        <ele>2055.44</ele>
        <time>2020-09-27T12:02:59Z</time>
      </trkpt>
      <trkpt lat="42.63343" lon="1.70629">
        <ele>2053.51</ele>
        <time>2020-09-27T12:03:09Z</time>
      </trkpt>
      <trkpt lat="42.63345" lon="1.70625">
        <ele>2051.59</ele>
        <time>2020-09-27T12:03:17Z</time>
      </trkpt>
      <trkpt lat="42.63346" lon="1.70626">
        <ele>2049.67</ele>
        <time>2020-09-27T12:03:30Z</time>
      </trkpt>
      <trkpt lat="42.6335" lon="1.70627">
        <ele>2049.19</ele>
        <time>2020-09-27T12:03:41Z</time>
      </trkpt>
      <trkpt lat="42.63354" lon="1.70629">
        <ele>2048.23</ele>
        <time>2020-09-27T12:03:48Z</time>
      </trkpt>
      <trkpt lat="42.63355" lon="1.70632">
        <ele>2047.26</ele>
        <time>2020-09-27T12:03:58Z</time>
      </trkpt>
      <trkpt lat="42.63356" lon="1.70632">
        <ele>2048.71</ele>
        <time>2020-09-27T12:04:01Z</time>
      </trkpt>
      <trkpt lat="42.63356" lon="1.70632">
        <ele>2047.26</ele>
        <time>2020-09-27T12:04:03Z</time>
      </trkpt>
      <trkpt lat="42.63354" lon="1.70632">
        <ele>2047.26</ele>
        <time>2020-09-27T12:04:16Z</time>
      </trkpt>
      <trkpt lat="42.63353" lon="1.70637">
        <ele>2047.26</ele>
        <time>2020-09-27T12:04:26Z</time>
      </trkpt>
      <trkpt lat="42.63353" lon="1.70641">
        <ele>2047.26</ele>
        <time>2020-09-27T12:04:33Z</time>
      </trkpt>
      <trkpt lat="42.63356" lon="1.70643">
        <ele>2047.26</ele>
        <time>2020-09-27T12:04:42Z</time>
      </trkpt>
      <trkpt lat="42.63356" lon="1.70644">
        <ele>2047.26</ele>
        <time>2020-09-27T12:04:50Z</time>
      </trkpt>
      <trkpt lat="42.63358" lon="1.70643">
        <ele>2047.26</ele>
        <time>2020-09-27T12:05:03Z</time>
      </trkpt>
      <trkpt lat="42.63359" lon="1.70646">
        <ele>2046.3</ele>
        <time>2020-09-27T12:05:13Z</time>
      </trkpt>
      <trkpt lat="42.63361" lon="1.70647">
        <ele>2045.82</ele>
        <time>2020-09-27T12:05:22Z</time>
      </trkpt>
      <trkpt lat="42.63363" lon="1.70651">
        <ele>2043.9</ele>
        <time>2020-09-27T12:05:32Z</time>
      </trkpt>
      <trkpt lat="42.63366" lon="1.70654">
        <ele>2043.9</ele>
        <time>2020-09-27T12:05:39Z</time>
      </trkpt>
      <trkpt lat="42.63366" lon="1.70657">
        <ele>2040.05</ele>
        <time>2020-09-27T12:05:48Z</time>
      </trkpt>
      <trkpt lat="42.63365" lon="1.70661">
        <ele>2038.13</ele>
        <time>2020-09-27T12:06:00Z</time>
      </trkpt>
      <trkpt lat="42.63368" lon="1.70664">
        <ele>2037.65</ele>
        <time>2020-09-27T12:06:10Z</time>
      </trkpt>
      <trkpt lat="42.63367" lon="1.70662">
        <ele>2036.69</ele>
        <time>2020-09-27T12:06:20Z</time>
      </trkpt>
      <trkpt lat="42.6337" lon="1.70662">
        <ele>2035.25</ele>
        <time>2020-09-27T12:06:29Z</time>
      </trkpt>
      <trkpt lat="42.63371" lon="1.70659">
        <ele>2034.29</ele>
        <time>2020-09-27T12:06:37Z</time>
      </trkpt>
      <trkpt lat="42.63374" lon="1.70657">
        <ele>2033.33</ele>
        <time>2020-09-27T12:06:47Z</time>
      </trkpt>
      <trkpt lat="42.63376" lon="1.70655">
        <ele>2033.33</ele>
        <time>2020-09-27T12:06:56Z</time>
      </trkpt>
      <trkpt lat="42.63375" lon="1.70651">
        <ele>2032.36</ele>
        <time>2020-09-27T12:07:05Z</time>
      </trkpt>
      <trkpt lat="42.63376" lon="1.70649">
        <ele>2030.44</ele>
        <time>2020-09-27T12:07:15Z</time>
      </trkpt>
      <trkpt lat="42.63378" lon="1.70647">
        <ele>2029.48</ele>
        <time>2020-09-27T12:07:24Z</time>
      </trkpt>
      <trkpt lat="42.63381" lon="1.7065">
        <ele>2029</ele>
        <time>2020-09-27T12:07:36Z</time>
      </trkpt>
      <trkpt lat="42.63384" lon="1.70654">
        <ele>2027.56</ele>
        <time>2020-09-27T12:07:48Z</time>
      </trkpt>
      <trkpt lat="42.63384" lon="1.70658">
        <ele>2027.08</ele>
        <time>2020-09-27T12:07:57Z</time>
      </trkpt>
      <trkpt lat="42.63384" lon="1.70663">
        <ele>2025.64</ele>
        <time>2020-09-27T12:08:07Z</time>
      </trkpt>
      <trkpt lat="42.63385" lon="1.70668">
        <ele>2024.67</ele>
        <time>2020-09-27T12:08:16Z</time>
      </trkpt>
      <trkpt lat="42.63384" lon="1.70674">
        <ele>2024.19</ele>
        <time>2020-09-27T12:08:27Z</time>
      </trkpt>
      <trkpt lat="42.63385" lon="1.70676">
        <ele>2023.23</ele>
        <time>2020-09-27T12:08:37Z</time>
      </trkpt>
      <trkpt lat="42.63384" lon="1.70676">
        <ele>2022.75</ele>
        <time>2020-09-27T12:08:50Z</time>
      </trkpt>
      <trkpt lat="42.63384" lon="1.70677">
        <ele>2023.23</ele>
        <time>2020-09-27T12:09:01Z</time>
      </trkpt>
      <trkpt lat="42.63384" lon="1.70678">
        <ele>2023.23</ele>
        <time>2020-09-27T12:09:14Z</time>
      </trkpt>
      <trkpt lat="42.63388" lon="1.70676">
        <ele>2021.79</ele>
        <time>2020-09-27T12:09:21Z</time>
      </trkpt>
      <trkpt lat="42.63392" lon="1.70678">
        <ele>2018.91</ele>
        <time>2020-09-27T12:09:32Z</time>
      </trkpt>
      <trkpt lat="42.63395" lon="1.7068">
        <ele>2016.5</ele>
        <time>2020-09-27T12:09:40Z</time>
      </trkpt>
      <trkpt lat="42.63399" lon="1.7068">
        <ele>2015.06</ele>
        <time>2020-09-27T12:09:50Z</time>
      </trkpt>
      <trkpt lat="42.63402" lon="1.70678">
        <ele>2013.14</ele>
        <time>2020-09-27T12:09:59Z</time>
      </trkpt>
      <trkpt lat="42.63402" lon="1.70677">
        <ele>2013.14</ele>
        <time>2020-09-27T12:10:09Z</time>
      </trkpt>
      <trkpt lat="42.63403" lon="1.70676">
        <ele>2012.66</ele>
        <time>2020-09-27T12:10:18Z</time>
      </trkpt>
      <trkpt lat="42.63403" lon="1.70675">
        <ele>2012.66</ele>
        <time>2020-09-27T12:10:27Z</time>
      </trkpt>
      <trkpt lat="42.63405" lon="1.70672">
        <ele>2012.66</ele>
        <time>2020-09-27T12:10:35Z</time>
      </trkpt>
      <trkpt lat="42.63407" lon="1.70669">
        <ele>2011.7</ele>
        <time>2020-09-27T12:10:46Z</time>
      </trkpt>
      <trkpt lat="42.63411" lon="1.70663">
        <ele>2010.25</ele>
        <time>2020-09-27T12:10:56Z</time>
      </trkpt>
      <trkpt lat="42.63415" lon="1.7066">
        <ele>2009.77</ele>
        <time>2020-09-27T12:11:04Z</time>
      </trkpt>
      <trkpt lat="42.63417" lon="1.7066">
        <ele>2010.73</ele>
        <time>2020-09-27T12:11:18Z</time>
      </trkpt>
      <trkpt lat="42.63421" lon="1.70662">
        <ele>2009.29</ele>
        <time>2020-09-27T12:11:23Z</time>
      </trkpt>
      <trkpt lat="42.63422" lon="1.70662">
        <ele>2009.29</ele>
        <time>2020-09-27T12:11:24Z</time>
      </trkpt>
      <trkpt lat="42.63427" lon="1.70665">
        <ele>2007.37</ele>
        <time>2020-09-27T12:11:33Z</time>
      </trkpt>
      <trkpt lat="42.63433" lon="1.70668">
        <ele>2005.45</ele>
        <time>2020-09-27T12:11:42Z</time>
      </trkpt>
      <trkpt lat="42.63441" lon="1.70671">
        <ele>2003.52</ele>
        <time>2020-09-27T12:11:54Z</time>
      </trkpt>
      <trkpt lat="42.63446" lon="1.70673">
        <ele>2001.6</ele>
        <time>2020-09-27T12:12:04Z</time>
      </trkpt>
      <trkpt lat="42.63445" lon="1.70672">
        <ele>2000.64</ele>
        <time>2020-09-27T12:12:06Z</time>
      </trkpt>
      <trkpt lat="42.63446" lon="1.70675">
        <ele>2000.64</ele>
        <time>2020-09-27T12:12:16Z</time>
      </trkpt>
      <trkpt lat="42.63452" lon="1.70681">
        <ele>2000.16</ele>
        <time>2020-09-27T12:12:26Z</time>
      </trkpt>
      <trkpt lat="42.63456" lon="1.70686">
        <ele>1999.68</ele>
        <time>2020-09-27T12:12:32Z</time>
      </trkpt>
      <trkpt lat="42.6346" lon="1.70687">
        <ele>2000.16</ele>
        <time>2020-09-27T12:12:37Z</time>
      </trkpt>
      <trkpt lat="42.63463" lon="1.70687">
        <ele>1998.72</ele>
        <time>2020-09-27T12:12:41Z</time>
      </trkpt>
      <trkpt lat="42.63464" lon="1.70686">
        <ele>1996.32</ele>
        <time>2020-09-27T12:12:44Z</time>
      </trkpt>
      <trkpt lat="42.63464" lon="1.70686">
        <ele>1996.32</ele>
        <time>2020-09-27T12:12:52Z</time>
      </trkpt>
      <trkpt lat="42.63466" lon="1.7068">
        <ele>1996.32</ele>
        <time>2020-09-27T12:13:03Z</time>
      </trkpt>
      <trkpt lat="42.63469" lon="1.70676">
        <ele>1996.8</ele>
        <time>2020-09-27T12:13:08Z</time>
      </trkpt>
      <trkpt lat="42.63475" lon="1.70669">
        <ele>1994.87</ele>
        <time>2020-09-27T12:13:18Z</time>
      </trkpt>
      <trkpt lat="42.63479" lon="1.70666">
        <ele>1994.87</ele>
        <time>2020-09-27T12:13:25Z</time>
      </trkpt>
      <trkpt lat="42.63484" lon="1.70663">
        <ele>1993.91</ele>
        <time>2020-09-27T12:13:34Z</time>
      </trkpt>
      <trkpt lat="42.63484" lon="1.70663">
        <ele>1993.91</ele>
        <time>2020-09-27T12:13:39Z</time>
      </trkpt>
      <trkpt lat="42.63486" lon="1.70658">
        <ele>1993.43</ele>
        <time>2020-09-27T12:13:46Z</time>
      </trkpt>
      <trkpt lat="42.63489" lon="1.70653">
        <ele>1993.43</ele>
        <time>2020-09-27T12:13:54Z</time>
      </trkpt>
      <trkpt lat="42.63491" lon="1.70652">
        <ele>1993.43</ele>
        <time>2020-09-27T12:13:57Z</time>
      </trkpt>
      <trkpt lat="42.63495" lon="1.70648">
        <ele>1993.43</ele>
        <time>2020-09-27T12:14:06Z</time>
      </trkpt>
      <trkpt lat="42.63497" lon="1.70647">
        <ele>1993.43</ele>
        <time>2020-09-27T12:14:16Z</time>
      </trkpt>
      <trkpt lat="42.63497" lon="1.70644">
        <ele>1993.43</ele>
        <time>2020-09-27T12:14:22Z</time>
      </trkpt>
      <trkpt lat="42.63497" lon="1.70642">
        <ele>1993.43</ele>
        <time>2020-09-27T12:14:24Z</time>
      </trkpt>
      <trkpt lat="42.63498" lon="1.7064">
        <ele>1995.83</ele>
        <time>2020-09-27T12:14:26Z</time>
      </trkpt>
      <trkpt lat="42.63499" lon="1.70637">
        <ele>1993.91</ele>
        <time>2020-09-27T12:14:29Z</time>
      </trkpt>
      <trkpt lat="42.63498" lon="1.70634">
        <ele>1995.83</ele>
        <time>2020-09-27T12:14:34Z</time>
      </trkpt>
      <trkpt lat="42.63498" lon="1.70633">
        <ele>1994.39</ele>
        <time>2020-09-27T12:14:35Z</time>
      </trkpt>
      <trkpt lat="42.63498" lon="1.70627">
        <ele>1994.39</ele>
        <time>2020-09-27T12:14:44Z</time>
      </trkpt>
      <trkpt lat="42.63499" lon="1.70624">
        <ele>1994.87</ele>
        <time>2020-09-27T12:14:51Z</time>
      </trkpt>
      <trkpt lat="42.635" lon="1.70624">
        <ele>1994.87</ele>
        <time>2020-09-27T12:15:00Z</time>
      </trkpt>
      <trkpt lat="42.63499" lon="1.70616">
        <ele>1993.91</ele>
        <time>2020-09-27T12:15:09Z</time>
      </trkpt>
      <trkpt lat="42.63497" lon="1.70612">
        <ele>1995.35</ele>
        <time>2020-09-27T12:15:16Z</time>
      </trkpt>
      <trkpt lat="42.63498" lon="1.70608">
        <ele>1994.39</ele>
        <time>2020-09-27T12:15:22Z</time>
      </trkpt>
      <trkpt lat="42.63499" lon="1.70603">
        <ele>1993.91</ele>
        <time>2020-09-27T12:15:30Z</time>
      </trkpt>
      <trkpt lat="42.635" lon="1.70603">
        <ele>1995.35</ele>
        <time>2020-09-27T12:15:32Z</time>
      </trkpt>
      <trkpt lat="42.63501" lon="1.70601">
        <ele>1995.83</ele>
        <time>2020-09-27T12:15:37Z</time>
      </trkpt>
      <trkpt lat="42.63503" lon="1.70596">
        <ele>1998.72</ele>
        <time>2020-09-27T12:15:43Z</time>
      </trkpt>
      <trkpt lat="42.63503" lon="1.70596">
        <ele>1995.83</ele>
        <time>2020-09-27T12:15:46Z</time>
      </trkpt>
      <trkpt lat="42.63502" lon="1.70597">
        <ele>1997.76</ele>
        <time>2020-09-27T12:15:49Z</time>
      </trkpt>
      <trkpt lat="42.63503" lon="1.70597">
        <ele>1995.83</ele>
        <time>2020-09-27T12:15:51Z</time>
      </trkpt>
      <trkpt lat="42.63506" lon="1.7059">
        <ele>1998.24</ele>
        <time>2020-09-27T12:16:01Z</time>
      </trkpt>
      <trkpt lat="42.63507" lon="1.7059">
        <ele>1998.24</ele>
        <time>2020-09-27T12:16:02Z</time>
      </trkpt>
      <trkpt lat="42.63507" lon="1.70588">
        <ele>1995.35</ele>
        <time>2020-09-27T12:16:04Z</time>
      </trkpt>
      <trkpt lat="42.63508" lon="1.70586">
        <ele>1994.87</ele>
        <time>2020-09-27T12:16:06Z</time>
      </trkpt>
      <trkpt lat="42.63507" lon="1.70583">
        <ele>1993.91</ele>
        <time>2020-09-27T12:16:08Z</time>
      </trkpt>
      <trkpt lat="42.63507" lon="1.70581">
        <ele>1994.87</ele>
        <time>2020-09-27T12:16:13Z</time>
      </trkpt>
      <trkpt lat="42.63508" lon="1.7058">
        <ele>1996.32</ele>
        <time>2020-09-27T12:16:16Z</time>
      </trkpt>
      <trkpt lat="42.63511" lon="1.70577">
        <ele>1996.8</ele>
        <time>2020-09-27T12:16:22Z</time>
      </trkpt>
      <trkpt lat="42.63515" lon="1.70575">
        <ele>1996.32</ele>
        <time>2020-09-27T12:16:27Z</time>
      </trkpt>
      <trkpt lat="42.63517" lon="1.70575">
        <ele>1993.91</ele>
        <time>2020-09-27T12:16:30Z</time>
      </trkpt>
      <trkpt lat="42.63523" lon="1.70577">
        <ele>1991.99</ele>
        <time>2020-09-27T12:16:41Z</time>
      </trkpt>
      <trkpt lat="42.63525" lon="1.70576">
        <ele>1991.03</ele>
        <time>2020-09-27T12:16:50Z</time>
      </trkpt>
      <trkpt lat="42.63528" lon="1.70575">
        <ele>1991.03</ele>
        <time>2020-09-27T12:16:59Z</time>
      </trkpt>
      <trkpt lat="42.6353" lon="1.70575">
        <ele>1989.59</ele>
        <time>2020-09-27T12:17:01Z</time>
      </trkpt>
      <trkpt lat="42.63531" lon="1.70574">
        <ele>1988.62</ele>
        <time>2020-09-27T12:17:03Z</time>
      </trkpt>
      <trkpt lat="42.63538" lon="1.7057">
        <ele>1987.18</ele>
        <time>2020-09-27T12:17:12Z</time>
      </trkpt>
      <trkpt lat="42.63539" lon="1.70568">
        <ele>1986.7</ele>
        <time>2020-09-27T12:17:15Z</time>
      </trkpt>
      <trkpt lat="42.63544" lon="1.70564">
        <ele>1984.78</ele>
        <time>2020-09-27T12:17:22Z</time>
      </trkpt>
      <trkpt lat="42.63551" lon="1.70561">
        <ele>1983.82</ele>
        <time>2020-09-27T12:17:32Z</time>
      </trkpt>
      <trkpt lat="42.63557" lon="1.70561">
        <ele>1982.86</ele>
        <time>2020-09-27T12:17:42Z</time>
      </trkpt>
      <trkpt lat="42.63563" lon="1.70563">
        <ele>1981.41</ele>
        <time>2020-09-27T12:17:53Z</time>
      </trkpt>
      <trkpt lat="42.63571" lon="1.70569">
        <ele>1979.49</ele>
        <time>2020-09-27T12:18:06Z</time>
      </trkpt>
      <trkpt lat="42.63581" lon="1.7057">
        <ele>1979.01</ele>
        <time>2020-09-27T12:18:19Z</time>
      </trkpt>
      <trkpt lat="42.63589" lon="1.7057">
        <ele>1978.53</ele>
        <time>2020-09-27T12:18:31Z</time>
      </trkpt>
      <trkpt lat="42.63597" lon="1.70575">
        <ele>1978.53</ele>
        <time>2020-09-27T12:18:43Z</time>
      </trkpt>
      <trkpt lat="42.63601" lon="1.70577">
        <ele>1978.53</ele>
        <time>2020-09-27T12:18:53Z</time>
      </trkpt>
      <trkpt lat="42.63604" lon="1.70579">
        <ele>1980.93</ele>
        <time>2020-09-27T12:18:58Z</time>
      </trkpt>
      <trkpt lat="42.63606" lon="1.7058">
        <ele>1981.9</ele>
        <time>2020-09-27T12:19:01Z</time>
      </trkpt>
      <trkpt lat="42.6361" lon="1.70579">
        <ele>1976.61</ele>
        <time>2020-09-27T12:19:06Z</time>
      </trkpt>
      <trkpt lat="42.63611" lon="1.70577">
        <ele>1975.17</ele>
        <time>2020-09-27T12:19:08Z</time>
      </trkpt>
      <trkpt lat="42.63611" lon="1.70577">
        <ele>1978.05</ele>
        <time>2020-09-27T12:19:09Z</time>
      </trkpt>
      <trkpt lat="42.63612" lon="1.70576">
        <ele>1978.05</ele>
        <time>2020-09-27T12:19:10Z</time>
      </trkpt>
      <trkpt lat="42.63613" lon="1.70574">
        <ele>1976.13</ele>
        <time>2020-09-27T12:19:12Z</time>
      </trkpt>
      <trkpt lat="42.63614" lon="1.70572">
        <ele>1977.09</ele>
        <time>2020-09-27T12:19:16Z</time>
      </trkpt>
      <trkpt lat="42.63614" lon="1.70571">
        <ele>1975.17</ele>
        <time>2020-09-27T12:19:18Z</time>
      </trkpt>
      <trkpt lat="42.63614" lon="1.70568">
        <ele>1976.61</ele>
        <time>2020-09-27T12:19:21Z</time>
      </trkpt>
      <trkpt lat="42.63615" lon="1.70557">
        <ele>1979.01</ele>
        <time>2020-09-27T12:19:33Z</time>
      </trkpt>
      <trkpt lat="42.63614" lon="1.70552">
        <ele>1978.53</ele>
        <time>2020-09-27T12:19:39Z</time>
      </trkpt>
      <trkpt lat="42.63612" lon="1.70547">
        <ele>1978.53</ele>
        <time>2020-09-27T12:19:49Z</time>
      </trkpt>
      <trkpt lat="42.63608" lon="1.70543">
        <ele>1978.05</ele>
        <time>2020-09-27T12:19:57Z</time>
      </trkpt>
      <trkpt lat="42.6361" lon="1.70538">
        <ele>1976.13</ele>
        <time>2020-09-27T12:20:07Z</time>
      </trkpt>
      <trkpt lat="42.63611" lon="1.70533">
        <ele>1975.17</ele>
        <time>2020-09-27T12:20:15Z</time>
      </trkpt>
      <trkpt lat="42.63615" lon="1.70526">
        <ele>1974.2</ele>
        <time>2020-09-27T12:20:26Z</time>
      </trkpt>
      <trkpt lat="42.63621" lon="1.70523">
        <ele>1972.76</ele>
        <time>2020-09-27T12:20:35Z</time>
      </trkpt>
      <trkpt lat="42.63625" lon="1.70522">
        <ele>1972.28</ele>
        <time>2020-09-27T12:20:44Z</time>
      </trkpt>
      <trkpt lat="42.63626" lon="1.70521">
        <ele>1970.84</ele>
        <time>2020-09-27T12:20:46Z</time>
      </trkpt>
      <trkpt lat="42.63629" lon="1.70518">
        <ele>1965.07</ele>
        <time>2020-09-27T12:20:53Z</time>
      </trkpt>
      <trkpt lat="42.63629" lon="1.70516">
        <ele>1969.4</ele>
        <time>2020-09-27T12:20:58Z</time>
      </trkpt>
      <trkpt lat="42.63629" lon="1.70516">
        <ele>1969.4</ele>
        <time>2020-09-27T12:20:59Z</time>
      </trkpt>
      <trkpt lat="42.63629" lon="1.70515">
        <ele>1967.96</ele>
        <time>2020-09-27T12:21:02Z</time>
      </trkpt>
      <trkpt lat="42.63627" lon="1.7051">
        <ele>1966.03</ele>
        <time>2020-09-27T12:21:13Z</time>
      </trkpt>
      <trkpt lat="42.63627" lon="1.70509">
        <ele>1966.03</ele>
        <time>2020-09-27T12:21:19Z</time>
      </trkpt>
      <trkpt lat="42.63627" lon="1.70505">
        <ele>1965.07</ele>
        <time>2020-09-27T12:21:26Z</time>
      </trkpt>
      <trkpt lat="42.63628" lon="1.70504">
        <ele>1966.51</ele>
        <time>2020-09-27T12:21:29Z</time>
      </trkpt>
      <trkpt lat="42.63627" lon="1.70502">
        <ele>1966.51</ele>
        <time>2020-09-27T12:21:35Z</time>
      </trkpt>
      <trkpt lat="42.63628" lon="1.70499">
        <ele>1968.44</ele>
        <time>2020-09-27T12:21:43Z</time>
      </trkpt>
      <trkpt lat="42.63627" lon="1.70498">
        <ele>1968.44</ele>
        <time>2020-09-27T12:21:57Z</time>
      </trkpt>
      <trkpt lat="42.63627" lon="1.70499">
        <ele>1968.44</ele>
        <time>2020-09-27T12:22:11Z</time>
      </trkpt>
      <trkpt lat="42.63627" lon="1.70498">
        <ele>1968.92</ele>
        <time>2020-09-27T12:22:26Z</time>
      </trkpt>
      <trkpt lat="42.63627" lon="1.70499">
        <ele>1967.96</ele>
        <time>2020-09-27T12:22:36Z</time>
      </trkpt>
      <trkpt lat="42.63628" lon="1.70499">
        <ele>1967.96</ele>
        <time>2020-09-27T12:22:37Z</time>
      </trkpt>
      <trkpt lat="42.63631" lon="1.70491">
        <ele>1967.48</ele>
        <time>2020-09-27T12:22:47Z</time>
      </trkpt>
      <trkpt lat="42.63633" lon="1.70486">
        <ele>1966.99</ele>
        <time>2020-09-27T12:22:56Z</time>
      </trkpt>
      <trkpt lat="42.63635" lon="1.70484">
        <ele>1966.99</ele>
        <time>2020-09-27T12:23:03Z</time>
      </trkpt>
      <trkpt lat="42.63635" lon="1.70484">
        <ele>1966.99</ele>
        <time>2020-09-27T12:23:04Z</time>
      </trkpt>
      <trkpt lat="42.63636" lon="1.70482">
        <ele>1965.07</ele>
        <time>2020-09-27T12:23:12Z</time>
      </trkpt>
      <trkpt lat="42.63637" lon="1.70482">
        <ele>1965.07</ele>
        <time>2020-09-27T12:23:13Z</time>
      </trkpt>
      <trkpt lat="42.63638" lon="1.70479">
        <ele>1966.51</ele>
        <time>2020-09-27T12:23:18Z</time>
      </trkpt>
      <trkpt lat="42.63642" lon="1.70475">
        <ele>1965.55</ele>
        <time>2020-09-27T12:23:25Z</time>
      </trkpt>
      <trkpt lat="42.63644" lon="1.70471">
        <ele>1966.03</ele>
        <time>2020-09-27T12:23:34Z</time>
      </trkpt>
      <trkpt lat="42.63644" lon="1.70471">
        <ele>1966.03</ele>
        <time>2020-09-27T12:23:35Z</time>
      </trkpt>
      <trkpt lat="42.63648" lon="1.70469">
        <ele>1964.11</ele>
        <time>2020-09-27T12:23:42Z</time>
      </trkpt>
      <trkpt lat="42.6365" lon="1.70465">
        <ele>1964.11</ele>
        <time>2020-09-27T12:23:50Z</time>
      </trkpt>
      <trkpt lat="42.63651" lon="1.70464">
        <ele>1965.55</ele>
        <time>2020-09-27T12:23:54Z</time>
      </trkpt>
      <trkpt lat="42.63653" lon="1.70463">
        <ele>1967.48</ele>
        <time>2020-09-27T12:23:59Z</time>
      </trkpt>
      <trkpt lat="42.63654" lon="1.70463">
        <ele>1966.99</ele>
        <time>2020-09-27T12:24:02Z</time>
      </trkpt>
      <trkpt lat="42.63656" lon="1.70462">
        <ele>1964.11</ele>
        <time>2020-09-27T12:24:05Z</time>
      </trkpt>
      <trkpt lat="42.6366" lon="1.70462">
        <ele>1962.19</ele>
        <time>2020-09-27T12:24:12Z</time>
      </trkpt>
      <trkpt lat="42.63664" lon="1.70458">
        <ele>1961.23</ele>
        <time>2020-09-27T12:24:23Z</time>
      </trkpt>
      <trkpt lat="42.63666" lon="1.70456">
        <ele>1961.23</ele>
        <time>2020-09-27T12:24:27Z</time>
      </trkpt>
      <trkpt lat="42.63668" lon="1.70453">
        <ele>1961.23</ele>
        <time>2020-09-27T12:24:35Z</time>
      </trkpt>
      <trkpt lat="42.63667" lon="1.70454">
        <ele>1962.67</ele>
        <time>2020-09-27T12:24:45Z</time>
      </trkpt>
      <trkpt lat="42.63672" lon="1.70448">
        <ele>1959.78</ele>
        <time>2020-09-27T12:24:56Z</time>
      </trkpt>
      <trkpt lat="42.63673" lon="1.70443">
        <ele>1960.75</ele>
        <time>2020-09-27T12:25:05Z</time>
      </trkpt>
      <trkpt lat="42.63675" lon="1.70443">
        <ele>1959.78</ele>
        <time>2020-09-27T12:25:08Z</time>
      </trkpt>
      <trkpt lat="42.63678" lon="1.7044">
        <ele>1957.86</ele>
        <time>2020-09-27T12:25:16Z</time>
      </trkpt>
      <trkpt lat="42.63681" lon="1.70433">
        <ele>1957.86</ele>
        <time>2020-09-27T12:25:26Z</time>
      </trkpt>
      <trkpt lat="42.63684" lon="1.70428">
        <ele>1958.34</ele>
        <time>2020-09-27T12:25:34Z</time>
      </trkpt>
      <trkpt lat="42.63685" lon="1.70428">
        <ele>1958.34</ele>
        <time>2020-09-27T12:25:35Z</time>
      </trkpt>
      <trkpt lat="42.63687" lon="1.70425">
        <ele>1957.86</ele>
        <time>2020-09-27T12:25:45Z</time>
      </trkpt>
      <trkpt lat="42.63687" lon="1.70423">
        <ele>1957.86</ele>
        <time>2020-09-27T12:25:57Z</time>
      </trkpt>
      <trkpt lat="42.6369" lon="1.70415">
        <ele>1957.86</ele>
        <time>2020-09-27T12:26:06Z</time>
      </trkpt>
      <trkpt lat="42.63693" lon="1.70407">
        <ele>1956.9</ele>
        <time>2020-09-27T12:26:15Z</time>
      </trkpt>
      <trkpt lat="42.63694" lon="1.70405">
        <ele>1956.42</ele>
        <time>2020-09-27T12:26:19Z</time>
      </trkpt>
      <trkpt lat="42.63698" lon="1.704">
        <ele>1955.94</ele>
        <time>2020-09-27T12:26:28Z</time>
      </trkpt>
      <trkpt lat="42.63699" lon="1.70398">
        <ele>1957.38</ele>
        <time>2020-09-27T12:26:31Z</time>
      </trkpt>
      <trkpt lat="42.63702" lon="1.70393">
        <ele>1955.94</ele>
        <time>2020-09-27T12:26:39Z</time>
      </trkpt>
      <trkpt lat="42.63705" lon="1.70389">
        <ele>1954.98</ele>
        <time>2020-09-27T12:26:47Z</time>
      </trkpt>
      <trkpt lat="42.63706" lon="1.70387">
        <ele>1956.9</ele>
        <time>2020-09-27T12:26:57Z</time>
      </trkpt>
      <trkpt lat="42.63707" lon="1.70386">
        <ele>1954.5</ele>
        <time>2020-09-27T12:27:01Z</time>
      </trkpt>
      <trkpt lat="42.6371" lon="1.70381">
        <ele>1956.42</ele>
        <time>2020-09-27T12:27:12Z</time>
      </trkpt>
      <trkpt lat="42.6371" lon="1.70379">
        <ele>1957.38</ele>
        <time>2020-09-27T12:27:17Z</time>
      </trkpt>
      <trkpt lat="42.63711" lon="1.70375">
        <ele>1954.98</ele>
        <time>2020-09-27T12:27:23Z</time>
      </trkpt>
      <trkpt lat="42.63711" lon="1.70373">
        <ele>1955.94</ele>
        <time>2020-09-27T12:27:26Z</time>
      </trkpt>
      <trkpt lat="42.63711" lon="1.7037">
        <ele>1956.9</ele>
        <time>2020-09-27T12:27:33Z</time>
      </trkpt>
      <trkpt lat="42.63711" lon="1.70369">
        <ele>1958.34</ele>
        <time>2020-09-27T12:27:43Z</time>
      </trkpt>
      <trkpt lat="42.63711" lon="1.70367">
        <ele>1957.86</ele>
        <time>2020-09-27T12:28:06Z</time>
      </trkpt>
      <trkpt lat="42.63712" lon="1.70367">
        <ele>1955.46</ele>
        <time>2020-09-27T12:28:15Z</time>
      </trkpt>
      <trkpt lat="42.63713" lon="1.70367">
        <ele>1956.9</ele>
        <time>2020-09-27T12:28:22Z</time>
      </trkpt>
      <trkpt lat="42.63715" lon="1.70361">
        <ele>1956.42</ele>
        <time>2020-09-27T12:28:31Z</time>
      </trkpt>
      <trkpt lat="42.63714" lon="1.7036">
        <ele>1956.42</ele>
        <time>2020-09-27T12:28:32Z</time>
      </trkpt>
      <trkpt lat="42.6373" lon="1.70325">
        <ele>1957.38</ele>
        <time>2020-09-27T12:32:25Z</time>
      </trkpt>
      <trkpt lat="42.63729" lon="1.70322">
        <ele>1956.42</ele>
        <time>2020-09-27T12:33:13Z</time>
      </trkpt>
      <trkpt lat="42.63729" lon="1.70322">
        <ele>1956.42</ele>
        <time>2020-09-27T12:33:19Z</time>
      </trkpt>
      <trkpt lat="42.63729" lon="1.70322">
        <ele>1957.86</ele>
        <time>2020-09-27T12:33:38Z</time>
      </trkpt>
      <trkpt lat="42.6373" lon="1.70322">
        <ele>1956.9</ele>
        <time>2020-09-27T12:33:54Z</time>
      </trkpt>
      <trkpt lat="42.6373" lon="1.70321">
        <ele>1958.34</ele>
        <time>2020-09-27T12:34:02Z</time>
      </trkpt>
      <trkpt lat="42.6373" lon="1.70322">
        <ele>1956.9</ele>
        <time>2020-09-27T12:34:14Z</time>
      </trkpt>
      <trkpt lat="42.63729" lon="1.70321">
        <ele>1956.9</ele>
        <time>2020-09-27T12:34:28Z</time>
      </trkpt>
      <trkpt lat="42.63729" lon="1.70321">
        <ele>1958.34</ele>
        <time>2020-09-27T12:34:30Z</time>
      </trkpt>
      <trkpt lat="42.6373" lon="1.70323">
        <ele>1956.9</ele>
        <time>2020-09-27T12:34:45Z</time>
      </trkpt>
      <trkpt lat="42.63731" lon="1.70324">
        <ele>1956.9</ele>
        <time>2020-09-27T12:34:54Z</time>
      </trkpt>
      <trkpt lat="42.6373" lon="1.70324">
        <ele>1956.9</ele>
        <time>2020-09-27T12:35:15Z</time>
      </trkpt>
      <trkpt lat="42.63732" lon="1.70325">
        <ele>1958.34</ele>
        <time>2020-09-27T12:35:17Z</time>
      </trkpt>
      <trkpt lat="42.63732" lon="1.70323">
        <ele>1956.42</ele>
        <time>2020-09-27T12:35:19Z</time>
      </trkpt>
      <trkpt lat="42.6373" lon="1.70327">
        <ele>1956.9</ele>
        <time>2020-09-27T12:35:21Z</time>
      </trkpt>
      <trkpt lat="42.63731" lon="1.70327">
        <ele>1956.9</ele>
        <time>2020-09-27T12:35:28Z</time>
      </trkpt>
      <trkpt lat="42.63731" lon="1.70324">
        <ele>1957.86</ele>
        <time>2020-09-27T12:35:40Z</time>
      </trkpt>
      <trkpt lat="42.63732" lon="1.70322">
        <ele>1955.46</ele>
        <time>2020-09-27T12:35:46Z</time>
      </trkpt>
      <trkpt lat="42.63734" lon="1.70318">
        <ele>1954.98</ele>
        <time>2020-09-27T12:35:57Z</time>
      </trkpt>
      <trkpt lat="42.63735" lon="1.70316">
        <ele>1954.5</ele>
        <time>2020-09-27T12:36:07Z</time>
      </trkpt>
      <trkpt lat="42.63736" lon="1.70311">
        <ele>1954.5</ele>
        <time>2020-09-27T12:36:17Z</time>
      </trkpt>
      <trkpt lat="42.63737" lon="1.70308">
        <ele>1955.94</ele>
        <time>2020-09-27T12:36:22Z</time>
      </trkpt>
      <trkpt lat="42.63738" lon="1.70307">
        <ele>1954.5</ele>
        <time>2020-09-27T12:36:24Z</time>
      </trkpt>
      <trkpt lat="42.63739" lon="1.70303">
        <ele>1955.46</ele>
        <time>2020-09-27T12:36:33Z</time>
      </trkpt>
      <trkpt lat="42.6374" lon="1.70299">
        <ele>1955.94</ele>
        <time>2020-09-27T12:36:41Z</time>
      </trkpt>
      <trkpt lat="42.6374" lon="1.70299">
        <ele>1955.94</ele>
        <time>2020-09-27T12:36:42Z</time>
      </trkpt>
      <trkpt lat="42.63741" lon="1.70298">
        <ele>1954.02</ele>
        <time>2020-09-27T12:36:47Z</time>
      </trkpt>
      <trkpt lat="42.63743" lon="1.70294">
        <ele>1955.46</ele>
        <time>2020-09-27T12:36:55Z</time>
      </trkpt>
      <trkpt lat="42.63743" lon="1.70294">
        <ele>1955.46</ele>
        <time>2020-09-27T12:36:56Z</time>
      </trkpt>
      <trkpt lat="42.63747" lon="1.7029">
        <ele>1954.02</ele>
        <time>2020-09-27T12:37:07Z</time>
      </trkpt>
      <trkpt lat="42.63749" lon="1.70287">
        <ele>1952.57</ele>
        <time>2020-09-27T12:37:15Z</time>
      </trkpt>
      <trkpt lat="42.63752" lon="1.70285">
        <ele>1952.09</ele>
        <time>2020-09-27T12:37:27Z</time>
      </trkpt>
      <trkpt lat="42.63754" lon="1.70282">
        <ele>1950.17</ele>
        <time>2020-09-27T12:37:37Z</time>
      </trkpt>
      <trkpt lat="42.63756" lon="1.7028">
        <ele>1948.25</ele>
        <time>2020-09-27T12:37:47Z</time>
      </trkpt>
      <trkpt lat="42.63757" lon="1.70279">
        <ele>1946.33</ele>
        <time>2020-09-27T12:37:56Z</time>
      </trkpt>
      <trkpt lat="42.63758" lon="1.70275">
        <ele>1945.36</ele>
        <time>2020-09-27T12:38:09Z</time>
      </trkpt>
      <trkpt lat="42.63758" lon="1.70275">
        <ele>1946.81</ele>
        <time>2020-09-27T12:38:14Z</time>
      </trkpt>
      <trkpt lat="42.63758" lon="1.70273">
        <ele>1944.4</ele>
        <time>2020-09-27T12:38:23Z</time>
      </trkpt>
      <trkpt lat="42.63762" lon="1.7027">
        <ele>1942.96</ele>
        <time>2020-09-27T12:38:31Z</time>
      </trkpt>
      <trkpt lat="42.63765" lon="1.70269">
        <ele>1941.52</ele>
        <time>2020-09-27T12:38:40Z</time>
      </trkpt>
      <trkpt lat="42.63765" lon="1.70267">
        <ele>1940.08</ele>
        <time>2020-09-27T12:38:46Z</time>
      </trkpt>
      <trkpt lat="42.63766" lon="1.70265">
        <ele>1939.6</ele>
        <time>2020-09-27T12:38:56Z</time>
      </trkpt>
      <trkpt lat="42.63767" lon="1.70265">
        <ele>1939.6</ele>
        <time>2020-09-27T12:39:05Z</time>
      </trkpt>
      <trkpt lat="42.6377" lon="1.70264">
        <ele>1938.16</ele>
        <time>2020-09-27T12:39:13Z</time>
      </trkpt>
      <trkpt lat="42.63772" lon="1.70263">
        <ele>1938.16</ele>
        <time>2020-09-27T12:39:22Z</time>
      </trkpt>
      <trkpt lat="42.63775" lon="1.7026">
        <ele>1936.23</ele>
        <time>2020-09-27T12:39:32Z</time>
      </trkpt>
      <trkpt lat="42.63779" lon="1.70258">
        <ele>1934.79</ele>
        <time>2020-09-27T12:39:42Z</time>
      </trkpt>
      <trkpt lat="42.63782" lon="1.70257">
        <ele>1933.83</ele>
        <time>2020-09-27T12:39:51Z</time>
      </trkpt>
      <trkpt lat="42.63784" lon="1.70256">
        <ele>1932.87</ele>
        <time>2020-09-27T12:40:00Z</time>
      </trkpt>
      <trkpt lat="42.63785" lon="1.70248">
        <ele>1931.91</ele>
        <time>2020-09-27T12:40:12Z</time>
      </trkpt>
      <trkpt lat="42.63785" lon="1.70241">
        <ele>1930.46</ele>
        <time>2020-09-27T12:40:22Z</time>
      </trkpt>
      <trkpt lat="42.63786" lon="1.70237">
        <ele>1929.98</ele>
        <time>2020-09-27T12:40:32Z</time>
      </trkpt>
      <trkpt lat="42.63787" lon="1.70232">
        <ele>1929.98</ele>
        <time>2020-09-27T12:40:41Z</time>
      </trkpt>
      <trkpt lat="42.63787" lon="1.70225">
        <ele>1929.5</ele>
        <time>2020-09-27T12:40:51Z</time>
      </trkpt>
      <trkpt lat="42.63788" lon="1.70221">
        <ele>1929.02</ele>
        <time>2020-09-27T12:41:00Z</time>
      </trkpt>
      <trkpt lat="42.6379" lon="1.70217">
        <ele>1928.06</ele>
        <time>2020-09-27T12:41:09Z</time>
      </trkpt>
      <trkpt lat="42.63792" lon="1.70212">
        <ele>1928.06</ele>
        <time>2020-09-27T12:41:19Z</time>
      </trkpt>
      <trkpt lat="42.63793" lon="1.70208">
        <ele>1927.1</ele>
        <time>2020-09-27T12:41:28Z</time>
      </trkpt>
      <trkpt lat="42.63793" lon="1.7021">
        <ele>1927.58</ele>
        <time>2020-09-27T12:41:44Z</time>
      </trkpt>
      <trkpt lat="42.63794" lon="1.70209">
        <ele>1926.14</ele>
        <time>2020-09-27T12:41:50Z</time>
      </trkpt>
      <trkpt lat="42.63795" lon="1.70206">
        <ele>1925.66</ele>
        <time>2020-09-27T12:41:58Z</time>
      </trkpt>
      <trkpt lat="42.63795" lon="1.70205">
        <ele>1925.66</ele>
        <time>2020-09-27T12:42:00Z</time>
      </trkpt>
      <trkpt lat="42.63796" lon="1.702">
        <ele>1925.18</ele>
        <time>2020-09-27T12:42:08Z</time>
      </trkpt>
      <trkpt lat="42.63797" lon="1.70195">
        <ele>1924.7</ele>
        <time>2020-09-27T12:42:16Z</time>
      </trkpt>
      <trkpt lat="42.63798" lon="1.70189">
        <ele>1923.74</ele>
        <time>2020-09-27T12:42:25Z</time>
      </trkpt>
      <trkpt lat="42.63799" lon="1.70185">
        <ele>1923.74</ele>
        <time>2020-09-27T12:42:35Z</time>
      </trkpt>
      <trkpt lat="42.63803" lon="1.70178">
        <ele>1921.81</ele>
        <time>2020-09-27T12:42:46Z</time>
      </trkpt>
      <trkpt lat="42.63804" lon="1.70177">
        <ele>1921.81</ele>
        <time>2020-09-27T12:42:47Z</time>
      </trkpt>
      <trkpt lat="42.63807" lon="1.7017">
        <ele>1921.81</ele>
        <time>2020-09-27T12:42:57Z</time>
      </trkpt>
      <trkpt lat="42.63809" lon="1.70168">
        <ele>1921.33</ele>
        <time>2020-09-27T12:43:00Z</time>
      </trkpt>
      <trkpt lat="42.63812" lon="1.70164">
        <ele>1921.33</ele>
        <time>2020-09-27T12:43:09Z</time>
      </trkpt>
      <trkpt lat="42.63815" lon="1.7016">
        <ele>1921.33</ele>
        <time>2020-09-27T12:43:19Z</time>
      </trkpt>
      <trkpt lat="42.63817" lon="1.70158">
        <ele>1921.33</ele>
        <time>2020-09-27T12:43:26Z</time>
      </trkpt>
      <trkpt lat="42.63818" lon="1.70155">
        <ele>1921.33</ele>
        <time>2020-09-27T12:43:35Z</time>
      </trkpt>
      <trkpt lat="42.63817" lon="1.70153">
        <ele>1921.33</ele>
        <time>2020-09-27T12:43:43Z</time>
      </trkpt>
      <trkpt lat="42.63818" lon="1.70152">
        <ele>1922.29</ele>
        <time>2020-09-27T12:43:46Z</time>
      </trkpt>
      <trkpt lat="42.63819" lon="1.7015">
        <ele>1922.29</ele>
        <time>2020-09-27T12:43:55Z</time>
      </trkpt>
      <trkpt lat="42.6382" lon="1.70147">
        <ele>1922.29</ele>
        <time>2020-09-27T12:44:03Z</time>
      </trkpt>
      <trkpt lat="42.63822" lon="1.70144">
        <ele>1921.33</ele>
        <time>2020-09-27T12:44:12Z</time>
      </trkpt>
      <trkpt lat="42.63825" lon="1.70142">
        <ele>1920.37</ele>
        <time>2020-09-27T12:44:22Z</time>
      </trkpt>
      <trkpt lat="42.63827" lon="1.70137">
        <ele>1919.89</ele>
        <time>2020-09-27T12:44:32Z</time>
      </trkpt>
      <trkpt lat="42.63827" lon="1.70133">
        <ele>1919.89</ele>
        <time>2020-09-27T12:44:41Z</time>
      </trkpt>
      <trkpt lat="42.63827" lon="1.70134">
        <ele>1919.89</ele>
        <time>2020-09-27T12:44:51Z</time>
      </trkpt>
      <trkpt lat="42.63827" lon="1.70132">
        <ele>1920.37</ele>
        <time>2020-09-27T12:45:03Z</time>
      </trkpt>
      <trkpt lat="42.63827" lon="1.70132">
        <ele>1920.85</ele>
        <time>2020-09-27T12:45:12Z</time>
      </trkpt>
      <trkpt lat="42.63826" lon="1.70132">
        <ele>1919.89</ele>
        <time>2020-09-27T12:45:27Z</time>
      </trkpt>
      <trkpt lat="42.63826" lon="1.70132">
        <ele>1919.89</ele>
        <time>2020-09-27T12:45:39Z</time>
      </trkpt>
      <trkpt lat="42.63826" lon="1.70128">
        <ele>1919.89</ele>
        <time>2020-09-27T12:45:48Z</time>
      </trkpt>
      <trkpt lat="42.63826" lon="1.70125">
        <ele>1919.89</ele>
        <time>2020-09-27T12:45:52Z</time>
      </trkpt>
      <trkpt lat="42.63826" lon="1.70123">
        <ele>1919.89</ele>
        <time>2020-09-27T12:46:00Z</time>
      </trkpt>
      <trkpt lat="42.63825" lon="1.70119">
        <ele>1919.89</ele>
        <time>2020-09-27T12:46:10Z</time>
      </trkpt>
      <trkpt lat="42.63826" lon="1.70114">
        <ele>1919.89</ele>
        <time>2020-09-27T12:46:17Z</time>
      </trkpt>
      <trkpt lat="42.63826" lon="1.70112">
        <ele>1919.89</ele>
        <time>2020-09-27T12:46:25Z</time>
      </trkpt>
      <trkpt lat="42.63827" lon="1.7011">
        <ele>1918.45</ele>
        <time>2020-09-27T12:46:30Z</time>
      </trkpt>
      <trkpt lat="42.63826" lon="1.70107">
        <ele>1918.45</ele>
        <time>2020-09-27T12:46:36Z</time>
      </trkpt>
      <trkpt lat="42.63825" lon="1.70106">
        <ele>1918.45</ele>
        <time>2020-09-27T12:46:43Z</time>
      </trkpt>
      <trkpt lat="42.63825" lon="1.70104">
        <ele>1918.45</ele>
        <time>2020-09-27T12:46:54Z</time>
      </trkpt>
      <trkpt lat="42.63824" lon="1.70099">
        <ele>1917.97</ele>
        <time>2020-09-27T12:47:06Z</time>
      </trkpt>
      <trkpt lat="42.63824" lon="1.70093">
        <ele>1917.49</ele>
        <time>2020-09-27T12:47:18Z</time>
      </trkpt>
      <trkpt lat="42.63825" lon="1.70091">
        <ele>1917.49</ele>
        <time>2020-09-27T12:47:26Z</time>
      </trkpt>
      <trkpt lat="42.63825" lon="1.70089">
        <ele>1917.49</ele>
        <time>2020-09-27T12:47:36Z</time>
      </trkpt>
      <trkpt lat="42.63825" lon="1.7009">
        <ele>1917.49</ele>
        <time>2020-09-27T12:47:48Z</time>
      </trkpt>
      <trkpt lat="42.63825" lon="1.70089">
        <ele>1918.45</ele>
        <time>2020-09-27T12:48:04Z</time>
      </trkpt>
      <trkpt lat="42.63825" lon="1.70085">
        <ele>1918.45</ele>
        <time>2020-09-27T12:48:14Z</time>
      </trkpt>
      <trkpt lat="42.63824" lon="1.70079">
        <ele>1917.01</ele>
        <time>2020-09-27T12:48:25Z</time>
      </trkpt>
      <trkpt lat="42.63824" lon="1.70074">
        <ele>1916.53</ele>
        <time>2020-09-27T12:48:35Z</time>
      </trkpt>
      <trkpt lat="42.63823" lon="1.70068">
        <ele>1916.04</ele>
        <time>2020-09-27T12:48:45Z</time>
      </trkpt>
      <trkpt lat="42.63823" lon="1.70061">
        <ele>1914.6</ele>
        <time>2020-09-27T12:48:56Z</time>
      </trkpt>
      <trkpt lat="42.63824" lon="1.70057">
        <ele>1914.12</ele>
        <time>2020-09-27T12:49:04Z</time>
      </trkpt>
      <trkpt lat="42.63823" lon="1.70051">
        <ele>1914.12</ele>
        <time>2020-09-27T12:49:14Z</time>
      </trkpt>
      <trkpt lat="42.63822" lon="1.70048">
        <ele>1913.16</ele>
        <time>2020-09-27T12:49:22Z</time>
      </trkpt>
      <trkpt lat="42.63821" lon="1.70042">
        <ele>1913.16</ele>
        <time>2020-09-27T12:49:31Z</time>
      </trkpt>
      <trkpt lat="42.6382" lon="1.70037">
        <ele>1913.16</ele>
        <time>2020-09-27T12:49:39Z</time>
      </trkpt>
      <trkpt lat="42.63819" lon="1.70035">
        <ele>1912.68</ele>
        <time>2020-09-27T12:49:48Z</time>
      </trkpt>
      <trkpt lat="42.63818" lon="1.7003">
        <ele>1912.2</ele>
        <time>2020-09-27T12:49:58Z</time>
      </trkpt>
      <trkpt lat="42.63817" lon="1.70023">
        <ele>1911.24</ele>
        <time>2020-09-27T12:50:08Z</time>
      </trkpt>
      <trkpt lat="42.63815" lon="1.70015">
        <ele>1910.76</ele>
        <time>2020-09-27T12:50:20Z</time>
      </trkpt>
      <trkpt lat="42.63815" lon="1.70011">
        <ele>1911.24</ele>
        <time>2020-09-27T12:50:29Z</time>
      </trkpt>
      <trkpt lat="42.63815" lon="1.70008">
        <ele>1909.8</ele>
        <time>2020-09-27T12:50:37Z</time>
      </trkpt>
      <trkpt lat="42.63814" lon="1.70002">
        <ele>1909.8</ele>
        <time>2020-09-27T12:50:45Z</time>
      </trkpt>
      <trkpt lat="42.63814" lon="1.69999">
        <ele>1911.24</ele>
        <time>2020-09-27T12:50:50Z</time>
      </trkpt>
      <trkpt lat="42.63813" lon="1.69997">
        <ele>1911.24</ele>
        <time>2020-09-27T12:50:55Z</time>
      </trkpt>
      <trkpt lat="42.63812" lon="1.69991">
        <ele>1911.72</ele>
        <time>2020-09-27T12:51:05Z</time>
      </trkpt>
      <trkpt lat="42.63812" lon="1.69991">
        <ele>1911.72</ele>
        <time>2020-09-27T12:51:14Z</time>
      </trkpt>
      <trkpt lat="42.63811" lon="1.69988">
        <ele>1910.28</ele>
        <time>2020-09-27T12:51:24Z</time>
      </trkpt>
      <trkpt lat="42.63811" lon="1.69982">
        <ele>1908.83</ele>
        <time>2020-09-27T12:51:32Z</time>
      </trkpt>
      <trkpt lat="42.63811" lon="1.69978">
        <ele>1908.83</ele>
        <time>2020-09-27T12:51:40Z</time>
      </trkpt>
      <trkpt lat="42.63811" lon="1.69975">
        <ele>1908.83</ele>
        <time>2020-09-27T12:51:46Z</time>
      </trkpt>
      <trkpt lat="42.63811" lon="1.69971">
        <ele>1908.83</ele>
        <time>2020-09-27T12:51:53Z</time>
      </trkpt>
      <trkpt lat="42.63811" lon="1.69963">
        <ele>1908.35</ele>
        <time>2020-09-27T12:52:03Z</time>
      </trkpt>
      <trkpt lat="42.63811" lon="1.69961">
        <ele>1909.8</ele>
        <time>2020-09-27T12:52:06Z</time>
      </trkpt>
      <trkpt lat="42.63808" lon="1.69957">
        <ele>1909.8</ele>
        <time>2020-09-27T12:52:17Z</time>
      </trkpt>
      <trkpt lat="42.63808" lon="1.69957">
        <ele>1909.8</ele>
        <time>2020-09-27T12:52:28Z</time>
      </trkpt>
      <trkpt lat="42.63809" lon="1.69957">
        <ele>1908.35</ele>
        <time>2020-09-27T12:52:47Z</time>
      </trkpt>
      <trkpt lat="42.63809" lon="1.69958">
        <ele>1907.87</ele>
        <time>2020-09-27T12:53:01Z</time>
      </trkpt>
      <trkpt lat="42.63808" lon="1.69958">
        <ele>1907.87</ele>
        <time>2020-09-27T12:53:12Z</time>
      </trkpt>
      <trkpt lat="42.63808" lon="1.69957">
        <ele>1907.87</ele>
        <time>2020-09-27T12:53:28Z</time>
      </trkpt>
      <trkpt lat="42.6381" lon="1.69957">
        <ele>1907.87</ele>
        <time>2020-09-27T12:53:40Z</time>
      </trkpt>
      <trkpt lat="42.6381" lon="1.69957">
        <ele>1907.87</ele>
        <time>2020-09-27T12:53:53Z</time>
      </trkpt>
      <trkpt lat="42.6381" lon="1.69959">
        <ele>1907.39</ele>
        <time>2020-09-27T12:54:15Z</time>
      </trkpt>
      <trkpt lat="42.6381" lon="1.69958">
        <ele>1909.32</ele>
        <time>2020-09-27T12:54:33Z</time>
      </trkpt>
      <trkpt lat="42.63809" lon="1.69959">
        <ele>1909.8</ele>
        <time>2020-09-27T12:54:51Z</time>
      </trkpt>
      <trkpt lat="42.63809" lon="1.69958">
        <ele>1908.83</ele>
        <time>2020-09-27T12:54:57Z</time>
      </trkpt>
      <trkpt lat="42.63809" lon="1.69957">
        <ele>1908.83</ele>
        <time>2020-09-27T12:55:10Z</time>
      </trkpt>
      <trkpt lat="42.6381" lon="1.69958">
        <ele>1908.83</ele>
        <time>2020-09-27T12:55:26Z</time>
      </trkpt>
      <trkpt lat="42.6381" lon="1.69959">
        <ele>1909.8</ele>
        <time>2020-09-27T12:55:39Z</time>
      </trkpt>
      <trkpt lat="42.63808" lon="1.69958">
        <ele>1906.91</ele>
        <time>2020-09-27T12:55:58Z</time>
      </trkpt>
      <trkpt lat="42.6381" lon="1.69959">
        <ele>1907.87</ele>
        <time>2020-09-27T12:56:18Z</time>
      </trkpt>
      <trkpt lat="42.6381" lon="1.6996">
        <ele>1908.35</ele>
        <time>2020-09-27T12:56:35Z</time>
      </trkpt>
      <trkpt lat="42.6381" lon="1.6996">
        <ele>1909.32</ele>
        <time>2020-09-27T12:56:55Z</time>
      </trkpt>
      <trkpt lat="42.63811" lon="1.69959">
        <ele>1909.32</ele>
        <time>2020-09-27T12:57:17Z</time>
      </trkpt>
      <trkpt lat="42.6381" lon="1.69959">
        <ele>1910.28</ele>
        <time>2020-09-27T12:57:25Z</time>
      </trkpt>
      <trkpt lat="42.6381" lon="1.69959">
        <ele>1908.83</ele>
        <time>2020-09-27T12:57:27Z</time>
      </trkpt>
      <trkpt lat="42.63812" lon="1.69957">
        <ele>1908.83</ele>
        <time>2020-09-27T12:57:44Z</time>
      </trkpt>
      <trkpt lat="42.63812" lon="1.69958">
        <ele>1910.28</ele>
        <time>2020-09-27T12:57:49Z</time>
      </trkpt>
      <trkpt lat="42.63814" lon="1.69956">
        <ele>1911.72</ele>
        <time>2020-09-27T12:58:09Z</time>
      </trkpt>
      <trkpt lat="42.6381" lon="1.69951">
        <ele>1910.28</ele>
        <time>2020-09-27T12:58:22Z</time>
      </trkpt>
      <trkpt lat="42.63808" lon="1.69946">
        <ele>1909.8</ele>
        <time>2020-09-27T12:58:33Z</time>
      </trkpt>
      <trkpt lat="42.63806" lon="1.69938">
        <ele>1908.83</ele>
        <time>2020-09-27T12:58:45Z</time>
      </trkpt>
      <trkpt lat="42.63803" lon="1.69931">
        <ele>1907.39</ele>
        <time>2020-09-27T12:58:58Z</time>
      </trkpt>
      <trkpt lat="42.63804" lon="1.69926">
        <ele>1906.43</ele>
        <time>2020-09-27T12:59:11Z</time>
      </trkpt>
      <trkpt lat="42.63801" lon="1.69921">
        <ele>1906.43</ele>
        <time>2020-09-27T12:59:21Z</time>
      </trkpt>
      <trkpt lat="42.63801" lon="1.6992">
        <ele>1906.43</ele>
        <time>2020-09-27T12:59:23Z</time>
      </trkpt>
      <trkpt lat="42.63795" lon="1.69908">
        <ele>1904.99</ele>
        <time>2020-09-27T12:59:37Z</time>
      </trkpt>
      <trkpt lat="42.63793" lon="1.69898">
        <ele>1904.51</ele>
        <time>2020-09-27T12:59:50Z</time>
      </trkpt>
      <trkpt lat="42.6379" lon="1.69892">
        <ele>1904.51</ele>
        <time>2020-09-27T13:00:00Z</time>
      </trkpt>
      <trkpt lat="42.63788" lon="1.69884">
        <ele>1904.51</ele>
        <time>2020-09-27T13:00:12Z</time>
      </trkpt>
      <trkpt lat="42.63788" lon="1.69881">
        <ele>1905.47</ele>
        <time>2020-09-27T13:00:19Z</time>
      </trkpt>
      <trkpt lat="42.63786" lon="1.69875">
        <ele>1904.51</ele>
        <time>2020-09-27T13:00:31Z</time>
      </trkpt>
      <trkpt lat="42.63784" lon="1.69867">
        <ele>1902.59</ele>
        <time>2020-09-27T13:00:41Z</time>
      </trkpt>
      <trkpt lat="42.63784" lon="1.69862">
        <ele>1902.59</ele>
        <time>2020-09-27T13:00:53Z</time>
      </trkpt>
      <trkpt lat="42.63781" lon="1.69859">
        <ele>1901.63</ele>
        <time>2020-09-27T13:01:04Z</time>
      </trkpt>
      <trkpt lat="42.63781" lon="1.69852">
        <ele>1901.63</ele>
        <time>2020-09-27T13:01:15Z</time>
      </trkpt>
      <trkpt lat="42.63781" lon="1.69849">
        <ele>1900.18</ele>
        <time>2020-09-27T13:01:26Z</time>
      </trkpt>
      <trkpt lat="42.63778" lon="1.69837">
        <ele>1899.22</ele>
        <time>2020-09-27T13:01:39Z</time>
      </trkpt>
      <trkpt lat="42.63777" lon="1.69829">
        <ele>1897.78</ele>
        <time>2020-09-27T13:01:51Z</time>
      </trkpt>
      <trkpt lat="42.63775" lon="1.69821">
        <ele>1897.3</ele>
        <time>2020-09-27T13:02:03Z</time>
      </trkpt>
      <trkpt lat="42.63772" lon="1.69815">
        <ele>1897.3</ele>
        <time>2020-09-27T13:02:11Z</time>
      </trkpt>
      <trkpt lat="42.63768" lon="1.69804">
        <ele>1897.3</ele>
        <time>2020-09-27T13:02:24Z</time>
      </trkpt>
      <trkpt lat="42.63766" lon="1.69794">
        <ele>1895.86</ele>
        <time>2020-09-27T13:02:36Z</time>
      </trkpt>
      <trkpt lat="42.63764" lon="1.69789">
        <ele>1895.38</ele>
        <time>2020-09-27T13:02:47Z</time>
      </trkpt>
      <trkpt lat="42.63762" lon="1.69788">
        <ele>1895.38</ele>
        <time>2020-09-27T13:02:57Z</time>
      </trkpt>
      <trkpt lat="42.63763" lon="1.69787">
        <ele>1894.9</ele>
        <time>2020-09-27T13:03:10Z</time>
      </trkpt>
      <trkpt lat="42.63761" lon="1.69781">
        <ele>1894.9</ele>
        <time>2020-09-27T13:03:20Z</time>
      </trkpt>
      <trkpt lat="42.63761" lon="1.69776">
        <ele>1894.42</ele>
        <time>2020-09-27T13:03:32Z</time>
      </trkpt>
      <trkpt lat="42.63759" lon="1.69766">
        <ele>1893.93</ele>
        <time>2020-09-27T13:03:45Z</time>
      </trkpt>
      <trkpt lat="42.63757" lon="1.69762">
        <ele>1892.97</ele>
        <time>2020-09-27T13:03:54Z</time>
      </trkpt>
      <trkpt lat="42.63757" lon="1.69758">
        <ele>1892.49</ele>
        <time>2020-09-27T13:04:07Z</time>
      </trkpt>
      <trkpt lat="42.63754" lon="1.69754">
        <ele>1892.49</ele>
        <time>2020-09-27T13:04:18Z</time>
      </trkpt>
      <trkpt lat="42.63752" lon="1.69751">
        <ele>1892.49</ele>
        <time>2020-09-27T13:04:27Z</time>
      </trkpt>
      <trkpt lat="42.63753" lon="1.69749">
        <ele>1892.01</ele>
        <time>2020-09-27T13:04:39Z</time>
      </trkpt>
      <trkpt lat="42.63753" lon="1.69746">
        <ele>1892.01</ele>
        <time>2020-09-27T13:04:49Z</time>
      </trkpt>
      <trkpt lat="42.63752" lon="1.6974">
        <ele>1891.53</ele>
        <time>2020-09-27T13:05:02Z</time>
      </trkpt>
      <trkpt lat="42.6375" lon="1.69735">
        <ele>1890.57</ele>
        <time>2020-09-27T13:05:13Z</time>
      </trkpt>
      <trkpt lat="42.63751" lon="1.69729">
        <ele>1890.57</ele>
        <time>2020-09-27T13:05:23Z</time>
      </trkpt>
      <trkpt lat="42.63748" lon="1.69727">
        <ele>1890.09</ele>
        <time>2020-09-27T13:05:34Z</time>
      </trkpt>
      <trkpt lat="42.63746" lon="1.69721">
        <ele>1889.61</ele>
        <time>2020-09-27T13:05:44Z</time>
      </trkpt>
      <trkpt lat="42.63745" lon="1.69718">
        <ele>1888.65</ele>
        <time>2020-09-27T13:05:53Z</time>
      </trkpt>
      <trkpt lat="42.63745" lon="1.69715">
        <ele>1888.65</ele>
        <time>2020-09-27T13:06:03Z</time>
      </trkpt>
      <trkpt lat="42.63743" lon="1.69711">
        <ele>1887.21</ele>
        <time>2020-09-27T13:06:15Z</time>
      </trkpt>
      <trkpt lat="42.63742" lon="1.69707">
        <ele>1886.24</ele>
        <time>2020-09-27T13:06:27Z</time>
      </trkpt>
      <trkpt lat="42.63746" lon="1.69705">
        <ele>1886.24</ele>
        <time>2020-09-27T13:06:36Z</time>
      </trkpt>
      <trkpt lat="42.63744" lon="1.697">
        <ele>1885.76</ele>
        <time>2020-09-27T13:06:47Z</time>
      </trkpt>
      <trkpt lat="42.63742" lon="1.69695">
        <ele>1885.76</ele>
        <time>2020-09-27T13:06:57Z</time>
      </trkpt>
      <trkpt lat="42.63741" lon="1.6969">
        <ele>1885.76</ele>
        <time>2020-09-27T13:07:07Z</time>
      </trkpt>
      <trkpt lat="42.63742" lon="1.69686">
        <ele>1885.28</ele>
        <time>2020-09-27T13:07:20Z</time>
      </trkpt>
      <trkpt lat="42.63739" lon="1.69677">
        <ele>1884.8</ele>
        <time>2020-09-27T13:07:32Z</time>
      </trkpt>
      <trkpt lat="42.63737" lon="1.69667">
        <ele>1884.8</ele>
        <time>2020-09-27T13:07:43Z</time>
      </trkpt>
      <trkpt lat="42.63736" lon="1.69658">
        <ele>1884.8</ele>
        <time>2020-09-27T13:07:53Z</time>
      </trkpt>
      <trkpt lat="42.63734" lon="1.69648">
        <ele>1884.32</ele>
        <time>2020-09-27T13:08:03Z</time>
      </trkpt>
      <trkpt lat="42.63732" lon="1.69644">
        <ele>1884.32</ele>
        <time>2020-09-27T13:08:14Z</time>
      </trkpt>
      <trkpt lat="42.63732" lon="1.69644">
        <ele>1884.32</ele>
        <time>2020-09-27T13:08:23Z</time>
      </trkpt>
      <trkpt lat="42.63731" lon="1.69635">
        <ele>1883.84</ele>
        <time>2020-09-27T13:08:35Z</time>
      </trkpt>
      <trkpt lat="42.63732" lon="1.69625">
        <ele>1882.88</ele>
        <time>2020-09-27T13:08:47Z</time>
      </trkpt>
      <trkpt lat="42.63729" lon="1.69609">
        <ele>1881.44</ele>
        <time>2020-09-27T13:09:00Z</time>
      </trkpt>
      <trkpt lat="42.63729" lon="1.696">
        <ele>1880</ele>
        <time>2020-09-27T13:09:13Z</time>
      </trkpt>
      <trkpt lat="42.63731" lon="1.69594">
        <ele>1879.51</ele>
        <time>2020-09-27T13:09:27Z</time>
      </trkpt>
      <trkpt lat="42.63729" lon="1.69591">
        <ele>1879.03</ele>
        <time>2020-09-27T13:09:36Z</time>
      </trkpt>
      <trkpt lat="42.63729" lon="1.69588">
        <ele>1879.03</ele>
        <time>2020-09-27T13:09:45Z</time>
      </trkpt>
      <trkpt lat="42.63729" lon="1.6958">
        <ele>1878.55</ele>
        <time>2020-09-27T13:09:55Z</time>
      </trkpt>
      <trkpt lat="42.63729" lon="1.69566">
        <ele>1877.11</ele>
        <time>2020-09-27T13:10:08Z</time>
      </trkpt>
      <trkpt lat="42.63729" lon="1.69552">
        <ele>1876.63</ele>
        <time>2020-09-27T13:10:21Z</time>
      </trkpt>
      <trkpt lat="42.63729" lon="1.69541">
        <ele>1876.15</ele>
        <time>2020-09-27T13:10:34Z</time>
      </trkpt>
      <trkpt lat="42.63731" lon="1.69536">
        <ele>1873.27</ele>
        <time>2020-09-27T13:10:45Z</time>
      </trkpt>
      <trkpt lat="42.63733" lon="1.69529">
        <ele>1872.79</ele>
        <time>2020-09-27T13:10:55Z</time>
      </trkpt>
      <trkpt lat="42.63732" lon="1.69518">
        <ele>1873.27</ele>
        <time>2020-09-27T13:11:06Z</time>
      </trkpt>
      <trkpt lat="42.63733" lon="1.6951">
        <ele>1870.38</ele>
        <time>2020-09-27T13:11:18Z</time>
      </trkpt>
      <trkpt lat="42.63733" lon="1.6951">
        <ele>1870.38</ele>
        <time>2020-09-27T13:11:19Z</time>
      </trkpt>
      <trkpt lat="42.63733" lon="1.6951">
        <ele>1872.3</ele>
        <time>2020-09-27T13:11:22Z</time>
      </trkpt>
      <trkpt lat="42.63733" lon="1.69511">
        <ele>1870.86</ele>
        <time>2020-09-27T13:11:30Z</time>
      </trkpt>
      <trkpt lat="42.63731" lon="1.69513">
        <ele>1872.79</ele>
        <time>2020-09-27T13:11:33Z</time>
      </trkpt>
      <trkpt lat="42.6373" lon="1.6951">
        <ele>1871.82</ele>
        <time>2020-09-27T13:11:37Z</time>
      </trkpt>
      <trkpt lat="42.63728" lon="1.69502">
        <ele>1870.38</ele>
        <time>2020-09-27T13:11:49Z</time>
      </trkpt>
      <trkpt lat="42.63729" lon="1.69503">
        <ele>1869.42</ele>
        <time>2020-09-27T13:11:51Z</time>
      </trkpt>
      <trkpt lat="42.6373" lon="1.69502">
        <ele>1870.86</ele>
        <time>2020-09-27T13:11:57Z</time>
      </trkpt>
      <trkpt lat="42.63728" lon="1.69496">
        <ele>1870.86</ele>
        <time>2020-09-27T13:12:08Z</time>
      </trkpt>
      <trkpt lat="42.6373" lon="1.69491">
        <ele>1870.38</ele>
        <time>2020-09-27T13:12:17Z</time>
      </trkpt>
      <trkpt lat="42.63732" lon="1.69485">
        <ele>1869.42</ele>
        <time>2020-09-27T13:12:31Z</time>
      </trkpt>
      <trkpt lat="42.63735" lon="1.69482">
        <ele>1870.38</ele>
        <time>2020-09-27T13:12:41Z</time>
      </trkpt>
      <trkpt lat="42.63736" lon="1.69478">
        <ele>1870.86</ele>
        <time>2020-09-27T13:12:52Z</time>
      </trkpt>
      <trkpt lat="42.63737" lon="1.69477">
        <ele>1869.42</ele>
        <time>2020-09-27T13:12:56Z</time>
      </trkpt>
      <trkpt lat="42.63737" lon="1.69477">
        <ele>1871.34</ele>
        <time>2020-09-27T13:12:58Z</time>
      </trkpt>
      <trkpt lat="42.63735" lon="1.69476">
        <ele>1871.34</ele>
        <time>2020-09-27T13:13:07Z</time>
      </trkpt>
      <trkpt lat="42.63733" lon="1.69478">
        <ele>1870.38</ele>
        <time>2020-09-27T13:13:15Z</time>
      </trkpt>
      <trkpt lat="42.63735" lon="1.69472">
        <ele>1870.38</ele>
        <time>2020-09-27T13:13:24Z</time>
      </trkpt>
      <trkpt lat="42.63735" lon="1.69463">
        <ele>1869.9</ele>
        <time>2020-09-27T13:13:35Z</time>
      </trkpt>
      <trkpt lat="42.63734" lon="1.69459">
        <ele>1869.9</ele>
        <time>2020-09-27T13:13:44Z</time>
      </trkpt>
      <trkpt lat="42.63731" lon="1.69453">
        <ele>1869.9</ele>
        <time>2020-09-27T13:13:55Z</time>
      </trkpt>
      <trkpt lat="42.6373" lon="1.69451">
        <ele>1869.42</ele>
        <time>2020-09-27T13:14:06Z</time>
      </trkpt>
      <trkpt lat="42.6373" lon="1.69442">
        <ele>1868.94</ele>
        <time>2020-09-27T13:14:17Z</time>
      </trkpt>
      <trkpt lat="42.63731" lon="1.69441">
        <ele>1868.94</ele>
        <time>2020-09-27T13:14:30Z</time>
      </trkpt>
      <trkpt lat="42.63736" lon="1.69435">
        <ele>1868.94</ele>
        <time>2020-09-27T13:14:41Z</time>
      </trkpt>
      <trkpt lat="42.63737" lon="1.69427">
        <ele>1868.94</ele>
        <time>2020-09-27T13:14:54Z</time>
      </trkpt>
      <trkpt lat="42.6374" lon="1.69425">
        <ele>1868.46</ele>
        <time>2020-09-27T13:15:05Z</time>
      </trkpt>
      <trkpt lat="42.63739" lon="1.69427">
        <ele>1868.46</ele>
        <time>2020-09-27T13:15:16Z</time>
      </trkpt>
      <trkpt lat="42.63741" lon="1.69425">
        <ele>1867.5</ele>
        <time>2020-09-27T13:15:25Z</time>
      </trkpt>
      <trkpt lat="42.63742" lon="1.69426">
        <ele>1867.02</ele>
        <time>2020-09-27T13:15:37Z</time>
      </trkpt>
      <trkpt lat="42.63744" lon="1.69423">
        <ele>1867.98</ele>
        <time>2020-09-27T13:15:44Z</time>
      </trkpt>
      <trkpt lat="42.63743" lon="1.6942">
        <ele>1867.02</ele>
        <time>2020-09-27T13:15:48Z</time>
      </trkpt>
      <trkpt lat="42.63742" lon="1.69416">
        <ele>1866.54</ele>
        <time>2020-09-27T13:15:55Z</time>
      </trkpt>
      <trkpt lat="42.63741" lon="1.69412">
        <ele>1866.54</ele>
        <time>2020-09-27T13:16:06Z</time>
      </trkpt>
      <trkpt lat="42.63741" lon="1.6941">
        <ele>1865.58</ele>
        <time>2020-09-27T13:16:16Z</time>
      </trkpt>
      <trkpt lat="42.63742" lon="1.69412">
        <ele>1867.02</ele>
        <time>2020-09-27T13:16:24Z</time>
      </trkpt>
      <trkpt lat="42.63741" lon="1.69409">
        <ele>1867.02</ele>
        <time>2020-09-27T13:16:31Z</time>
      </trkpt>
      <trkpt lat="42.63741" lon="1.69404">
        <ele>1867.02</ele>
        <time>2020-09-27T13:16:40Z</time>
      </trkpt>
      <trkpt lat="42.63742" lon="1.69399">
        <ele>1867.02</ele>
        <time>2020-09-27T13:16:48Z</time>
      </trkpt>
      <trkpt lat="42.63741" lon="1.69399">
        <ele>1866.06</ele>
        <time>2020-09-27T13:16:56Z</time>
      </trkpt>
      <trkpt lat="42.63742" lon="1.69398">
        <ele>1866.06</ele>
        <time>2020-09-27T13:17:04Z</time>
      </trkpt>
      <trkpt lat="42.63743" lon="1.69395">
        <ele>1867.5</ele>
        <time>2020-09-27T13:17:09Z</time>
      </trkpt>
      <trkpt lat="42.63745" lon="1.69394">
        <ele>1867.5</ele>
        <time>2020-09-27T13:17:18Z</time>
      </trkpt>
      <trkpt lat="42.63743" lon="1.69395">
        <ele>1867.5</ele>
        <time>2020-09-27T13:17:26Z</time>
      </trkpt>
      <trkpt lat="42.63744" lon="1.69394">
        <ele>1867.5</ele>
        <time>2020-09-27T13:17:32Z</time>
      </trkpt>
      <trkpt lat="42.63744" lon="1.69392">
        <ele>1866.06</ele>
        <time>2020-09-27T13:17:40Z</time>
      </trkpt>
      <trkpt lat="42.63744" lon="1.69391">
        <ele>1866.06</ele>
        <time>2020-09-27T13:17:51Z</time>
      </trkpt>
      <trkpt lat="42.63743" lon="1.69389">
        <ele>1867.5</ele>
        <time>2020-09-27T13:17:57Z</time>
      </trkpt>
      <trkpt lat="42.63743" lon="1.69387">
        <ele>1867.5</ele>
        <time>2020-09-27T13:18:04Z</time>
      </trkpt>
      <trkpt lat="42.63744" lon="1.69389">
        <ele>1868.46</ele>
        <time>2020-09-27T13:18:13Z</time>
      </trkpt>
      <trkpt lat="42.63742" lon="1.6939">
        <ele>1866.54</ele>
        <time>2020-09-27T13:18:18Z</time>
      </trkpt>
      <trkpt lat="42.63744" lon="1.69389">
        <ele>1866.54</ele>
        <time>2020-09-27T13:18:33Z</time>
      </trkpt>
      <trkpt lat="42.63744" lon="1.69388">
        <ele>1866.54</ele>
        <time>2020-09-27T13:18:42Z</time>
      </trkpt>
      <trkpt lat="42.63744" lon="1.69389">
        <ele>1866.54</ele>
        <time>2020-09-27T13:18:54Z</time>
      </trkpt>
      <trkpt lat="42.63743" lon="1.69388">
        <ele>1867.98</ele>
        <time>2020-09-27T13:18:59Z</time>
      </trkpt>
      <trkpt lat="42.63742" lon="1.69387">
        <ele>1866.54</ele>
        <time>2020-09-27T13:19:19Z</time>
      </trkpt>
      <trkpt lat="42.63742" lon="1.69386">
        <ele>1866.54</ele>
        <time>2020-09-27T13:19:20Z</time>
      </trkpt>
      <trkpt lat="42.63743" lon="1.69387">
        <ele>1866.06</ele>
        <time>2020-09-27T13:19:31Z</time>
      </trkpt>
      <trkpt lat="42.63744" lon="1.69387">
        <ele>1865.58</ele>
        <time>2020-09-27T13:19:42Z</time>
      </trkpt>
      <trkpt lat="42.63746" lon="1.69387">
        <ele>1865.58</ele>
        <time>2020-09-27T13:19:51Z</time>
      </trkpt>
      <trkpt lat="42.63747" lon="1.69386">
        <ele>1865.09</ele>
        <time>2020-09-27T13:20:00Z</time>
      </trkpt>
      <trkpt lat="42.63751" lon="1.69384">
        <ele>1865.09</ele>
        <time>2020-09-27T13:20:09Z</time>
      </trkpt>
      <trkpt lat="42.63748" lon="1.6938">
        <ele>1864.61</ele>
        <time>2020-09-27T13:20:18Z</time>
      </trkpt>
      <trkpt lat="42.6375" lon="1.69376">
        <ele>1864.61</ele>
        <time>2020-09-27T13:20:25Z</time>
      </trkpt>
      <trkpt lat="42.63753" lon="1.69372">
        <ele>1864.61</ele>
        <time>2020-09-27T13:20:33Z</time>
      </trkpt>
      <trkpt lat="42.63753" lon="1.69369">
        <ele>1864.13</ele>
        <time>2020-09-27T13:20:42Z</time>
      </trkpt>
      <trkpt lat="42.63756" lon="1.69369">
        <ele>1863.65</ele>
        <time>2020-09-27T13:20:53Z</time>
      </trkpt>
      <trkpt lat="42.63758" lon="1.69367">
        <ele>1863.17</ele>
        <time>2020-09-27T13:21:04Z</time>
      </trkpt>
      <trkpt lat="42.63759" lon="1.69363">
        <ele>1862.69</ele>
        <time>2020-09-27T13:21:13Z</time>
      </trkpt>
      <trkpt lat="42.6376" lon="1.69359">
        <ele>1862.69</ele>
        <time>2020-09-27T13:21:21Z</time>
      </trkpt>
      <trkpt lat="42.63758" lon="1.69355">
        <ele>1862.69</ele>
        <time>2020-09-27T13:21:30Z</time>
      </trkpt>
      <trkpt lat="42.6376" lon="1.69352">
        <ele>1862.69</ele>
        <time>2020-09-27T13:21:42Z</time>
      </trkpt>
      <trkpt lat="42.63759" lon="1.69352">
        <ele>1861.25</ele>
        <time>2020-09-27T13:21:53Z</time>
      </trkpt>
      <trkpt lat="42.6376" lon="1.69347">
        <ele>1862.69</ele>
        <time>2020-09-27T13:22:00Z</time>
      </trkpt>
      <trkpt lat="42.63762" lon="1.69344">
        <ele>1862.69</ele>
        <time>2020-09-27T13:22:10Z</time>
      </trkpt>
      <trkpt lat="42.63762" lon="1.69341">
        <ele>1861.25</ele>
        <time>2020-09-27T13:22:13Z</time>
      </trkpt>
      <trkpt lat="42.6376" lon="1.69337">
        <ele>1862.69</ele>
        <time>2020-09-27T13:22:22Z</time>
      </trkpt>
      <trkpt lat="42.6376" lon="1.69337">
        <ele>1862.69</ele>
        <time>2020-09-27T13:22:30Z</time>
      </trkpt>
      <trkpt lat="42.6376" lon="1.69335">
        <ele>1863.17</ele>
        <time>2020-09-27T13:22:42Z</time>
      </trkpt>
      <trkpt lat="42.63761" lon="1.69337">
        <ele>1863.17</ele>
        <time>2020-09-27T13:22:52Z</time>
      </trkpt>
      <trkpt lat="42.6376" lon="1.69339">
        <ele>1861.73</ele>
        <time>2020-09-27T13:23:02Z</time>
      </trkpt>
      <trkpt lat="42.63761" lon="1.69339">
        <ele>1861.73</ele>
        <time>2020-09-27T13:23:09Z</time>
      </trkpt>
      <trkpt lat="42.63763" lon="1.69339">
        <ele>1861.73</ele>
        <time>2020-09-27T13:23:16Z</time>
      </trkpt>
      <trkpt lat="42.63762" lon="1.69338">
        <ele>1861.25</ele>
        <time>2020-09-27T13:23:25Z</time>
      </trkpt>
      <trkpt lat="42.63763" lon="1.69341">
        <ele>1860.29</ele>
        <time>2020-09-27T13:23:34Z</time>
      </trkpt>
      <trkpt lat="42.63766" lon="1.69339">
        <ele>1860.29</ele>
        <time>2020-09-27T13:23:40Z</time>
      </trkpt>
      <trkpt lat="42.63769" lon="1.6934">
        <ele>1859.81</ele>
        <time>2020-09-27T13:23:48Z</time>
      </trkpt>
      <trkpt lat="42.6377" lon="1.69337">
        <ele>1859.81</ele>
        <time>2020-09-27T13:23:56Z</time>
      </trkpt>
      <trkpt lat="42.63769" lon="1.69335">
        <ele>1859.81</ele>
        <time>2020-09-27T13:23:58Z</time>
      </trkpt>
      <trkpt lat="42.63767" lon="1.69332">
        <ele>1859.81</ele>
        <time>2020-09-27T13:24:03Z</time>
      </trkpt>
      <trkpt lat="42.63768" lon="1.69322">
        <ele>1861.25</ele>
        <time>2020-09-27T13:24:13Z</time>
      </trkpt>
      <trkpt lat="42.63764" lon="1.69317">
        <ele>1861.73</ele>
        <time>2020-09-27T13:24:21Z</time>
      </trkpt>
      <trkpt lat="42.63767" lon="1.69308">
        <ele>1862.69</ele>
        <time>2020-09-27T13:24:30Z</time>
      </trkpt>
      <trkpt lat="42.6377" lon="1.69305">
        <ele>1862.69</ele>
        <time>2020-09-27T13:24:33Z</time>
      </trkpt>
      <trkpt lat="42.63772" lon="1.69303">
        <ele>1862.69</ele>
        <time>2020-09-27T13:24:42Z</time>
      </trkpt>
      <trkpt lat="42.63769" lon="1.69301">
        <ele>1862.69</ele>
        <time>2020-09-27T13:24:50Z</time>
      </trkpt>
      <trkpt lat="42.63767" lon="1.69299">
        <ele>1861.25</ele>
        <time>2020-09-27T13:25:00Z</time>
      </trkpt>
      <trkpt lat="42.63766" lon="1.69293">
        <ele>1861.73</ele>
        <time>2020-09-27T13:25:10Z</time>
      </trkpt>
      <trkpt lat="42.63768" lon="1.69293">
        <ele>1861.25</ele>
        <time>2020-09-27T13:25:21Z</time>
      </trkpt>
      <trkpt lat="42.63766" lon="1.69289">
        <ele>1861.25</ele>
        <time>2020-09-27T13:25:34Z</time>
      </trkpt>
      <trkpt lat="42.63765" lon="1.69287">
        <ele>1861.25</ele>
        <time>2020-09-27T13:25:45Z</time>
      </trkpt>
      <trkpt lat="42.63762" lon="1.69288">
        <ele>1861.25</ele>
        <time>2020-09-27T13:25:56Z</time>
      </trkpt>
      <trkpt lat="42.63758" lon="1.69285">
        <ele>1861.25</ele>
        <time>2020-09-27T13:26:08Z</time>
      </trkpt>
      <trkpt lat="42.63756" lon="1.69285">
        <ele>1861.25</ele>
        <time>2020-09-27T13:26:17Z</time>
      </trkpt>
      <trkpt lat="42.63756" lon="1.69284">
        <ele>1861.25</ele>
        <time>2020-09-27T13:26:18Z</time>
      </trkpt>
      <trkpt lat="42.63754" lon="1.69284">
        <ele>1861.25</ele>
        <time>2020-09-27T13:26:27Z</time>
      </trkpt>
      <trkpt lat="42.6375" lon="1.69282">
        <ele>1861.25</ele>
        <time>2020-09-27T13:26:35Z</time>
      </trkpt>
      <trkpt lat="42.63748" lon="1.69277">
        <ele>1861.25</ele>
        <time>2020-09-27T13:26:44Z</time>
      </trkpt>
      <trkpt lat="42.63745" lon="1.69274">
        <ele>1861.25</ele>
        <time>2020-09-27T13:26:54Z</time>
      </trkpt>
      <trkpt lat="42.63744" lon="1.69272">
        <ele>1860.77</ele>
        <time>2020-09-27T13:27:03Z</time>
      </trkpt>
      <trkpt lat="42.63744" lon="1.6927">
        <ele>1860.77</ele>
        <time>2020-09-27T13:27:15Z</time>
      </trkpt>
      <trkpt lat="42.63745" lon="1.69269">
        <ele>1860.77</ele>
        <time>2020-09-27T13:27:18Z</time>
      </trkpt>
      <trkpt lat="42.63747" lon="1.69262">
        <ele>1859.33</ele>
        <time>2020-09-27T13:27:29Z</time>
      </trkpt>
      <trkpt lat="42.63745" lon="1.69252">
        <ele>1858.85</ele>
        <time>2020-09-27T13:27:39Z</time>
      </trkpt>
      <trkpt lat="42.63744" lon="1.69246">
        <ele>1858.85</ele>
        <time>2020-09-27T13:27:46Z</time>
      </trkpt>
      <trkpt lat="42.63744" lon="1.69237">
        <ele>1858.37</ele>
        <time>2020-09-27T13:27:56Z</time>
      </trkpt>
      <trkpt lat="42.63745" lon="1.69226">
        <ele>1858.37</ele>
        <time>2020-09-27T13:28:08Z</time>
      </trkpt>
      <trkpt lat="42.63746" lon="1.69218">
        <ele>1859.81</ele>
        <time>2020-09-27T13:28:18Z</time>
      </trkpt>
      <trkpt lat="42.63746" lon="1.69213">
        <ele>1859.81</ele>
        <time>2020-09-27T13:28:26Z</time>
      </trkpt>
      <trkpt lat="42.63747" lon="1.69212">
        <ele>1857.89</ele>
        <time>2020-09-27T13:28:30Z</time>
      </trkpt>
      <trkpt lat="42.63746" lon="1.6921">
        <ele>1859.33</ele>
        <time>2020-09-27T13:28:36Z</time>
      </trkpt>
      <trkpt lat="42.63746" lon="1.69205">
        <ele>1860.77</ele>
        <time>2020-09-27T13:28:50Z</time>
      </trkpt>
      <trkpt lat="42.63745" lon="1.692">
        <ele>1859.33</ele>
        <time>2020-09-27T13:29:01Z</time>
      </trkpt>
      <trkpt lat="42.63746" lon="1.69193">
        <ele>1859.33</ele>
        <time>2020-09-27T13:29:13Z</time>
      </trkpt>
      <trkpt lat="42.63746" lon="1.69189">
        <ele>1859.33</ele>
        <time>2020-09-27T13:29:24Z</time>
      </trkpt>
      <trkpt lat="42.63744" lon="1.6918">
        <ele>1860.77</ele>
        <time>2020-09-27T13:29:34Z</time>
      </trkpt>
      <trkpt lat="42.63743" lon="1.69172">
        <ele>1862.21</ele>
        <time>2020-09-27T13:29:46Z</time>
      </trkpt>
      <trkpt lat="42.63743" lon="1.69165">
        <ele>1862.21</ele>
        <time>2020-09-27T13:29:56Z</time>
      </trkpt>
      <trkpt lat="42.63741" lon="1.69153">
        <ele>1863.17</ele>
        <time>2020-09-27T13:30:09Z</time>
      </trkpt>
      <trkpt lat="42.63742" lon="1.69141">
        <ele>1864.13</ele>
        <time>2020-09-27T13:30:21Z</time>
      </trkpt>
      <trkpt lat="42.63745" lon="1.69132">
        <ele>1864.61</ele>
        <time>2020-09-27T13:30:33Z</time>
      </trkpt>
      <trkpt lat="42.63744" lon="1.69124">
        <ele>1863.65</ele>
        <time>2020-09-27T13:30:43Z</time>
      </trkpt>
      <trkpt lat="42.63744" lon="1.69123">
        <ele>1863.65</ele>
        <time>2020-09-27T13:30:44Z</time>
      </trkpt>
      <trkpt lat="42.63744" lon="1.69119">
        <ele>1863.17</ele>
        <time>2020-09-27T13:30:50Z</time>
      </trkpt>
      <trkpt lat="42.63744" lon="1.69119">
        <ele>1861.73</ele>
        <time>2020-09-27T13:31:00Z</time>
      </trkpt>
      <trkpt lat="42.63749" lon="1.69117">
        <ele>1860.77</ele>
        <time>2020-09-27T13:31:08Z</time>
      </trkpt>
      <trkpt lat="42.63752" lon="1.69118">
        <ele>1860.29</ele>
        <time>2020-09-27T13:31:16Z</time>
      </trkpt>
      <trkpt lat="42.63755" lon="1.69109">
        <ele>1860.29</ele>
        <time>2020-09-27T13:31:26Z</time>
      </trkpt>
      <trkpt lat="42.63756" lon="1.69107">
        <ele>1860.29</ele>
        <time>2020-09-27T13:31:32Z</time>
      </trkpt>
      <trkpt lat="42.63755" lon="1.69102">
        <ele>1860.29</ele>
        <time>2020-09-27T13:31:40Z</time>
      </trkpt>
      <trkpt lat="42.63756" lon="1.691">
        <ele>1859.81</ele>
        <time>2020-09-27T13:31:49Z</time>
      </trkpt>
      <trkpt lat="42.63757" lon="1.69103">
        <ele>1859.81</ele>
        <time>2020-09-27T13:31:59Z</time>
      </trkpt>
      <trkpt lat="42.63756" lon="1.69102">
        <ele>1860.77</ele>
        <time>2020-09-27T13:32:13Z</time>
      </trkpt>
      <trkpt lat="42.63754" lon="1.69099">
        <ele>1860.77</ele>
        <time>2020-09-27T13:32:34Z</time>
      </trkpt>
      <trkpt lat="42.63754" lon="1.69097">
        <ele>1861.73</ele>
        <time>2020-09-27T13:32:41Z</time>
      </trkpt>
      <trkpt lat="42.63757" lon="1.69091">
        <ele>1862.21</ele>
        <time>2020-09-27T13:32:48Z</time>
      </trkpt>
      <trkpt lat="42.63756" lon="1.69086">
        <ele>1864.13</ele>
        <time>2020-09-27T13:32:56Z</time>
      </trkpt>
      <trkpt lat="42.63759" lon="1.69084">
        <ele>1865.58</ele>
        <time>2020-09-27T13:33:04Z</time>
      </trkpt>
      <trkpt lat="42.63764" lon="1.69083">
        <ele>1865.58</ele>
        <time>2020-09-27T13:33:12Z</time>
      </trkpt>
      <trkpt lat="42.63767" lon="1.69081">
        <ele>1866.06</ele>
        <time>2020-09-27T13:33:18Z</time>
      </trkpt>
      <trkpt lat="42.63771" lon="1.69078">
        <ele>1866.06</ele>
        <time>2020-09-27T13:33:26Z</time>
      </trkpt>
      <trkpt lat="42.63776" lon="1.69077">
        <ele>1867.5</ele>
        <time>2020-09-27T13:33:32Z</time>
      </trkpt>
      <trkpt lat="42.6378" lon="1.69076">
        <ele>1867.02</ele>
        <time>2020-09-27T13:33:42Z</time>
      </trkpt>
      <trkpt lat="42.63783" lon="1.69077">
        <ele>1866.06</ele>
        <time>2020-09-27T13:33:46Z</time>
      </trkpt>
      <trkpt lat="42.63788" lon="1.69084">
        <ele>1865.09</ele>
        <time>2020-09-27T13:33:56Z</time>
      </trkpt>
      <trkpt lat="42.63791" lon="1.69085">
        <ele>1865.09</ele>
        <time>2020-09-27T13:34:01Z</time>
      </trkpt>
      <trkpt lat="42.63796" lon="1.69089">
        <ele>1864.61</ele>
        <time>2020-09-27T13:34:10Z</time>
      </trkpt>
      <trkpt lat="42.63805" lon="1.69091">
        <ele>1863.65</ele>
        <time>2020-09-27T13:34:20Z</time>
      </trkpt>
      <trkpt lat="42.63807" lon="1.69093">
        <ele>1864.61</ele>
        <time>2020-09-27T13:34:28Z</time>
      </trkpt>
      <trkpt lat="42.6381" lon="1.69096">
        <ele>1863.17</ele>
        <time>2020-09-27T13:34:37Z</time>
      </trkpt>
      <trkpt lat="42.63809" lon="1.69098">
        <ele>1863.17</ele>
        <time>2020-09-27T13:34:45Z</time>
      </trkpt>
      <trkpt lat="42.6381" lon="1.691">
        <ele>1862.69</ele>
        <time>2020-09-27T13:34:48Z</time>
      </trkpt>
      <trkpt lat="42.63813" lon="1.69112">
        <ele>1861.25</ele>
        <time>2020-09-27T13:35:00Z</time>
      </trkpt>
      <trkpt lat="42.63818" lon="1.69117">
        <ele>1860.29</ele>
        <time>2020-09-27T13:35:09Z</time>
      </trkpt>
      <trkpt lat="42.63821" lon="1.69127">
        <ele>1859.81</ele>
        <time>2020-09-27T13:35:21Z</time>
      </trkpt>
      <trkpt lat="42.63823" lon="1.69134">
        <ele>1859.33</ele>
        <time>2020-09-27T13:35:29Z</time>
      </trkpt>
      <trkpt lat="42.63826" lon="1.6914">
        <ele>1858.85</ele>
        <time>2020-09-27T13:35:39Z</time>
      </trkpt>
      <trkpt lat="42.63827" lon="1.69146">
        <ele>1858.85</ele>
        <time>2020-09-27T13:35:49Z</time>
      </trkpt>
      <trkpt lat="42.63827" lon="1.69154">
        <ele>1857.89</ele>
        <time>2020-09-27T13:35:57Z</time>
      </trkpt>
      <trkpt lat="42.63831" lon="1.69155">
        <ele>1857.89</ele>
        <time>2020-09-27T13:36:02Z</time>
      </trkpt>
      <trkpt lat="42.6384" lon="1.69168">
        <ele>1856.92</ele>
        <time>2020-09-27T13:36:15Z</time>
      </trkpt>
      <trkpt lat="42.63843" lon="1.69173">
        <ele>1856.44</ele>
        <time>2020-09-27T13:36:23Z</time>
      </trkpt>
      <trkpt lat="42.63844" lon="1.69176">
        <ele>1855</ele>
        <time>2020-09-27T13:36:27Z</time>
      </trkpt>
      <trkpt lat="42.63844" lon="1.69176">
        <ele>1855</ele>
        <time>2020-09-27T13:36:36Z</time>
      </trkpt>
      <trkpt lat="42.63849" lon="1.69178">
        <ele>1855.96</ele>
        <time>2020-09-27T13:36:46Z</time>
      </trkpt>
      <trkpt lat="42.63849" lon="1.69177">
        <ele>1855.96</ele>
        <time>2020-09-27T13:36:47Z</time>
      </trkpt>
      <trkpt lat="42.63852" lon="1.69177">
        <ele>1855.96</ele>
        <time>2020-09-27T13:36:56Z</time>
      </trkpt>
      <trkpt lat="42.63856" lon="1.6918">
        <ele>1855.96</ele>
        <time>2020-09-27T13:37:03Z</time>
      </trkpt>
      <trkpt lat="42.63858" lon="1.69183">
        <ele>1856.44</ele>
        <time>2020-09-27T13:37:09Z</time>
      </trkpt>
      <trkpt lat="42.63864" lon="1.69194">
        <ele>1855</ele>
        <time>2020-09-27T13:37:19Z</time>
      </trkpt>
      <trkpt lat="42.63867" lon="1.69202">
        <ele>1855</ele>
        <time>2020-09-27T13:37:28Z</time>
      </trkpt>
      <trkpt lat="42.63868" lon="1.69205">
        <ele>1853.56</ele>
        <time>2020-09-27T13:37:32Z</time>
      </trkpt>
      <trkpt lat="42.63869" lon="1.69212">
        <ele>1853.08</ele>
        <time>2020-09-27T13:37:39Z</time>
      </trkpt>
      <trkpt lat="42.63869" lon="1.69214">
        <ele>1853.08</ele>
        <time>2020-09-27T13:37:42Z</time>
      </trkpt>
      <trkpt lat="42.6387" lon="1.69221">
        <ele>1853.08</ele>
        <time>2020-09-27T13:37:49Z</time>
      </trkpt>
      <trkpt lat="42.6387" lon="1.69232">
        <ele>1850.68</ele>
        <time>2020-09-27T13:37:59Z</time>
      </trkpt>
      <trkpt lat="42.63869" lon="1.69233">
        <ele>1850.68</ele>
        <time>2020-09-27T13:38:00Z</time>
      </trkpt>
      <trkpt lat="42.6387" lon="1.69236">
        <ele>1852.12</ele>
        <time>2020-09-27T13:38:03Z</time>
      </trkpt>
      <trkpt lat="42.63871" lon="1.69238">
        <ele>1850.19</ele>
        <time>2020-09-27T13:38:05Z</time>
      </trkpt>
      <trkpt lat="42.63872" lon="1.6924">
        <ele>1849.71</ele>
        <time>2020-09-27T13:38:08Z</time>
      </trkpt>
      <trkpt lat="42.63876" lon="1.69247">
        <ele>1847.79</ele>
        <time>2020-09-27T13:38:13Z</time>
      </trkpt>
      <trkpt lat="42.63877" lon="1.69251">
        <ele>1847.31</ele>
        <time>2020-09-27T13:38:16Z</time>
      </trkpt>
      <trkpt lat="42.63879" lon="1.6926">
        <ele>1844.91</ele>
        <time>2020-09-27T13:38:28Z</time>
      </trkpt>
      <trkpt lat="42.63885" lon="1.69263">
        <ele>1844.91</ele>
        <time>2020-09-27T13:38:38Z</time>
      </trkpt>
      <trkpt lat="42.63886" lon="1.69264">
        <ele>1844.91</ele>
        <time>2020-09-27T13:38:39Z</time>
      </trkpt>
      <trkpt lat="42.63892" lon="1.69273">
        <ele>1843.95</ele>
        <time>2020-09-27T13:38:49Z</time>
      </trkpt>
      <trkpt lat="42.63898" lon="1.69286">
        <ele>1842.98</ele>
        <time>2020-09-27T13:39:01Z</time>
      </trkpt>
      <trkpt lat="42.63904" lon="1.69296">
        <ele>1841.54</ele>
        <time>2020-09-27T13:39:11Z</time>
      </trkpt>
      <trkpt lat="42.63906" lon="1.693">
        <ele>1843.47</ele>
        <time>2020-09-27T13:39:18Z</time>
      </trkpt>
      <trkpt lat="42.63907" lon="1.693">
        <ele>1843.47</ele>
        <time>2020-09-27T13:39:19Z</time>
      </trkpt>
      <trkpt lat="42.63909" lon="1.69302">
        <ele>1843.95</ele>
        <time>2020-09-27T13:39:28Z</time>
      </trkpt>
      <trkpt lat="42.6391" lon="1.69312">
        <ele>1842.5</ele>
        <time>2020-09-27T13:39:39Z</time>
      </trkpt>
      <trkpt lat="42.63913" lon="1.69325">
        <ele>1842.02</ele>
        <time>2020-09-27T13:39:51Z</time>
      </trkpt>
      <trkpt lat="42.63918" lon="1.69333">
        <ele>1840.58</ele>
        <time>2020-09-27T13:40:01Z</time>
      </trkpt>
      <trkpt lat="42.63917" lon="1.69342">
        <ele>1840.1</ele>
        <time>2020-09-27T13:40:10Z</time>
      </trkpt>
      <trkpt lat="42.63918" lon="1.69354">
        <ele>1838.66</ele>
        <time>2020-09-27T13:40:21Z</time>
      </trkpt>
      <trkpt lat="42.6392" lon="1.69365">
        <ele>1837.7</ele>
        <time>2020-09-27T13:40:33Z</time>
      </trkpt>
      <trkpt lat="42.63921" lon="1.69366">
        <ele>1837.7</ele>
        <time>2020-09-27T13:40:36Z</time>
      </trkpt>
      <trkpt lat="42.63926" lon="1.6938">
        <ele>1835.77</ele>
        <time>2020-09-27T13:40:49Z</time>
      </trkpt>
      <trkpt lat="42.63934" lon="1.69388">
        <ele>1835.77</ele>
        <time>2020-09-27T13:41:00Z</time>
      </trkpt>
      <trkpt lat="42.63937" lon="1.69398">
        <ele>1834.81</ele>
        <time>2020-09-27T13:41:12Z</time>
      </trkpt>
      <trkpt lat="42.6394" lon="1.69415">
        <ele>1832.89</ele>
        <time>2020-09-27T13:41:27Z</time>
      </trkpt>
      <trkpt lat="42.6394" lon="1.69421">
        <ele>1831.93</ele>
        <time>2020-09-27T13:41:38Z</time>
      </trkpt>
      <trkpt lat="42.63942" lon="1.69433">
        <ele>1830.49</ele>
        <time>2020-09-27T13:41:50Z</time>
      </trkpt>
      <trkpt lat="42.63943" lon="1.69436">
        <ele>1830.49</ele>
        <time>2020-09-27T13:42:01Z</time>
      </trkpt>
      <trkpt lat="42.63943" lon="1.69438">
        <ele>1829.53</ele>
        <time>2020-09-27T13:42:02Z</time>
      </trkpt>
      <trkpt lat="42.63944" lon="1.6944">
        <ele>1829.53</ele>
        <time>2020-09-27T13:42:04Z</time>
      </trkpt>
      <trkpt lat="42.63951" lon="1.69454">
        <ele>1828.08</ele>
        <time>2020-09-27T13:42:17Z</time>
      </trkpt>
      <trkpt lat="42.63956" lon="1.69465">
        <ele>1827.12</ele>
        <time>2020-09-27T13:42:28Z</time>
      </trkpt>
      <trkpt lat="42.63962" lon="1.69471">
        <ele>1826.16</ele>
        <time>2020-09-27T13:42:37Z</time>
      </trkpt>
      <trkpt lat="42.63964" lon="1.69477">
        <ele>1825.68</ele>
        <time>2020-09-27T13:42:42Z</time>
      </trkpt>
      <trkpt lat="42.6397" lon="1.69483">
        <ele>1824.24</ele>
        <time>2020-09-27T13:42:51Z</time>
      </trkpt>
      <trkpt lat="42.63977" lon="1.69486">
        <ele>1823.76</ele>
        <time>2020-09-27T13:42:58Z</time>
      </trkpt>
      <trkpt lat="42.63981" lon="1.69496">
        <ele>1822.8</ele>
        <time>2020-09-27T13:43:10Z</time>
      </trkpt>
      <trkpt lat="42.63987" lon="1.69501">
        <ele>1821.84</ele>
        <time>2020-09-27T13:43:21Z</time>
      </trkpt>
      <trkpt lat="42.63992" lon="1.69502">
        <ele>1820.87</ele>
        <time>2020-09-27T13:43:32Z</time>
      </trkpt>
      <trkpt lat="42.63996" lon="1.69506">
        <ele>1818.95</ele>
        <time>2020-09-27T13:43:45Z</time>
      </trkpt>
      <trkpt lat="42.63998" lon="1.6951">
        <ele>1818.95</ele>
        <time>2020-09-27T13:43:55Z</time>
      </trkpt>
      <trkpt lat="42.63997" lon="1.69517">
        <ele>1818.95</ele>
        <time>2020-09-27T13:44:05Z</time>
      </trkpt>
      <trkpt lat="42.63999" lon="1.69523">
        <ele>1818.95</ele>
        <time>2020-09-27T13:44:14Z</time>
      </trkpt>
      <trkpt lat="42.63998" lon="1.69529">
        <ele>1817.99</ele>
        <time>2020-09-27T13:44:27Z</time>
      </trkpt>
      <trkpt lat="42.64001" lon="1.69537">
        <ele>1817.03</ele>
        <time>2020-09-27T13:44:38Z</time>
      </trkpt>
      <trkpt lat="42.64004" lon="1.69545">
        <ele>1817.03</ele>
        <time>2020-09-27T13:44:49Z</time>
      </trkpt>
      <trkpt lat="42.64004" lon="1.6955">
        <ele>1815.59</ele>
        <time>2020-09-27T13:44:58Z</time>
      </trkpt>
      <trkpt lat="42.64003" lon="1.69555">
        <ele>1814.63</ele>
        <time>2020-09-27T13:45:08Z</time>
      </trkpt>
      <trkpt lat="42.64009" lon="1.69565">
        <ele>1813.18</ele>
        <time>2020-09-27T13:45:19Z</time>
      </trkpt>
      <trkpt lat="42.64011" lon="1.69572">
        <ele>1812.7</ele>
        <time>2020-09-27T13:45:29Z</time>
      </trkpt>
      <trkpt lat="42.6401" lon="1.69575">
        <ele>1810.78</ele>
        <time>2020-09-27T13:45:37Z</time>
      </trkpt>
      <trkpt lat="42.64015" lon="1.69583">
        <ele>1809.34</ele>
        <time>2020-09-27T13:45:50Z</time>
      </trkpt>
      <trkpt lat="42.64018" lon="1.69588">
        <ele>1807.9</ele>
        <time>2020-09-27T13:45:59Z</time>
      </trkpt>
      <trkpt lat="42.64021" lon="1.69594">
        <ele>1807.42</ele>
        <time>2020-09-27T13:46:09Z</time>
      </trkpt>
      <trkpt lat="42.64023" lon="1.69599">
        <ele>1805.97</ele>
        <time>2020-09-27T13:46:20Z</time>
      </trkpt>
      <trkpt lat="42.64029" lon="1.69605">
        <ele>1805.01</ele>
        <time>2020-09-27T13:46:31Z</time>
      </trkpt>
      <trkpt lat="42.64032" lon="1.69611">
        <ele>1803.57</ele>
        <time>2020-09-27T13:46:41Z</time>
      </trkpt>
      <trkpt lat="42.64033" lon="1.69619">
        <ele>1803.09</ele>
        <time>2020-09-27T13:46:52Z</time>
      </trkpt>
      <trkpt lat="42.64038" lon="1.69629">
        <ele>1802.61</ele>
        <time>2020-09-27T13:47:02Z</time>
      </trkpt>
      <trkpt lat="42.64038" lon="1.69631">
        <ele>1802.13</ele>
        <time>2020-09-27T13:47:12Z</time>
      </trkpt>
      <trkpt lat="42.6404" lon="1.69639">
        <ele>1800.69</ele>
        <time>2020-09-27T13:47:23Z</time>
      </trkpt>
      <trkpt lat="42.64043" lon="1.69648">
        <ele>1800.69</ele>
        <time>2020-09-27T13:47:33Z</time>
      </trkpt>
      <trkpt lat="42.64047" lon="1.69657">
        <ele>1799.73</ele>
        <time>2020-09-27T13:47:44Z</time>
      </trkpt>
      <trkpt lat="42.6405" lon="1.69666">
        <ele>1798.76</ele>
        <time>2020-09-27T13:47:54Z</time>
      </trkpt>
      <trkpt lat="42.64051" lon="1.69673">
        <ele>1797.32</ele>
        <time>2020-09-27T13:48:04Z</time>
      </trkpt>
      <trkpt lat="42.64053" lon="1.69683">
        <ele>1795.88</ele>
        <time>2020-09-27T13:48:15Z</time>
      </trkpt>
      <trkpt lat="42.64058" lon="1.69689">
        <ele>1794.44</ele>
        <time>2020-09-27T13:48:24Z</time>
      </trkpt>
      <trkpt lat="42.6406" lon="1.69693">
        <ele>1793</ele>
        <time>2020-09-27T13:48:33Z</time>
      </trkpt>
      <trkpt lat="42.64062" lon="1.69701">
        <ele>1791.55</ele>
        <time>2020-09-27T13:48:43Z</time>
      </trkpt>
      <trkpt lat="42.64066" lon="1.69713">
        <ele>1789.15</ele>
        <time>2020-09-27T13:48:56Z</time>
      </trkpt>
      <trkpt lat="42.64071" lon="1.69718">
        <ele>1787.23</ele>
        <time>2020-09-27T13:49:07Z</time>
      </trkpt>
      <trkpt lat="42.64074" lon="1.69724">
        <ele>1785.31</ele>
        <time>2020-09-27T13:49:18Z</time>
      </trkpt>
      <trkpt lat="42.64079" lon="1.69731">
        <ele>1783.86</ele>
        <time>2020-09-27T13:49:29Z</time>
      </trkpt>
      <trkpt lat="42.64084" lon="1.69738">
        <ele>1781.46</ele>
        <time>2020-09-27T13:49:41Z</time>
      </trkpt>
      <trkpt lat="42.64087" lon="1.69749">
        <ele>1779.06</ele>
        <time>2020-09-27T13:49:53Z</time>
      </trkpt>
      <trkpt lat="42.6409" lon="1.69757">
        <ele>1776.17</ele>
        <time>2020-09-27T13:50:05Z</time>
      </trkpt>
      <trkpt lat="42.64094" lon="1.69768">
        <ele>1774.73</ele>
        <time>2020-09-27T13:50:16Z</time>
      </trkpt>
      <trkpt lat="42.64096" lon="1.69777">
        <ele>1773.29</ele>
        <time>2020-09-27T13:50:26Z</time>
      </trkpt>
      <trkpt lat="42.64104" lon="1.69783">
        <ele>1772.33</ele>
        <time>2020-09-27T13:50:37Z</time>
      </trkpt>
      <trkpt lat="42.64111" lon="1.6979">
        <ele>1770.41</ele>
        <time>2020-09-27T13:50:49Z</time>
      </trkpt>
      <trkpt lat="42.64119" lon="1.69795">
        <ele>1768.96</ele>
        <time>2020-09-27T13:51:00Z</time>
      </trkpt>
      <trkpt lat="42.64124" lon="1.69802">
        <ele>1767.52</ele>
        <time>2020-09-27T13:51:11Z</time>
      </trkpt>
      <trkpt lat="42.64133" lon="1.69807">
        <ele>1766.08</ele>
        <time>2020-09-27T13:51:24Z</time>
      </trkpt>
      <trkpt lat="42.64137" lon="1.69812">
        <ele>1763.68</ele>
        <time>2020-09-27T13:51:34Z</time>
      </trkpt>
      <trkpt lat="42.64141" lon="1.69815">
        <ele>1762.23</ele>
        <time>2020-09-27T13:51:46Z</time>
      </trkpt>
      <trkpt lat="42.64141" lon="1.69815">
        <ele>1762.23</ele>
        <time>2020-09-27T13:52:03Z</time>
      </trkpt>
      <trkpt lat="42.64149" lon="1.69822">
        <ele>1762.23</ele>
        <time>2020-09-27T13:52:15Z</time>
      </trkpt>
      <trkpt lat="42.64153" lon="1.69825">
        <ele>1762.23</ele>
        <time>2020-09-27T13:52:25Z</time>
      </trkpt>
      <trkpt lat="42.64158" lon="1.69833">
        <ele>1761.27</ele>
        <time>2020-09-27T13:52:37Z</time>
      </trkpt>
      <trkpt lat="42.6416" lon="1.69836">
        <ele>1760.31</ele>
        <time>2020-09-27T13:52:47Z</time>
      </trkpt>
      <trkpt lat="42.64166" lon="1.69843">
        <ele>1758.87</ele>
        <time>2020-09-27T13:52:58Z</time>
      </trkpt>
      <trkpt lat="42.64167" lon="1.69844">
        <ele>1758.87</ele>
        <time>2020-09-27T13:52:59Z</time>
      </trkpt>
      <trkpt lat="42.64175" lon="1.69848">
        <ele>1756.95</ele>
        <time>2020-09-27T13:53:11Z</time>
      </trkpt>
      <trkpt lat="42.64179" lon="1.69852">
        <ele>1755.02</ele>
        <time>2020-09-27T13:53:21Z</time>
      </trkpt>
      <trkpt lat="42.64186" lon="1.69856">
        <ele>1754.06</ele>
        <time>2020-09-27T13:53:32Z</time>
      </trkpt>
      <trkpt lat="42.64189" lon="1.6986">
        <ele>1753.1</ele>
        <time>2020-09-27T13:53:42Z</time>
      </trkpt>
      <trkpt lat="42.6419" lon="1.69865">
        <ele>1751.18</ele>
        <time>2020-09-27T13:53:53Z</time>
      </trkpt>
      <trkpt lat="42.64197" lon="1.69873">
        <ele>1750.22</ele>
        <time>2020-09-27T13:54:04Z</time>
      </trkpt>
      <trkpt lat="42.64204" lon="1.69879">
        <ele>1748.78</ele>
        <time>2020-09-27T13:54:15Z</time>
      </trkpt>
      <trkpt lat="42.6421" lon="1.69887">
        <ele>1748.78</ele>
        <time>2020-09-27T13:54:27Z</time>
      </trkpt>
      <trkpt lat="42.64222" lon="1.69893">
        <ele>1745.89</ele>
        <time>2020-09-27T13:54:41Z</time>
      </trkpt>
      <trkpt lat="42.64229" lon="1.69897">
        <ele>1744.45</ele>
        <time>2020-09-27T13:54:52Z</time>
      </trkpt>
      <trkpt lat="42.64231" lon="1.699">
        <ele>1743.97</ele>
        <time>2020-09-27T13:55:05Z</time>
      </trkpt>
      <trkpt lat="42.64234" lon="1.69906">
        <ele>1740.6</ele>
        <time>2020-09-27T13:55:16Z</time>
      </trkpt>
      <trkpt lat="42.64245" lon="1.69911">
        <ele>1738.68</ele>
        <time>2020-09-27T13:55:30Z</time>
      </trkpt>
      <trkpt lat="42.64253" lon="1.69917">
        <ele>1735.8</ele>
        <time>2020-09-27T13:55:42Z</time>
      </trkpt>
      <trkpt lat="42.64259" lon="1.69919">
        <ele>1733.88</ele>
        <time>2020-09-27T13:55:52Z</time>
      </trkpt>
      <trkpt lat="42.64266" lon="1.69923">
        <ele>1733.39</ele>
        <time>2020-09-27T13:56:02Z</time>
      </trkpt>
      <trkpt lat="42.64272" lon="1.69926">
        <ele>1730.99</ele>
        <time>2020-09-27T13:56:13Z</time>
      </trkpt>
      <trkpt lat="42.64274" lon="1.69928">
        <ele>1730.99</ele>
        <time>2020-09-27T13:56:16Z</time>
      </trkpt>
      <trkpt lat="42.64281" lon="1.6993">
        <ele>1730.51</ele>
        <time>2020-09-27T13:56:26Z</time>
      </trkpt>
      <trkpt lat="42.64283" lon="1.6993">
        <ele>1730.51</ele>
        <time>2020-09-27T13:56:29Z</time>
      </trkpt>
      <trkpt lat="42.64291" lon="1.69933">
        <ele>1730.51</ele>
        <time>2020-09-27T13:56:41Z</time>
      </trkpt>
      <trkpt lat="42.64291" lon="1.69934">
        <ele>1730.51</ele>
        <time>2020-09-27T13:56:42Z</time>
      </trkpt>
      <trkpt lat="42.64293" lon="1.69938">
        <ele>1731.47</ele>
        <time>2020-09-27T13:56:46Z</time>
      </trkpt>
      <trkpt lat="42.64298" lon="1.69942">
        <ele>1731.47</ele>
        <time>2020-09-27T13:56:55Z</time>
      </trkpt>
      <trkpt lat="42.64305" lon="1.69945">
        <ele>1731.47</ele>
        <time>2020-09-27T13:57:05Z</time>
      </trkpt>
      <trkpt lat="42.64314" lon="1.6995">
        <ele>1732.91</ele>
        <time>2020-09-27T13:57:16Z</time>
      </trkpt>
      <trkpt lat="42.64316" lon="1.69951">
        <ele>1732.91</ele>
        <time>2020-09-27T13:57:19Z</time>
      </trkpt>
      <trkpt lat="42.64323" lon="1.69958">
        <ele>1732.43</ele>
        <time>2020-09-27T13:57:31Z</time>
      </trkpt>
      <trkpt lat="42.64325" lon="1.69958">
        <ele>1731.47</ele>
        <time>2020-09-27T13:57:34Z</time>
      </trkpt>
      <trkpt lat="42.64331" lon="1.69959">
        <ele>1731.47</ele>
        <time>2020-09-27T13:57:44Z</time>
      </trkpt>
      <trkpt lat="42.6434" lon="1.69967">
        <ele>1731.47</ele>
        <time>2020-09-27T13:57:57Z</time>
      </trkpt>
      <trkpt lat="42.64347" lon="1.69969">
        <ele>1730.51</ele>
        <time>2020-09-27T13:58:09Z</time>
      </trkpt>
      <trkpt lat="42.64346" lon="1.69967">
        <ele>1730.03</ele>
        <time>2020-09-27T13:58:29Z</time>
      </trkpt>
      <trkpt lat="42.64354" lon="1.69971">
        <ele>1729.55</ele>
        <time>2020-09-27T13:58:41Z</time>
      </trkpt>
      <trkpt lat="42.64364" lon="1.69973">
        <ele>1729.07</ele>
        <time>2020-09-27T13:58:53Z</time>
      </trkpt>
      <trkpt lat="42.64366" lon="1.69973">
        <ele>1727.63</ele>
        <time>2020-09-27T13:59:03Z</time>
      </trkpt>
      <trkpt lat="42.64372" lon="1.69974">
        <ele>1727.15</ele>
        <time>2020-09-27T13:59:15Z</time>
      </trkpt>
      <trkpt lat="42.64379" lon="1.69977">
        <ele>1726.18</ele>
        <time>2020-09-27T13:59:25Z</time>
      </trkpt>
      <trkpt lat="42.64386" lon="1.69978">
        <ele>1725.7</ele>
        <time>2020-09-27T13:59:36Z</time>
      </trkpt>
      <trkpt lat="42.64391" lon="1.69981">
        <ele>1725.7</ele>
        <time>2020-09-27T13:59:45Z</time>
      </trkpt>
      <trkpt lat="42.64395" lon="1.69986">
        <ele>1723.78</ele>
        <time>2020-09-27T13:59:53Z</time>
      </trkpt>
      <trkpt lat="42.64404" lon="1.69996">
        <ele>1720.9</ele>
        <time>2020-09-27T14:00:07Z</time>
      </trkpt>
      <trkpt lat="42.64412" lon="1.70001">
        <ele>1718.97</ele>
        <time>2020-09-27T14:00:19Z</time>
      </trkpt>
      <trkpt lat="42.64419" lon="1.70007">
        <ele>1716.57</ele>
        <time>2020-09-27T14:00:30Z</time>
      </trkpt>
      <trkpt lat="42.64432" lon="1.70014">
        <ele>1715.13</ele>
        <time>2020-09-27T14:00:44Z</time>
      </trkpt>
      <trkpt lat="42.64435" lon="1.70016">
        <ele>1715.13</ele>
        <time>2020-09-27T14:00:47Z</time>
      </trkpt>
      <trkpt lat="42.64439" lon="1.70016">
        <ele>1715.13</ele>
        <time>2020-09-27T14:00:51Z</time>
      </trkpt>
      <trkpt lat="42.64453" lon="1.70027">
        <ele>1713.21</ele>
        <time>2020-09-27T14:01:05Z</time>
      </trkpt>
      <trkpt lat="42.64454" lon="1.70026">
        <ele>1712.73</ele>
        <time>2020-09-27T14:01:16Z</time>
      </trkpt>
      <trkpt lat="42.64461" lon="1.70021">
        <ele>1712.73</ele>
        <time>2020-09-27T14:01:27Z</time>
      </trkpt>
      <trkpt lat="42.64468" lon="1.70018">
        <ele>1713.69</ele>
        <time>2020-09-27T14:01:38Z</time>
      </trkpt>
      <trkpt lat="42.64472" lon="1.70018">
        <ele>1714.17</ele>
        <time>2020-09-27T14:01:49Z</time>
      </trkpt>
      <trkpt lat="42.64474" lon="1.7002">
        <ele>1714.17</ele>
        <time>2020-09-27T14:02:00Z</time>
      </trkpt>
      <trkpt lat="42.64479" lon="1.70025">
        <ele>1714.17</ele>
        <time>2020-09-27T14:02:10Z</time>
      </trkpt>
      <trkpt lat="42.64479" lon="1.70026">
        <ele>1712.73</ele>
        <time>2020-09-27T14:02:12Z</time>
      </trkpt>
      <trkpt lat="42.64483" lon="1.70029">
        <ele>1711.76</ele>
        <time>2020-09-27T14:02:20Z</time>
      </trkpt>
      <trkpt lat="42.64491" lon="1.70031">
        <ele>1711.28</ele>
        <time>2020-09-27T14:02:31Z</time>
      </trkpt>
      <trkpt lat="42.64492" lon="1.70032">
        <ele>1711.28</ele>
        <time>2020-09-27T14:02:33Z</time>
      </trkpt>
      <trkpt lat="42.645" lon="1.70033">
        <ele>1710.8</ele>
        <time>2020-09-27T14:02:41Z</time>
      </trkpt>
      <trkpt lat="42.64509" lon="1.70038">
        <ele>1709.84</ele>
        <time>2020-09-27T14:02:52Z</time>
      </trkpt>
      <trkpt lat="42.6451" lon="1.70038">
        <ele>1709.84</ele>
        <time>2020-09-27T14:02:54Z</time>
      </trkpt>
      <trkpt lat="42.6452" lon="1.70038">
        <ele>1709.36</ele>
        <time>2020-09-27T14:03:06Z</time>
      </trkpt>
      <trkpt lat="42.64523" lon="1.70039">
        <ele>1709.36</ele>
        <time>2020-09-27T14:03:16Z</time>
      </trkpt>
      <trkpt lat="42.64527" lon="1.70046">
        <ele>1707.92</ele>
        <time>2020-09-27T14:03:26Z</time>
      </trkpt>
      <trkpt lat="42.64534" lon="1.7005">
        <ele>1706.96</ele>
        <time>2020-09-27T14:03:37Z</time>
      </trkpt>
      <trkpt lat="42.64537" lon="1.7005">
        <ele>1706.48</ele>
        <time>2020-09-27T14:03:47Z</time>
      </trkpt>
      <trkpt lat="42.64537" lon="1.70049">
        <ele>1706.48</ele>
        <time>2020-09-27T14:04:02Z</time>
      </trkpt>
      <trkpt lat="42.64538" lon="1.70049">
        <ele>1705.52</ele>
        <time>2020-09-27T14:04:17Z</time>
      </trkpt>
      <trkpt lat="42.64539" lon="1.70052">
        <ele>1706.96</ele>
        <time>2020-09-27T14:04:34Z</time>
      </trkpt>
      <trkpt lat="42.64548" lon="1.70056">
        <ele>1706.96</ele>
        <time>2020-09-27T14:04:46Z</time>
      </trkpt>
      <trkpt lat="42.64551" lon="1.70057">
        <ele>1705.52</ele>
        <time>2020-09-27T14:04:49Z</time>
      </trkpt>
      <trkpt lat="42.6456" lon="1.70057">
        <ele>1705.04</ele>
        <time>2020-09-27T14:05:00Z</time>
      </trkpt>
      <trkpt lat="42.64575" lon="1.70051">
        <ele>1703.59</ele>
        <time>2020-09-27T14:05:14Z</time>
      </trkpt>
      <trkpt lat="42.64583" lon="1.70051">
        <ele>1703.59</ele>
        <time>2020-09-27T14:05:22Z</time>
      </trkpt>
      <trkpt lat="42.64588" lon="1.70055">
        <ele>1703.11</ele>
        <time>2020-09-27T14:05:32Z</time>
      </trkpt>
      <trkpt lat="42.64594" lon="1.70052">
        <ele>1704.07</ele>
        <time>2020-09-27T14:05:41Z</time>
      </trkpt>
      <trkpt lat="42.64597" lon="1.7005">
        <ele>1704.07</ele>
        <time>2020-09-27T14:05:53Z</time>
      </trkpt>
      <trkpt lat="42.64599" lon="1.70051">
        <ele>1704.55</ele>
        <time>2020-09-27T14:06:06Z</time>
      </trkpt>
      <trkpt lat="42.64606" lon="1.70049">
        <ele>1703.11</ele>
        <time>2020-09-27T14:06:15Z</time>
      </trkpt>
      <trkpt lat="42.6461" lon="1.70043">
        <ele>1704.07</ele>
        <time>2020-09-27T14:06:24Z</time>
      </trkpt>
      <trkpt lat="42.64615" lon="1.70039">
        <ele>1704.55</ele>
        <time>2020-09-27T14:06:34Z</time>
      </trkpt>
      <trkpt lat="42.6462" lon="1.70035">
        <ele>1703.11</ele>
        <time>2020-09-27T14:06:44Z</time>
      </trkpt>
      <trkpt lat="42.64624" lon="1.70036">
        <ele>1703.11</ele>
        <time>2020-09-27T14:06:54Z</time>
      </trkpt>
      <trkpt lat="42.64629" lon="1.70033">
        <ele>1702.63</ele>
        <time>2020-09-27T14:07:03Z</time>
      </trkpt>
      <trkpt lat="42.64631" lon="1.70033">
        <ele>1702.63</ele>
        <time>2020-09-27T14:07:08Z</time>
      </trkpt>
      <trkpt lat="42.64637" lon="1.70032">
        <ele>1702.15</ele>
        <time>2020-09-27T14:07:18Z</time>
      </trkpt>
      <trkpt lat="42.64642" lon="1.70032">
        <ele>1702.15</ele>
        <time>2020-09-27T14:07:30Z</time>
      </trkpt>
      <trkpt lat="42.64646" lon="1.7003">
        <ele>1702.15</ele>
        <time>2020-09-27T14:07:43Z</time>
      </trkpt>
      <trkpt lat="42.6465" lon="1.7003">
        <ele>1702.15</ele>
        <time>2020-09-27T14:07:57Z</time>
      </trkpt>
      <trkpt lat="42.6465" lon="1.70028">
        <ele>1701.67</ele>
        <time>2020-09-27T14:08:07Z</time>
      </trkpt>
      <trkpt lat="42.6465" lon="1.7003">
        <ele>1701.67</ele>
        <time>2020-09-27T14:08:18Z</time>
      </trkpt>
      <trkpt lat="42.64651" lon="1.70032">
        <ele>1701.67</ele>
        <time>2020-09-27T14:08:27Z</time>
      </trkpt>
      <trkpt lat="42.64655" lon="1.70038">
        <ele>1701.67</ele>
        <time>2020-09-27T14:08:36Z</time>
      </trkpt>
      <trkpt lat="42.64665" lon="1.70047">
        <ele>1701.67</ele>
        <time>2020-09-27T14:08:50Z</time>
      </trkpt>
      <trkpt lat="42.64674" lon="1.70048">
        <ele>1700.71</ele>
        <time>2020-09-27T14:09:02Z</time>
      </trkpt>
      <trkpt lat="42.64686" lon="1.70049">
        <ele>1700.71</ele>
        <time>2020-09-27T14:09:15Z</time>
      </trkpt>
      <trkpt lat="42.64693" lon="1.70052">
        <ele>1702.15</ele>
        <time>2020-09-27T14:09:24Z</time>
      </trkpt>
      <trkpt lat="42.64694" lon="1.70052">
        <ele>1700.71</ele>
        <time>2020-09-27T14:09:25Z</time>
      </trkpt>
      <trkpt lat="42.64695" lon="1.70052">
        <ele>1700.23</ele>
        <time>2020-09-27T14:09:27Z</time>
      </trkpt>
      <trkpt lat="42.64698" lon="1.70051">
        <ele>1699.75</ele>
        <time>2020-09-27T14:09:29Z</time>
      </trkpt>
      <trkpt lat="42.64709" lon="1.70054">
        <ele>1701.19</ele>
        <time>2020-09-27T14:09:42Z</time>
      </trkpt>
      <trkpt lat="42.64717" lon="1.70054">
        <ele>1700.23</ele>
        <time>2020-09-27T14:09:53Z</time>
      </trkpt>
      <trkpt lat="42.6472" lon="1.70053">
        <ele>1700.23</ele>
        <time>2020-09-27T14:09:56Z</time>
      </trkpt>
      <trkpt lat="42.64725" lon="1.70052">
        <ele>1700.23</ele>
        <time>2020-09-27T14:10:03Z</time>
      </trkpt>
      <trkpt lat="42.64731" lon="1.70056">
        <ele>1702.15</ele>
        <time>2020-09-27T14:10:09Z</time>
      </trkpt>
      <trkpt lat="42.64738" lon="1.7006">
        <ele>1702.15</ele>
        <time>2020-09-27T14:10:19Z</time>
      </trkpt>
      <trkpt lat="42.64751" lon="1.70065">
        <ele>1700.23</ele>
        <time>2020-09-27T14:10:33Z</time>
      </trkpt>
      <trkpt lat="42.64758" lon="1.70067">
        <ele>1699.75</ele>
        <time>2020-09-27T14:10:44Z</time>
      </trkpt>
      <trkpt lat="42.64764" lon="1.70065">
        <ele>1699.75</ele>
        <time>2020-09-27T14:10:55Z</time>
      </trkpt>
      <trkpt lat="42.64767" lon="1.70066">
        <ele>1699.75</ele>
        <time>2020-09-27T14:11:06Z</time>
      </trkpt>
      <trkpt lat="42.64772" lon="1.70064">
        <ele>1698.79</ele>
        <time>2020-09-27T14:11:16Z</time>
      </trkpt>
      <trkpt lat="42.64776" lon="1.70063">
        <ele>1698.79</ele>
        <time>2020-09-27T14:11:26Z</time>
      </trkpt>
      <trkpt lat="42.64783" lon="1.70066">
        <ele>1699.75</ele>
        <time>2020-09-27T14:11:37Z</time>
      </trkpt>
      <trkpt lat="42.64788" lon="1.70065">
        <ele>1699.75</ele>
        <time>2020-09-27T14:11:47Z</time>
      </trkpt>
      <trkpt lat="42.64791" lon="1.70064">
        <ele>1697.83</ele>
        <time>2020-09-27T14:11:55Z</time>
      </trkpt>
      <trkpt lat="42.64793" lon="1.70067">
        <ele>1697.34</ele>
        <time>2020-09-27T14:12:10Z</time>
      </trkpt>
      <trkpt lat="42.64799" lon="1.7007">
        <ele>1697.34</ele>
        <time>2020-09-27T14:12:21Z</time>
      </trkpt>
      <trkpt lat="42.64803" lon="1.7007">
        <ele>1698.79</ele>
        <time>2020-09-27T14:12:31Z</time>
      </trkpt>
      <trkpt lat="42.64809" lon="1.70069">
        <ele>1697.83</ele>
        <time>2020-09-27T14:12:42Z</time>
      </trkpt>
      <trkpt lat="42.64813" lon="1.70071">
        <ele>1697.83</ele>
        <time>2020-09-27T14:12:47Z</time>
      </trkpt>
      <trkpt lat="42.64816" lon="1.70072">
        <ele>1697.83</ele>
        <time>2020-09-27T14:12:53Z</time>
      </trkpt>
      <trkpt lat="42.6482" lon="1.70074">
        <ele>1699.27</ele>
        <time>2020-09-27T14:13:03Z</time>
      </trkpt>
      <trkpt lat="42.64823" lon="1.70078">
        <ele>1699.27</ele>
        <time>2020-09-27T14:13:11Z</time>
      </trkpt>
      <trkpt lat="42.64826" lon="1.70081">
        <ele>1698.31</ele>
        <time>2020-09-27T14:13:21Z</time>
      </trkpt>
      <trkpt lat="42.64829" lon="1.70083">
        <ele>1697.83</ele>
        <time>2020-09-27T14:13:31Z</time>
      </trkpt>
      <trkpt lat="42.64833" lon="1.70088">
        <ele>1697.83</ele>
        <time>2020-09-27T14:13:42Z</time>
      </trkpt>
      <trkpt lat="42.64835" lon="1.70089">
        <ele>1699.27</ele>
        <time>2020-09-27T14:13:47Z</time>
      </trkpt>
      <trkpt lat="42.64837" lon="1.70088">
        <ele>1699.27</ele>
        <time>2020-09-27T14:13:57Z</time>
      </trkpt>
      <trkpt lat="42.64842" lon="1.70092">
        <ele>1699.27</ele>
        <time>2020-09-27T14:14:07Z</time>
      </trkpt>
      <trkpt lat="42.64842" lon="1.70092">
        <ele>1699.27</ele>
        <time>2020-09-27T14:14:08Z</time>
      </trkpt>
      <trkpt lat="42.64844" lon="1.70099">
        <ele>1699.27</ele>
        <time>2020-09-27T14:14:17Z</time>
      </trkpt>
      <trkpt lat="42.64847" lon="1.70108">
        <ele>1699.27</ele>
        <time>2020-09-27T14:14:26Z</time>
      </trkpt>
      <trkpt lat="42.64848" lon="1.7011">
        <ele>1697.83</ele>
        <time>2020-09-27T14:14:28Z</time>
      </trkpt>
      <trkpt lat="42.64851" lon="1.70113">
        <ele>1696.86</ele>
        <time>2020-09-27T14:14:35Z</time>
      </trkpt>
      <trkpt lat="42.64852" lon="1.70115">
        <ele>1697.83</ele>
        <time>2020-09-27T14:14:40Z</time>
      </trkpt>
      <trkpt lat="42.64852" lon="1.70118">
        <ele>1697.83</ele>
        <time>2020-09-27T14:14:42Z</time>
      </trkpt>
      <trkpt lat="42.64855" lon="1.70126">
        <ele>1696.38</ele>
        <time>2020-09-27T14:14:48Z</time>
      </trkpt>
      <trkpt lat="42.64857" lon="1.70145">
        <ele>1695.9</ele>
        <time>2020-09-27T14:15:03Z</time>
      </trkpt>
      <trkpt lat="42.64862" lon="1.70158">
        <ele>1695.9</ele>
        <time>2020-09-27T14:15:15Z</time>
      </trkpt>
      <trkpt lat="42.64863" lon="1.70159">
        <ele>1695.9</ele>
        <time>2020-09-27T14:15:16Z</time>
      </trkpt>
      <trkpt lat="42.64869" lon="1.70182">
        <ele>1694.94</ele>
        <time>2020-09-27T14:15:33Z</time>
      </trkpt>
      <trkpt lat="42.64876" lon="1.70199">
        <ele>1695.42</ele>
        <time>2020-09-27T14:15:48Z</time>
      </trkpt>
      <trkpt lat="42.64879" lon="1.702">
        <ele>1695.42</ele>
        <time>2020-09-27T14:15:51Z</time>
      </trkpt>
      <trkpt lat="42.64885" lon="1.70207">
        <ele>1693.98</ele>
        <time>2020-09-27T14:16:04Z</time>
      </trkpt>
      <trkpt lat="42.64891" lon="1.70221">
        <ele>1693.98</ele>
        <time>2020-09-27T14:16:18Z</time>
      </trkpt>
      <trkpt lat="42.64904" lon="1.70239">
        <ele>1693.5</ele>
        <time>2020-09-27T14:16:36Z</time>
      </trkpt>
      <trkpt lat="42.64907" lon="1.70248">
        <ele>1693.5</ele>
        <time>2020-09-27T14:16:46Z</time>
      </trkpt>
      <trkpt lat="42.64918" lon="1.70262">
        <ele>1693.5</ele>
        <time>2020-09-27T14:17:01Z</time>
      </trkpt>
      <trkpt lat="42.64927" lon="1.70276">
        <ele>1692.06</ele>
        <time>2020-09-27T14:17:15Z</time>
      </trkpt>
      <trkpt lat="42.64934" lon="1.70286">
        <ele>1691.1</ele>
        <time>2020-09-27T14:17:27Z</time>
      </trkpt>
      <trkpt lat="42.64935" lon="1.70286">
        <ele>1691.1</ele>
        <time>2020-09-27T14:17:29Z</time>
      </trkpt>
      <trkpt lat="42.64938" lon="1.70287">
        <ele>1691.1</ele>
        <time>2020-09-27T14:17:38Z</time>
      </trkpt>
      <trkpt lat="42.64939" lon="1.70286">
        <ele>1690.62</ele>
        <time>2020-09-27T14:17:43Z</time>
      </trkpt>
      <trkpt lat="42.6494" lon="1.70285">
        <ele>1690.14</ele>
        <time>2020-09-27T14:17:45Z</time>
      </trkpt>
      <trkpt lat="42.64948" lon="1.70293">
        <ele>1691.1</ele>
        <time>2020-09-27T14:17:58Z</time>
      </trkpt>
      <trkpt lat="42.64947" lon="1.70292">
        <ele>1691.1</ele>
        <time>2020-09-27T14:18:13Z</time>
      </trkpt>
      <trkpt lat="42.64947" lon="1.70293">
        <ele>1691.1</ele>
        <time>2020-09-27T14:18:34Z</time>
      </trkpt>
      <trkpt lat="42.64948" lon="1.70292">
        <ele>1690.62</ele>
        <time>2020-09-27T14:18:55Z</time>
      </trkpt>
      <trkpt lat="42.64947" lon="1.70292">
        <ele>1690.62</ele>
        <time>2020-09-27T14:19:13Z</time>
      </trkpt>
      <trkpt lat="42.64953" lon="1.70296">
        <ele>1690.62</ele>
        <time>2020-09-27T14:19:22Z</time>
      </trkpt>
      <trkpt lat="42.64956" lon="1.70304">
        <ele>1690.14</ele>
        <time>2020-09-27T14:19:33Z</time>
      </trkpt>
      <trkpt lat="42.64954" lon="1.70309">
        <ele>1692.06</ele>
        <time>2020-09-27T14:19:44Z</time>
      </trkpt>
      <trkpt lat="42.64952" lon="1.70318">
        <ele>1692.06</ele>
        <time>2020-09-27T14:19:55Z</time>
      </trkpt>
      <trkpt lat="42.64948" lon="1.70323">
        <ele>1692.06</ele>
        <time>2020-09-27T14:20:07Z</time>
      </trkpt>
      <trkpt lat="42.64947" lon="1.70323">
        <ele>1692.06</ele>
        <time>2020-09-27T14:20:21Z</time>
      </trkpt>
      <trkpt lat="42.64947" lon="1.7033">
        <ele>1692.06</ele>
        <time>2020-09-27T14:20:30Z</time>
      </trkpt>
      <trkpt lat="42.64945" lon="1.70339">
        <ele>1693.5</ele>
        <time>2020-09-27T14:20:42Z</time>
      </trkpt>
      <trkpt lat="42.64946" lon="1.70342">
        <ele>1694.46</ele>
        <time>2020-09-27T14:20:54Z</time>
      </trkpt>
      <trkpt lat="42.64948" lon="1.70341">
        <ele>1694.94</ele>
        <time>2020-09-27T14:21:08Z</time>
      </trkpt>
      <trkpt lat="42.64946" lon="1.70342">
        <ele>1694.94</ele>
        <time>2020-09-27T14:21:21Z</time>
      </trkpt>
      <trkpt lat="42.64946" lon="1.70341">
        <ele>1693.98</ele>
        <time>2020-09-27T14:21:34Z</time>
      </trkpt>
      <trkpt lat="42.64945" lon="1.7034">
        <ele>1693.98</ele>
        <time>2020-09-27T14:21:49Z</time>
      </trkpt>
      <trkpt lat="42.64947" lon="1.70338">
        <ele>1693.5</ele>
        <time>2020-09-27T14:22:09Z</time>
      </trkpt>
      <trkpt lat="42.64946" lon="1.70339">
        <ele>1693.5</ele>
        <time>2020-09-27T14:22:22Z</time>
      </trkpt>
      <trkpt lat="42.64948" lon="1.70348">
        <ele>1693.02</ele>
        <time>2020-09-27T14:22:37Z</time>
      </trkpt>
      <trkpt lat="42.64953" lon="1.70356">
        <ele>1693.02</ele>
        <time>2020-09-27T14:22:51Z</time>
      </trkpt>
      <trkpt lat="42.64953" lon="1.70359">
        <ele>1693.02</ele>
        <time>2020-09-27T14:23:06Z</time>
      </trkpt>
      <trkpt lat="42.64953" lon="1.70358">
        <ele>1693.5</ele>
        <time>2020-09-27T14:23:25Z</time>
      </trkpt>
      <trkpt lat="42.64953" lon="1.70358">
        <ele>1693.5</ele>
        <time>2020-09-27T14:23:40Z</time>
      </trkpt>
      <trkpt lat="42.64953" lon="1.70355">
        <ele>1693.5</ele>
        <time>2020-09-27T14:23:56Z</time>
      </trkpt>
      <trkpt lat="42.64956" lon="1.70357">
        <ele>1693.5</ele>
        <time>2020-09-27T14:24:02Z</time>
      </trkpt>
      <trkpt lat="42.64969" lon="1.70356">
        <ele>1693.5</ele>
        <time>2020-09-27T14:24:16Z</time>
      </trkpt>
      <trkpt lat="42.64981" lon="1.70357">
        <ele>1693.02</ele>
        <time>2020-09-27T14:24:30Z</time>
      </trkpt>
      <trkpt lat="42.64994" lon="1.7036">
        <ele>1692.54</ele>
        <time>2020-09-27T14:24:43Z</time>
      </trkpt>
      <trkpt lat="42.65005" lon="1.70358">
        <ele>1692.54</ele>
        <time>2020-09-27T14:24:56Z</time>
      </trkpt>
      <trkpt lat="42.65015" lon="1.70356">
        <ele>1692.54</ele>
        <time>2020-09-27T14:25:08Z</time>
      </trkpt>
      <trkpt lat="42.65025" lon="1.70357">
        <ele>1692.54</ele>
        <time>2020-09-27T14:25:20Z</time>
      </trkpt>
      <trkpt lat="42.65035" lon="1.70356">
        <ele>1692.54</ele>
        <time>2020-09-27T14:25:33Z</time>
      </trkpt>
      <trkpt lat="42.65037" lon="1.70354">
        <ele>1692.54</ele>
        <time>2020-09-27T14:25:42Z</time>
      </trkpt>
      <trkpt lat="42.65036" lon="1.70356">
        <ele>1692.54</ele>
        <time>2020-09-27T14:25:59Z</time>
      </trkpt>
      <trkpt lat="42.65039" lon="1.7036">
        <ele>1692.54</ele>
        <time>2020-09-27T14:26:13Z</time>
      </trkpt>
      <trkpt lat="42.6504" lon="1.7036">
        <ele>1692.54</ele>
        <time>2020-09-27T14:26:15Z</time>
      </trkpt>
      <trkpt lat="42.65055" lon="1.70356">
        <ele>1692.54</ele>
        <time>2020-09-27T14:26:29Z</time>
      </trkpt>
      <trkpt lat="42.65072" lon="1.70354">
        <ele>1692.54</ele>
        <time>2020-09-27T14:26:45Z</time>
      </trkpt>
      <trkpt lat="42.65082" lon="1.70357">
        <ele>1693.98</ele>
        <time>2020-09-27T14:26:54Z</time>
      </trkpt>
      <trkpt lat="42.65099" lon="1.70356">
        <ele>1692.06</ele>
        <time>2020-09-27T14:27:09Z</time>
      </trkpt>
      <trkpt lat="42.65111" lon="1.70354">
        <ele>1691.1</ele>
        <time>2020-09-27T14:27:24Z</time>
      </trkpt>
      <trkpt lat="42.65112" lon="1.70354">
        <ele>1691.1</ele>
        <time>2020-09-27T14:27:34Z</time>
      </trkpt>
      <trkpt lat="42.6511" lon="1.70353">
        <ele>1691.1</ele>
        <time>2020-09-27T14:27:44Z</time>
      </trkpt>
      <trkpt lat="42.65112" lon="1.70353">
        <ele>1691.1</ele>
        <time>2020-09-27T14:28:04Z</time>
      </trkpt>
      <trkpt lat="42.65111" lon="1.7035">
        <ele>1691.1</ele>
        <time>2020-09-27T14:28:18Z</time>
      </trkpt>
      <trkpt lat="42.65111" lon="1.70351">
        <ele>1691.1</ele>
        <time>2020-09-27T14:28:41Z</time>
      </trkpt>
      <trkpt lat="42.65111" lon="1.70351">
        <ele>1691.1</ele>
        <time>2020-09-27T14:29:06Z</time>
      </trkpt>
      <trkpt lat="42.65112" lon="1.70354">
        <ele>1691.1</ele>
        <time>2020-09-27T14:29:22Z</time>
      </trkpt>
      <trkpt lat="42.65119" lon="1.70353">
        <ele>1691.1</ele>
        <time>2020-09-27T14:29:37Z</time>
      </trkpt>
      <trkpt lat="42.65125" lon="1.70352">
        <ele>1691.1</ele>
        <time>2020-09-27T14:29:46Z</time>
      </trkpt>
      <trkpt lat="42.65124" lon="1.70348">
        <ele>1691.1</ele>
        <time>2020-09-27T14:29:58Z</time>
      </trkpt>
      <trkpt lat="42.65125" lon="1.70346">
        <ele>1691.1</ele>
        <time>2020-09-27T14:30:19Z</time>
      </trkpt>
      <trkpt lat="42.65126" lon="1.70349">
        <ele>1691.1</ele>
        <time>2020-09-27T14:30:42Z</time>
      </trkpt>
      <trkpt lat="42.65128" lon="1.70351">
        <ele>1689.65</ele>
        <time>2020-09-27T14:31:00Z</time>
      </trkpt>
      <trkpt lat="42.65127" lon="1.7035">
        <ele>1689.65</ele>
        <time>2020-09-27T14:31:17Z</time>
      </trkpt>
      <trkpt lat="42.65126" lon="1.7035">
        <ele>1691.1</ele>
        <time>2020-09-27T14:31:19Z</time>
      </trkpt>
      <trkpt lat="42.65127" lon="1.7035">
        <ele>1691.1</ele>
        <time>2020-09-27T14:31:39Z</time>
      </trkpt>
      <trkpt lat="42.65131" lon="1.70353">
        <ele>1691.1</ele>
        <time>2020-09-27T14:31:45Z</time>
      </trkpt>
      <trkpt lat="42.65139" lon="1.70358">
        <ele>1691.1</ele>
        <time>2020-09-27T14:31:56Z</time>
      </trkpt>
      <trkpt lat="42.65147" lon="1.70361">
        <ele>1690.14</ele>
        <time>2020-09-27T14:32:07Z</time>
      </trkpt>
      <trkpt lat="42.65159" lon="1.70373">
        <ele>1689.65</ele>
        <time>2020-09-27T14:32:21Z</time>
      </trkpt>
      <trkpt lat="42.65174" lon="1.70381">
        <ele>1689.17</ele>
        <time>2020-09-27T14:32:33Z</time>
      </trkpt>
      <trkpt lat="42.65193" lon="1.70395">
        <ele>1687.73</ele>
        <time>2020-09-27T14:32:47Z</time>
      </trkpt>
      <trkpt lat="42.6521" lon="1.70404">
        <ele>1686.77</ele>
        <time>2020-09-27T14:32:58Z</time>
      </trkpt>
      <trkpt lat="42.65228" lon="1.70414">
        <ele>1684.85</ele>
        <time>2020-09-27T14:33:10Z</time>
      </trkpt>
      <trkpt lat="42.65245" lon="1.70431">
        <ele>1681.96</ele>
        <time>2020-09-27T14:33:23Z</time>
      </trkpt>
      <trkpt lat="42.65257" lon="1.70449">
        <ele>1679.08</ele>
        <time>2020-09-27T14:33:33Z</time>
      </trkpt>
      <trkpt lat="42.6527" lon="1.70468">
        <ele>1676.2</ele>
        <time>2020-09-27T14:33:44Z</time>
      </trkpt>
      <trkpt lat="42.65286" lon="1.70487">
        <ele>1672.83</ele>
        <time>2020-09-27T14:33:56Z</time>
      </trkpt>
      <trkpt lat="42.65302" lon="1.70498">
        <ele>1670.91</ele>
        <time>2020-09-27T14:34:07Z</time>
      </trkpt>
      <trkpt lat="42.65311" lon="1.70508">
        <ele>1670.43</ele>
        <time>2020-09-27T14:34:14Z</time>
      </trkpt>
      <trkpt lat="42.6532" lon="1.7052">
        <ele>1668.02</ele>
        <time>2020-09-27T14:34:22Z</time>
      </trkpt>
      <trkpt lat="42.65325" lon="1.70525">
        <ele>1667.06</ele>
        <time>2020-09-27T14:34:26Z</time>
      </trkpt>
      <trkpt lat="42.65346" lon="1.70539">
        <ele>1663.7</ele>
        <time>2020-09-27T14:34:40Z</time>
      </trkpt>
      <trkpt lat="42.65365" lon="1.70544">
        <ele>1660.33</ele>
        <time>2020-09-27T14:34:52Z</time>
      </trkpt>
      <trkpt lat="42.65384" lon="1.70553">
        <ele>1657.93</ele>
        <time>2020-09-27T14:35:04Z</time>
      </trkpt>
      <trkpt lat="42.65399" lon="1.7057">
        <ele>1655.05</ele>
        <time>2020-09-27T14:35:16Z</time>
      </trkpt>
      <trkpt lat="42.65406" lon="1.70578">
        <ele>1653.12</ele>
        <time>2020-09-27T14:35:21Z</time>
      </trkpt>
      <trkpt lat="42.65419" lon="1.70597">
        <ele>1650.72</ele>
        <time>2020-09-27T14:35:32Z</time>
      </trkpt>
      <trkpt lat="42.65426" lon="1.70604">
        <ele>1649.76</ele>
        <time>2020-09-27T14:35:37Z</time>
      </trkpt>
      <trkpt lat="42.65436" lon="1.70615">
        <ele>1648.8</ele>
        <time>2020-09-27T14:35:44Z</time>
      </trkpt>
      <trkpt lat="42.65441" lon="1.70621">
        <ele>1648.32</ele>
        <time>2020-09-27T14:35:48Z</time>
      </trkpt>
      <trkpt lat="42.65458" lon="1.70638">
        <ele>1646.4</ele>
        <time>2020-09-27T14:36:00Z</time>
      </trkpt>
      <trkpt lat="42.65473" lon="1.70647">
        <ele>1646.4</ele>
        <time>2020-09-27T14:36:11Z</time>
      </trkpt>
      <trkpt lat="42.65495" lon="1.70644">
        <ele>1646.4</ele>
        <time>2020-09-27T14:36:26Z</time>
      </trkpt>
      <trkpt lat="42.65519" lon="1.70639">
        <ele>1645.91</ele>
        <time>2020-09-27T14:36:42Z</time>
      </trkpt>
      <trkpt lat="42.65541" lon="1.70642">
        <ele>1643.51</ele>
        <time>2020-09-27T14:36:56Z</time>
      </trkpt>
      <trkpt lat="42.65558" lon="1.70649">
        <ele>1641.11</ele>
        <time>2020-09-27T14:37:07Z</time>
      </trkpt>
      <trkpt lat="42.65579" lon="1.70653">
        <ele>1638.7</ele>
        <time>2020-09-27T14:37:20Z</time>
      </trkpt>
      <trkpt lat="42.65599" lon="1.70659">
        <ele>1635.34</ele>
        <time>2020-09-27T14:37:32Z</time>
      </trkpt>
      <trkpt lat="42.65616" lon="1.70671">
        <ele>1632.94</ele>
        <time>2020-09-27T14:37:43Z</time>
      </trkpt>
      <trkpt lat="42.65637" lon="1.70677">
        <ele>1631.01</ele>
        <time>2020-09-27T14:37:56Z</time>
      </trkpt>
      <trkpt lat="42.65659" lon="1.70669">
        <ele>1629.57</ele>
        <time>2020-09-27T14:38:09Z</time>
      </trkpt>
      <trkpt lat="42.6568" lon="1.70673">
        <ele>1627.17</ele>
        <time>2020-09-27T14:38:22Z</time>
      </trkpt>
      <trkpt lat="42.65698" lon="1.70676">
        <ele>1625.73</ele>
        <time>2020-09-27T14:38:33Z</time>
      </trkpt>
      <trkpt lat="42.65718" lon="1.70685">
        <ele>1622.36</ele>
        <time>2020-09-27T14:38:46Z</time>
      </trkpt>
      <trkpt lat="42.65737" lon="1.70686">
        <ele>1620.92</ele>
        <time>2020-09-27T14:38:58Z</time>
      </trkpt>
      <trkpt lat="42.65756" lon="1.70686">
        <ele>1617.56</ele>
        <time>2020-09-27T14:39:10Z</time>
      </trkpt>
      <trkpt lat="42.65777" lon="1.70687">
        <ele>1616.59</ele>
        <time>2020-09-27T14:39:22Z</time>
      </trkpt>
      <trkpt lat="42.65797" lon="1.70686">
        <ele>1615.63</ele>
        <time>2020-09-27T14:39:33Z</time>
      </trkpt>
      <trkpt lat="42.65817" lon="1.70687">
        <ele>1614.67</ele>
        <time>2020-09-27T14:39:45Z</time>
      </trkpt>
      <trkpt lat="42.65836" lon="1.70688">
        <ele>1612.27</ele>
        <time>2020-09-27T14:39:57Z</time>
      </trkpt>
      <trkpt lat="42.65857" lon="1.70691">
        <ele>1610.35</ele>
        <time>2020-09-27T14:40:10Z</time>
      </trkpt>
      <trkpt lat="42.65877" lon="1.7069">
        <ele>1608.42</ele>
        <time>2020-09-27T14:40:22Z</time>
      </trkpt>
      <trkpt lat="42.65896" lon="1.70691">
        <ele>1606.02</ele>
        <time>2020-09-27T14:40:34Z</time>
      </trkpt>
      <trkpt lat="42.65918" lon="1.70693">
        <ele>1604.58</ele>
        <time>2020-09-27T14:40:48Z</time>
      </trkpt>
      <trkpt lat="42.65939" lon="1.70692">
        <ele>1602.17</ele>
        <time>2020-09-27T14:41:02Z</time>
      </trkpt>
      <trkpt lat="42.65961" lon="1.70694">
        <ele>1599.29</ele>
        <time>2020-09-27T14:41:16Z</time>
      </trkpt>
      <trkpt lat="42.65983" lon="1.70696">
        <ele>1597.37</ele>
        <time>2020-09-27T14:41:29Z</time>
      </trkpt>
      <trkpt lat="42.66001" lon="1.70694">
        <ele>1595.93</ele>
        <time>2020-09-27T14:41:40Z</time>
      </trkpt>
      <trkpt lat="42.66019" lon="1.7069">
        <ele>1594</ele>
        <time>2020-09-27T14:41:52Z</time>
      </trkpt>
      <trkpt lat="42.66044" lon="1.70692">
        <ele>1594</ele>
        <time>2020-09-27T14:42:09Z</time>
      </trkpt>
      <trkpt lat="42.66068" lon="1.70696">
        <ele>1592.08</ele>
        <time>2020-09-27T14:42:25Z</time>
      </trkpt>
      <trkpt lat="42.66089" lon="1.70699">
        <ele>1589.68</ele>
        <time>2020-09-27T14:42:39Z</time>
      </trkpt>
      <trkpt lat="42.66108" lon="1.70704">
        <ele>1588.72</ele>
        <time>2020-09-27T14:42:52Z</time>
      </trkpt>
      <trkpt lat="42.66127" lon="1.70711">
        <ele>1585.83</ele>
        <time>2020-09-27T14:43:07Z</time>
      </trkpt>
      <trkpt lat="42.66145" lon="1.70719">
        <ele>1585.35</ele>
        <time>2020-09-27T14:43:21Z</time>
      </trkpt>
      <trkpt lat="42.66161" lon="1.70729">
        <ele>1585.35</ele>
        <time>2020-09-27T14:43:34Z</time>
      </trkpt>
      <trkpt lat="42.66185" lon="1.70741">
        <ele>1585.35</ele>
        <time>2020-09-27T14:43:51Z</time>
      </trkpt>
      <trkpt lat="42.66195" lon="1.70748">
        <ele>1586.79</ele>
        <time>2020-09-27T14:44:00Z</time>
      </trkpt>
      <trkpt lat="42.66213" lon="1.70762">
        <ele>1588.24</ele>
        <time>2020-09-27T14:44:16Z</time>
      </trkpt>
      <trkpt lat="42.66235" lon="1.70777">
        <ele>1589.68</ele>
        <time>2020-09-27T14:44:34Z</time>
      </trkpt>
      <trkpt lat="42.66249" lon="1.70781">
        <ele>1590.64</ele>
        <time>2020-09-27T14:44:46Z</time>
      </trkpt>
      <trkpt lat="42.66266" lon="1.7079">
        <ele>1590.64</ele>
        <time>2020-09-27T14:44:59Z</time>
      </trkpt>
      <trkpt lat="42.66291" lon="1.70794">
        <ele>1591.6</ele>
        <time>2020-09-27T14:45:18Z</time>
      </trkpt>
      <trkpt lat="42.66313" lon="1.70791">
        <ele>1591.6</ele>
        <time>2020-09-27T14:45:34Z</time>
      </trkpt>
      <trkpt lat="42.66336" lon="1.70798">
        <ele>1591.6</ele>
        <time>2020-09-27T14:45:51Z</time>
      </trkpt>
      <trkpt lat="42.6636" lon="1.70814">
        <ele>1591.6</ele>
        <time>2020-09-27T14:46:11Z</time>
      </trkpt>
      <trkpt lat="42.66363" lon="1.70816">
        <ele>1590.16</ele>
        <time>2020-09-27T14:46:13Z</time>
      </trkpt>
      <trkpt lat="42.66389" lon="1.70826">
        <ele>1589.68</ele>
        <time>2020-09-27T14:46:33Z</time>
      </trkpt>
      <trkpt lat="42.66411" lon="1.70827">
        <ele>1589.68</ele>
        <time>2020-09-27T14:46:48Z</time>
      </trkpt>
      <trkpt lat="42.66435" lon="1.70817">
        <ele>1589.2</ele>
        <time>2020-09-27T14:47:06Z</time>
      </trkpt>
      <trkpt lat="42.66459" lon="1.70808">
        <ele>1590.64</ele>
        <time>2020-09-27T14:47:24Z</time>
      </trkpt>
      <trkpt lat="42.66474" lon="1.70807">
        <ele>1590.64</ele>
        <time>2020-09-27T14:47:37Z</time>
      </trkpt>
      <trkpt lat="42.66497" lon="1.70812">
        <ele>1587.75</ele>
        <time>2020-09-27T14:47:55Z</time>
      </trkpt>
      <trkpt lat="42.66513" lon="1.70819">
        <ele>1584.87</ele>
        <time>2020-09-27T14:48:12Z</time>
      </trkpt>
      <trkpt lat="42.66524" lon="1.70828">
        <ele>1581.51</ele>
        <time>2020-09-27T14:48:25Z</time>
      </trkpt>
      <trkpt lat="42.66542" lon="1.70835">
        <ele>1578.14</ele>
        <time>2020-09-27T14:48:40Z</time>
      </trkpt>
      <trkpt lat="42.66563" lon="1.70842">
        <ele>1575.26</ele>
        <time>2020-09-27T14:48:56Z</time>
      </trkpt>
      <trkpt lat="42.66583" lon="1.70859">
        <ele>1573.33</ele>
        <time>2020-09-27T14:49:14Z</time>
      </trkpt>
      <trkpt lat="42.66592" lon="1.70865">
        <ele>1571.89</ele>
        <time>2020-09-27T14:49:27Z</time>
      </trkpt>
      <trkpt lat="42.66596" lon="1.70869">
        <ele>1571.41</ele>
        <time>2020-09-27T14:49:38Z</time>
      </trkpt>
      <trkpt lat="42.6661" lon="1.70887">
        <ele>1568.05</ele>
        <time>2020-09-27T14:49:54Z</time>
      </trkpt>
      <trkpt lat="42.66628" lon="1.70901">
        <ele>1565.64</ele>
        <time>2020-09-27T14:50:10Z</time>
      </trkpt>
      <trkpt lat="42.66648" lon="1.70913">
        <ele>1562.76</ele>
        <time>2020-09-27T14:50:26Z</time>
      </trkpt>
      <trkpt lat="42.66658" lon="1.70915">
        <ele>1561.32</ele>
        <time>2020-09-27T14:50:36Z</time>
      </trkpt>
      <trkpt lat="42.66666" lon="1.70919">
        <ele>1560.84</ele>
        <time>2020-09-27T14:50:44Z</time>
      </trkpt>
      <trkpt lat="42.66671" lon="1.70921">
        <ele>1560.36</ele>
        <time>2020-09-27T14:50:49Z</time>
      </trkpt>
      <trkpt lat="42.66693" lon="1.70929">
        <ele>1557.95</ele>
        <time>2020-09-27T14:51:07Z</time>
      </trkpt>
      <trkpt lat="42.66708" lon="1.70935">
        <ele>1556.51</ele>
        <time>2020-09-27T14:51:19Z</time>
      </trkpt>
      <trkpt lat="42.66718" lon="1.70935">
        <ele>1555.07</ele>
        <time>2020-09-27T14:51:28Z</time>
      </trkpt>
      <trkpt lat="42.66733" lon="1.70923">
        <ele>1552.67</ele>
        <time>2020-09-27T14:51:42Z</time>
      </trkpt>
      <trkpt lat="42.66747" lon="1.7091">
        <ele>1550.74</ele>
        <time>2020-09-27T14:51:55Z</time>
      </trkpt>
      <trkpt lat="42.66768" lon="1.70911">
        <ele>1548.82</ele>
        <time>2020-09-27T14:52:11Z</time>
      </trkpt>
      <trkpt lat="42.6677" lon="1.70911">
        <ele>1547.86</ele>
        <time>2020-09-27T14:52:13Z</time>
      </trkpt>
      <trkpt lat="42.66775" lon="1.70914">
        <ele>1547.38</ele>
        <time>2020-09-27T14:52:19Z</time>
      </trkpt>
      <trkpt lat="42.66795" lon="1.70918">
        <ele>1544.5</ele>
        <time>2020-09-27T14:52:34Z</time>
      </trkpt>
      <trkpt lat="42.66808" lon="1.70921">
        <ele>1543.53</ele>
        <time>2020-09-27T14:52:43Z</time>
      </trkpt>
      <trkpt lat="42.66821" lon="1.70924">
        <ele>1543.53</ele>
        <time>2020-09-27T14:52:55Z</time>
      </trkpt>
      <trkpt lat="42.66835" lon="1.70929">
        <ele>1544.5</ele>
        <time>2020-09-27T14:53:07Z</time>
      </trkpt>
      <trkpt lat="42.66851" lon="1.70934">
        <ele>1544.98</ele>
        <time>2020-09-27T14:53:18Z</time>
      </trkpt>
      <trkpt lat="42.66868" lon="1.70941">
        <ele>1544.98</ele>
        <time>2020-09-27T14:53:30Z</time>
      </trkpt>
      <trkpt lat="42.66882" lon="1.70945">
        <ele>1545.46</ele>
        <time>2020-09-27T14:53:43Z</time>
      </trkpt>
      <trkpt lat="42.66893" lon="1.70943">
        <ele>1545.46</ele>
        <time>2020-09-27T14:53:51Z</time>
      </trkpt>
      <trkpt lat="42.66916" lon="1.70935">
        <ele>1545.46</ele>
        <time>2020-09-27T14:54:05Z</time>
      </trkpt>
      <trkpt lat="42.66922" lon="1.70934">
        <ele>1545.94</ele>
        <time>2020-09-27T14:54:10Z</time>
      </trkpt>
      <trkpt lat="42.66932" lon="1.70929">
        <ele>1546.42</ele>
        <time>2020-09-27T14:54:22Z</time>
      </trkpt>
    </trkseg>
  </trk>
</gpx>